<?xml version='1.0' encoding='UTF-8'?><gpx version="1.1" creator="JPX - https://github.com/jenetics/jpx" xmlns="http://www.topografix.com/GPX/1/1"><trk><trkseg><trkpt lat="43.016886234343794" lon="10.523227801688979"><ele>2.9999999999999996</ele><time>2026-04-06T10:26:07.327Z</time></trkpt><trkpt lat="43.01683027526943" lon="10.523168757764788"><ele>3.0</ele><time>2026-04-06T10:26:10.327Z</time></trkpt><trkpt lat="43.01675647834815" lon="10.5231748487335"><ele>3.0</ele><time>2026-04-06T10:26:14.327Z</time></trkpt><trkpt lat="43.01668423011787" lon="10.523153598329475"><ele>3.0</ele><time>2026-04-06T10:26:19.327Z</time></trkpt><trkpt lat="43.01661707677343" lon="10.523142982936262"><ele>3.0</ele><time>2026-04-06T10:26:22.327Z</time></trkpt><trkpt lat="43.01655451165244" lon="10.523114633375949"><ele>2.9999999999999996</ele><time>2026-04-06T10:26:25.327Z</time></trkpt><trkpt lat="43.01647704877003" lon="10.523071859683105"><ele>3.0</ele><time>2026-04-06T10:26:29.327Z</time></trkpt><trkpt lat="43.01640429709639" lon="10.523095082929823"><ele>2.8571428571428568</ele><time>2026-04-06T10:26:33.327Z</time></trkpt><trkpt lat="43.01638668932692" lon="10.52317892531012"><ele>2.7142857142857144</ele><time>2026-04-06T10:27:09.327Z</time></trkpt><trkpt lat="43.01632435168115" lon="10.52322014141887"><ele>2.571428571428571</ele><time>2026-04-06T10:27:12.327Z</time></trkpt><trkpt lat="43.01625892566581" lon="10.523182843437063"><ele>2.4285714285714284</ele><time>2026-04-06T10:27:15.327Z</time></trkpt><trkpt lat="43.01624961079968" lon="10.523051987090195"><ele>2.2857142857142856</ele><time>2026-04-06T10:27:18.327Z</time></trkpt><trkpt lat="43.016241914097314" lon="10.522961818364337"><ele>2.142857142857143</ele><time>2026-04-06T10:27:21.327Z</time></trkpt><trkpt lat="43.01623082662554" lon="10.522857278725576"><ele>2.0</ele><time>2026-04-06T10:27:24.327Z</time></trkpt><trkpt lat="43.01622112707018" lon="10.52272053675266"><ele>1.9999999999999998</ele><time>2026-04-06T10:27:27.327Z</time></trkpt><trkpt lat="43.01621460093924" lon="10.522625320621495"><ele>2.0</ele><time>2026-04-06T10:27:29.327Z</time></trkpt><trkpt lat="43.016184788589634" lon="10.522539683478923"><ele>2.0</ele><time>2026-04-06T10:27:32.327Z</time></trkpt><trkpt lat="43.01612489849085" lon="10.522511280162151"><ele>2.0</ele><time>2026-04-06T10:27:35.327Z</time></trkpt><trkpt lat="43.01606583411893" lon="10.522466424205119"><ele>1.9999999999999998</ele><time>2026-04-06T10:27:37.327Z</time></trkpt><trkpt lat="43.01597899721089" lon="10.522425853076848"><ele>2.0</ele><time>2026-04-06T10:27:39.327Z</time></trkpt><trkpt lat="43.01589154101212" lon="10.522411776894826"><ele>2.2</ele><time>2026-04-06T10:27:41.327Z</time></trkpt><trkpt lat="43.01580142317478" lon="10.522410395083254"><ele>2.4000000000000004</ele><time>2026-04-06T10:27:43.327Z</time></trkpt><trkpt lat="43.015710384048226" lon="10.522411943353301"><ele>2.5999999999999996</ele><time>2026-04-06T10:27:45.327Z</time></trkpt><trkpt lat="43.01561731717832" lon="10.52241292501255"><ele>2.8</ele><time>2026-04-06T10:27:47.327Z</time></trkpt><trkpt lat="43.01551924928638" lon="10.522421580765304"><ele>3.0</ele><time>2026-04-06T10:27:49.327Z</time></trkpt><trkpt lat="43.015420366791105" lon="10.522423605388374"><ele>3.0</ele><time>2026-04-06T10:27:51.327Z</time></trkpt><trkpt lat="43.015323309551775" lon="10.522430571538134"><ele>3.0</ele><time>2026-04-06T10:27:53.327Z</time></trkpt><trkpt lat="43.01522327457008" lon="10.52243319638096"><ele>3.0</ele><time>2026-04-06T10:27:55.327Z</time></trkpt><trkpt lat="43.01512559370995" lon="10.522439795949248"><ele>3.0</ele><time>2026-04-06T10:27:57.327Z</time></trkpt><trkpt lat="43.01502454394739" lon="10.522444362847326"><ele>3.0</ele><time>2026-04-06T10:27:59.326Z</time></trkpt><trkpt lat="43.014924645053966" lon="10.522447577364398"><ele>3.2</ele><time>2026-04-06T10:28:01.326Z</time></trkpt><trkpt lat="43.01482359085947" lon="10.522450916643521"><ele>3.4</ele><time>2026-04-06T10:28:03.326Z</time></trkpt><trkpt lat="43.01472201030451" lon="10.522454031528422"><ele>3.6000000000000005</ele><time>2026-04-06T10:28:05.326Z</time></trkpt><trkpt lat="43.014625651508084" lon="10.522461144956404"><ele>3.8000000000000003</ele><time>2026-04-06T10:28:07.326Z</time></trkpt><trkpt lat="43.01452382489027" lon="10.52246456791458"><ele>4.0</ele><time>2026-04-06T10:28:09.326Z</time></trkpt><trkpt lat="43.014418531289984" lon="10.522459734583068"><ele>4.0</ele><time>2026-04-06T10:28:11.326Z</time></trkpt><trkpt lat="43.014317466685256" lon="10.522466706895342"><ele>4.0</ele><time>2026-04-06T10:28:13.326Z</time></trkpt><trkpt lat="43.01421705732528" lon="10.522477444548198"><ele>4.0</ele><time>2026-04-06T10:28:15.326Z</time></trkpt><trkpt lat="43.01411723109859" lon="10.522482052030487"><ele>4.0</ele><time>2026-04-06T10:28:17.326Z</time></trkpt><trkpt lat="43.01401346777568" lon="10.522483279530581"><ele>4.0</ele><time>2026-04-06T10:28:19.326Z</time></trkpt><trkpt lat="43.01391545067442" lon="10.522491801937154"><ele>4.0</ele><time>2026-04-06T10:28:21.326Z</time></trkpt><trkpt lat="43.01381766675453" lon="10.522494520952995"><ele>4.0</ele><time>2026-04-06T10:28:23.326Z</time></trkpt><trkpt lat="43.0137468512239" lon="10.522462361479583"><ele>4.0</ele><time>2026-04-06T10:28:25.326Z</time></trkpt><trkpt lat="43.013726240914" lon="10.522229653666177"><ele>4.0</ele><time>2026-04-06T10:28:29.326Z</time></trkpt><trkpt lat="43.013696707695225" lon="10.522128801861847"><ele>4.0</ele><time>2026-04-06T10:28:31.326Z</time></trkpt><trkpt lat="43.01366677190675" lon="10.522029033584984"><ele>4.0</ele><time>2026-04-06T10:28:33.326Z</time></trkpt><trkpt lat="43.013633563761" lon="10.521918359462926"><ele>4.0</ele><time>2026-04-06T10:28:35.326Z</time></trkpt><trkpt lat="43.01358476466915" lon="10.521799680580356"><ele>4.0</ele><time>2026-04-06T10:28:37.326Z</time></trkpt><trkpt lat="43.01356538550846" lon="10.521680097198658"><ele>4.0</ele><time>2026-04-06T10:28:39.326Z</time></trkpt><trkpt lat="43.01353160173227" lon="10.521557743866792"><ele>4.0</ele><time>2026-04-06T10:28:41.326Z</time></trkpt><trkpt lat="43.01349910468244" lon="10.521440050650467"><ele>4.0</ele><time>2026-04-06T10:28:43.326Z</time></trkpt><trkpt lat="43.01345163860101" lon="10.521321836120697"><ele>4.0</ele><time>2026-04-06T10:28:45.326Z</time></trkpt><trkpt lat="43.01342040108589" lon="10.521204380026441"><ele>4.0</ele><time>2026-04-06T10:28:47.326Z</time></trkpt><trkpt lat="43.01338498210119" lon="10.521085625635541"><ele>4.0</ele><time>2026-04-06T10:28:49.326Z</time></trkpt><trkpt lat="43.01334353797767" lon="10.520954480173046"><ele>4.0</ele><time>2026-04-06T10:28:51.326Z</time></trkpt><trkpt lat="43.01331511983339" lon="10.520842631954354"><ele>4.0</ele><time>2026-04-06T10:28:53.326Z</time></trkpt><trkpt lat="43.01328412568625" lon="10.52072445828817"><ele>4.0</ele><time>2026-04-06T10:28:55.326Z</time></trkpt><trkpt lat="43.01324645879114" lon="10.520612095826989"><ele>4.0</ele><time>2026-04-06T10:28:57.326Z</time></trkpt><trkpt lat="43.013221652732426" lon="10.520496792946805"><ele>4.0</ele><time>2026-04-06T10:28:59.326Z</time></trkpt><trkpt lat="43.01318618132334" lon="10.520380183723685"><ele>4.0</ele><time>2026-04-06T10:29:01.326Z</time></trkpt><trkpt lat="43.01315831128037" lon="10.520264026694505"><ele>4.2</ele><time>2026-04-06T10:29:03.326Z</time></trkpt><trkpt lat="43.013120657639085" lon="10.52014240947186"><ele>4.4</ele><time>2026-04-06T10:29:05.326Z</time></trkpt><trkpt lat="43.01309199220266" lon="10.520020962062512"><ele>4.6</ele><time>2026-04-06T10:29:07.326Z</time></trkpt><trkpt lat="43.013060564995406" lon="10.519898340124481"><ele>4.8</ele><time>2026-04-06T10:29:09.326Z</time></trkpt><trkpt lat="43.01302529860113" lon="10.519786487782087"><ele>5.0</ele><time>2026-04-06T10:29:11.326Z</time></trkpt><trkpt lat="43.012991163740395" lon="10.51966905831651"><ele>5.333333333333334</ele><time>2026-04-06T10:29:13.326Z</time></trkpt><trkpt lat="43.01297376541725" lon="10.51954804194153"><ele>5.666666666666667</ele><time>2026-04-06T10:29:15.326Z</time></trkpt><trkpt lat="43.012928023512416" lon="10.519450064828195"><ele>6.0</ele><time>2026-04-06T10:29:17.326Z</time></trkpt><trkpt lat="43.012898404859854" lon="10.519334987891053"><ele>6.333333333333334</ele><time>2026-04-06T10:29:19.326Z</time></trkpt><trkpt lat="43.01286838132611" lon="10.519222861373942"><ele>6.666666666666667</ele><time>2026-04-06T10:29:21.326Z</time></trkpt><trkpt lat="43.01285030306768" lon="10.519103858155727"><ele>7.0</ele><time>2026-04-06T10:29:23.326Z</time></trkpt><trkpt lat="43.01282393114445" lon="10.519008009232584"><ele>7.000000000000001</ele><time>2026-04-06T10:29:25.326Z</time></trkpt><trkpt lat="43.01279449503005" lon="10.518901023339494"><ele>7.0</ele><time>2026-04-06T10:29:27.326Z</time></trkpt><trkpt lat="43.01276708096921" lon="10.518801386670756"><ele>7.0</ele><time>2026-04-06T10:29:29.326Z</time></trkpt><trkpt lat="43.0127372773426" lon="10.518693065089117"><ele>7.0</ele><time>2026-04-06T10:29:31.326Z</time></trkpt><trkpt lat="43.012707873407365" lon="10.518586196165765"><ele>7.000000000000001</ele><time>2026-04-06T10:29:33.326Z</time></trkpt><trkpt lat="43.01268296716088" lon="10.518494794487436"><ele>7.0</ele><time>2026-04-06T10:29:35.326Z</time></trkpt><trkpt lat="43.01265605633435" lon="10.5183952386724"><ele>7.500000000000001</ele><time>2026-04-06T10:29:37.326Z</time></trkpt><trkpt lat="43.01262859175434" lon="10.518293634249636"><ele>8.0</ele><time>2026-04-06T10:29:39.326Z</time></trkpt><trkpt lat="43.01260138451798" lon="10.518192981900608"><ele>8.5</ele><time>2026-04-06T10:29:41.326Z</time></trkpt><trkpt lat="43.012573261174175" lon="10.518088940403102"><ele>9.0</ele><time>2026-04-06T10:29:43.326Z</time></trkpt><trkpt lat="43.01254700243433" lon="10.517991797002246"><ele>9.5</ele><time>2026-04-06T10:29:45.326Z</time></trkpt><trkpt lat="43.01252199644709" lon="10.517899288131273"><ele>10.0</ele><time>2026-04-06T10:29:47.326Z</time></trkpt><trkpt lat="43.01249741168657" lon="10.517808337489"><ele>10.0</ele><time>2026-04-06T10:29:49.326Z</time></trkpt><trkpt lat="43.01247224360917" lon="10.517715228902803"><ele>10.0</ele><time>2026-04-06T10:29:51.326Z</time></trkpt><trkpt lat="43.012446595582134" lon="10.517622747503031"><ele>10.0</ele><time>2026-04-06T10:29:53.326Z</time></trkpt><trkpt lat="43.01242166230656" lon="10.517533078249043"><ele>10.0</ele><time>2026-04-06T10:29:55.326Z</time></trkpt><trkpt lat="43.01239604325109" lon="10.517441267158327"><ele>10.0</ele><time>2026-04-06T10:29:57.326Z</time></trkpt><trkpt lat="43.0123717313356" lon="10.51735743928347"><ele>10.0</ele><time>2026-04-06T10:29:59.326Z</time></trkpt><trkpt lat="43.01233944789427" lon="10.51724642221501"><ele>10.0</ele><time>2026-04-06T10:30:02.326Z</time></trkpt><trkpt lat="43.01231458119849" lon="10.517161948112863"><ele>11.0</ele><time>2026-04-06T10:30:04.326Z</time></trkpt><trkpt lat="43.012278924502034" lon="10.517040819613547"><ele>12.0</ele><time>2026-04-06T10:30:07.324Z</time></trkpt><trkpt lat="43.012254974522506" lon="10.516959459699251"><ele>13.0</ele><time>2026-04-06T10:30:09.324Z</time></trkpt><trkpt lat="43.01223133334524" lon="10.516879148836244"><ele>14.0</ele><time>2026-04-06T10:30:11.324Z</time></trkpt><trkpt lat="43.012206282851174" lon="10.516794050391814"><ele>14.999999999999998</ele><time>2026-04-06T10:30:13.324Z</time></trkpt><trkpt lat="43.01218184050959" lon="10.51671101791114"><ele>16.0</ele><time>2026-04-06T10:30:15.324Z</time></trkpt><trkpt lat="43.01214663553824" lon="10.516591423831809"><ele>16.0</ele><time>2026-04-06T10:30:18.324Z</time></trkpt><trkpt lat="43.01210399081424" lon="10.516499956194117"><ele>15.999999999999998</ele><time>2026-04-06T10:30:21.324Z</time></trkpt><trkpt lat="43.01207957721966" lon="10.516402057516567"><ele>16.0</ele><time>2026-04-06T10:30:24.324Z</time></trkpt><trkpt lat="43.01205158604544" lon="10.516315179108604"><ele>16.0</ele><time>2026-04-06T10:30:28.324Z</time></trkpt><trkpt lat="43.01204171740043" lon="10.51622683560165"><ele>15.999999999999998</ele><time>2026-04-06T10:30:53.324Z</time></trkpt><trkpt lat="43.01201801743754" lon="10.516142488232642"><ele>16.0</ele><time>2026-04-06T10:33:37.323Z</time></trkpt><trkpt lat="43.011994953694305" lon="10.516058025075115"><ele>16.0</ele><time>2026-04-06T10:33:43.323Z</time></trkpt><trkpt lat="43.0119715112493" lon="10.515971093640644"><ele>16.666666666666664</ele><time>2026-04-06T10:33:53.323Z</time></trkpt><trkpt lat="43.011948713449634" lon="10.515886552651887"><ele>17.333333333333332</ele><time>2026-04-06T10:33:57.323Z</time></trkpt><trkpt lat="43.011916957236195" lon="10.51576879135308"><ele>18.0</ele><time>2026-04-06T10:34:00.323Z</time></trkpt><trkpt lat="43.01189346220405" lon="10.515681698775738"><ele>18.666666666666668</ele><time>2026-04-06T10:34:03.323Z</time></trkpt><trkpt lat="43.011864437284835" lon="10.515574144277512"><ele>19.333333333333336</ele><time>2026-04-06T10:34:06.323Z</time></trkpt><trkpt lat="43.0118381056929" lon="10.515477656970003"><ele>20.0</ele><time>2026-04-06T10:34:09.323Z</time></trkpt><trkpt lat="43.011812023045934" lon="10.515385007018342"><ele>19.57142857142857</ele><time>2026-04-06T10:34:13.323Z</time></trkpt><trkpt lat="43.011788500765576" lon="10.51530145205415"><ele>19.142857142857142</ele><time>2026-04-06T10:34:17.321Z</time></trkpt><trkpt lat="43.011763068735874" lon="10.515211113167132"><ele>18.714285714285715</ele><time>2026-04-06T10:34:20.321Z</time></trkpt><trkpt lat="43.01173786246104" lon="10.515121576342736"><ele>18.285714285714285</ele><time>2026-04-06T10:34:23.321Z</time></trkpt><trkpt lat="43.01170880801706" lon="10.515014688174652"><ele>17.857142857142858</ele><time>2026-04-06T10:34:26.321Z</time></trkpt><trkpt lat="43.01168555614317" lon="10.5149248446889"><ele>17.428571428571427</ele><time>2026-04-06T10:34:29.321Z</time></trkpt><trkpt lat="43.01165875271226" lon="10.514810392650894"><ele>17.0</ele><time>2026-04-06T10:34:33.321Z</time></trkpt><trkpt lat="43.0116427840718" lon="10.514712138098096"><ele>17.0</ele><time>2026-04-06T10:34:38.321Z</time></trkpt><trkpt lat="43.01162965574264" lon="10.514624378687946"><ele>17.0</ele><time>2026-04-06T10:35:07.321Z</time></trkpt><trkpt lat="43.01161454632088" lon="10.514516672486144"><ele>17.0</ele><time>2026-04-06T10:35:14.321Z</time></trkpt><trkpt lat="43.011603548787214" lon="10.514427884188372"><ele>17.0</ele><time>2026-04-06T10:35:17.321Z</time></trkpt><trkpt lat="43.011589783549965" lon="10.514316750987009"><ele>17.0</ele><time>2026-04-06T10:35:20.321Z</time></trkpt><trkpt lat="43.01157437315015" lon="10.514192335566355"><ele>17.0</ele><time>2026-04-06T10:35:23.321Z</time></trkpt><trkpt lat="43.01156204129145" lon="10.514069994119422"><ele>17.833333333333336</ele><time>2026-04-06T10:35:26.321Z</time></trkpt><trkpt lat="43.01155307790399" lon="10.513973424188881"><ele>18.666666666666668</ele><time>2026-04-06T10:35:28.321Z</time></trkpt><trkpt lat="43.01154790255419" lon="10.513883593439841"><ele>19.5</ele><time>2026-04-06T10:35:30.321Z</time></trkpt><trkpt lat="43.01154237025152" lon="10.513782622751686"><ele>20.333333333333332</ele><time>2026-04-06T10:35:32.321Z</time></trkpt><trkpt lat="43.01153784857713" lon="10.513682587547077"><ele>21.166666666666664</ele><time>2026-04-06T10:35:34.321Z</time></trkpt><trkpt lat="43.01153403323383" lon="10.513581285472803"><ele>22.0</ele><time>2026-04-06T10:35:36.321Z</time></trkpt><trkpt lat="43.011534196729116" lon="10.513451668983677"><ele>22.200000000000003</ele><time>2026-04-06T10:35:39.321Z</time></trkpt><trkpt lat="43.01153351452158" lon="10.513354215590708"><ele>22.4</ele><time>2026-04-06T10:35:41.321Z</time></trkpt><trkpt lat="43.011532838733274" lon="10.513257679417254"><ele>22.6</ele><time>2026-04-06T10:35:43.321Z</time></trkpt><trkpt lat="43.01153725259624" lon="10.513151159659353"><ele>22.799999999999997</ele><time>2026-04-06T10:35:46.321Z</time></trkpt><trkpt lat="43.01155235975113" lon="10.513054766800444"><ele>23.0</ele><time>2026-04-06T10:35:50.321Z</time></trkpt><trkpt lat="43.01095635537493" lon="10.512851649495353"><ele>23.0</ele><time>2026-04-06T10:36:01.321Z</time></trkpt><trkpt lat="43.01089220703729" lon="10.512857773536826"><ele>23.0</ele><time>2026-04-06T10:36:04.321Z</time></trkpt><trkpt lat="43.01081833385255" lon="10.512843122113495"><ele>23.0</ele><time>2026-04-06T10:36:07.321Z</time></trkpt><trkpt lat="43.010741062845334" lon="10.512832561732809"><ele>23.0</ele><time>2026-04-06T10:36:10.321Z</time></trkpt><trkpt lat="43.01065236438908" lon="10.512856674990454"><ele>23.0</ele><time>2026-04-06T10:36:12.321Z</time></trkpt><trkpt lat="43.010580970297774" lon="10.512824583415831"><ele>23.0</ele><time>2026-04-06T10:36:14.321Z</time></trkpt><trkpt lat="43.01050281027638" lon="10.512833059799794"><ele>22.571428571428573</ele><time>2026-04-06T10:36:17.321Z</time></trkpt><trkpt lat="43.01051101647763" lon="10.51272493901333"><ele>22.142857142857142</ele><time>2026-04-06T10:36:26.319Z</time></trkpt><trkpt lat="43.01051049460921" lon="10.512618320773193"><ele>21.714285714285715</ele><time>2026-04-06T10:36:28.319Z</time></trkpt><trkpt lat="43.01047197018344" lon="10.512538033358343"><ele>21.285714285714285</ele><time>2026-04-06T10:36:33.319Z</time></trkpt><trkpt lat="43.0104367782626" lon="10.512451647351748"><ele>20.857142857142858</ele><time>2026-04-06T10:36:39.319Z</time></trkpt><trkpt lat="43.0104366099863" lon="10.512357430284549"><ele>20.428571428571427</ele><time>2026-04-06T10:36:44.319Z</time></trkpt><trkpt lat="43.010440935272335" lon="10.512265537765238"><ele>20.0</ele><time>2026-04-06T10:37:02.319Z</time></trkpt><trkpt lat="43.01044066809005" lon="10.512364279631841"><ele>20.0</ele><time>2026-04-06T10:37:43.319Z</time></trkpt><trkpt lat="43.010443417276" lon="10.512475960422266"><ele>20.0</ele><time>2026-04-06T10:38:10.319Z</time></trkpt><trkpt lat="43.01047170009768" lon="10.512567278950065"><ele>20.0</ele><time>2026-04-06T10:38:21.319Z</time></trkpt><trkpt lat="43.01050098476124" lon="10.512661798831534"><ele>20.0</ele><time>2026-04-06T10:38:27.319Z</time></trkpt><trkpt lat="43.010498570022826" lon="10.512752814943521"><ele>20.0</ele><time>2026-04-06T10:38:30.317Z</time></trkpt><trkpt lat="43.0104813990895" lon="10.512850862328289"><ele>20.0</ele><time>2026-04-06T10:38:34.317Z</time></trkpt><trkpt lat="43.01041322701346" lon="10.512887794989362"><ele>20.0</ele><time>2026-04-06T10:38:37.317Z</time></trkpt><trkpt lat="43.010354122636734" lon="10.51281646415325"><ele>20.0</ele><time>2026-04-06T10:38:40.317Z</time></trkpt><trkpt lat="43.0103007731261" lon="10.512743220634233"><ele>20.0</ele><time>2026-04-06T10:38:44.317Z</time></trkpt><trkpt lat="43.01023521865915" lon="10.512696992985326"><ele>20.0</ele><time>2026-04-06T10:38:47.317Z</time></trkpt><trkpt lat="43.01016622040286" lon="10.512646238757181"><ele>20.0</ele><time>2026-04-06T10:38:50.317Z</time></trkpt><trkpt lat="43.01009402426173" lon="10.512620953306264"><ele>20.0</ele><time>2026-04-06T10:38:53.317Z</time></trkpt><trkpt lat="43.01002235972966" lon="10.512628683145703"><ele>20.0</ele><time>2026-04-06T10:38:55.317Z</time></trkpt><trkpt lat="43.009967230167334" lon="10.512562935870497"><ele>20.0</ele><time>2026-04-06T10:38:57.317Z</time></trkpt><trkpt lat="43.009903769472295" lon="10.512510585046549"><ele>19.666666666666668</ele><time>2026-04-06T10:38:59.317Z</time></trkpt><trkpt lat="43.00981782005152" lon="10.512531598207447"><ele>19.333333333333336</ele><time>2026-04-06T10:39:01.317Z</time></trkpt><trkpt lat="43.009734401247314" lon="10.512567714830997"><ele>19.0</ele><time>2026-04-06T10:39:03.317Z</time></trkpt><trkpt lat="43.00965809997951" lon="10.512571304800208"><ele>18.666666666666668</ele><time>2026-04-06T10:39:05.317Z</time></trkpt><trkpt lat="43.009592414518934" lon="10.512557256563085"><ele>18.333333333333332</ele><time>2026-04-06T10:39:07.317Z</time></trkpt><trkpt lat="43.009535057363024" lon="10.512520134997935"><ele>18.0</ele><time>2026-04-06T10:39:09.317Z</time></trkpt><trkpt lat="43.009461387905404" lon="10.512483598344287"><ele>18.000000000000004</ele><time>2026-04-06T10:39:11.317Z</time></trkpt><trkpt lat="43.00939220807445" lon="10.512473522660747"><ele>18.0</ele><time>2026-04-06T10:39:13.317Z</time></trkpt><trkpt lat="43.009318558889824" lon="10.512449345199752"><ele>18.0</ele><time>2026-04-06T10:39:15.317Z</time></trkpt><trkpt lat="43.00926770895604" lon="10.512372758433873"><ele>18.0</ele><time>2026-04-06T10:39:18.317Z</time></trkpt><trkpt lat="43.00920026157737" lon="10.512347325848097"><ele>18.0</ele><time>2026-04-06T10:39:21.317Z</time></trkpt><trkpt lat="43.00912899346681" lon="10.51234436391233"><ele>18.000000000000004</ele><time>2026-04-06T10:39:23.317Z</time></trkpt><trkpt lat="43.0090603250137" lon="10.512299528645258"><ele>18.0</ele><time>2026-04-06T10:39:26.317Z</time></trkpt><trkpt lat="43.0089952956524" lon="10.512241684681614"><ele>18.000000000000004</ele><time>2026-04-06T10:39:29.317Z</time></trkpt><trkpt lat="43.00892192115551" lon="10.512197466494543"><ele>18.0</ele><time>2026-04-06T10:39:32.317Z</time></trkpt><trkpt lat="43.00888657001026" lon="10.512123786631365"><ele>18.0</ele><time>2026-04-06T10:39:42.317Z</time></trkpt><trkpt lat="43.008867426239696" lon="10.512034399694695"><ele>18.0</ele><time>2026-04-06T10:39:54.317Z</time></trkpt><trkpt lat="43.008847723032275" lon="10.511948272539321"><ele>18.0</ele><time>2026-04-06T10:40:02.317Z</time></trkpt><trkpt lat="43.00883476554169" lon="10.511850627033127"><ele>18.000000000000004</ele><time>2026-04-06T10:40:08.317Z</time></trkpt><trkpt lat="43.00882898663967" lon="10.511760014701169"><ele>18.0</ele><time>2026-04-06T10:40:16.317Z</time></trkpt><trkpt lat="43.00878382572436" lon="10.511689769505011"><ele>17.42857142857143</ele><time>2026-04-06T10:40:33.317Z</time></trkpt><trkpt lat="43.00878767041376" lon="10.511603484809688"><ele>16.857142857142858</ele><time>2026-04-06T10:40:42.315Z</time></trkpt><trkpt lat="43.0088297295136" lon="10.51153566395366"><ele>16.285714285714285</ele><time>2026-04-06T10:40:49.315Z</time></trkpt><trkpt lat="43.00887818929255" lon="10.511592719621769"><ele>15.714285714285715</ele><time>2026-04-06T10:42:00.315Z</time></trkpt><trkpt lat="43.008831899165855" lon="10.511653932128022"><ele>15.142857142857142</ele><time>2026-04-06T10:42:08.315Z</time></trkpt><trkpt lat="43.008846802706216" lon="10.51174101743627"><ele>14.571428571428571</ele><time>2026-04-06T10:42:16.315Z</time></trkpt><trkpt lat="43.0088301777971" lon="10.51184773590676"><ele>14.0</ele><time>2026-04-06T10:42:47.313Z</time></trkpt><trkpt lat="43.0088529606233" lon="10.511934200250883"><ele>14.000000000000002</ele><time>2026-04-06T10:42:50.312Z</time></trkpt><trkpt lat="43.008807806278725" lon="10.512049619405559"><ele>14.0</ele><time>2026-04-06T10:42:53.312Z</time></trkpt><trkpt lat="43.00873610530199" lon="10.51208501745018"><ele>14.0</ele><time>2026-04-06T10:42:55.312Z</time></trkpt><trkpt lat="43.008671282574554" lon="10.512042076717682"><ele>14.0</ele><time>2026-04-06T10:42:57.312Z</time></trkpt><trkpt lat="43.00858984990298" lon="10.512012733851618"><ele>14.000000000000002</ele><time>2026-04-06T10:43:01.312Z</time></trkpt><trkpt lat="43.00854317220775" lon="10.511952900270334"><ele>14.0</ele><time>2026-04-06T10:43:05.312Z</time></trkpt><trkpt lat="43.008480782145625" lon="10.511895856298164"><ele>14.0</ele><time>2026-04-06T10:43:08.312Z</time></trkpt><trkpt lat="43.008424038856056" lon="10.511833331384798"><ele>14.0</ele><time>2026-04-06T10:43:11.312Z</time></trkpt><trkpt lat="43.00835336642265" lon="10.511811851505119"><ele>14.0</ele><time>2026-04-06T10:43:14.312Z</time></trkpt><trkpt lat="43.008282885053724" lon="10.51183208225771"><ele>14.0</ele><time>2026-04-06T10:43:17.312Z</time></trkpt><trkpt lat="43.00821609612026" lon="10.511807262094273"><ele>14.0</ele><time>2026-04-06T10:43:20.312Z</time></trkpt><trkpt lat="43.00814811328611" lon="10.511774353548805"><ele>14.0</ele><time>2026-04-06T10:43:22.312Z</time></trkpt><trkpt lat="43.008072066966896" lon="10.51176978315439"><ele>14.0</ele><time>2026-04-06T10:43:24.312Z</time></trkpt><trkpt lat="43.00799414132029" lon="10.511796274099154"><ele>15.0</ele><time>2026-04-06T10:43:26.312Z</time></trkpt><trkpt lat="43.007902006084755" lon="10.511795733986078"><ele>16.0</ele><time>2026-04-06T10:43:28.312Z</time></trkpt><trkpt lat="43.00783289748382" lon="10.511850543439385"><ele>17.0</ele><time>2026-04-06T10:43:31.312Z</time></trkpt><trkpt lat="43.007763412317885" lon="10.511875571555764"><ele>18.0</ele><time>2026-04-06T10:43:34.312Z</time></trkpt><trkpt lat="43.007703117830964" lon="10.511835359946204"><ele>19.0</ele><time>2026-04-06T10:43:36.312Z</time></trkpt><trkpt lat="43.00763638733658" lon="10.511848901864623"><ele>20.0</ele><time>2026-04-06T10:43:38.312Z</time></trkpt><trkpt lat="43.007580935241975" lon="10.511900422897492"><ele>21.0</ele><time>2026-04-06T10:43:41.312Z</time></trkpt><trkpt lat="43.00751018071717" lon="10.51194091685914"><ele>20.428571428571427</ele><time>2026-04-06T10:43:44.312Z</time></trkpt><trkpt lat="43.007457871999414" lon="10.511995747782175"><ele>19.857142857142858</ele><time>2026-04-06T10:43:46.312Z</time></trkpt><trkpt lat="43.00740051900009" lon="10.512036003549436"><ele>19.285714285714285</ele><time>2026-04-06T10:43:48.312Z</time></trkpt><trkpt lat="43.00733683297233" lon="10.512075583113416"><ele>18.714285714285715</ele><time>2026-04-06T10:43:50.312Z</time></trkpt><trkpt lat="43.00727304724113" lon="10.512113154356367"><ele>18.142857142857142</ele><time>2026-04-06T10:43:52.312Z</time></trkpt><trkpt lat="43.0071898203708" lon="10.512159343164205"><ele>17.57142857142857</ele><time>2026-04-06T10:43:54.312Z</time></trkpt><trkpt lat="43.007113656290926" lon="10.512205518252754"><ele>17.0</ele><time>2026-04-06T10:43:56.312Z</time></trkpt><trkpt lat="43.00704185923246" lon="10.512257360299445"><ele>16.999999999999996</ele><time>2026-04-06T10:43:58.312Z</time></trkpt><trkpt lat="43.00696012067813" lon="10.51230169114539"><ele>17.0</ele><time>2026-04-06T10:44:00.312Z</time></trkpt><trkpt lat="43.00688708479185" lon="10.51235721439176"><ele>17.0</ele><time>2026-04-06T10:44:02.313Z</time></trkpt><trkpt lat="43.006823035942155" lon="10.512404919069832"><ele>17.0</ele><time>2026-04-06T10:44:04.313Z</time></trkpt><trkpt lat="43.00676283846964" lon="10.512442010157326"><ele>17.0</ele><time>2026-04-06T10:44:06.313Z</time></trkpt><trkpt lat="43.006706987489316" lon="10.512490037253148"><ele>16.999999999999996</ele><time>2026-04-06T10:44:08.313Z</time></trkpt><trkpt lat="43.006649302682085" lon="10.512527407377295"><ele>17.0</ele><time>2026-04-06T10:44:10.313Z</time></trkpt><trkpt lat="43.00656778643847" lon="10.512580748899344"><ele>15.428571428571427</ele><time>2026-04-06T10:44:12.313Z</time></trkpt><trkpt lat="43.006491996896706" lon="10.512621614681835"><ele>13.857142857142856</ele><time>2026-04-06T10:44:14.313Z</time></trkpt><trkpt lat="43.00643337649532" lon="10.512672590610158"><ele>12.285714285714285</ele><time>2026-04-06T10:44:16.313Z</time></trkpt><trkpt lat="43.00637284470944" lon="10.512711279164579"><ele>10.714285714285714</ele><time>2026-04-06T10:44:18.313Z</time></trkpt><trkpt lat="43.00631953075453" lon="10.512771621695313"><ele>9.142857142857142</ele><time>2026-04-06T10:44:20.313Z</time></trkpt><trkpt lat="43.006255038139564" lon="10.51280023131132"><ele>7.571428571428571</ele><time>2026-04-06T10:44:22.313Z</time></trkpt><trkpt lat="43.00618472040865" lon="10.512848743285122"><ele>6.0</ele><time>2026-04-06T10:44:25.313Z</time></trkpt><trkpt lat="43.006126605531946" lon="10.512894064054938"><ele>6.5</ele><time>2026-04-06T10:44:27.313Z</time></trkpt><trkpt lat="43.00604281019927" lon="10.512948843741498"><ele>7.0</ele><time>2026-04-06T10:44:29.313Z</time></trkpt><trkpt lat="43.005970816060405" lon="10.513001657408658"><ele>7.5</ele><time>2026-04-06T10:44:31.313Z</time></trkpt><trkpt lat="43.005875555163875" lon="10.513069382084712"><ele>8.0</ele><time>2026-04-06T10:44:33.313Z</time></trkpt><trkpt lat="43.00580015363895" lon="10.513121401286734"><ele>8.5</ele><time>2026-04-06T10:44:35.313Z</time></trkpt><trkpt lat="43.00572776873064" lon="10.513172392490663"><ele>9.0</ele><time>2026-04-06T10:44:37.313Z</time></trkpt><trkpt lat="43.00565452786152" lon="10.513204260510717"><ele>9.0</ele><time>2026-04-06T10:44:39.313Z</time></trkpt><trkpt lat="43.00556486702377" lon="10.513219344257022"><ele>9.0</ele><time>2026-04-06T10:44:42.313Z</time></trkpt><trkpt lat="43.00549218785746" lon="10.513195136673959"><ele>9.0</ele><time>2026-04-06T10:44:45.313Z</time></trkpt><trkpt lat="43.005441755477754" lon="10.513115988640493"><ele>9.0</ele><time>2026-04-06T10:44:48.311Z</time></trkpt><trkpt lat="43.00541483324247" lon="10.513029884005945"><ele>9.0</ele><time>2026-04-06T10:44:51.311Z</time></trkpt><trkpt lat="43.005355129628875" lon="10.512950067098002"><ele>9.0</ele><time>2026-04-06T10:44:54.311Z</time></trkpt><trkpt lat="43.0052978049234" lon="10.512903319962167"><ele>9.000000000000002</ele><time>2026-04-06T10:44:57.31Z</time></trkpt><trkpt lat="43.00523125416153" lon="10.512871964735911"><ele>9.0</ele><time>2026-04-06T10:45:00.31Z</time></trkpt><trkpt lat="43.00517252404149" lon="10.512828912621291"><ele>9.0</ele><time>2026-04-06T10:45:04.31Z</time></trkpt><trkpt lat="43.00511557718263" lon="10.512748465426837"><ele>9.0</ele><time>2026-04-06T10:45:08.31Z</time></trkpt><trkpt lat="43.00505690463666" lon="10.512710382580469"><ele>9.0</ele><time>2026-04-06T10:45:11.31Z</time></trkpt><trkpt lat="43.004994156874986" lon="10.512662398298401"><ele>9.000000000000002</ele><time>2026-04-06T10:45:14.31Z</time></trkpt><trkpt lat="43.00495268733912" lon="10.512557873554957"><ele>9.0</ele><time>2026-04-06T10:45:17.31Z</time></trkpt><trkpt lat="43.00490581568381" lon="10.5124833211303"><ele>9.000000000000002</ele><time>2026-04-06T10:45:28.31Z</time></trkpt><trkpt lat="43.00490861337944" lon="10.51239648582692"><ele>9.0</ele><time>2026-04-06T10:46:03.311Z</time></trkpt><trkpt lat="43.004842477201386" lon="10.51241575874886"><ele>9.0</ele><time>2026-04-06T10:46:33.311Z</time></trkpt><trkpt lat="43.0047807837607" lon="10.512392184041744"><ele>9.0</ele><time>2026-04-06T10:46:40.311Z</time></trkpt><trkpt lat="43.00471165039656" lon="10.512374153039666"><ele>9.0</ele><time>2026-04-06T10:46:48.311Z</time></trkpt><trkpt lat="43.004644366464476" lon="10.512381387373297"><ele>9.000000000000002</ele><time>2026-04-06T10:46:56.308Z</time></trkpt><trkpt lat="43.00458281990455" lon="10.512454058525718"><ele>9.0</ele><time>2026-04-06T10:47:13.308Z</time></trkpt><trkpt lat="43.004528331568686" lon="10.51250992219355"><ele>9.000000000000002</ele><time>2026-04-06T10:47:16.308Z</time></trkpt><trkpt lat="43.004471523553" lon="10.512572351060472"><ele>9.0</ele><time>2026-04-06T10:47:18.308Z</time></trkpt><trkpt lat="43.00439297577174" lon="10.51256311944251"><ele>9.0</ele><time>2026-04-06T10:47:21.308Z</time></trkpt><trkpt lat="43.00432669914772" lon="10.512577332435857"><ele>9.0</ele><time>2026-04-06T10:47:25.308Z</time></trkpt><trkpt lat="43.00425127902629" lon="10.512596861740912"><ele>9.0</ele><time>2026-04-06T10:47:28.308Z</time></trkpt><trkpt lat="43.004196894876905" lon="10.512656888830385"><ele>9.000000000000002</ele><time>2026-04-06T10:47:31.308Z</time></trkpt><trkpt lat="43.004137608374045" lon="10.512698613727805"><ele>9.0</ele><time>2026-04-06T10:47:34.308Z</time></trkpt><trkpt lat="43.00407756209442" lon="10.512751771323451"><ele>8.5</ele><time>2026-04-06T10:47:37.308Z</time></trkpt><trkpt lat="43.00402405889264" lon="10.51283685905417"><ele>8.0</ele><time>2026-04-06T10:47:40.308Z</time></trkpt><trkpt lat="43.00395342701619" lon="10.512881281328479"><ele>7.5</ele><time>2026-04-06T10:47:44.308Z</time></trkpt><trkpt lat="43.00388399875345" lon="10.512920181720366"><ele>7.0</ele><time>2026-04-06T10:47:47.308Z</time></trkpt><trkpt lat="43.003813707731666" lon="10.51299264360719"><ele>6.5</ele><time>2026-04-06T10:47:50.308Z</time></trkpt><trkpt lat="43.00377099927495" lon="10.51306655957422"><ele>6.0</ele><time>2026-04-06T10:47:52.308Z</time></trkpt><trkpt lat="43.003725027421645" lon="10.513135449374264"><ele>5.999999999999999</ele><time>2026-04-06T10:47:54.308Z</time></trkpt><trkpt lat="43.003674672174355" lon="10.5132039302151"><ele>6.0</ele><time>2026-04-06T10:47:56.308Z</time></trkpt><trkpt lat="43.00362221546639" lon="10.513273261236574"><ele>6.0</ele><time>2026-04-06T10:47:58.308Z</time></trkpt><trkpt lat="43.003566290954254" lon="10.513336424806822"><ele>6.0</ele><time>2026-04-06T10:48:00.308Z</time></trkpt><trkpt lat="43.003527508760925" lon="10.513410489338685"><ele>6.0</ele><time>2026-04-06T10:48:02.308Z</time></trkpt><trkpt lat="43.00348558163325" lon="10.513487818208981"><ele>5.999999999999999</ele><time>2026-04-06T10:48:04.308Z</time></trkpt><trkpt lat="43.00343656292488" lon="10.513557129979471"><ele>6.0</ele><time>2026-04-06T10:48:06.308Z</time></trkpt><trkpt lat="43.00340471982755" lon="10.51363600957559"><ele>6.0</ele><time>2026-04-06T10:48:08.308Z</time></trkpt><trkpt lat="43.003366588979056" lon="10.513726308751435"><ele>6.0</ele><time>2026-04-06T10:48:10.308Z</time></trkpt><trkpt lat="43.00332844478181" lon="10.513805771788805"><ele>6.0</ele><time>2026-04-06T10:48:12.308Z</time></trkpt><trkpt lat="43.003293490846275" lon="10.513895834954768"><ele>6.0</ele><time>2026-04-06T10:48:14.308Z</time></trkpt><trkpt lat="43.00326648484393" lon="10.513992182845483"><ele>6.0</ele><time>2026-04-06T10:48:16.308Z</time></trkpt><trkpt lat="43.003237849949976" lon="10.514107346371786"><ele>6.0</ele><time>2026-04-06T10:48:19.308Z</time></trkpt><trkpt lat="43.00319727777059" lon="10.514180241788841"><ele>5.833333333333333</ele><time>2026-04-06T10:48:21.308Z</time></trkpt><trkpt lat="43.003159033501966" lon="10.514295130064841"><ele>5.666666666666667</ele><time>2026-04-06T10:48:24.308Z</time></trkpt><trkpt lat="43.00314308508374" lon="10.51439054573447"><ele>5.5</ele><time>2026-04-06T10:48:26.308Z</time></trkpt><trkpt lat="43.003129178397764" lon="10.514499804571388"><ele>5.333333333333334</ele><time>2026-04-06T10:48:28.308Z</time></trkpt><trkpt lat="43.00310507806077" lon="10.514596161955778"><ele>5.166666666666667</ele><time>2026-04-06T10:48:30.308Z</time></trkpt><trkpt lat="43.00305678398908" lon="10.514666600430308"><ele>5.0</ele><time>2026-04-06T10:48:32.308Z</time></trkpt><trkpt lat="43.00297868295769" lon="10.514726610499723"><ele>5.0</ele><time>2026-04-06T10:48:35.308Z</time></trkpt><trkpt lat="43.00293402794308" lon="10.514796830835149"><ele>5.0</ele><time>2026-04-06T10:48:37.308Z</time></trkpt><trkpt lat="43.002893160647936" lon="10.514883177570235"><ele>5.0</ele><time>2026-04-06T10:48:40.308Z</time></trkpt><trkpt lat="43.0028704413099" lon="10.514964739750898"><ele>5.0</ele><time>2026-04-06T10:48:42.308Z</time></trkpt><trkpt lat="43.00284344453321" lon="10.515058453563494"><ele>5.0</ele><time>2026-04-06T10:48:44.308Z</time></trkpt><trkpt lat="43.00280807580353" lon="10.515135050073887"><ele>5.0</ele><time>2026-04-06T10:48:46.308Z</time></trkpt><trkpt lat="43.002788406318686" lon="10.515247337525016"><ele>5.0</ele><time>2026-04-06T10:48:50.308Z</time></trkpt><trkpt lat="43.0027944886875" lon="10.515375089027138"><ele>6.0</ele><time>2026-04-06T10:48:53.308Z</time></trkpt><trkpt lat="43.00280679670062" lon="10.515487288443103"><ele>7.0</ele><time>2026-04-06T10:48:56.308Z</time></trkpt><trkpt lat="43.00279525040655" lon="10.515584077343147"><ele>8.0</ele><time>2026-04-06T10:48:58.308Z</time></trkpt><trkpt lat="43.00277711451807" lon="10.515671491664005"><ele>9.0</ele><time>2026-04-06T10:49:00.307Z</time></trkpt><trkpt lat="43.002760795646125" lon="10.515775991235088"><ele>10.0</ele><time>2026-04-06T10:49:03.307Z</time></trkpt><trkpt lat="43.00273603568224" lon="10.51586379950672"><ele>11.0</ele><time>2026-04-06T10:49:05.307Z</time></trkpt><trkpt lat="43.00269333110569" lon="10.51598695513522"><ele>11.0</ele><time>2026-04-06T10:49:08.307Z</time></trkpt><trkpt lat="43.00264136077789" lon="10.516075408049465"><ele>11.0</ele><time>2026-04-06T10:49:10.307Z</time></trkpt><trkpt lat="43.00259988336901" lon="10.516159035977104"><ele>11.0</ele><time>2026-04-06T10:49:12.307Z</time></trkpt><trkpt lat="43.002545205131035" lon="10.51622473201285"><ele>11.0</ele><time>2026-04-06T10:49:16.307Z</time></trkpt><trkpt lat="43.00245416712706" lon="10.516265467806527"><ele>11.0</ele><time>2026-04-06T10:49:19.307Z</time></trkpt><trkpt lat="43.00240086799866" lon="10.516313024423036"><ele>11.0</ele><time>2026-04-06T10:49:21.307Z</time></trkpt><trkpt lat="43.00233523676223" lon="10.516398107305355"><ele>10.666666666666666</ele><time>2026-04-06T10:49:24.307Z</time></trkpt><trkpt lat="43.00225776202102" lon="10.516437142736569"><ele>10.333333333333332</ele><time>2026-04-06T10:49:27.307Z</time></trkpt><trkpt lat="43.00218234142204" lon="10.516442270023866"><ele>10.0</ele><time>2026-04-06T10:49:30.307Z</time></trkpt><trkpt lat="43.00209568476454" lon="10.516486579710463"><ele>9.666666666666666</ele><time>2026-04-06T10:49:33.307Z</time></trkpt><trkpt lat="43.00202406203163" lon="10.516569561012721"><ele>9.333333333333334</ele><time>2026-04-06T10:49:35.307Z</time></trkpt><trkpt lat="43.00196470342429" lon="10.516647299813698"><ele>9.0</ele><time>2026-04-06T10:49:37.307Z</time></trkpt><trkpt lat="43.0019176358063" lon="10.516710077499837"><ele>9.000000000000002</ele><time>2026-04-06T10:49:39.307Z</time></trkpt><trkpt lat="43.001860851535135" lon="10.51678560058836"><ele>9.0</ele><time>2026-04-06T10:49:42.307Z</time></trkpt><trkpt lat="43.00179865114328" lon="10.51684764758616"><ele>9.0</ele><time>2026-04-06T10:49:45.307Z</time></trkpt><trkpt lat="43.001743115241695" lon="10.51691523450043"><ele>9.0</ele><time>2026-04-06T10:49:48.307Z</time></trkpt><trkpt lat="43.00169993453637" lon="10.516991636963258"><ele>9.0</ele><time>2026-04-06T10:49:51.307Z</time></trkpt><trkpt lat="43.00164750132284" lon="10.517064852262491"><ele>9.000000000000002</ele><time>2026-04-06T10:49:54.307Z</time></trkpt><trkpt lat="43.00162667639959" lon="10.517153669625094"><ele>9.0</ele><time>2026-04-06T10:49:57.307Z</time></trkpt><trkpt lat="43.00163909573791" lon="10.517238838028073"><ele>10.5</ele><time>2026-04-06T10:50:01.307Z</time></trkpt><trkpt lat="43.001685042378504" lon="10.51732037266103"><ele>12.0</ele><time>2026-04-06T10:50:50.307Z</time></trkpt><trkpt lat="43.00171112581749" lon="10.517437056975451"><ele>13.5</ele><time>2026-04-06T10:50:55.307Z</time></trkpt><trkpt lat="43.00173627561777" lon="10.517532345522731"><ele>15.0</ele><time>2026-04-06T10:50:59.307Z</time></trkpt><trkpt lat="43.00171159341129" lon="10.517640882718057"><ele>16.5</ele><time>2026-04-06T10:51:03.307Z</time></trkpt><trkpt lat="43.001635238914865" lon="10.517670401447607"><ele>18.0</ele><time>2026-04-06T10:51:06.305Z</time></trkpt><trkpt lat="43.00154708746405" lon="10.517706960603649"><ele>18.142857142857146</ele><time>2026-04-06T10:51:09.305Z</time></trkpt><trkpt lat="43.00146476820302" lon="10.517742325620238"><ele>18.285714285714285</ele><time>2026-04-06T10:51:12.305Z</time></trkpt><trkpt lat="43.001385194293" lon="10.517711634301682"><ele>18.42857142857143</ele><time>2026-04-06T10:51:15.305Z</time></trkpt><trkpt lat="43.00136295423816" lon="10.517620025121804"><ele>18.571428571428573</ele><time>2026-04-06T10:51:17.305Z</time></trkpt><trkpt lat="43.0013531952559" lon="10.517532519527013"><ele>18.714285714285715</ele><time>2026-04-06T10:51:19.305Z</time></trkpt><trkpt lat="43.00134203630007" lon="10.517444350815794"><ele>18.857142857142858</ele><time>2026-04-06T10:51:21.305Z</time></trkpt><trkpt lat="43.001322138765666" lon="10.517359782695642"><ele>19.0</ele><time>2026-04-06T10:51:24.305Z</time></trkpt><trkpt lat="43.001298095149366" lon="10.517278975549383"><ele>19.0</ele><time>2026-04-06T10:51:28.305Z</time></trkpt><trkpt lat="43.00124628125926" lon="10.517211396420503"><ele>19.0</ele><time>2026-04-06T10:51:32.305Z</time></trkpt><trkpt lat="43.001180610216466" lon="10.517211649231896"><ele>19.0</ele><time>2026-04-06T10:51:34.305Z</time></trkpt><trkpt lat="43.00110161610641" lon="10.517223043831265"><ele>19.0</ele><time>2026-04-06T10:51:37.305Z</time></trkpt><trkpt lat="43.00102721207565" lon="10.517222693476262"><ele>19.0</ele><time>2026-04-06T10:51:40.305Z</time></trkpt><trkpt lat="43.00094671710298" lon="10.51723561401656"><ele>19.0</ele><time>2026-04-06T10:51:43.305Z</time></trkpt><trkpt lat="43.00088174181557" lon="10.517235425063017"><ele>19.0</ele><time>2026-04-06T10:51:45.305Z</time></trkpt><trkpt lat="43.00078376147999" lon="10.517241487126725"><ele>18.833333333333332</ele><time>2026-04-06T10:51:48.305Z</time></trkpt><trkpt lat="43.00071953006301" lon="10.517222011097132"><ele>18.666666666666664</ele><time>2026-04-06T10:51:50.305Z</time></trkpt><trkpt lat="43.00062877183934" lon="10.517215521753783"><ele>18.5</ele><time>2026-04-06T10:51:53.305Z</time></trkpt><trkpt lat="43.00055813916222" lon="10.517206816072486"><ele>18.333333333333332</ele><time>2026-04-06T10:51:55.305Z</time></trkpt><trkpt lat="43.000495329774424" lon="10.517191438635326"><ele>18.166666666666668</ele><time>2026-04-06T10:51:57.305Z</time></trkpt><trkpt lat="43.00040947057856" lon="10.517165294295305"><ele>18.0</ele><time>2026-04-06T10:51:59.305Z</time></trkpt><trkpt lat="43.00033223447737" lon="10.517145325419529"><ele>18.0</ele><time>2026-04-06T10:52:01.305Z</time></trkpt><trkpt lat="43.00025462652838" lon="10.5171272677682"><ele>18.0</ele><time>2026-04-06T10:52:03.305Z</time></trkpt><trkpt lat="43.00018708819751" lon="10.51710418379775"><ele>18.0</ele><time>2026-04-06T10:52:05.305Z</time></trkpt><trkpt lat="43.00010632077069" lon="10.517096740444133"><ele>18.0</ele><time>2026-04-06T10:52:07.305Z</time></trkpt><trkpt lat="43.000028721908734" lon="10.517092592134752"><ele>18.0</ele><time>2026-04-06T10:52:09.305Z</time></trkpt><trkpt lat="42.9999591442515" lon="10.517077878749905"><ele>18.0</ele><time>2026-04-06T10:52:11.305Z</time></trkpt><trkpt lat="42.999873631500506" lon="10.517071374162093"><ele>16.333333333333332</ele><time>2026-04-06T10:52:14.305Z</time></trkpt><trkpt lat="42.999809104405216" lon="10.517057988643964"><ele>14.666666666666666</ele><time>2026-04-06T10:52:16.305Z</time></trkpt><trkpt lat="42.999727034584396" lon="10.517052835156752"><ele>13.0</ele><time>2026-04-06T10:52:18.305Z</time></trkpt><trkpt lat="42.99965511520583" lon="10.517009393383358"><ele>11.333333333333332</ele><time>2026-04-06T10:52:20.305Z</time></trkpt><trkpt lat="42.999579175009245" lon="10.516993419109463"><ele>9.666666666666666</ele><time>2026-04-06T10:52:22.305Z</time></trkpt><trkpt lat="42.99950629640337" lon="10.5169603415564"><ele>8.0</ele><time>2026-04-06T10:52:24.305Z</time></trkpt><trkpt lat="42.99942967440945" lon="10.516940665393603"><ele>7.999999999999999</ele><time>2026-04-06T10:52:26.305Z</time></trkpt><trkpt lat="42.99934498243786" lon="10.516930079770571"><ele>8.0</ele><time>2026-04-06T10:52:28.305Z</time></trkpt><trkpt lat="42.99926616821934" lon="10.516909424186847"><ele>8.0</ele><time>2026-04-06T10:52:30.305Z</time></trkpt><trkpt lat="42.99917570670596" lon="10.516901359448035"><ele>8.0</ele><time>2026-04-06T10:52:33.305Z</time></trkpt><trkpt lat="42.99910593793031" lon="10.516879012164905"><ele>7.999999999999999</ele><time>2026-04-06T10:52:36.305Z</time></trkpt><trkpt lat="42.99904499247194" lon="10.516837048954828"><ele>8.0</ele><time>2026-04-06T10:52:41.305Z</time></trkpt><trkpt lat="42.998965628468106" lon="10.51680806962028"><ele>7.857142857142857</ele><time>2026-04-06T10:52:47.305Z</time></trkpt><trkpt lat="42.99888328953205" lon="10.51678905133679"><ele>7.7142857142857135</ele><time>2026-04-06T10:52:50.305Z</time></trkpt><trkpt lat="42.99881487351007" lon="10.516750053307872"><ele>7.571428571428571</ele><time>2026-04-06T10:52:53.305Z</time></trkpt><trkpt lat="42.99881521472446" lon="10.51664925059567"><ele>7.428571428571429</ele><time>2026-04-06T10:52:58.305Z</time></trkpt><trkpt lat="42.99879544064448" lon="10.516556331171104"><ele>7.285714285714286</ele><time>2026-04-06T10:53:03.305Z</time></trkpt><trkpt lat="42.99874058210888" lon="10.516508881876101"><ele>7.142857142857142</ele><time>2026-04-06T10:53:06.305Z</time></trkpt><trkpt lat="42.998672564994045" lon="10.516490490560704"><ele>7.0</ele><time>2026-04-06T10:53:08.305Z</time></trkpt><trkpt lat="42.998607251635065" lon="10.516518836829007"><ele>7.0</ele><time>2026-04-06T10:53:10.305Z</time></trkpt><trkpt lat="42.99855197457542" lon="10.516452806237055"><ele>7.0</ele><time>2026-04-06T10:53:12.304Z</time></trkpt><trkpt lat="42.99849094766633" lon="10.516399187833086"><ele>7.0</ele><time>2026-04-06T10:53:14.304Z</time></trkpt><trkpt lat="42.9984162614184" lon="10.516387514884494"><ele>7.0</ele><time>2026-04-06T10:53:16.304Z</time></trkpt><trkpt lat="42.99836340409242" lon="10.51646101800735"><ele>7.0</ele><time>2026-04-06T10:53:18.304Z</time></trkpt><trkpt lat="42.99835286507326" lon="10.516561695002682"><ele>7.0</ele><time>2026-04-06T10:53:20.304Z</time></trkpt><trkpt lat="42.99833543702771" lon="10.516656198233058"><ele>7.0</ele><time>2026-04-06T10:53:22.304Z</time></trkpt><trkpt lat="42.99832332045886" lon="10.516747182031285"><ele>7.000000000000001</ele><time>2026-04-06T10:53:24.304Z</time></trkpt><trkpt lat="42.99829637644451" lon="10.516857885719412"><ele>7.0</ele><time>2026-04-06T10:53:27.304Z</time></trkpt><trkpt lat="42.99822260456884" lon="10.5169367916276"><ele>7.0</ele><time>2026-04-06T10:53:30.304Z</time></trkpt><trkpt lat="42.99816877999533" lon="10.516995976231163"><ele>7.0</ele><time>2026-04-06T10:53:32.304Z</time></trkpt><trkpt lat="42.998108926455764" lon="10.517051811520538"><ele>7.000000000000001</ele><time>2026-04-06T10:53:34.304Z</time></trkpt><trkpt lat="42.99804775606431" lon="10.517113456797077"><ele>7.0</ele><time>2026-04-06T10:53:36.304Z</time></trkpt><trkpt lat="42.99798929719523" lon="10.517178633337352"><ele>7.500000000000001</ele><time>2026-04-06T10:53:38.304Z</time></trkpt><trkpt lat="42.99793410084781" lon="10.517243440596975"><ele>8.0</ele><time>2026-04-06T10:53:40.304Z</time></trkpt><trkpt lat="42.99787557563619" lon="10.517306921963959"><ele>8.5</ele><time>2026-04-06T10:53:42.304Z</time></trkpt><trkpt lat="42.99781737135039" lon="10.517376001555434"><ele>9.0</ele><time>2026-04-06T10:53:44.304Z</time></trkpt><trkpt lat="42.997754074718024" lon="10.517447906646026"><ele>9.5</ele><time>2026-04-06T10:53:46.304Z</time></trkpt><trkpt lat="42.997693665857724" lon="10.517525965933489"><ele>10.0</ele><time>2026-04-06T10:53:48.304Z</time></trkpt><trkpt lat="42.99763197054504" lon="10.517584608479142"><ele>10.0</ele><time>2026-04-06T10:53:50.304Z</time></trkpt><trkpt lat="42.997573693639204" lon="10.517651308648803"><ele>10.0</ele><time>2026-04-06T10:53:52.304Z</time></trkpt><trkpt lat="42.99765502017415" lon="10.517610514627982"><ele>10.0</ele><time>2026-04-06T10:54:01.304Z</time></trkpt><trkpt lat="42.99765372225998" lon="10.517500121452626"><ele>10.0</ele><time>2026-04-06T10:54:04.304Z</time></trkpt><trkpt lat="42.99760222141607" lon="10.51738600715264"><ele>10.0</ele><time>2026-04-06T10:54:07.304Z</time></trkpt><trkpt lat="42.997570569270415" lon="10.517277720711732"><ele>10.0</ele><time>2026-04-06T10:54:09.304Z</time></trkpt><trkpt lat="42.99756291135936" lon="10.517148566736736"><ele>9.5</ele><time>2026-04-06T10:54:11.304Z</time></trkpt><trkpt lat="42.99751310861076" lon="10.517036924494938"><ele>9.0</ele><time>2026-04-06T10:54:13.304Z</time></trkpt><trkpt lat="42.99745870813555" lon="10.516934395923458"><ele>8.5</ele><time>2026-04-06T10:54:15.304Z</time></trkpt><trkpt lat="42.99739237802978" lon="10.516842118875035"><ele>8.0</ele><time>2026-04-06T10:54:17.304Z</time></trkpt><trkpt lat="42.99732796576922" lon="10.516756689650643"><ele>7.500000000000001</ele><time>2026-04-06T10:54:19.304Z</time></trkpt><trkpt lat="42.99727886906319" lon="10.516693892148984"><ele>7.0</ele><time>2026-04-06T10:54:21.304Z</time></trkpt><trkpt lat="42.99722474165181" lon="10.516624529834962"><ele>7.0</ele><time>2026-04-06T10:54:23.304Z</time></trkpt><trkpt lat="42.99716773216845" lon="10.51656366791972"><ele>7.0</ele><time>2026-04-06T10:54:25.304Z</time></trkpt><trkpt lat="42.99711483878236" lon="10.516504314124564"><ele>7.0</ele><time>2026-04-06T10:54:27.304Z</time></trkpt><trkpt lat="42.99706166224085" lon="10.516437984433738"><ele>7.0</ele><time>2026-04-06T10:54:29.304Z</time></trkpt><trkpt lat="42.997032898612" lon="10.516350230524976"><ele>7.0</ele><time>2026-04-06T10:54:31.304Z</time></trkpt><trkpt lat="42.9970273395039" lon="10.516249407776673"><ele>7.0</ele><time>2026-04-06T10:54:33.304Z</time></trkpt><trkpt lat="42.99703112576537" lon="10.516151940073065"><ele>7.0</ele><time>2026-04-06T10:54:35.304Z</time></trkpt><trkpt lat="42.99706115142825" lon="10.516059354470773"><ele>6.428571428571429</ele><time>2026-04-06T10:54:40.304Z</time></trkpt><trkpt lat="42.99708469519262" lon="10.515962866532062"><ele>5.857142857142857</ele><time>2026-04-06T10:54:45.304Z</time></trkpt><trkpt lat="42.99711499649329" lon="10.515862220669803"><ele>5.285714285714286</ele><time>2026-04-06T10:54:50.304Z</time></trkpt><trkpt lat="42.99709981436261" lon="10.515754566027907"><ele>4.714285714285714</ele><time>2026-04-06T10:54:54.304Z</time></trkpt><trkpt lat="42.997034168123676" lon="10.515724873039934"><ele>4.142857142857142</ele><time>2026-04-06T10:56:22.303Z</time></trkpt><trkpt lat="42.99698602190371" lon="10.51579337065542"><ele>3.571428571428571</ele><time>2026-04-06T10:56:25.303Z</time></trkpt><trkpt lat="42.99693033464079" lon="10.515857210946164"><ele>3.0</ele><time>2026-04-06T10:56:27.303Z</time></trkpt><trkpt lat="42.99684774007843" lon="10.51590087729177"><ele>2.9999999999999996</ele><time>2026-04-06T10:56:30.303Z</time></trkpt><trkpt lat="42.99680780311062" lon="10.515981745691006"><ele>3.0</ele><time>2026-04-06T10:56:33.303Z</time></trkpt><trkpt lat="42.99673215044871" lon="10.516039104740681"><ele>3.0</ele><time>2026-04-06T10:56:36.303Z</time></trkpt><trkpt lat="42.99666585725306" lon="10.516021916446567"><ele>3.0</ele><time>2026-04-06T10:56:38.303Z</time></trkpt><trkpt lat="42.9965973071165" lon="10.516003409731342"><ele>3.0</ele><time>2026-04-06T10:56:40.303Z</time></trkpt><trkpt lat="42.99652706194566" lon="10.515992385650616"><ele>2.9999999999999996</ele><time>2026-04-06T10:56:42.303Z</time></trkpt><trkpt lat="42.996458594528356" lon="10.516019747760055"><ele>3.0</ele><time>2026-04-06T10:56:44.303Z</time></trkpt><trkpt lat="42.99639336953151" lon="10.516062238094266"><ele>3.1666666666666665</ele><time>2026-04-06T10:56:46.303Z</time></trkpt><trkpt lat="42.99632730050128" lon="10.516106296275325"><ele>3.333333333333333</ele><time>2026-04-06T10:56:48.303Z</time></trkpt><trkpt lat="42.99625955407991" lon="10.516150558532326"><ele>3.5</ele><time>2026-04-06T10:56:50.303Z</time></trkpt><trkpt lat="42.99618515155835" lon="10.516164832717944"><ele>3.6666666666666665</ele><time>2026-04-06T10:56:52.303Z</time></trkpt><trkpt lat="42.99611044968013" lon="10.516166621758911"><ele>3.833333333333333</ele><time>2026-04-06T10:56:54.303Z</time></trkpt><trkpt lat="42.99603904303031" lon="10.516172426580741"><ele>4.0</ele><time>2026-04-06T10:56:56.303Z</time></trkpt><trkpt lat="42.9959491115202" lon="10.516175929263637"><ele>4.0</ele><time>2026-04-06T10:56:59.303Z</time></trkpt><trkpt lat="42.995882950137045" lon="10.516183579675022"><ele>3.9999999999999996</ele><time>2026-04-06T10:57:01.303Z</time></trkpt><trkpt lat="42.99579721496109" lon="10.516193620375343"><ele>4.0</ele><time>2026-04-06T10:57:04.303Z</time></trkpt><trkpt lat="42.99573551136321" lon="10.516160948422145"><ele>4.0</ele><time>2026-04-06T10:57:06.303Z</time></trkpt><trkpt lat="42.99566377220059" lon="10.516099011296875"><ele>3.9999999999999996</ele><time>2026-04-06T10:57:09.303Z</time></trkpt><trkpt lat="42.99560253444942" lon="10.51606820952948"><ele>4.0</ele><time>2026-04-06T10:57:11.303Z</time></trkpt><trkpt lat="42.99555295672713" lon="10.515999922759491"><ele>4.0</ele><time>2026-04-06T10:57:13.303Z</time></trkpt><trkpt lat="42.99551034543615" lon="10.515921134799582"><ele>4.5</ele><time>2026-04-06T10:57:15.303Z</time></trkpt><trkpt lat="42.99548471693206" lon="10.515830767164102"><ele>5.0</ele><time>2026-04-06T10:57:17.303Z</time></trkpt><trkpt lat="42.99544611196785" lon="10.515746978313954"><ele>5.5</ele><time>2026-04-06T10:57:19.303Z</time></trkpt><trkpt lat="42.995404071462055" lon="10.515669613038973"><ele>6.0</ele><time>2026-04-06T10:57:21.303Z</time></trkpt><trkpt lat="42.99535150870336" lon="10.51559467926172"><ele>6.500000000000001</ele><time>2026-04-06T10:57:23.3Z</time></trkpt><trkpt lat="42.995266452820324" lon="10.515580620832624"><ele>7.0</ele><time>2026-04-06T10:57:26.3Z</time></trkpt><trkpt lat="42.99518570841713" lon="10.515560114553697"><ele>7.0</ele><time>2026-04-06T10:57:29.3Z</time></trkpt><trkpt lat="42.99510599461363" lon="10.515538826675902"><ele>7.0</ele><time>2026-04-06T10:57:32.3Z</time></trkpt><trkpt lat="42.99504590263321" lon="10.515506698224693"><ele>7.0</ele><time>2026-04-06T10:57:34.3Z</time></trkpt><trkpt lat="42.99498712078822" lon="10.515458602424543"><ele>7.0</ele><time>2026-04-06T10:57:36.3Z</time></trkpt><trkpt lat="42.99492578693489" lon="10.515419731400923"><ele>7.0</ele><time>2026-04-06T10:57:38.3Z</time></trkpt><trkpt lat="42.99485224354684" lon="10.515387845755901"><ele>7.0</ele><time>2026-04-06T10:57:40.3Z</time></trkpt><trkpt lat="42.9947683385649" lon="10.515359954013348"><ele>7.0</ele><time>2026-04-06T10:57:43.3Z</time></trkpt><trkpt lat="42.99472625970257" lon="10.515294172097834"><ele>7.857142857142858</ele><time>2026-04-06T10:57:45.3Z</time></trkpt><trkpt lat="42.99467758933882" lon="10.515199624398896"><ele>8.714285714285715</ele><time>2026-04-06T10:57:48.3Z</time></trkpt><trkpt lat="42.994647967299706" lon="10.515114150409735"><ele>9.571428571428571</ele><time>2026-04-06T10:57:50.3Z</time></trkpt><trkpt lat="42.99460904383228" lon="10.515045141886114"><ele>10.428571428571429</ele><time>2026-04-06T10:57:52.3Z</time></trkpt><trkpt lat="42.994555148188" lon="10.514975213843426"><ele>11.285714285714286</ele><time>2026-04-06T10:57:54.3Z</time></trkpt><trkpt lat="42.99450826539949" lon="10.514917304974745"><ele>12.142857142857142</ele><time>2026-04-06T10:57:56.3Z</time></trkpt><trkpt lat="42.9944686762435" lon="10.514849776043906"><ele>13.0</ele><time>2026-04-06T10:57:58.3Z</time></trkpt><trkpt lat="42.99442120635991" lon="10.514769501298911"><ele>12.999999999999998</ele><time>2026-04-06T10:58:00.3Z</time></trkpt><trkpt lat="42.99437727949665" lon="10.514691890797279"><ele>13.0</ele><time>2026-04-06T10:58:02.3Z</time></trkpt><trkpt lat="42.99433487377364" lon="10.514626500423963"><ele>13.0</ele><time>2026-04-06T10:58:05.3Z</time></trkpt><trkpt lat="42.99425463948134" lon="10.514589743442365"><ele>13.0</ele><time>2026-04-06T10:58:08.3Z</time></trkpt><trkpt lat="42.99417726801437" lon="10.514519990841613"><ele>12.999999999999998</ele><time>2026-04-06T10:58:11.3Z</time></trkpt><trkpt lat="42.99411721352057" lon="10.514459867191718"><ele>13.0</ele><time>2026-04-06T10:58:13.3Z</time></trkpt><trkpt lat="42.99405991704147" lon="10.514388021957497"><ele>12.833333333333332</ele><time>2026-04-06T10:58:15.3Z</time></trkpt><trkpt lat="42.99400738661218" lon="10.514334154698322"><ele>12.666666666666666</ele><time>2026-04-06T10:58:17.3Z</time></trkpt><trkpt lat="42.99395803549924" lon="10.514263875071677"><ele>12.5</ele><time>2026-04-06T10:58:19.3Z</time></trkpt><trkpt lat="42.993891321454235" lon="10.514193265826032"><ele>12.333333333333332</ele><time>2026-04-06T10:58:21.3Z</time></trkpt><trkpt lat="42.993824880142824" lon="10.514098978745551"><ele>12.166666666666666</ele><time>2026-04-06T10:58:24.3Z</time></trkpt><trkpt lat="42.99376902706682" lon="10.514037327691675"><ele>12.0</ele><time>2026-04-06T10:58:26.3Z</time></trkpt><trkpt lat="42.99372693471675" lon="10.513962153946993"><ele>12.0</ele><time>2026-04-06T10:58:28.3Z</time></trkpt><trkpt lat="42.99369316758693" lon="10.513868797540168"><ele>12.0</ele><time>2026-04-06T10:58:30.3Z</time></trkpt><trkpt lat="42.99364722805194" lon="10.513788049640556"><ele>12.0</ele><time>2026-04-06T10:58:32.3Z</time></trkpt><trkpt lat="42.99358990822021" lon="10.513697654780279"><ele>12.0</ele><time>2026-04-06T10:58:35.3Z</time></trkpt><trkpt lat="42.99354715633077" lon="10.513572052864038"><ele>12.0</ele><time>2026-04-06T10:58:38.3Z</time></trkpt><trkpt lat="42.99355246134129" lon="10.513449106099737"><ele>12.0</ele><time>2026-04-06T10:58:41.3Z</time></trkpt><trkpt lat="42.99354652630946" lon="10.51335309283819"><ele>11.5</ele><time>2026-04-06T10:58:43.3Z</time></trkpt><trkpt lat="42.993525436818395" lon="10.513268830348018"><ele>11.0</ele><time>2026-04-06T10:58:45.3Z</time></trkpt><trkpt lat="42.99349307208897" lon="10.513173919408718"><ele>10.5</ele><time>2026-04-06T10:58:47.3Z</time></trkpt><trkpt lat="42.99345319118651" lon="10.513092877821837"><ele>10.0</ele><time>2026-04-06T10:58:49.3Z</time></trkpt><trkpt lat="42.99341596523767" lon="10.513003748709318"><ele>9.5</ele><time>2026-04-06T10:58:52.3Z</time></trkpt><trkpt lat="42.99335820345045" lon="10.512934643674374"><ele>9.0</ele><time>2026-04-06T10:58:55.3Z</time></trkpt><trkpt lat="42.993291618454194" lon="10.512852885443541"><ele>9.0</ele><time>2026-04-06T10:58:58.3Z</time></trkpt><trkpt lat="42.993249898341006" lon="10.512770176714616"><ele>9.0</ele><time>2026-04-06T10:59:00.3Z</time></trkpt><trkpt lat="42.99319558760358" lon="10.512707235700162"><ele>9.0</ele><time>2026-04-06T10:59:02.3Z</time></trkpt><trkpt lat="42.99311453132552" lon="10.512637075866753"><ele>9.0</ele><time>2026-04-06T10:59:05.3Z</time></trkpt><trkpt lat="42.99307125534997" lon="10.512540664785403"><ele>9.0</ele><time>2026-04-06T10:59:08.3Z</time></trkpt><trkpt lat="42.993005609405294" lon="10.512466591829568"><ele>9.0</ele><time>2026-04-06T10:59:12.3Z</time></trkpt><trkpt lat="42.99293453825683" lon="10.51243536790333"><ele>9.000000000000002</ele><time>2026-04-06T10:59:15.3Z</time></trkpt><trkpt lat="42.99286220038364" lon="10.51238348171605"><ele>9.0</ele><time>2026-04-06T10:59:18.3Z</time></trkpt><trkpt lat="42.99279735726996" lon="10.512310227096426"><ele>9.0</ele><time>2026-04-06T10:59:21.3Z</time></trkpt><trkpt lat="42.99275138562347" lon="10.512249703786667"><ele>9.0</ele><time>2026-04-06T10:59:24.3Z</time></trkpt><trkpt lat="42.99269191214817" lon="10.512201097974168"><ele>9.0</ele><time>2026-04-06T10:59:27.3Z</time></trkpt><trkpt lat="42.9926197933153" lon="10.512190232107459"><ele>9.000000000000002</ele><time>2026-04-06T10:59:29.299Z</time></trkpt><trkpt lat="42.992554869580324" lon="10.512183341352202"><ele>9.0</ele><time>2026-04-06T10:59:31.299Z</time></trkpt><trkpt lat="42.99247917871876" lon="10.51218471057082"><ele>9.428571428571429</ele><time>2026-04-06T10:59:34.299Z</time></trkpt><trkpt lat="42.99241280909102" lon="10.512217621808205"><ele>9.857142857142858</ele><time>2026-04-06T10:59:37.299Z</time></trkpt><trkpt lat="42.992350308111" lon="10.51227327073674"><ele>10.285714285714285</ele><time>2026-04-06T10:59:40.299Z</time></trkpt><trkpt lat="42.99229439012537" lon="10.512338596668057"><ele>10.714285714285715</ele><time>2026-04-06T10:59:43.299Z</time></trkpt><trkpt lat="42.99223237962583" lon="10.512376836372486"><ele>11.142857142857142</ele><time>2026-04-06T10:59:46.299Z</time></trkpt><trkpt lat="42.99216425254587" lon="10.512385919069331"><ele>11.571428571428571</ele><time>2026-04-06T10:59:49.299Z</time></trkpt><trkpt lat="42.99209053496561" lon="10.51239991551324"><ele>12.0</ele><time>2026-04-06T10:59:52.299Z</time></trkpt><trkpt lat="42.992025120934045" lon="10.512360614895128"><ele>11.999999999999998</ele><time>2026-04-06T10:59:56.299Z</time></trkpt><trkpt lat="42.99196907402469" lon="10.51229239337736"><ele>12.0</ele><time>2026-04-06T10:59:58.299Z</time></trkpt><trkpt lat="42.9919042405455" lon="10.512251011574733"><ele>12.0</ele><time>2026-04-06T11:00:00.299Z</time></trkpt><trkpt lat="42.99183896076525" lon="10.512192866156228"><ele>12.0</ele><time>2026-04-06T11:00:02.299Z</time></trkpt><trkpt lat="42.99177438232595" lon="10.512138599458915"><ele>12.0</ele><time>2026-04-06T11:00:04.299Z</time></trkpt><trkpt lat="42.99170886783017" lon="10.512088558698359"><ele>11.999999999999998</ele><time>2026-04-06T11:00:06.299Z</time></trkpt><trkpt lat="42.99164202817135" lon="10.512051265104107"><ele>12.0</ele><time>2026-04-06T11:00:08.299Z</time></trkpt><trkpt lat="42.99158467575876" lon="10.512001565964692"><ele>10.666666666666666</ele><time>2026-04-06T11:00:11.299Z</time></trkpt><trkpt lat="42.99153998172633" lon="10.51191217390608"><ele>9.333333333333334</ele><time>2026-04-06T11:00:15.299Z</time></trkpt><trkpt lat="42.991514527988656" lon="10.511829193162496"><ele>8.0</ele><time>2026-04-06T11:00:17.299Z</time></trkpt><trkpt lat="42.9914877282338" lon="10.511738918613117"><ele>6.666666666666666</ele><time>2026-04-06T11:00:19.299Z</time></trkpt><trkpt lat="42.99147276539698" lon="10.511623739571125"><ele>5.333333333333333</ele><time>2026-04-06T11:00:22.299Z</time></trkpt><trkpt lat="42.99143359400911" lon="10.511506545433273"><ele>4.0</ele><time>2026-04-06T11:00:25.299Z</time></trkpt><trkpt lat="42.991409419744436" lon="10.51140285127227"><ele>4.0</ele><time>2026-04-06T11:00:27.299Z</time></trkpt><trkpt lat="42.99138778499721" lon="10.511298522626063"><ele>3.9999999999999996</ele><time>2026-04-06T11:00:29.299Z</time></trkpt><trkpt lat="42.991364097123466" lon="10.51119028360078"><ele>4.0</ele><time>2026-04-06T11:00:31.299Z</time></trkpt><trkpt lat="42.99134226316847" lon="10.51109173354257"><ele>4.0</ele><time>2026-04-06T11:00:33.299Z</time></trkpt><trkpt lat="42.99132220634822" lon="10.511003370177123"><ele>3.9999999999999996</ele><time>2026-04-06T11:00:35.299Z</time></trkpt><trkpt lat="42.99129793201133" lon="10.510910026575761"><ele>4.0</ele><time>2026-04-06T11:00:37.299Z</time></trkpt><trkpt lat="42.99127665247295" lon="10.510822001294995"><ele>4.0</ele><time>2026-04-06T11:00:39.299Z</time></trkpt><trkpt lat="42.99122651659703" lon="10.510730603938537"><ele>3.8571428571428568</ele><time>2026-04-06T11:00:45.299Z</time></trkpt><trkpt lat="42.99120083553422" lon="10.51064556095078"><ele>3.714285714285714</ele><time>2026-04-06T11:00:48.299Z</time></trkpt><trkpt lat="42.991185296439056" lon="10.51056211500425"><ele>3.571428571428571</ele><time>2026-04-06T11:00:51.299Z</time></trkpt><trkpt lat="42.991120757880196" lon="10.51052017058405"><ele>3.4285714285714284</ele><time>2026-04-06T11:00:55.299Z</time></trkpt><trkpt lat="42.99105898222847" lon="10.510595918068123"><ele>3.2857142857142856</ele><time>2026-04-06T11:00:58.299Z</time></trkpt><trkpt lat="42.991014830329526" lon="10.510676905403097"><ele>3.1428571428571423</ele><time>2026-04-06T11:01:01.299Z</time></trkpt><trkpt lat="42.99093626738987" lon="10.51072291503157"><ele>3.0</ele><time>2026-04-06T11:01:04.299Z</time></trkpt><trkpt lat="42.9908631529089" lon="10.510766101036285"><ele>3.3333333333333335</ele><time>2026-04-06T11:01:07.299Z</time></trkpt><trkpt lat="42.99080028475994" lon="10.510800741736183"><ele>3.666666666666667</ele><time>2026-04-06T11:01:10.299Z</time></trkpt><trkpt lat="42.990720891187" lon="10.510808793820365"><ele>4.0</ele><time>2026-04-06T11:01:28.299Z</time></trkpt><trkpt lat="42.99066165235872" lon="10.510873189826677"><ele>4.333333333333334</ele><time>2026-04-06T11:01:32.299Z</time></trkpt><trkpt lat="42.99058617019273" lon="10.51094032335213"><ele>4.666666666666667</ele><time>2026-04-06T11:01:35.298Z</time></trkpt><trkpt lat="42.99050193788852" lon="10.5109869413214"><ele>5.0</ele><time>2026-04-06T11:01:38.298Z</time></trkpt><trkpt lat="42.99044351510585" lon="10.51102084120415"><ele>5.0</ele><time>2026-04-06T11:01:40.298Z</time></trkpt><trkpt lat="42.99037907008976" lon="10.511056723801614"><ele>5.0</ele><time>2026-04-06T11:01:42.298Z</time></trkpt><trkpt lat="42.990317868203526" lon="10.511097488381424"><ele>5.0</ele><time>2026-04-06T11:01:44.298Z</time></trkpt><trkpt lat="42.99025280504114" lon="10.511126089244351"><ele>5.0</ele><time>2026-04-06T11:01:46.298Z</time></trkpt><trkpt lat="42.990187220985774" lon="10.511149664219351"><ele>5.0</ele><time>2026-04-06T11:01:48.298Z</time></trkpt><trkpt lat="42.99011597466536" lon="10.511154068908912"><ele>5.0</ele><time>2026-04-06T11:01:50.298Z</time></trkpt><trkpt lat="42.99004406057688" lon="10.511158542594373"><ele>5.0</ele><time>2026-04-06T11:01:52.298Z</time></trkpt><trkpt lat="42.98997057834708" lon="10.511158589908801"><ele>5.428571428571429</ele><time>2026-04-06T11:01:54.298Z</time></trkpt><trkpt lat="42.989898117607375" lon="10.511154128753384"><ele>5.857142857142858</ele><time>2026-04-06T11:01:56.298Z</time></trkpt><trkpt lat="42.98982786651121" lon="10.511150722990054"><ele>6.285714285714286</ele><time>2026-04-06T11:01:58.298Z</time></trkpt><trkpt lat="42.98976361149225" lon="10.511148357698678"><ele>6.7142857142857135</ele><time>2026-04-06T11:02:00.298Z</time></trkpt><trkpt lat="42.98969281979122" lon="10.511155409531812"><ele>7.142857142857142</ele><time>2026-04-06T11:02:02.298Z</time></trkpt><trkpt lat="42.98962036526165" lon="10.51115865744956"><ele>7.571428571428571</ele><time>2026-04-06T11:02:04.298Z</time></trkpt><trkpt lat="42.98954849566682" lon="10.511178112837097"><ele>8.0</ele><time>2026-04-06T11:02:06.298Z</time></trkpt><trkpt lat="42.989477284344375" lon="10.511212530524597"><ele>7.666666666666666</ele><time>2026-04-06T11:02:08.298Z</time></trkpt><trkpt lat="42.989408381263175" lon="10.511253851484867"><ele>7.333333333333333</ele><time>2026-04-06T11:02:10.298Z</time></trkpt><trkpt lat="42.98933766817975" lon="10.511302533807916"><ele>7.0</ele><time>2026-04-06T11:02:12.298Z</time></trkpt><trkpt lat="42.98926515960267" lon="10.511352628148098"><ele>6.666666666666666</ele><time>2026-04-06T11:02:14.298Z</time></trkpt><trkpt lat="42.989193655467346" lon="10.511382972319485"><ele>6.333333333333333</ele><time>2026-04-06T11:02:16.298Z</time></trkpt><trkpt lat="42.98912259859269" lon="10.511426443713072"><ele>6.0</ele><time>2026-04-06T11:02:18.298Z</time></trkpt><trkpt lat="42.98905121513622" lon="10.511453619941111"><ele>6.571428571428571</ele><time>2026-04-06T11:02:20.298Z</time></trkpt><trkpt lat="42.98897982724612" lon="10.511446435289601"><ele>7.142857142857142</ele><time>2026-04-06T11:02:22.298Z</time></trkpt><trkpt lat="42.98890794163531" lon="10.511395891462914"><ele>7.7142857142857135</ele><time>2026-04-06T11:02:24.298Z</time></trkpt><trkpt lat="42.98887170148822" lon="10.511310224704712"><ele>8.285714285714285</ele><time>2026-04-06T11:02:26.298Z</time></trkpt><trkpt lat="42.988849063162945" lon="10.511217518269616"><ele>8.857142857142858</ele><time>2026-04-06T11:02:28.298Z</time></trkpt><trkpt lat="42.98882374243647" lon="10.511127453911232"><ele>9.428571428571429</ele><time>2026-04-06T11:02:30.298Z</time></trkpt><trkpt lat="42.98880004423254" lon="10.511035425907597"><ele>10.0</ele><time>2026-04-06T11:02:32.298Z</time></trkpt><trkpt lat="42.98878327418396" lon="10.51093199095841"><ele>10.285714285714285</ele><time>2026-04-06T11:02:34.298Z</time></trkpt><trkpt lat="42.988755879686174" lon="10.510841269740354"><ele>10.571428571428571</ele><time>2026-04-06T11:02:36.298Z</time></trkpt><trkpt lat="42.988727208949776" lon="10.510749338136497"><ele>10.857142857142858</ele><time>2026-04-06T11:02:38.298Z</time></trkpt><trkpt lat="42.98869647772413" lon="10.510652785659047"><ele>11.142857142857142</ele><time>2026-04-06T11:02:40.298Z</time></trkpt><trkpt lat="42.98867296174264" lon="10.510555035706927"><ele>11.428571428571429</ele><time>2026-04-06T11:02:42.298Z</time></trkpt><trkpt lat="42.98864787236324" lon="10.510464399177328"><ele>11.714285714285714</ele><time>2026-04-06T11:02:44.298Z</time></trkpt><trkpt lat="42.98862901587731" lon="10.510370457460168"><ele>12.0</ele><time>2026-04-06T11:02:46.298Z</time></trkpt><trkpt lat="42.98860073009204" lon="10.510285846931433"><ele>12.0</ele><time>2026-04-06T11:02:48.298Z</time></trkpt><trkpt lat="42.98858450468754" lon="10.510191307076926"><ele>12.0</ele><time>2026-04-06T11:02:50.298Z</time></trkpt><trkpt lat="42.98856135655074" lon="10.510104565852181"><ele>12.0</ele><time>2026-04-06T11:02:52.298Z</time></trkpt><trkpt lat="42.98851996466744" lon="10.509988829883968"><ele>12.0</ele><time>2026-04-06T11:02:55.298Z</time></trkpt><trkpt lat="42.98846998361308" lon="10.509895650022639"><ele>12.0</ele><time>2026-04-06T11:02:58.298Z</time></trkpt><trkpt lat="42.98840918880984" lon="10.50981375727069"><ele>12.0</ele><time>2026-04-06T11:03:01.298Z</time></trkpt><trkpt lat="42.988357727502915" lon="10.509727236546116"><ele>12.57142857142857</ele><time>2026-04-06T11:03:04.298Z</time></trkpt><trkpt lat="42.9882762977181" lon="10.509677876721797"><ele>13.142857142857142</ele><time>2026-04-06T11:03:07.298Z</time></trkpt><trkpt lat="42.988187057033635" lon="10.509680137543436"><ele>13.714285714285714</ele><time>2026-04-06T11:03:10.298Z</time></trkpt><trkpt lat="42.988129543604146" lon="10.509718268160567"><ele>14.285714285714285</ele><time>2026-04-06T11:03:12.298Z</time></trkpt><trkpt lat="42.98807104808099" lon="10.50975335435366"><ele>14.857142857142856</ele><time>2026-04-06T11:03:14.298Z</time></trkpt><trkpt lat="42.988014216362245" lon="10.509793468995722"><ele>15.428571428571427</ele><time>2026-04-06T11:03:16.298Z</time></trkpt><trkpt lat="42.98794691241559" lon="10.509798423185025"><ele>16.0</ele><time>2026-04-06T11:03:18.298Z</time></trkpt><trkpt lat="42.98788133021371" lon="10.509790323967302"><ele>15.999999999999998</ele><time>2026-04-06T11:03:20.298Z</time></trkpt><trkpt lat="42.987830232441006" lon="10.50972577305584"><ele>16.0</ele><time>2026-04-06T11:03:22.298Z</time></trkpt><trkpt lat="42.98779184018486" lon="10.509620161235484"><ele>16.0</ele><time>2026-04-06T11:03:25.298Z</time></trkpt><trkpt lat="42.98776495891972" lon="10.509512905527501"><ele>16.0</ele><time>2026-04-06T11:03:28.298Z</time></trkpt><trkpt lat="42.98769918482419" lon="10.509460204325707"><ele>15.999999999999998</ele><time>2026-04-06T11:03:32.298Z</time></trkpt><trkpt lat="42.98761934384058" lon="10.50949005811204"><ele>16.0</ele><time>2026-04-06T11:03:35.298Z</time></trkpt><trkpt lat="42.98754198992477" lon="10.509535083544892"><ele>16.428571428571427</ele><time>2026-04-06T11:03:38.298Z</time></trkpt><trkpt lat="42.9874806922791" lon="10.50956233072593"><ele>16.857142857142854</ele><time>2026-04-06T11:03:40.298Z</time></trkpt><trkpt lat="42.98741377937289" lon="10.509587275041387"><ele>17.285714285714285</ele><time>2026-04-06T11:03:42.296Z</time></trkpt><trkpt lat="42.98734331894394" lon="10.509605575059357"><ele>17.714285714285715</ele><time>2026-04-06T11:03:44.296Z</time></trkpt><trkpt lat="42.987273935660404" lon="10.509633794037336"><ele>18.142857142857146</ele><time>2026-04-06T11:03:46.296Z</time></trkpt><trkpt lat="42.987204801021925" lon="10.509665829133196"><ele>18.57142857142857</ele><time>2026-04-06T11:03:48.296Z</time></trkpt><trkpt lat="42.987135738528416" lon="10.509686011285089"><ele>19.0</ele><time>2026-04-06T11:03:50.296Z</time></trkpt><trkpt lat="42.98706426332776" lon="10.509711572510504"><ele>19.0</ele><time>2026-04-06T11:03:52.296Z</time></trkpt><trkpt lat="42.986990964957" lon="10.509736985830699"><ele>19.0</ele><time>2026-04-06T11:03:54.296Z</time></trkpt><trkpt lat="42.98691789118573" lon="10.509765993208708"><ele>19.0</ele><time>2026-04-06T11:03:56.296Z</time></trkpt><trkpt lat="42.986848465476555" lon="10.50979127444364"><ele>19.0</ele><time>2026-04-06T11:03:58.296Z</time></trkpt><trkpt lat="42.986776765506846" lon="10.509813310370426"><ele>19.0</ele><time>2026-04-06T11:04:00.296Z</time></trkpt><trkpt lat="42.98670491806194" lon="10.509831641887795"><ele>19.0</ele><time>2026-04-06T11:04:02.296Z</time></trkpt><trkpt lat="42.986630105528945" lon="10.509843409110967"><ele>19.0</ele><time>2026-04-06T11:04:04.296Z</time></trkpt><trkpt lat="42.98655482012716" lon="10.509864056742042"><ele>19.428571428571427</ele><time>2026-04-06T11:04:06.296Z</time></trkpt><trkpt lat="42.986482680263215" lon="10.50988918267368"><ele>19.857142857142858</ele><time>2026-04-06T11:04:08.296Z</time></trkpt><trkpt lat="42.986411541644976" lon="10.509917025286448"><ele>20.285714285714285</ele><time>2026-04-06T11:04:10.296Z</time></trkpt><trkpt lat="42.98634071701935" lon="10.509948948332514"><ele>20.714285714285715</ele><time>2026-04-06T11:04:12.296Z</time></trkpt><trkpt lat="42.98626759791352" lon="10.509973067713673"><ele>21.142857142857142</ele><time>2026-04-06T11:04:14.296Z</time></trkpt><trkpt lat="42.98619582831312" lon="10.509994769012264"><ele>21.571428571428573</ele><time>2026-04-06T11:04:16.296Z</time></trkpt><trkpt lat="42.98612495468596" lon="10.510017850700256"><ele>22.0</ele><time>2026-04-06T11:04:18.296Z</time></trkpt><trkpt lat="42.98605456169381" lon="10.510042974043513"><ele>22.0</ele><time>2026-04-06T11:04:20.296Z</time></trkpt><trkpt lat="42.985981992519456" lon="10.51006342119867"><ele>22.0</ele><time>2026-04-06T11:04:22.296Z</time></trkpt><trkpt lat="42.98591293478398" lon="10.510100385152375"><ele>22.0</ele><time>2026-04-06T11:04:24.296Z</time></trkpt><trkpt lat="42.985840283488244" lon="10.510125460956743"><ele>22.0</ele><time>2026-04-06T11:04:26.296Z</time></trkpt><trkpt lat="42.9857717664775" lon="10.510143485806843"><ele>22.0</ele><time>2026-04-06T11:04:28.296Z</time></trkpt><trkpt lat="42.98570032752891" lon="10.510175815635833"><ele>22.0</ele><time>2026-04-06T11:04:30.296Z</time></trkpt><trkpt lat="42.98563292743559" lon="10.510194287652464"><ele>22.0</ele><time>2026-04-06T11:04:32.296Z</time></trkpt><trkpt lat="42.98556620874771" lon="10.510218374986213"><ele>22.285714285714285</ele><time>2026-04-06T11:04:34.296Z</time></trkpt><trkpt lat="42.985495353854176" lon="10.51024404017278"><ele>22.57142857142857</ele><time>2026-04-06T11:04:36.296Z</time></trkpt><trkpt lat="42.98542578025155" lon="10.510267470335338"><ele>22.857142857142854</ele><time>2026-04-06T11:04:38.296Z</time></trkpt><trkpt lat="42.98535298361985" lon="10.510294887916086"><ele>23.142857142857142</ele><time>2026-04-06T11:04:40.296Z</time></trkpt><trkpt lat="42.985285259451445" lon="10.510321391190514"><ele>23.428571428571427</ele><time>2026-04-06T11:04:42.296Z</time></trkpt><trkpt lat="42.9852171003099" lon="10.510352744081707"><ele>23.71428571428571</ele><time>2026-04-06T11:04:44.296Z</time></trkpt><trkpt lat="42.985146341117" lon="10.510389561369266"><ele>24.0</ele><time>2026-04-06T11:04:46.296Z</time></trkpt><trkpt lat="42.98508100032665" lon="10.510431470876004"><ele>24.833333333333332</ele><time>2026-04-06T11:04:48.296Z</time></trkpt><trkpt lat="42.985011278077884" lon="10.510471292940043"><ele>25.666666666666664</ele><time>2026-04-06T11:04:50.296Z</time></trkpt><trkpt lat="42.98494223832413" lon="10.510529240922283"><ele>26.5</ele><time>2026-04-06T11:04:52.296Z</time></trkpt><trkpt lat="42.984877953591266" lon="10.510593591869693"><ele>27.333333333333332</ele><time>2026-04-06T11:04:54.296Z</time></trkpt><trkpt lat="42.98481448225991" lon="10.510657117762591"><ele>28.166666666666664</ele><time>2026-04-06T11:04:56.296Z</time></trkpt><trkpt lat="42.98475187362799" lon="10.510731171624725"><ele>29.0</ele><time>2026-04-06T11:04:58.296Z</time></trkpt><trkpt lat="42.98469173083223" lon="10.510808549369251"><ele>29.0</ele><time>2026-04-06T11:05:00.296Z</time></trkpt><trkpt lat="42.984626214897894" lon="10.510885183378168"><ele>29.0</ele><time>2026-04-06T11:05:02.296Z</time></trkpt><trkpt lat="42.98455705342404" lon="10.510973739410721"><ele>29.0</ele><time>2026-04-06T11:05:04.296Z</time></trkpt><trkpt lat="42.98447388386926" lon="10.511063513477987"><ele>29.0</ele><time>2026-04-06T11:05:06.296Z</time></trkpt><trkpt lat="42.98438834571561" lon="10.51115688229564"><ele>29.0</ele><time>2026-04-06T11:05:08.296Z</time></trkpt><trkpt lat="42.9843029566783" lon="10.511250256075579"><ele>28.833333333333332</ele><time>2026-04-06T11:05:10.296Z</time></trkpt><trkpt lat="42.984250548782875" lon="10.51140405928881"><ele>28.666666666666664</ele><time>2026-04-06T11:05:12.296Z</time></trkpt><trkpt lat="42.98421419416332" lon="10.51155626841283"><ele>28.5</ele><time>2026-04-06T11:05:14.296Z</time></trkpt><trkpt lat="42.984202880413996" lon="10.511643947717227"><ele>28.333333333333336</ele><time>2026-04-06T11:05:15.296Z</time></trkpt><trkpt lat="42.984191488141725" lon="10.51173769199592"><ele>28.166666666666668</ele><time>2026-04-06T11:05:16.296Z</time></trkpt><trkpt lat="42.98417562856416" lon="10.511832699146275"><ele>28.0</ele><time>2026-04-06T11:05:17.296Z</time></trkpt><trkpt lat="42.984156943070026" lon="10.511930286177247"><ele>28.0</ele><time>2026-04-06T11:05:18.296Z</time></trkpt><trkpt lat="42.98413334306666" lon="10.51202049088518"><ele>28.0</ele><time>2026-04-06T11:05:19.296Z</time></trkpt><trkpt lat="42.984104483877104" lon="10.512110192766508"><ele>28.0</ele><time>2026-04-06T11:05:20.296Z</time></trkpt><trkpt lat="42.98406983176889" lon="10.512195128974627"><ele>28.0</ele><time>2026-04-06T11:05:21.296Z</time></trkpt><trkpt lat="42.9840341006195" lon="10.51227820352617"><ele>28.0</ele><time>2026-04-06T11:05:22.296Z</time></trkpt><trkpt lat="42.983996886584976" lon="10.512358951119953"><ele>28.0</ele><time>2026-04-06T11:05:23.296Z</time></trkpt><trkpt lat="42.98395679569743" lon="10.512442419401939"><ele>28.0</ele><time>2026-04-06T11:05:24.296Z</time></trkpt><trkpt lat="42.98391536446602" lon="10.512526102813412"><ele>27.666666666666668</ele><time>2026-04-06T11:05:25.296Z</time></trkpt><trkpt lat="42.98387464459837" lon="10.512607580930954"><ele>27.333333333333336</ele><time>2026-04-06T11:05:26.296Z</time></trkpt><trkpt lat="42.983834927247564" lon="10.512687052966264"><ele>27.0</ele><time>2026-04-06T11:05:27.296Z</time></trkpt><trkpt lat="42.98379905955781" lon="10.512769123686134"><ele>26.666666666666664</ele><time>2026-04-06T11:05:28.296Z</time></trkpt><trkpt lat="42.98373393922119" lon="10.51292425962365"><ele>26.333333333333332</ele><time>2026-04-06T11:05:30.296Z</time></trkpt><trkpt lat="42.98369940349403" lon="10.512998583351688"><ele>26.0</ele><time>2026-04-06T11:05:31.296Z</time></trkpt><trkpt lat="42.98362986912328" lon="10.513134373918348"><ele>25.8</ele><time>2026-04-06T11:05:33.296Z</time></trkpt><trkpt lat="42.9835483568931" lon="10.51325317572541"><ele>25.6</ele><time>2026-04-06T11:05:35.296Z</time></trkpt><trkpt lat="42.983458082087424" lon="10.513343018774647"><ele>25.4</ele><time>2026-04-06T11:05:37.297Z</time></trkpt><trkpt lat="42.98338212344619" lon="10.513448620282977"><ele>25.2</ele><time>2026-04-06T11:05:39.297Z</time></trkpt><trkpt lat="42.98332958369046" lon="10.513574338788043"><ele>25.0</ele><time>2026-04-06T11:05:41.297Z</time></trkpt><trkpt lat="42.98332281746032" lon="10.513722893517013"><ele>25.2</ele><time>2026-04-06T11:05:43.297Z</time></trkpt><trkpt lat="42.9833096358226" lon="10.513854144447386"><ele>25.4</ele><time>2026-04-06T11:05:45.297Z</time></trkpt><trkpt lat="42.983301300727845" lon="10.5139915264455"><ele>25.6</ele><time>2026-04-06T11:05:47.295Z</time></trkpt><trkpt lat="42.983304960097804" lon="10.514118780567175"><ele>25.8</ele><time>2026-04-06T11:05:49.295Z</time></trkpt><trkpt lat="42.98332021932198" lon="10.51424477348026"><ele>26.0</ele><time>2026-04-06T11:05:51.295Z</time></trkpt><trkpt lat="42.98334016463798" lon="10.514359237275158"><ele>25.999999999999996</ele><time>2026-04-06T11:05:53.295Z</time></trkpt><trkpt lat="42.983342839613485" lon="10.51447529333999"><ele>26.0</ele><time>2026-04-06T11:05:55.295Z</time></trkpt><trkpt lat="42.98336060608035" lon="10.514601840738113"><ele>26.0</ele><time>2026-04-06T11:05:57.295Z</time></trkpt><trkpt lat="42.983353981163454" lon="10.514697520491948"><ele>26.0</ele><time>2026-04-06T11:05:59.295Z</time></trkpt><trkpt lat="42.98334053537614" lon="10.514797440638189"><ele>25.999999999999996</ele><time>2026-04-06T11:06:01.295Z</time></trkpt><trkpt lat="42.983322578095354" lon="10.514884696947242"><ele>26.0</ele><time>2026-04-06T11:06:03.295Z</time></trkpt><trkpt lat="42.983285013518945" lon="10.515008884690502"><ele>26.333333333333332</ele><time>2026-04-06T11:06:06.295Z</time></trkpt><trkpt lat="42.98324372740291" lon="10.515113701908536"><ele>26.666666666666664</ele><time>2026-04-06T11:06:09.295Z</time></trkpt><trkpt lat="42.98320036653269" lon="10.515183519142225"><ele>27.0</ele><time>2026-04-06T11:06:11.295Z</time></trkpt><trkpt lat="42.983155537254774" lon="10.515258178638167"><ele>27.333333333333336</ele><time>2026-04-06T11:06:13.295Z</time></trkpt><trkpt lat="42.98310904682266" lon="10.515326546819349"><ele>27.666666666666668</ele><time>2026-04-06T11:06:15.295Z</time></trkpt><trkpt lat="42.983053307338686" lon="10.51539018879837"><ele>28.0</ele><time>2026-04-06T11:06:17.295Z</time></trkpt><trkpt lat="42.982980251721976" lon="10.515459816291"><ele>28.0</ele><time>2026-04-06T11:06:20.295Z</time></trkpt><trkpt lat="42.98291934087422" lon="10.515512471561683"><ele>28.0</ele><time>2026-04-06T11:06:22.295Z</time></trkpt><trkpt lat="42.982852840813806" lon="10.515567148500768"><ele>28.0</ele><time>2026-04-06T11:06:25.295Z</time></trkpt><trkpt lat="42.98279418581524" lon="10.515615375152372"><ele>28.0</ele><time>2026-04-06T11:06:27.295Z</time></trkpt><trkpt lat="42.98272357372739" lon="10.515666016590032"><ele>28.0</ele><time>2026-04-06T11:06:30.295Z</time></trkpt><trkpt lat="42.98266274581065" lon="10.515701757981295"><ele>28.0</ele><time>2026-04-06T11:06:33.295Z</time></trkpt><trkpt lat="42.98258799005673" lon="10.515716034615487"><ele>28.0</ele><time>2026-04-06T11:06:36.295Z</time></trkpt><trkpt lat="42.98251904787997" lon="10.515704570856137"><ele>29.57142857142857</ele><time>2026-04-06T11:06:39.295Z</time></trkpt><trkpt lat="42.98245822417734" lon="10.515679916111557"><ele>31.142857142857142</ele><time>2026-04-06T11:06:42.295Z</time></trkpt><trkpt lat="42.982398424089155" lon="10.515627586158681"><ele>32.714285714285715</ele><time>2026-04-06T11:06:45.295Z</time></trkpt><trkpt lat="42.9823826174897" lon="10.515527044757977"><ele>34.285714285714285</ele><time>2026-04-06T11:06:48.295Z</time></trkpt><trkpt lat="42.98237175437668" lon="10.515429717941462"><ele>35.857142857142854</ele><time>2026-04-06T11:06:51.295Z</time></trkpt><trkpt lat="42.98237345688291" lon="10.515340064570458"><ele>37.42857142857143</ele><time>2026-04-06T11:06:54.295Z</time></trkpt><trkpt lat="42.982353205591735" lon="10.515235145688804"><ele>39.0</ele><time>2026-04-06T11:06:58.295Z</time></trkpt><trkpt lat="42.98233898119977" lon="10.515142837287879"><ele>39.333333333333336</ele><time>2026-04-06T11:07:01.295Z</time></trkpt><trkpt lat="42.98228239970273" lon="10.515099903924636"><ele>39.666666666666664</ele><time>2026-04-06T11:07:03.295Z</time></trkpt><trkpt lat="42.98220265847245" lon="10.515066164231497"><ele>40.0</ele><time>2026-04-06T11:07:06.295Z</time></trkpt><trkpt lat="42.98211293166755" lon="10.515061705076317"><ele>40.33333333333333</ele><time>2026-04-06T11:07:09.295Z</time></trkpt><trkpt lat="42.98204644534034" lon="10.515069258749342"><ele>40.666666666666664</ele><time>2026-04-06T11:07:12.295Z</time></trkpt><trkpt lat="42.981968414173934" lon="10.515079111500762"><ele>41.0</ele><time>2026-04-06T11:07:16.295Z</time></trkpt><trkpt lat="42.98190156799807" lon="10.515083684675083"><ele>40.99999999999999</ele><time>2026-04-06T11:07:19.295Z</time></trkpt><trkpt lat="42.98182338829512" lon="10.515088641657176"><ele>41.0</ele><time>2026-04-06T11:07:23.295Z</time></trkpt><trkpt lat="42.98175893369132" lon="10.515090198254667"><ele>41.0</ele><time>2026-04-06T11:07:26.295Z</time></trkpt><trkpt lat="42.981689102060805" lon="10.515091117932718"><ele>41.0</ele><time>2026-04-06T11:07:29.295Z</time></trkpt><trkpt lat="42.98162200663417" lon="10.515088913244831"><ele>41.0</ele><time>2026-04-06T11:07:32.295Z</time></trkpt><trkpt lat="42.981538873797994" lon="10.51508503658807"><ele>40.99999999999999</ele><time>2026-04-06T11:07:36.295Z</time></trkpt><trkpt lat="42.98146845733657" lon="10.515083774318795"><ele>41.0</ele><time>2026-04-06T11:07:39.295Z</time></trkpt><trkpt lat="42.98140538015506" lon="10.515085563274859"><ele>42.33333333333333</ele><time>2026-04-06T11:07:42.295Z</time></trkpt><trkpt lat="42.981332661435054" lon="10.515103838513314"><ele>43.666666666666664</ele><time>2026-04-06T11:07:45.295Z</time></trkpt><trkpt lat="42.981262919093346" lon="10.515159197802276"><ele>45.0</ele><time>2026-04-06T11:07:48.295Z</time></trkpt><trkpt lat="42.98119608909286" lon="10.515206778092427"><ele>46.33333333333333</ele><time>2026-04-06T11:07:51.295Z</time></trkpt><trkpt lat="42.981121413843915" lon="10.515259535142027"><ele>47.666666666666664</ele><time>2026-04-06T11:07:54.294Z</time></trkpt><trkpt lat="42.981059577031964" lon="10.515303165519734"><ele>49.0</ele><time>2026-04-06T11:07:57.294Z</time></trkpt><trkpt lat="42.980988453146104" lon="10.515353348604071"><ele>48.99999999999999</ele><time>2026-04-06T11:08:00.294Z</time></trkpt><trkpt lat="42.98092576194601" lon="10.515397581794275"><ele>49.0</ele><time>2026-04-06T11:08:03.294Z</time></trkpt><trkpt lat="42.98086250598286" lon="10.515442213510871"><ele>49.0</ele><time>2026-04-06T11:08:06.294Z</time></trkpt><trkpt lat="42.98078661929115" lon="10.51549575711399"><ele>49.0</ele><time>2026-04-06T11:08:09.294Z</time></trkpt><trkpt lat="42.98071196414876" lon="10.515548431742781"><ele>48.99999999999999</ele><time>2026-04-06T11:08:12.294Z</time></trkpt><trkpt lat="42.980638224936634" lon="10.51560051765465"><ele>49.0</ele><time>2026-04-06T11:08:15.294Z</time></trkpt><trkpt lat="42.98056801985266" lon="10.515650171284344"><ele>50.33333333333333</ele><time>2026-04-06T11:08:18.294Z</time></trkpt><trkpt lat="42.98049497551408" lon="10.515701218674632"><ele>51.666666666666664</ele><time>2026-04-06T11:08:21.294Z</time></trkpt><trkpt lat="42.980420670910206" lon="10.515752535689725"><ele>53.0</ele><time>2026-04-06T11:08:24.294Z</time></trkpt><trkpt lat="42.98035138659838" lon="10.515800385503413"><ele>54.33333333333333</ele><time>2026-04-06T11:08:27.294Z</time></trkpt><trkpt lat="42.980278460434796" lon="10.515850750477723"><ele>55.666666666666664</ele><time>2026-04-06T11:08:30.294Z</time></trkpt><trkpt lat="42.980214271872796" lon="10.515893451614978"><ele>57.0</ele><time>2026-04-06T11:08:33.294Z</time></trkpt><trkpt lat="42.9801536115309" lon="10.51593276399897"><ele>57.0</ele><time>2026-04-06T11:08:36.294Z</time></trkpt><trkpt lat="42.98008362112535" lon="10.51597628612093"><ele>56.99999999999999</ele><time>2026-04-06T11:08:39.294Z</time></trkpt><trkpt lat="42.98001262106126" lon="10.516015575447602"><ele>57.0</ele><time>2026-04-06T11:08:42.294Z</time></trkpt><trkpt lat="42.979941639489844" lon="10.516047194387307"><ele>57.0</ele><time>2026-04-06T11:08:45.294Z</time></trkpt><trkpt lat="42.979871723895656" lon="10.516072096379787"><ele>56.99999999999999</ele><time>2026-04-06T11:08:48.294Z</time></trkpt><trkpt lat="42.97979717620225" lon="10.516097281679604"><ele>57.0</ele><time>2026-04-06T11:08:51.294Z</time></trkpt><trkpt lat="42.97972635701237" lon="10.516106704509896"><ele>57.0</ele><time>2026-04-06T11:08:54.294Z</time></trkpt><trkpt lat="42.979644445166684" lon="10.516093228863834"><ele>58.166666666666664</ele><time>2026-04-06T11:08:57.294Z</time></trkpt><trkpt lat="42.97955102650336" lon="10.5160808363242"><ele>59.33333333333333</ele><time>2026-04-06T11:09:00.294Z</time></trkpt><trkpt lat="42.9794853782108" lon="10.516073246154601"><ele>60.5</ele><time>2026-04-06T11:09:02.294Z</time></trkpt><trkpt lat="42.97941908231908" lon="10.516065594615126"><ele>61.666666666666664</ele><time>2026-04-06T11:09:04.294Z</time></trkpt><trkpt lat="42.9793177865473" lon="10.516054753556784"><ele>62.83333333333333</ele><time>2026-04-06T11:09:07.294Z</time></trkpt><trkpt lat="42.97924966698617" lon="10.516052361888164"><ele>64.0</ele><time>2026-04-06T11:09:09.294Z</time></trkpt><trkpt lat="42.97918071931479" lon="10.5160605755963"><ele>64.14285714285714</ele><time>2026-04-06T11:09:11.294Z</time></trkpt><trkpt lat="42.97908686320923" lon="10.516084873070936"><ele>64.28571428571428</ele><time>2026-04-06T11:09:14.294Z</time></trkpt><trkpt lat="42.979023392625656" lon="10.516107565121695"><ele>64.42857142857143</ele><time>2026-04-06T11:09:16.294Z</time></trkpt><trkpt lat="42.9789587016378" lon="10.516144637179647"><ele>64.57142857142857</ele><time>2026-04-06T11:09:18.294Z</time></trkpt><trkpt lat="42.97890277682661" lon="10.516191222484904"><ele>64.71428571428572</ele><time>2026-04-06T11:09:20.294Z</time></trkpt><trkpt lat="42.97885207948738" lon="10.516247007701944"><ele>64.85714285714286</ele><time>2026-04-06T11:09:22.294Z</time></trkpt><trkpt lat="42.97880590208184" lon="10.516306607201253"><ele>65.0</ele><time>2026-04-06T11:09:24.294Z</time></trkpt><trkpt lat="42.97876336205999" lon="10.51637547805826"><ele>65.0</ele><time>2026-04-06T11:09:26.294Z</time></trkpt><trkpt lat="42.978714024007125" lon="10.516474258404289"><ele>65.0</ele><time>2026-04-06T11:09:29.294Z</time></trkpt><trkpt lat="42.978669366544366" lon="10.516562799629861"><ele>65.0</ele><time>2026-04-06T11:09:32.294Z</time></trkpt><trkpt lat="42.978621027140306" lon="10.516647501837564"><ele>65.0</ele><time>2026-04-06T11:09:35.294Z</time></trkpt><trkpt lat="42.97856691846658" lon="10.516727589875646"><ele>65.0</ele><time>2026-04-06T11:09:38.294Z</time></trkpt><trkpt lat="42.97851339373481" lon="10.516787446236469"><ele>65.0</ele><time>2026-04-06T11:09:41.294Z</time></trkpt><trkpt lat="42.97843736949879" lon="10.516827434009254"><ele>65.0</ele><time>2026-04-06T11:09:44.294Z</time></trkpt><trkpt lat="42.978364872894105" lon="10.516839741186331"><ele>65.0</ele><time>2026-04-06T11:09:47.294Z</time></trkpt><trkpt lat="42.97828797727047" lon="10.516836365412434"><ele>65.0</ele><time>2026-04-06T11:09:50.294Z</time></trkpt><trkpt lat="42.97820858175632" lon="10.516829455589626"><ele>65.0</ele><time>2026-04-06T11:09:53.294Z</time></trkpt><trkpt lat="42.97812477187592" lon="10.5168180070944"><ele>65.0</ele><time>2026-04-06T11:09:56.294Z</time></trkpt><trkpt lat="42.978054781144934" lon="10.516796894268378"><ele>65.0</ele><time>2026-04-06T11:09:59.293Z</time></trkpt><trkpt lat="42.97798083229926" lon="10.516767507998788"><ele>67.0</ele><time>2026-04-06T11:10:02.293Z</time></trkpt><trkpt lat="42.97790850367587" lon="10.516734933417876"><ele>69.0</ele><time>2026-04-06T11:10:05.293Z</time></trkpt><trkpt lat="42.97783942299579" lon="10.516692226638849"><ele>71.0</ele><time>2026-04-06T11:10:08.293Z</time></trkpt><trkpt lat="42.977779384282094" lon="10.516644174645123"><ele>73.0</ele><time>2026-04-06T11:10:11.293Z</time></trkpt><trkpt lat="42.97771024500267" lon="10.516587946583975"><ele>75.0</ele><time>2026-04-06T11:10:14.293Z</time></trkpt><trkpt lat="42.977574981605784" lon="10.516640453575228"><ele>77.0</ele><time>2026-04-06T11:10:17.293Z</time></trkpt><trkpt lat="42.977495456660456" lon="10.51669482676329"><ele>78.33333333333334</ele><time>2026-04-06T11:10:20.293Z</time></trkpt><trkpt lat="42.977438777754344" lon="10.516750916048208"><ele>79.66666666666667</ele><time>2026-04-06T11:10:22.293Z</time></trkpt><trkpt lat="42.977369295505255" lon="10.516824237215129"><ele>81.0</ele><time>2026-04-06T11:10:25.293Z</time></trkpt><trkpt lat="42.977297490364755" lon="10.516893911824333"><ele>82.33333333333333</ele><time>2026-04-06T11:10:28.293Z</time></trkpt><trkpt lat="42.977241881416006" lon="10.516947551793356"><ele>83.66666666666666</ele><time>2026-04-06T11:10:30.293Z</time></trkpt><trkpt lat="42.97717125623613" lon="10.517015676277166"><ele>85.0</ele><time>2026-04-06T11:10:33.293Z</time></trkpt><trkpt lat="42.977121075449155" lon="10.517068859286585"><ele>83.66666666666666</ele><time>2026-04-06T11:10:35.293Z</time></trkpt><trkpt lat="42.977053627125855" lon="10.517139895179126"><ele>82.33333333333333</ele><time>2026-04-06T11:10:38.293Z</time></trkpt><trkpt lat="42.97698246189311" lon="10.517215972391238"><ele>81.0</ele><time>2026-04-06T11:10:41.293Z</time></trkpt><trkpt lat="42.97692259236866" lon="10.517281024106369"><ele>79.66666666666667</ele><time>2026-04-06T11:10:44.293Z</time></trkpt><trkpt lat="42.976856953333105" lon="10.517354204041222"><ele>78.33333333333334</ele><time>2026-04-06T11:10:47.293Z</time></trkpt><trkpt lat="42.97680170253903" lon="10.517415978622708"><ele>77.0</ele><time>2026-04-06T11:10:50.293Z</time></trkpt><trkpt lat="42.97674941901773" lon="10.517476057627665"><ele>76.33333333333334</ele><time>2026-04-06T11:10:53.293Z</time></trkpt><trkpt lat="42.976679250449806" lon="10.51755668831331"><ele>75.66666666666667</ele><time>2026-04-06T11:10:56.293Z</time></trkpt><trkpt lat="42.97661678906733" lon="10.517634876704854"><ele>75.0</ele><time>2026-04-06T11:10:58.293Z</time></trkpt><trkpt lat="42.9765430885915" lon="10.517739167798254"><ele>74.33333333333333</ele><time>2026-04-06T11:11:01.293Z</time></trkpt><trkpt lat="42.976481589729254" lon="10.517832708722455"><ele>73.66666666666666</ele><time>2026-04-06T11:11:03.293Z</time></trkpt><trkpt lat="42.976432246255044" lon="10.517906820081212"><ele>73.0</ele><time>2026-04-06T11:11:05.293Z</time></trkpt><trkpt lat="42.97636235570461" lon="10.518000170705736"><ele>73.0</ele><time>2026-04-06T11:11:07.293Z</time></trkpt><trkpt lat="42.97627148827019" lon="10.51809170189091"><ele>73.0</ele><time>2026-04-06T11:11:09.293Z</time></trkpt><trkpt lat="42.976174983780744" lon="10.518160481684271"><ele>73.0</ele><time>2026-04-06T11:11:11.293Z</time></trkpt><trkpt lat="42.97607926597246" lon="10.518228700893863"><ele>73.0</ele><time>2026-04-06T11:11:13.293Z</time></trkpt><trkpt lat="42.97598788313362" lon="10.518294413046826"><ele>73.0</ele><time>2026-04-06T11:11:15.293Z</time></trkpt><trkpt lat="42.97588542568525" lon="10.51836774100339"><ele>75.4</ele><time>2026-04-06T11:11:17.293Z</time></trkpt><trkpt lat="42.975784865915216" lon="10.518444550345194"><ele>77.8</ele><time>2026-04-06T11:11:19.293Z</time></trkpt><trkpt lat="42.97569173499288" lon="10.5185230490782"><ele>80.2</ele><time>2026-04-06T11:11:21.293Z</time></trkpt><trkpt lat="42.97560147194053" lon="10.51860305369422"><ele>82.6</ele><time>2026-04-06T11:11:23.293Z</time></trkpt><trkpt lat="42.97551898741559" lon="10.51867830010686"><ele>85.0</ele><time>2026-04-06T11:11:25.293Z</time></trkpt><trkpt lat="42.975422831946666" lon="10.518767900966843"><ele>85.0</ele><time>2026-04-06T11:11:27.293Z</time></trkpt><trkpt lat="42.975334533994186" lon="10.51885505757234"><ele>85.0</ele><time>2026-04-06T11:11:29.293Z</time></trkpt><trkpt lat="42.97527479282769" lon="10.51891528797347"><ele>85.0</ele><time>2026-04-06T11:11:31.293Z</time></trkpt><trkpt lat="42.975190133938014" lon="10.519005015943266"><ele>85.0</ele><time>2026-04-06T11:11:33.293Z</time></trkpt><trkpt lat="42.975118387870026" lon="10.519081059445217"><ele>85.0</ele><time>2026-04-06T11:11:35.293Z</time></trkpt><trkpt lat="42.975048797377205" lon="10.519158756551285"><ele>84.4</ele><time>2026-04-06T11:11:37.293Z</time></trkpt><trkpt lat="42.97497621614901" lon="10.519257585798341"><ele>83.8</ele><time>2026-04-06T11:11:39.293Z</time></trkpt><trkpt lat="42.97490401044599" lon="10.51933457426034"><ele>83.19999999999999</ele><time>2026-04-06T11:11:41.293Z</time></trkpt><trkpt lat="42.97480486596858" lon="10.51939573861582"><ele>82.6</ele><time>2026-04-06T11:11:43.293Z</time></trkpt><trkpt lat="42.97472887607348" lon="10.519436950021287"><ele>82.0</ele><time>2026-04-06T11:11:45.293Z</time></trkpt><trkpt lat="42.97465191289316" lon="10.519476154847538"><ele>82.0</ele><time>2026-04-06T11:11:47.293Z</time></trkpt><trkpt lat="42.97455156767065" lon="10.519524543722959"><ele>82.0</ele><time>2026-04-06T11:11:49.293Z</time></trkpt><trkpt lat="42.97446637634193" lon="10.519564366888858"><ele>82.0</ele><time>2026-04-06T11:11:51.293Z</time></trkpt><trkpt lat="42.9743961620283" lon="10.519597759276506"><ele>82.0</ele><time>2026-04-06T11:11:53.293Z</time></trkpt><trkpt lat="42.97431871786796" lon="10.519635088955503"><ele>82.0</ele><time>2026-04-06T11:11:55.293Z</time></trkpt><trkpt lat="42.97420935538415" lon="10.519680590619899"><ele>78.75</ele><time>2026-04-06T11:11:57.293Z</time></trkpt><trkpt lat="42.97409492781421" lon="10.51971807141744"><ele>75.5</ele><time>2026-04-06T11:11:59.293Z</time></trkpt><trkpt lat="42.97398355878011" lon="10.519750968128903"><ele>72.25</ele><time>2026-04-06T11:12:01.293Z</time></trkpt><trkpt lat="42.97387456298199" lon="10.519777656962042"><ele>69.0</ele><time>2026-04-06T11:12:03.293Z</time></trkpt><trkpt lat="42.97376335338338" lon="10.519801583424773"><ele>69.0</ele><time>2026-04-06T11:12:05.291Z</time></trkpt><trkpt lat="42.9736662342286" lon="10.51982169204195"><ele>69.0</ele><time>2026-04-06T11:12:07.291Z</time></trkpt><trkpt lat="42.97356675700522" lon="10.519838959781247"><ele>69.0</ele><time>2026-04-06T11:12:09.291Z</time></trkpt><trkpt lat="42.97347503228992" lon="10.519850675081594"><ele>69.0</ele><time>2026-04-06T11:12:11.291Z</time></trkpt><trkpt lat="42.973401432500154" lon="10.51985850805004"><ele>69.0</ele><time>2026-04-06T11:12:13.291Z</time></trkpt><trkpt lat="42.97333133306823" lon="10.519865943665906"><ele>69.0</ele><time>2026-04-06T11:12:16.291Z</time></trkpt><trkpt lat="42.97324410385023" lon="10.519872692415328"><ele>68.42857142857143</ele><time>2026-04-06T11:12:20.291Z</time></trkpt><trkpt lat="42.973166878503186" lon="10.519880922618762"><ele>67.85714285714286</ele><time>2026-04-06T11:12:23.291Z</time></trkpt><trkpt lat="42.97310385954303" lon="10.51989117675966"><ele>67.28571428571429</ele><time>2026-04-06T11:12:27.291Z</time></trkpt><trkpt lat="42.973037107313694" lon="10.519906887771267"><ele>66.71428571428572</ele><time>2026-04-06T11:14:33.289Z</time></trkpt><trkpt lat="42.97296995126729" lon="10.51992345067095"><ele>66.14285714285714</ele><time>2026-04-06T11:14:36.289Z</time></trkpt><trkpt lat="42.97290353680882" lon="10.519940138668403"><ele>65.57142857142858</ele><time>2026-04-06T11:14:38.289Z</time></trkpt><trkpt lat="42.972827656622904" lon="10.519962575236379"><ele>65.0</ele><time>2026-04-06T11:14:40.289Z</time></trkpt><trkpt lat="42.9727559048388" lon="10.51998083437022"><ele>65.0</ele><time>2026-04-06T11:14:42.289Z</time></trkpt><trkpt lat="42.972664737609875" lon="10.519983876816601"><ele>65.0</ele><time>2026-04-06T11:14:44.289Z</time></trkpt><trkpt lat="42.97256079216012" lon="10.519975936272049"><ele>65.0</ele><time>2026-04-06T11:14:46.289Z</time></trkpt><trkpt lat="42.97245485767401" lon="10.519965401131994"><ele>65.0</ele><time>2026-04-06T11:14:48.289Z</time></trkpt><trkpt lat="42.97234130926835" lon="10.51995445930543"><ele>65.0</ele><time>2026-04-06T11:14:50.289Z</time></trkpt><trkpt lat="42.97222355293481" lon="10.519970699444993"><ele>64.66666666666667</ele><time>2026-04-06T11:14:52.289Z</time></trkpt><trkpt lat="42.972161407782856" lon="10.519994729766381"><ele>64.33333333333334</ele><time>2026-04-06T11:14:53.289Z</time></trkpt><trkpt lat="42.97205325181304" lon="10.520038914029719"><ele>64.0</ele><time>2026-04-06T11:14:55.289Z</time></trkpt><trkpt lat="42.97194028746533" lon="10.520087347092165"><ele>63.66666666666667</ele><time>2026-04-06T11:14:57.289Z</time></trkpt><trkpt lat="42.97187554577374" lon="10.520109211485453"><ele>63.333333333333336</ele><time>2026-04-06T11:14:58.289Z</time></trkpt><trkpt lat="42.971811545276886" lon="10.520129695222849"><ele>63.0</ele><time>2026-04-06T11:14:59.289Z</time></trkpt><trkpt lat="42.971745315743476" lon="10.52014929042892"><ele>62.4</ele><time>2026-04-06T11:15:00.289Z</time></trkpt><trkpt lat="42.971680316400324" lon="10.520168521662235"><ele>61.8</ele><time>2026-04-06T11:15:01.289Z</time></trkpt><trkpt lat="42.971562216360894" lon="10.520203463696824"><ele>61.2</ele><time>2026-04-06T11:15:03.289Z</time></trkpt><trkpt lat="42.971466583583705" lon="10.520231758385732"><ele>60.6</ele><time>2026-04-06T11:15:05.289Z</time></trkpt><trkpt lat="42.97137527227668" lon="10.520258774486846"><ele>60.0</ele><time>2026-04-06T11:15:07.289Z</time></trkpt><trkpt lat="42.97128147959891" lon="10.520284779049303"><ele>60.0</ele><time>2026-04-06T11:15:09.289Z</time></trkpt><trkpt lat="42.97121739662009" lon="10.520302378323"><ele>60.0</ele><time>2026-04-06T11:15:10.289Z</time></trkpt><trkpt lat="42.97109748373357" lon="10.520335310308651"><ele>60.0</ele><time>2026-04-06T11:15:12.289Z</time></trkpt><trkpt lat="42.97102753727785" lon="10.520354519887123"><ele>60.0</ele><time>2026-04-06T11:15:13.289Z</time></trkpt><trkpt lat="42.97095692180887" lon="10.520373913198348"><ele>60.0</ele><time>2026-04-06T11:15:14.289Z</time></trkpt><trkpt lat="42.970883935598714" lon="10.520394592686264"><ele>60.0</ele><time>2026-04-06T11:15:15.289Z</time></trkpt><trkpt lat="42.97081942895754" lon="10.52041294134869"><ele>58.666666666666664</ele><time>2026-04-06T11:15:16.289Z</time></trkpt><trkpt lat="42.97075777349299" lon="10.520430479008569"><ele>57.33333333333333</ele><time>2026-04-06T11:15:17.289Z</time></trkpt><trkpt lat="42.97065786789187" lon="10.520457999886409"><ele>56.0</ele><time>2026-04-06T11:15:19.289Z</time></trkpt><trkpt lat="42.97055667899509" lon="10.520472203584772"><ele>54.666666666666664</ele><time>2026-04-06T11:15:21.289Z</time></trkpt><trkpt lat="42.97046720008726" lon="10.52048056136213"><ele>53.33333333333333</ele><time>2026-04-06T11:15:23.289Z</time></trkpt><trkpt lat="42.97039152789162" lon="10.520489410273374"><ele>52.0</ele><time>2026-04-06T11:15:25.289Z</time></trkpt><trkpt lat="42.97030332036819" lon="10.520500120813837"><ele>52.0</ele><time>2026-04-06T11:15:27.289Z</time></trkpt><trkpt lat="42.970191195629354" lon="10.520513735490526"><ele>52.0</ele><time>2026-04-06T11:15:29.289Z</time></trkpt><trkpt lat="42.970094415957625" lon="10.520525486925097"><ele>52.0</ele><time>2026-04-06T11:15:31.289Z</time></trkpt><trkpt lat="42.969981335777526" lon="10.520543744230133"><ele>52.0</ele><time>2026-04-06T11:15:33.289Z</time></trkpt><trkpt lat="42.969872618372854" lon="10.520572426790835"><ele>52.0</ele><time>2026-04-06T11:15:35.289Z</time></trkpt><trkpt lat="42.969777938076895" lon="10.52062865812529"><ele>51.49999999999999</ele><time>2026-04-06T11:15:37.289Z</time></trkpt><trkpt lat="42.96970908632882" lon="10.520673892138927"><ele>51.0</ele><time>2026-04-06T11:15:39.289Z</time></trkpt><trkpt lat="42.969625900271595" lon="10.520708428447037"><ele>50.5</ele><time>2026-04-06T11:15:41.289Z</time></trkpt><trkpt lat="42.96955128857567" lon="10.52073540424165"><ele>50.0</ele><time>2026-04-06T11:15:43.289Z</time></trkpt><trkpt lat="42.969475089597246" lon="10.520767745333844"><ele>49.49999999999999</ele><time>2026-04-06T11:15:45.289Z</time></trkpt><trkpt lat="42.96940865438149" lon="10.520795942386084"><ele>49.0</ele><time>2026-04-06T11:15:47.289Z</time></trkpt><trkpt lat="42.96933346733149" lon="10.52083195963631"><ele>48.99999999999999</ele><time>2026-04-06T11:15:49.289Z</time></trkpt><trkpt lat="42.969268211825025" lon="10.520868318230017"><ele>49.0</ele><time>2026-04-06T11:15:51.289Z</time></trkpt><trkpt lat="42.969202344020864" lon="10.520902580875234"><ele>49.0</ele><time>2026-04-06T11:15:53.289Z</time></trkpt><trkpt lat="42.96910879228172" lon="10.520935339171393"><ele>49.0</ele><time>2026-04-06T11:15:56.289Z</time></trkpt><trkpt lat="42.96902758515549" lon="10.52094928546337"><ele>48.99999999999999</ele><time>2026-04-06T11:15:59.289Z</time></trkpt><trkpt lat="42.96896396518353" lon="10.520955748561741"><ele>49.0</ele><time>2026-04-06T11:16:02.289Z</time></trkpt><trkpt lat="42.96874518344194" lon="10.520937729810214"><ele>49.33333333333333</ele><time>2026-04-06T11:16:03.289Z</time></trkpt><trkpt lat="42.96871465915183" lon="10.520853850056413"><ele>49.666666666666664</ele><time>2026-04-06T11:16:06.289Z</time></trkpt><trkpt lat="42.96868416638171" lon="10.52077005692028"><ele>50.0</ele><time>2026-04-06T11:16:09.289Z</time></trkpt><trkpt lat="42.96865603796389" lon="10.520692105640256"><ele>50.33333333333333</ele><time>2026-04-06T11:16:11.289Z</time></trkpt><trkpt lat="42.968613237781156" lon="10.52057839074545"><ele>50.666666666666664</ele><time>2026-04-06T11:16:14.289Z</time></trkpt><trkpt lat="42.96855813730598" lon="10.520507850576918"><ele>51.0</ele><time>2026-04-06T11:16:18.287Z</time></trkpt><trkpt lat="42.968512833828775" lon="10.520407664290397"><ele>51.166666666666664</ele><time>2026-04-06T11:16:21.287Z</time></trkpt><trkpt lat="42.96848549368169" lon="10.520319898986363"><ele>51.33333333333333</ele><time>2026-04-06T11:16:24.287Z</time></trkpt><trkpt lat="42.96844727314327" lon="10.520228759679847"><ele>51.5</ele><time>2026-04-06T11:16:28.287Z</time></trkpt><trkpt lat="42.96840943099823" lon="10.520128788885707"><ele>51.666666666666664</ele><time>2026-04-06T11:16:32.287Z</time></trkpt><trkpt lat="42.96836228520349" lon="10.520010067497124"><ele>51.83333333333333</ele><time>2026-04-06T11:16:35.287Z</time></trkpt><trkpt lat="42.96832480506906" lon="10.519905875606787"><ele>52.0</ele><time>2026-04-06T11:16:37.287Z</time></trkpt><trkpt lat="42.968288389390686" lon="10.51978642103798"><ele>51.99999999999999</ele><time>2026-04-06T11:16:39.287Z</time></trkpt><trkpt lat="42.96827185366639" lon="10.5196463296264"><ele>52.0</ele><time>2026-04-06T11:16:41.287Z</time></trkpt><trkpt lat="42.96826079316918" lon="10.51956151500419"><ele>52.0</ele><time>2026-04-06T11:16:42.287Z</time></trkpt><trkpt lat="42.96823867927898" lon="10.519405306903371"><ele>52.0</ele><time>2026-04-06T11:16:44.287Z</time></trkpt><trkpt lat="42.96820734904832" lon="10.519301019586601"><ele>51.99999999999999</ele><time>2026-04-06T11:16:45.287Z</time></trkpt><trkpt lat="42.968171131089875" lon="10.519199866415285"><ele>52.0</ele><time>2026-04-06T11:16:46.287Z</time></trkpt><trkpt lat="42.96813565466072" lon="10.51910238148752"><ele>52.14285714285714</ele><time>2026-04-06T11:16:47.287Z</time></trkpt><trkpt lat="42.96811213721179" lon="10.518998181785282"><ele>52.28571428571429</ele><time>2026-04-06T11:16:48.287Z</time></trkpt><trkpt lat="42.96808329138763" lon="10.518901093089726"><ele>52.42857142857143</ele><time>2026-04-06T11:16:49.287Z</time></trkpt><trkpt lat="42.96805984088817" lon="10.518802258459509"><ele>52.57142857142857</ele><time>2026-04-06T11:16:50.287Z</time></trkpt><trkpt lat="42.9680414564053" lon="10.518702429147465"><ele>52.71428571428571</ele><time>2026-04-06T11:16:51.287Z</time></trkpt><trkpt lat="42.9680223298287" lon="10.518611511326919"><ele>52.85714285714286</ele><time>2026-04-06T11:16:52.287Z</time></trkpt><trkpt lat="42.9680037200141" lon="10.518520902062113"><ele>53.0</ele><time>2026-04-06T11:16:53.287Z</time></trkpt><trkpt lat="42.96798744168496" lon="10.518430011727274"><ele>53.0</ele><time>2026-04-06T11:16:54.287Z</time></trkpt><trkpt lat="42.96796163692907" lon="10.518263593048983"><ele>53.0</ele><time>2026-04-06T11:16:56.287Z</time></trkpt><trkpt lat="42.96791601561672" lon="10.518114621668218"><ele>53.0</ele><time>2026-04-06T11:16:58.287Z</time></trkpt><trkpt lat="42.96788956442846" lon="10.517978267434582"><ele>53.0</ele><time>2026-04-06T11:17:00.287Z</time></trkpt><trkpt lat="42.96786369952203" lon="10.517847811568364"><ele>53.0</ele><time>2026-04-06T11:17:02.287Z</time></trkpt><trkpt lat="42.9678385403071" lon="10.517736344528954"><ele>53.333333333333336</ele><time>2026-04-06T11:17:04.287Z</time></trkpt><trkpt lat="42.9678241076368" lon="10.51763212764526"><ele>53.66666666666667</ele><time>2026-04-06T11:17:09.287Z</time></trkpt><trkpt lat="42.96777166828396" lon="10.517583764161367"><ele>54.0</ele><time>2026-04-06T11:17:12.287Z</time></trkpt><trkpt lat="42.96768166029534" lon="10.517595223169312"><ele>54.33333333333333</ele><time>2026-04-06T11:17:13.287Z</time></trkpt><trkpt lat="42.9676223501794" lon="10.517631945245949"><ele>54.666666666666664</ele><time>2026-04-06T11:17:16.287Z</time></trkpt><trkpt lat="42.9676012056071" lon="10.517780978619689"><ele>55.0</ele><time>2026-04-06T11:17:20.287Z</time></trkpt><trkpt lat="42.967624064954315" lon="10.517876393372688"><ele>54.666666666666664</ele><time>2026-04-06T11:17:22.287Z</time></trkpt><trkpt lat="42.96764240149033" lon="10.51797141543894"><ele>54.33333333333333</ele><time>2026-04-06T11:17:24.287Z</time></trkpt><trkpt lat="42.96764800128563" lon="10.518072739199742"><ele>54.0</ele><time>2026-04-06T11:17:26.287Z</time></trkpt><trkpt lat="42.967658530286776" lon="10.518182727082172"><ele>53.66666666666667</ele><time>2026-04-06T11:17:28.287Z</time></trkpt><trkpt lat="42.967651305215824" lon="10.51828963341252"><ele>53.333333333333336</ele><time>2026-04-06T11:17:30.287Z</time></trkpt><trkpt lat="42.96762548730994" lon="10.51840151245816"><ele>53.0</ele><time>2026-04-06T11:17:32.287Z</time></trkpt><trkpt lat="42.9676058253461" lon="10.518512799280927"><ele>53.00000000000001</ele><time>2026-04-06T11:17:34.287Z</time></trkpt><trkpt lat="42.967578092534914" lon="10.518625475937984"><ele>53.0</ele><time>2026-04-06T11:17:36.287Z</time></trkpt><trkpt lat="42.96754667380332" lon="10.518728925905199"><ele>53.0</ele><time>2026-04-06T11:17:38.287Z</time></trkpt><trkpt lat="42.967513710465234" lon="10.518827203809073"><ele>53.0</ele><time>2026-04-06T11:17:40.287Z</time></trkpt><trkpt lat="42.96747581113627" lon="10.518937358020432"><ele>53.00000000000001</ele><time>2026-04-06T11:17:42.287Z</time></trkpt><trkpt lat="42.96743908319725" lon="10.519044107571832"><ele>53.0</ele><time>2026-04-06T11:17:44.287Z</time></trkpt><trkpt lat="42.9674032795596" lon="10.519148170661492"><ele>52.16666666666667</ele><time>2026-04-06T11:17:46.287Z</time></trkpt><trkpt lat="42.967368718324714" lon="10.519248622743092"><ele>51.333333333333336</ele><time>2026-04-06T11:17:48.287Z</time></trkpt><trkpt lat="42.967332972279436" lon="10.519350703336306"><ele>50.5</ele><time>2026-04-06T11:17:50.287Z</time></trkpt><trkpt lat="42.96729538403819" lon="10.51945718924523"><ele>49.66666666666667</ele><time>2026-04-06T11:17:52.287Z</time></trkpt><trkpt lat="42.96725875226887" lon="10.519560965579466"><ele>48.833333333333336</ele><time>2026-04-06T11:17:54.287Z</time></trkpt><trkpt lat="42.967227123312284" lon="10.519650569103426"><ele>48.0</ele><time>2026-04-06T11:17:56.287Z</time></trkpt><trkpt lat="42.96718303394004" lon="10.519764147211339"><ele>47.5</ele><time>2026-04-06T11:17:58.287Z</time></trkpt><trkpt lat="42.96713715285517" lon="10.519865645739202"><ele>47.0</ele><time>2026-04-06T11:18:00.287Z</time></trkpt><trkpt lat="42.96708493058895" lon="10.51997160533826"><ele>46.5</ele><time>2026-04-06T11:18:02.287Z</time></trkpt><trkpt lat="42.967039098680516" lon="10.5200602300835"><ele>46.0</ele><time>2026-04-06T11:18:04.287Z</time></trkpt><trkpt lat="42.96699798340152" lon="10.520135889239793"><ele>45.5</ele><time>2026-04-06T11:18:06.287Z</time></trkpt><trkpt lat="42.96695652920762" lon="10.52021146483338"><ele>45.0</ele><time>2026-04-06T11:18:08.287Z</time></trkpt><trkpt lat="42.96691113200039" lon="10.520291134511883"><ele>45.0</ele><time>2026-04-06T11:18:10.287Z</time></trkpt><trkpt lat="42.96686467172578" lon="10.520369229325084"><ele>45.0</ele><time>2026-04-06T11:18:12.287Z</time></trkpt><trkpt lat="42.966815101854166" lon="10.520443823180138"><ele>45.0</ele><time>2026-04-06T11:18:14.287Z</time></trkpt><trkpt lat="42.966760672330246" lon="10.520514009221683"><ele>45.0</ele><time>2026-04-06T11:18:16.287Z</time></trkpt><trkpt lat="42.96670241064964" lon="10.520572651544093"><ele>45.0</ele><time>2026-04-06T11:18:18.287Z</time></trkpt><trkpt lat="42.96664497693645" lon="10.520621164372415"><ele>45.0</ele><time>2026-04-06T11:18:20.287Z</time></trkpt><trkpt lat="42.96657832390744" lon="10.520673276903182"><ele>45.0</ele><time>2026-04-06T11:18:22.286Z</time></trkpt><trkpt lat="42.9665125153206" lon="10.520720806644178"><ele>45.5</ele><time>2026-04-06T11:18:24.286Z</time></trkpt><trkpt lat="42.966445464296825" lon="10.520768342411339"><ele>46.0</ele><time>2026-04-06T11:18:26.286Z</time></trkpt><trkpt lat="42.96637483353044" lon="10.520812989003481"><ele>46.5</ele><time>2026-04-06T11:18:28.286Z</time></trkpt><trkpt lat="42.96630164838728" lon="10.520853340977954"><ele>47.0</ele><time>2026-04-06T11:18:30.286Z</time></trkpt><trkpt lat="42.9662191167238" lon="10.520888478185507"><ele>47.5</ele><time>2026-04-06T11:18:32.286Z</time></trkpt><trkpt lat="42.9661271122429" lon="10.520922622895329"><ele>48.0</ele><time>2026-04-06T11:18:34.286Z</time></trkpt><trkpt lat="42.966029417034" lon="10.52095533496791"><ele>48.0</ele><time>2026-04-06T11:18:36.286Z</time></trkpt><trkpt lat="42.9659212011278" lon="10.520996519307063"><ele>48.0</ele><time>2026-04-06T11:18:38.286Z</time></trkpt><trkpt lat="42.96582467305392" lon="10.521059791763928"><ele>48.0</ele><time>2026-04-06T11:18:40.286Z</time></trkpt><trkpt lat="42.96572082699269" lon="10.521110220520345"><ele>48.0</ele><time>2026-04-06T11:18:42.286Z</time></trkpt><trkpt lat="42.96560942642662" lon="10.521161808753073"><ele>48.0</ele><time>2026-04-06T11:18:44.286Z</time></trkpt><trkpt lat="42.965502822128364" lon="10.521210132091584"><ele>47.0</ele><time>2026-04-06T11:18:46.286Z</time></trkpt><trkpt lat="42.965387006789555" lon="10.52126066970953"><ele>46.0</ele><time>2026-04-06T11:18:48.286Z</time></trkpt><trkpt lat="42.96527151997989" lon="10.52131152424494"><ele>45.0</ele><time>2026-04-06T11:18:50.286Z</time></trkpt><trkpt lat="42.96515705540466" lon="10.521364083557215"><ele>44.0</ele><time>2026-04-06T11:18:52.286Z</time></trkpt><trkpt lat="42.96504342688455" lon="10.521416258988"><ele>44.0</ele><time>2026-04-06T11:18:54.286Z</time></trkpt><trkpt lat="42.96492765780422" lon="10.52146941730205"><ele>44.0</ele><time>2026-04-06T11:18:56.286Z</time></trkpt><trkpt lat="42.964865707136305" lon="10.521497863753554"><ele>44.0</ele><time>2026-04-06T11:18:57.286Z</time></trkpt><trkpt lat="42.96479865349711" lon="10.521527497677074"><ele>44.0</ele><time>2026-04-06T11:18:58.286Z</time></trkpt><trkpt lat="42.96473250240371" lon="10.52155724559693"><ele>44.0</ele><time>2026-04-06T11:18:59.286Z</time></trkpt><trkpt lat="42.964603185374074" lon="10.52161560310596"><ele>44.0</ele><time>2026-04-06T11:19:01.286Z</time></trkpt><trkpt lat="42.96454170855145" lon="10.5216463619943"><ele>44.0</ele><time>2026-04-06T11:19:02.286Z</time></trkpt><trkpt lat="42.96447982975325" lon="10.521677321992188"><ele>44.0</ele><time>2026-04-06T11:19:03.286Z</time></trkpt><trkpt lat="42.9644177202015" lon="10.521707936218744"><ele>44.0</ele><time>2026-04-06T11:19:04.286Z</time></trkpt><trkpt lat="42.96435575876213" lon="10.521738118735282"><ele>44.0</ele><time>2026-04-06T11:19:05.286Z</time></trkpt><trkpt lat="42.964293275897624" lon="10.521766729485329"><ele>44.0</ele><time>2026-04-06T11:19:06.286Z</time></trkpt><trkpt lat="42.964231772742906" lon="10.521791187222334"><ele>44.0</ele><time>2026-04-06T11:19:07.286Z</time></trkpt><trkpt lat="42.96416460679254" lon="10.521817896858037"><ele>44.166666666666664</ele><time>2026-04-06T11:19:08.286Z</time></trkpt><trkpt lat="42.96409593579256" lon="10.521845204999847"><ele>44.33333333333333</ele><time>2026-04-06T11:19:09.286Z</time></trkpt><trkpt lat="42.96402496678343" lon="10.521873426988668"><ele>44.5</ele><time>2026-04-06T11:19:10.286Z</time></trkpt><trkpt lat="42.963952061827506" lon="10.521904209366461"><ele>44.666666666666664</ele><time>2026-04-06T11:19:11.286Z</time></trkpt><trkpt lat="42.96388376931524" lon="10.521934821329577"><ele>44.833333333333336</ele><time>2026-04-06T11:19:12.286Z</time></trkpt><trkpt lat="42.96376542199536" lon="10.521990679434019"><ele>45.0</ele><time>2026-04-06T11:19:14.286Z</time></trkpt><trkpt lat="42.96370540603417" lon="10.52201928577108"><ele>44.2</ele><time>2026-04-06T11:19:15.286Z</time></trkpt><trkpt lat="42.963587170753954" lon="10.52207380963127"><ele>43.4</ele><time>2026-04-06T11:19:17.286Z</time></trkpt><trkpt lat="42.963484185938796" lon="10.522121405234412"><ele>42.599999999999994</ele><time>2026-04-06T11:19:19.286Z</time></trkpt><trkpt lat="42.963393593749025" lon="10.522163927145359"><ele>41.8</ele><time>2026-04-06T11:19:21.286Z</time></trkpt><trkpt lat="42.96332548716277" lon="10.522196048713075"><ele>41.0</ele><time>2026-04-06T11:19:23.286Z</time></trkpt><trkpt lat="42.963254192306366" lon="10.522230449226601"><ele>40.666666666666664</ele><time>2026-04-06T11:19:25.286Z</time></trkpt><trkpt lat="42.963185866067626" lon="10.522263417335335"><ele>40.33333333333333</ele><time>2026-04-06T11:19:27.286Z</time></trkpt><trkpt lat="42.963118277946705" lon="10.522294729019405"><ele>40.0</ele><time>2026-04-06T11:19:29.286Z</time></trkpt><trkpt lat="42.96303238387565" lon="10.522310818374365"><ele>39.666666666666664</ele><time>2026-04-06T11:19:32.286Z</time></trkpt><trkpt lat="42.96296381384136" lon="10.52229876744838"><ele>39.333333333333336</ele><time>2026-04-06T11:19:35.286Z</time></trkpt><trkpt lat="42.96289621677333" lon="10.522281328889745"><ele>39.0</ele><time>2026-04-06T11:19:37.286Z</time></trkpt><trkpt lat="42.96279136012834" lon="10.522239846697296"><ele>39.0</ele><time>2026-04-06T11:19:39.286Z</time></trkpt><trkpt lat="42.96271028751577" lon="10.522213715395612"><ele>39.0</ele><time>2026-04-06T11:19:41.286Z</time></trkpt><trkpt lat="42.96266362650429" lon="10.52212393965423"><ele>39.0</ele><time>2026-04-06T11:19:43.286Z</time></trkpt><trkpt lat="42.96267030710441" lon="10.522027487097828"><ele>39.0</ele><time>2026-04-06T11:19:45.286Z</time></trkpt><trkpt lat="42.96267490928582" lon="10.521938654780023"><ele>39.0</ele><time>2026-04-06T11:19:47.286Z</time></trkpt><trkpt lat="42.96268592981117" lon="10.521822741365739"><ele>39.0</ele><time>2026-04-06T11:19:50.286Z</time></trkpt><trkpt lat="42.96269849884744" lon="10.521699683382348"><ele>39.714285714285715</ele><time>2026-04-06T11:19:53.286Z</time></trkpt><trkpt lat="42.96270038484712" lon="10.521602367650761"><ele>40.42857142857142</ele><time>2026-04-06T11:19:55.286Z</time></trkpt><trkpt lat="42.962698357526236" lon="10.521500944875676"><ele>41.14285714285714</ele><time>2026-04-06T11:19:57.286Z</time></trkpt><trkpt lat="42.9626956053862" lon="10.521399908726995"><ele>41.85714285714286</ele><time>2026-04-06T11:19:59.286Z</time></trkpt><trkpt lat="42.96269686124739" lon="10.521299496921017"><ele>42.57142857142857</ele><time>2026-04-06T11:20:01.286Z</time></trkpt><trkpt lat="42.96269156415404" lon="10.521198372601837"><ele>43.285714285714285</ele><time>2026-04-06T11:20:03.286Z</time></trkpt><trkpt lat="42.962690148263164" lon="10.521107490648822"><ele>44.0</ele><time>2026-04-06T11:20:05.286Z</time></trkpt><trkpt lat="42.96269404462638" lon="10.521005810583386"><ele>44.5</ele><time>2026-04-06T11:20:07.286Z</time></trkpt><trkpt lat="42.96269378861396" lon="10.520893329852985"><ele>45.0</ele><time>2026-04-06T11:20:10.286Z</time></trkpt><trkpt lat="42.962690424566674" lon="10.520807394538581"><ele>45.5</ele><time>2026-04-06T11:20:12.286Z</time></trkpt><trkpt lat="42.962690234296275" lon="10.520696076799078"><ele>46.0</ele><time>2026-04-06T11:20:15.286Z</time></trkpt><trkpt lat="42.96267967295065" lon="10.520586141518162"><ele>46.5</ele><time>2026-04-06T11:20:18.286Z</time></trkpt><trkpt lat="42.96261903371949" lon="10.520500362932184"><ele>47.0</ele><time>2026-04-06T11:20:21.286Z</time></trkpt><trkpt lat="42.96253758043441" lon="10.520461263217063"><ele>46.33333333333333</ele><time>2026-04-06T11:20:24.286Z</time></trkpt><trkpt lat="42.962482395822725" lon="10.520394911601233"><ele>45.666666666666664</ele><time>2026-04-06T11:20:27.286Z</time></trkpt><trkpt lat="42.96247555305202" lon="10.520307253292943"><ele>45.0</ele><time>2026-04-06T11:20:29.284Z</time></trkpt><trkpt lat="42.96246550352703" lon="10.520179777775958"><ele>44.333333333333336</ele><time>2026-04-06T11:20:32.284Z</time></trkpt><trkpt lat="42.962451245533074" lon="10.520061044280107"><ele>43.66666666666667</ele><time>2026-04-06T11:20:35.284Z</time></trkpt><trkpt lat="42.96243955426161" lon="10.519953343747783"><ele>43.0</ele><time>2026-04-06T11:20:38.284Z</time></trkpt><trkpt lat="42.962412677760454" lon="10.519858466159363"><ele>43.00000000000001</ele><time>2026-04-06T11:20:41.284Z</time></trkpt><trkpt lat="42.962393530937355" lon="10.519763069308613"><ele>43.0</ele><time>2026-04-06T11:20:44.284Z</time></trkpt><trkpt lat="42.96237562674648" lon="10.51966675864147"><ele>43.0</ele><time>2026-04-06T11:20:47.284Z</time></trkpt><trkpt lat="42.96236738818495" lon="10.519563069714083"><ele>43.0</ele><time>2026-04-06T11:20:50.284Z</time></trkpt><trkpt lat="42.96237406780332" lon="10.519452893458508"><ele>43.0</ele><time>2026-04-06T11:20:53.284Z</time></trkpt><trkpt lat="42.96238210540582" lon="10.519356832582645"><ele>43.00000000000001</ele><time>2026-04-06T11:20:56.284Z</time></trkpt><trkpt lat="42.96239194233565" lon="10.519266303982025"><ele>43.0</ele><time>2026-04-06T11:20:59.284Z</time></trkpt><trkpt lat="42.96240681210786" lon="10.519172102470243"><ele>44.0</ele><time>2026-04-06T11:21:02.284Z</time></trkpt><trkpt lat="42.9624057917206" lon="10.519068909943543"><ele>45.0</ele><time>2026-04-06T11:21:06.284Z</time></trkpt><trkpt lat="42.96239464294703" lon="10.518963518038367"><ele>46.0</ele><time>2026-04-06T11:21:10.284Z</time></trkpt><trkpt lat="42.9623988053708" lon="10.518848030942012"><ele>47.0</ele><time>2026-04-06T11:21:14.284Z</time></trkpt><trkpt lat="42.962406853892546" lon="10.518748662226233"><ele>47.99999999999999</ele><time>2026-04-06T11:21:17.284Z</time></trkpt><trkpt lat="42.96241483838559" lon="10.518652765214759"><ele>49.0</ele><time>2026-04-06T11:21:20.284Z</time></trkpt><trkpt lat="42.962427427321686" lon="10.518557203133094"><ele>50.166666666666664</ele><time>2026-04-06T11:21:23.284Z</time></trkpt><trkpt lat="42.96243813349712" lon="10.518470924910327"><ele>51.33333333333333</ele><time>2026-04-06T11:21:26.284Z</time></trkpt><trkpt lat="42.962442552711124" lon="10.518374739768568"><ele>52.5</ele><time>2026-04-06T11:21:31.284Z</time></trkpt><trkpt lat="42.96229262448332" lon="10.518356864503204"><ele>53.66666666666667</ele><time>2026-04-06T11:21:36.284Z</time></trkpt><trkpt lat="42.96222832023113" lon="10.51838216098898"><ele>54.833333333333336</ele><time>2026-04-06T11:21:38.284Z</time></trkpt><trkpt lat="42.96215246130748" lon="10.518414667234012"><ele>56.0</ele><time>2026-04-06T11:21:40.284Z</time></trkpt><trkpt lat="42.962085224054704" lon="10.51844720635562"><ele>56.00000000000001</ele><time>2026-04-06T11:21:42.284Z</time></trkpt><trkpt lat="42.96201920818011" lon="10.518481476429828"><ele>56.0</ele><time>2026-04-06T11:21:44.284Z</time></trkpt><trkpt lat="42.96195669319899" lon="10.518515194966088"><ele>56.0</ele><time>2026-04-06T11:21:46.284Z</time></trkpt><trkpt lat="42.96189594325284" lon="10.51854899223798"><ele>56.0</ele><time>2026-04-06T11:21:48.284Z</time></trkpt><trkpt lat="42.96183137347601" lon="10.518584914623704"><ele>56.00000000000001</ele><time>2026-04-06T11:21:50.284Z</time></trkpt><trkpt lat="42.9617517236346" lon="10.51862998798133"><ele>56.0</ele><time>2026-04-06T11:21:53.284Z</time></trkpt><trkpt lat="42.96166505231368" lon="10.518679957624403"><ele>55.833333333333336</ele><time>2026-04-06T11:21:56.284Z</time></trkpt><trkpt lat="42.96158366755375" lon="10.518726879488701"><ele>55.66666666666667</ele><time>2026-04-06T11:21:59.284Z</time></trkpt><trkpt lat="42.961513242664196" lon="10.51876623269043"><ele>55.5</ele><time>2026-04-06T11:22:01.284Z</time></trkpt><trkpt lat="42.96145156431295" lon="10.518800977512498"><ele>55.33333333333333</ele><time>2026-04-06T11:22:03.284Z</time></trkpt><trkpt lat="42.961374292076215" lon="10.518844506742779"><ele>55.166666666666664</ele><time>2026-04-06T11:22:06.284Z</time></trkpt><trkpt lat="42.96129355112292" lon="10.518889989962654"><ele>55.0</ele><time>2026-04-06T11:22:09.284Z</time></trkpt><trkpt lat="42.96121044448418" lon="10.518935616202638"><ele>54.99999999999999</ele><time>2026-04-06T11:22:12.284Z</time></trkpt><trkpt lat="42.96113387293759" lon="10.518977589753744"><ele>55.0</ele><time>2026-04-06T11:22:15.284Z</time></trkpt><trkpt lat="42.96107183180452" lon="10.519011598287323"><ele>55.0</ele><time>2026-04-06T11:22:17.284Z</time></trkpt><trkpt lat="42.960999450945586" lon="10.51905127465625"><ele>55.0</ele><time>2026-04-06T11:22:19.284Z</time></trkpt><trkpt lat="42.960913365449485" lon="10.519098463543019"><ele>54.99999999999999</ele><time>2026-04-06T11:22:21.284Z</time></trkpt><trkpt lat="42.96081356906839" lon="10.519156368936676"><ele>55.0</ele><time>2026-04-06T11:22:23.284Z</time></trkpt><trkpt lat="42.960701114541386" lon="10.519224290756892"><ele>54.99999999999999</ele><time>2026-04-06T11:22:25.284Z</time></trkpt><trkpt lat="42.96064225581482" lon="10.519259858193752"><ele>55.0</ele><time>2026-04-06T11:22:26.284Z</time></trkpt><trkpt lat="42.96058305394133" lon="10.519295632941589"><ele>55.0</ele><time>2026-04-06T11:22:27.284Z</time></trkpt><trkpt lat="42.96052328651258" lon="10.519328693170218"><ele>55.0</ele><time>2026-04-06T11:22:28.284Z</time></trkpt><trkpt lat="42.96046092696506" lon="10.519362746560201"><ele>55.0</ele><time>2026-04-06T11:22:29.284Z</time></trkpt><trkpt lat="42.960397922106566" lon="10.5193960626972"><ele>54.99999999999999</ele><time>2026-04-06T11:22:30.284Z</time></trkpt><trkpt lat="42.96033323404476" lon="10.519430268891574"><ele>55.0</ele><time>2026-04-06T11:22:31.284Z</time></trkpt><trkpt lat="42.96026920171731" lon="10.519464128295938"><ele>55.0</ele><time>2026-04-06T11:22:32.284Z</time></trkpt><trkpt lat="42.96016768301602" lon="10.51952275461801"><ele>55.0</ele><time>2026-04-06T11:22:34.283Z</time></trkpt><trkpt lat="42.96009832186754" lon="10.519568226544456"><ele>55.0</ele><time>2026-04-06T11:22:36.283Z</time></trkpt><trkpt lat="42.96011320059707" lon="10.519747518171547"><ele>55.0</ele><time>2026-04-06T11:22:37.283Z</time></trkpt><trkpt lat="42.960092111705684" lon="10.519887320897526"><ele>55.0</ele><time>2026-04-06T11:22:39.283Z</time></trkpt><trkpt lat="42.96006100818402" lon="10.520024385243284"><ele>54.0</ele><time>2026-04-06T11:22:41.283Z</time></trkpt><trkpt lat="42.96001712183618" lon="10.520175818928807"><ele>53.0</ele><time>2026-04-06T11:22:43.283Z</time></trkpt><trkpt lat="42.95995780591893" lon="10.520315315064535"><ele>52.0</ele><time>2026-04-06T11:22:45.283Z</time></trkpt><trkpt lat="42.95991401901161" lon="10.52040416601586"><ele>51.0</ele><time>2026-04-06T11:22:46.283Z</time></trkpt><trkpt lat="42.959867380814444" lon="10.520495701095916"><ele>50.0</ele><time>2026-04-06T11:22:47.283Z</time></trkpt><trkpt lat="42.9598195830836" lon="10.520589512181145"><ele>49.333333333333336</ele><time>2026-04-06T11:22:48.283Z</time></trkpt><trkpt lat="42.959774289633025" lon="10.520685057089047"><ele>48.66666666666667</ele><time>2026-04-06T11:22:49.283Z</time></trkpt><trkpt lat="42.959730256517624" lon="10.520777176950038"><ele>48.0</ele><time>2026-04-06T11:22:50.283Z</time></trkpt><trkpt lat="42.95969182591652" lon="10.52085757606532"><ele>47.333333333333336</ele><time>2026-04-06T11:22:51.283Z</time></trkpt><trkpt lat="42.9596208560255" lon="10.520997371809251"><ele>46.66666666666667</ele><time>2026-04-06T11:22:53.283Z</time></trkpt><trkpt lat="42.95958204260208" lon="10.52106967976024"><ele>46.0</ele><time>2026-04-06T11:22:54.283Z</time></trkpt><trkpt lat="42.95954148785387" lon="10.521140164452254"><ele>45.199999999999996</ele><time>2026-04-06T11:22:55.283Z</time></trkpt><trkpt lat="42.959456312648165" lon="10.52126437088541"><ele>44.4</ele><time>2026-04-06T11:22:57.283Z</time></trkpt><trkpt lat="42.95937838832796" lon="10.521364339812168"><ele>43.6</ele><time>2026-04-06T11:22:59.283Z</time></trkpt><trkpt lat="42.959332116177" lon="10.521450832847158"><ele>42.8</ele><time>2026-04-06T11:23:02.283Z</time></trkpt><trkpt lat="42.959290758407285" lon="10.521371850024208"><ele>42.0</ele><time>2026-04-06T11:23:04.283Z</time></trkpt><trkpt lat="42.9592262464895" lon="10.521312969933765"><ele>42.0</ele><time>2026-04-06T11:23:06.283Z</time></trkpt><trkpt lat="42.95916319911426" lon="10.52127741919845"><ele>42.0</ele><time>2026-04-06T11:23:08.283Z</time></trkpt><trkpt lat="42.95908475452587" lon="10.52125278343221"><ele>42.0</ele><time>2026-04-06T11:23:11.283Z</time></trkpt><trkpt lat="42.95900916598317" lon="10.521213654114112"><ele>42.0</ele><time>2026-04-06T11:23:15.283Z</time></trkpt><trkpt lat="42.95895526718197" lon="10.521157952474848"><ele>42.0</ele><time>2026-04-06T11:23:19.283Z</time></trkpt><trkpt lat="42.95900443073995" lon="10.521222771684675"><ele>42.0</ele><time>2026-04-06T11:23:36.283Z</time></trkpt><trkpt lat="42.959062608430045" lon="10.521266226726308"><ele>42.0</ele><time>2026-04-06T11:23:38.283Z</time></trkpt><trkpt lat="42.95928530494836" lon="10.521341052627019"><ele>42.0</ele><time>2026-04-06T11:23:43.283Z</time></trkpt><trkpt lat="42.95934671355872" lon="10.521425795474263"><ele>42.0</ele><time>2026-04-06T11:23:45.283Z</time></trkpt><trkpt lat="42.959288453686945" lon="10.521514218891763"><ele>42.0</ele><time>2026-04-06T11:23:48.283Z</time></trkpt><trkpt lat="42.95916554488924" lon="10.521281796219666"><ele>42.0</ele><time>2026-04-06T11:23:52.283Z</time></trkpt><trkpt lat="42.95906517239657" lon="10.521245751249456"><ele>42.25</ele><time>2026-04-06T11:23:54.283Z</time></trkpt><trkpt lat="42.958961606196006" lon="10.521208558960017"><ele>42.5</ele><time>2026-04-06T11:23:56.283Z</time></trkpt><trkpt lat="42.9588913253628" lon="10.521161115720167"><ele>42.75</ele><time>2026-04-06T11:23:58.283Z</time></trkpt><trkpt lat="42.95883829787025" lon="10.521071488089566"><ele>43.0</ele><time>2026-04-06T11:24:01.283Z</time></trkpt><trkpt lat="42.958550753682516" lon="10.52158499704293"><ele>43.00000000000001</ele><time>2026-04-06T11:24:05.283Z</time></trkpt><trkpt lat="42.95851921083375" lon="10.521663964697737"><ele>43.0</ele><time>2026-04-06T11:24:08.283Z</time></trkpt><trkpt lat="42.958558414515366" lon="10.52158694455109"><ele>43.0</ele><time>2026-04-06T11:24:14.283Z</time></trkpt><trkpt lat="42.95862108757652" lon="10.521504363041492"><ele>43.0</ele><time>2026-04-06T11:24:17.283Z</time></trkpt><trkpt lat="42.95868739081344" lon="10.521502912704928"><ele>43.0</ele><time>2026-04-06T11:24:19.283Z</time></trkpt><trkpt lat="42.958780314759856" lon="10.521496817674452"><ele>43.00000000000001</ele><time>2026-04-06T11:24:22.283Z</time></trkpt><trkpt lat="42.95884540301962" lon="10.521507602687587"><ele>43.0</ele><time>2026-04-06T11:24:24.283Z</time></trkpt><trkpt lat="42.95893506932288" lon="10.521508253982944"><ele>43.00000000000001</ele><time>2026-04-06T11:24:27.283Z</time></trkpt><trkpt lat="42.95902317533925" lon="10.52150334012612"><ele>43.0</ele><time>2026-04-06T11:24:30.283Z</time></trkpt><trkpt lat="42.95908612542292" lon="10.52150822343313"><ele>43.0</ele><time>2026-04-06T11:24:32.283Z</time></trkpt><trkpt lat="42.959150293847586" lon="10.521502083376888"><ele>43.0</ele><time>2026-04-06T11:24:34.283Z</time></trkpt><trkpt lat="42.95922654459894" lon="10.52150424924436"><ele>43.0</ele><time>2026-04-06T11:24:37.283Z</time></trkpt><trkpt lat="42.959297320578514" lon="10.521502330955537"><ele>43.00000000000001</ele><time>2026-04-06T11:24:40.282Z</time></trkpt><trkpt lat="42.959342731553356" lon="10.521581742235611"><ele>43.0</ele><time>2026-04-06T11:24:44.282Z</time></trkpt><trkpt lat="42.959344832369034" lon="10.521676376129642"><ele>42.85714285714286</ele><time>2026-04-06T11:24:46.282Z</time></trkpt><trkpt lat="42.95935849373467" lon="10.521806143728535"><ele>42.714285714285715</ele><time>2026-04-06T11:24:49.282Z</time></trkpt><trkpt lat="42.959369594423165" lon="10.521895744273065"><ele>42.57142857142857</ele><time>2026-04-06T11:24:51.282Z</time></trkpt><trkpt lat="42.95937941288392" lon="10.521987581158212"><ele>42.42857142857143</ele><time>2026-04-06T11:24:53.282Z</time></trkpt><trkpt lat="42.959391109625564" lon="10.522079948397602"><ele>42.285714285714285</ele><time>2026-04-06T11:24:55.282Z</time></trkpt><trkpt lat="42.959402241522056" lon="10.522174119343045"><ele>42.142857142857146</ele><time>2026-04-06T11:24:57.282Z</time></trkpt><trkpt lat="42.95941327875137" lon="10.522272477997122"><ele>42.0</ele><time>2026-04-06T11:24:59.282Z</time></trkpt><trkpt lat="42.959432158977776" lon="10.522383198265075"><ele>41.6</ele><time>2026-04-06T11:25:01.282Z</time></trkpt><trkpt lat="42.95944811928833" lon="10.522504617299878"><ele>41.2</ele><time>2026-04-06T11:25:03.282Z</time></trkpt><trkpt lat="42.95945927973288" lon="10.52263994908873"><ele>40.8</ele><time>2026-04-06T11:25:05.282Z</time></trkpt><trkpt lat="42.95947271069171" lon="10.52277143440806"><ele>40.4</ele><time>2026-04-06T11:25:07.282Z</time></trkpt><trkpt lat="42.95949171013542" lon="10.522908545105334"><ele>40.0</ele><time>2026-04-06T11:25:09.282Z</time></trkpt><trkpt lat="42.959505484111205" lon="10.52305397723276"><ele>39.8</ele><time>2026-04-06T11:25:11.282Z</time></trkpt><trkpt lat="42.95952276031493" lon="10.523199392000656"><ele>39.6</ele><time>2026-04-06T11:25:13.282Z</time></trkpt><trkpt lat="42.95954120464893" lon="10.52334459170469"><ele>39.4</ele><time>2026-04-06T11:25:15.282Z</time></trkpt><trkpt lat="42.9595462250721" lon="10.523502477707645"><ele>39.2</ele><time>2026-04-06T11:25:17.282Z</time></trkpt><trkpt lat="42.959564237652444" lon="10.523659447188647"><ele>39.0</ele><time>2026-04-06T11:25:19.282Z</time></trkpt><trkpt lat="42.95958237690882" lon="10.52382442496632"><ele>38.833333333333336</ele><time>2026-04-06T11:25:21.282Z</time></trkpt><trkpt lat="42.95960018634489" lon="10.523992373004779"><ele>38.666666666666664</ele><time>2026-04-06T11:25:23.282Z</time></trkpt><trkpt lat="42.95960944691531" lon="10.524079702819773"><ele>38.5</ele><time>2026-04-06T11:25:24.282Z</time></trkpt><trkpt lat="42.9596186476261" lon="10.524166468135977"><ele>38.33333333333333</ele><time>2026-04-06T11:25:25.282Z</time></trkpt><trkpt lat="42.95962794689675" lon="10.524254162962666"><ele>38.166666666666664</ele><time>2026-04-06T11:25:26.282Z</time></trkpt><trkpt lat="42.959637347475116" lon="10.524342813113162"><ele>38.0</ele><time>2026-04-06T11:25:27.282Z</time></trkpt><trkpt lat="42.959647570439216" lon="10.524433401787178"><ele>38.0</ele><time>2026-04-06T11:25:28.282Z</time></trkpt><trkpt lat="42.95965794066389" lon="10.52452378420236"><ele>38.0</ele><time>2026-04-06T11:25:29.282Z</time></trkpt><trkpt lat="42.959668312871706" lon="10.524614183966545"><ele>38.0</ele><time>2026-04-06T11:25:30.282Z</time></trkpt><trkpt lat="42.959678766321986" lon="10.524705292357869"><ele>38.0</ele><time>2026-04-06T11:25:31.282Z</time></trkpt><trkpt lat="42.95969098073369" lon="10.524794819340212"><ele>38.0</ele><time>2026-04-06T11:25:32.282Z</time></trkpt><trkpt lat="42.95970296926901" lon="10.52488810045538"><ele>38.0</ele><time>2026-04-06T11:25:33.282Z</time></trkpt><trkpt lat="42.95971480311513" lon="10.524978636693822"><ele>38.0</ele><time>2026-04-06T11:25:34.282Z</time></trkpt><trkpt lat="42.95971080101999" lon="10.525116226106862"><ele>37.4</ele><time>2026-04-06T11:25:36.282Z</time></trkpt><trkpt lat="42.959649264098694" lon="10.525202532485347"><ele>36.8</ele><time>2026-04-06T11:25:38.282Z</time></trkpt><trkpt lat="42.95955893251088" lon="10.525193547888238"><ele>36.2</ele><time>2026-04-06T11:25:40.282Z</time></trkpt><trkpt lat="42.95947287854201" lon="10.52519574772596"><ele>35.6</ele><time>2026-04-06T11:25:42.282Z</time></trkpt><trkpt lat="42.959379900669376" lon="10.525202677768762"><ele>35.0</ele><time>2026-04-06T11:25:44.282Z</time></trkpt><trkpt lat="42.959290055489554" lon="10.525243804436979"><ele>35.0</ele><time>2026-04-06T11:25:46.282Z</time></trkpt><trkpt lat="42.95924184515286" lon="10.525368227181975"><ele>35.0</ele><time>2026-04-06T11:25:48.282Z</time></trkpt><trkpt lat="42.95927389904302" lon="10.525450548855561"><ele>35.0</ele><time>2026-04-06T11:25:49.282Z</time></trkpt><trkpt lat="42.95927295022912" lon="10.525575695926669"><ele>35.0</ele><time>2026-04-06T11:25:51.282Z</time></trkpt><trkpt lat="42.95929811990392" lon="10.525687993507798"><ele>35.0</ele><time>2026-04-06T11:25:53.282Z</time></trkpt><trkpt lat="42.95931063457659" lon="10.525796579307933"><ele>35.0</ele><time>2026-04-06T11:25:55.282Z</time></trkpt><trkpt lat="42.95929963505244" lon="10.525907332075302"><ele>35.0</ele><time>2026-04-06T11:25:58.282Z</time></trkpt><trkpt lat="42.95921978646675" lon="10.525821814273396"><ele>35.0</ele><time>2026-04-06T11:26:01.282Z</time></trkpt><trkpt lat="42.95914316382045" lon="10.525773225250779"><ele>35.0</ele><time>2026-04-06T11:26:03.282Z</time></trkpt><trkpt lat="42.959054373227346" lon="10.525716166520787"><ele>35.0</ele><time>2026-04-06T11:26:05.282Z</time></trkpt><trkpt lat="42.95894649828871" lon="10.52565066602988"><ele>35.0</ele><time>2026-04-06T11:26:07.282Z</time></trkpt><trkpt lat="42.95888334823032" lon="10.5256177048734"><ele>34.666666666666664</ele><time>2026-04-06T11:26:08.282Z</time></trkpt><trkpt lat="42.95881416112006" lon="10.525585840145519"><ele>34.33333333333333</ele><time>2026-04-06T11:26:09.282Z</time></trkpt><trkpt lat="42.95873854453746" lon="10.525564588407331"><ele>34.0</ele><time>2026-04-06T11:26:10.282Z</time></trkpt><trkpt lat="42.958654810173286" lon="10.525554701027174"><ele>33.666666666666664</ele><time>2026-04-06T11:26:11.282Z</time></trkpt><trkpt lat="42.95857299930061" lon="10.525555888164877"><ele>33.333333333333336</ele><time>2026-04-06T11:26:12.282Z</time></trkpt><trkpt lat="42.95849370428237" lon="10.525559125241397"><ele>33.0</ele><time>2026-04-06T11:26:13.282Z</time></trkpt><trkpt lat="42.95841526150952" lon="10.52556232752799"><ele>32.5</ele><time>2026-04-06T11:26:14.282Z</time></trkpt><trkpt lat="42.95833735610808" lon="10.525565507876344"><ele>32.0</ele><time>2026-04-06T11:26:15.282Z</time></trkpt><trkpt lat="42.95825933252393" lon="10.52556860206596"><ele>31.5</ele><time>2026-04-06T11:26:16.282Z</time></trkpt><trkpt lat="42.958179889236234" lon="10.525571714451887"><ele>31.0</ele><time>2026-04-06T11:26:17.282Z</time></trkpt><trkpt lat="42.9580936608861" lon="10.525585824905393"><ele>30.5</ele><time>2026-04-06T11:26:18.282Z</time></trkpt><trkpt lat="42.958020808434874" lon="10.525600034940519"><ele>30.0</ele><time>2026-04-06T11:26:19.282Z</time></trkpt><trkpt lat="42.957953442220294" lon="10.525622397825309"><ele>30.0</ele><time>2026-04-06T11:26:20.282Z</time></trkpt><trkpt lat="42.95788758735244" lon="10.52564028275367"><ele>30.0</ele><time>2026-04-06T11:26:21.282Z</time></trkpt><trkpt lat="42.95776715081955" lon="10.525672101491809"><ele>30.0</ele><time>2026-04-06T11:26:23.282Z</time></trkpt><trkpt lat="42.957705098110765" lon="10.525688495512428"><ele>30.0</ele><time>2026-04-06T11:26:24.282Z</time></trkpt><trkpt lat="42.95758641760393" lon="10.525722167862755"><ele>30.0</ele><time>2026-04-06T11:26:26.282Z</time></trkpt><trkpt lat="42.95747209557054" lon="10.525752559248506"><ele>30.333333333333332</ele><time>2026-04-06T11:26:28.282Z</time></trkpt><trkpt lat="42.95736232532359" lon="10.525752826635884"><ele>30.666666666666664</ele><time>2026-04-06T11:26:30.282Z</time></trkpt><trkpt lat="42.95727244578482" lon="10.525820194511356"><ele>31.0</ele><time>2026-04-06T11:26:32.282Z</time></trkpt><trkpt lat="42.95720238148865" lon="10.525800650874261"><ele>31.333333333333332</ele><time>2026-04-06T11:26:34.282Z</time></trkpt><trkpt lat="42.957139093780064" lon="10.52582639095118"><ele>31.666666666666664</ele><time>2026-04-06T11:26:36.282Z</time></trkpt><trkpt lat="42.957075003557236" lon="10.525833930511968"><ele>32.0</ele><time>2026-04-06T11:26:38.282Z</time></trkpt><trkpt lat="42.957008849676406" lon="10.52583242055583"><ele>31.999999999999996</ele><time>2026-04-06T11:26:40.282Z</time></trkpt><trkpt lat="42.95694355059395" lon="10.525835694281344"><ele>32.0</ele><time>2026-04-06T11:26:42.282Z</time></trkpt><trkpt lat="42.95687540760349" lon="10.525833283747732"><ele>32.0</ele><time>2026-04-06T11:26:44.282Z</time></trkpt><trkpt lat="42.9567901557582" lon="10.525810992009069"><ele>32.0</ele><time>2026-04-06T11:26:47.28Z</time></trkpt><trkpt lat="42.95669446248423" lon="10.525814500959063"><ele>31.999999999999996</ele><time>2026-04-06T11:26:50.28Z</time></trkpt><trkpt lat="42.95660587695669" lon="10.5258159561382"><ele>32.0</ele><time>2026-04-06T11:26:53.28Z</time></trkpt><trkpt lat="42.956513350135346" lon="10.525823523773473"><ele>32.14285714285714</ele><time>2026-04-06T11:26:56.28Z</time></trkpt><trkpt lat="42.95642572886119" lon="10.525821290263917"><ele>32.285714285714285</ele><time>2026-04-06T11:26:59.28Z</time></trkpt><trkpt lat="42.9563423018384" lon="10.525806700278624"><ele>32.42857142857143</ele><time>2026-04-06T11:27:02.28Z</time></trkpt><trkpt lat="42.956277149298046" lon="10.525802571472177"><ele>32.57142857142857</ele><time>2026-04-06T11:27:04.28Z</time></trkpt><trkpt lat="42.956213849121994" lon="10.525808950306741"><ele>32.714285714285715</ele><time>2026-04-06T11:27:06.28Z</time></trkpt><trkpt lat="42.95614457832097" lon="10.525810504046614"><ele>32.857142857142854</ele><time>2026-04-06T11:27:08.28Z</time></trkpt><trkpt lat="42.956081262886244" lon="10.525803111599945"><ele>33.0</ele><time>2026-04-06T11:27:10.28Z</time></trkpt><trkpt lat="42.956002485932544" lon="10.525811679615082"><ele>33.0</ele><time>2026-04-06T11:27:13.28Z</time></trkpt><trkpt lat="42.9559165965073" lon="10.525814981794754"><ele>33.0</ele><time>2026-04-06T11:27:16.28Z</time></trkpt><trkpt lat="42.95582822811873" lon="10.525824643951156"><ele>33.0</ele><time>2026-04-06T11:27:19.28Z</time></trkpt><trkpt lat="42.955741756809694" lon="10.525827432152091"><ele>33.0</ele><time>2026-04-06T11:27:22.28Z</time></trkpt><trkpt lat="42.955649341821925" lon="10.525831729278629"><ele>33.0</ele><time>2026-04-06T11:27:25.28Z</time></trkpt><trkpt lat="42.95556304153394" lon="10.525837663238967"><ele>33.0</ele><time>2026-04-06T11:27:28.28Z</time></trkpt><trkpt lat="42.9554999746076" lon="10.525843401472304"><ele>34.166666666666664</ele><time>2026-04-06T11:27:30.28Z</time></trkpt><trkpt lat="42.95543675575023" lon="10.525844239087295"><ele>35.333333333333336</ele><time>2026-04-06T11:27:32.28Z</time></trkpt><trkpt lat="42.95534981262233" lon="10.52585290275118"><ele>36.5</ele><time>2026-04-06T11:27:35.28Z</time></trkpt><trkpt lat="42.9552618093788" lon="10.52586065623158"><ele>37.66666666666667</ele><time>2026-04-06T11:27:38.28Z</time></trkpt><trkpt lat="42.95517601488825" lon="10.525864333722378"><ele>38.833333333333336</ele><time>2026-04-06T11:27:41.28Z</time></trkpt><trkpt lat="42.95509012040626" lon="10.525891906280542"><ele>40.0</ele><time>2026-04-06T11:27:44.28Z</time></trkpt><trkpt lat="42.9550112552234" lon="10.525901547710477"><ele>40.66666666666667</ele><time>2026-04-06T11:27:47.28Z</time></trkpt><trkpt lat="42.95492859239358" lon="10.525907973691238"><ele>41.333333333333336</ele><time>2026-04-06T11:27:50.28Z</time></trkpt><trkpt lat="42.954852242184444" lon="10.525898350228738"><ele>42.0</ele><time>2026-04-06T11:27:53.28Z</time></trkpt><trkpt lat="42.95478007704261" lon="10.52590505878214"><ele>42.666666666666664</ele><time>2026-04-06T11:27:57.28Z</time></trkpt><trkpt lat="42.954702438141226" lon="10.525922912988612"><ele>43.33333333333333</ele><time>2026-04-06T11:28:01.28Z</time></trkpt><trkpt lat="42.954622614174525" lon="10.52592893263816"><ele>44.0</ele><time>2026-04-06T11:28:04.28Z</time></trkpt><trkpt lat="42.954544195278274" lon="10.525933112585053"><ele>44.0</ele><time>2026-04-06T11:28:07.28Z</time></trkpt><trkpt lat="42.95446818254799" lon="10.525936066087773"><ele>44.0</ele><time>2026-04-06T11:28:10.28Z</time></trkpt><trkpt lat="42.95439143790754" lon="10.525939048028398"><ele>44.0</ele><time>2026-04-06T11:28:13.28Z</time></trkpt><trkpt lat="42.954316502234285" lon="10.525941959686634"><ele>44.0</ele><time>2026-04-06T11:28:16.28Z</time></trkpt><trkpt lat="42.95424618340162" lon="10.525944691951844"><ele>44.0</ele><time>2026-04-06T11:28:19.28Z</time></trkpt><trkpt lat="42.95417828637927" lon="10.525947330119047"><ele>44.0</ele><time>2026-04-06T11:28:22.28Z</time></trkpt><trkpt lat="42.954108550884506" lon="10.525959814635144"><ele>44.0</ele><time>2026-04-06T11:28:26.28Z</time></trkpt><trkpt lat="42.954063669704375" lon="10.52585486250016"><ele>44.714285714285715</ele><time>2026-04-06T11:28:28.28Z</time></trkpt><trkpt lat="42.95402325521301" lon="10.525757779242902"><ele>45.42857142857143</ele><time>2026-04-06T11:28:59.279Z</time></trkpt><trkpt lat="42.95400840797331" lon="10.52565162252396"><ele>46.14285714285714</ele><time>2026-04-06T11:29:02.279Z</time></trkpt><trkpt lat="42.95400122399289" lon="10.525551161275539"><ele>46.85714285714286</ele><time>2026-04-06T11:29:05.279Z</time></trkpt><trkpt lat="42.953990515913645" lon="10.525453849952498"><ele>47.57142857142857</ele><time>2026-04-06T11:29:08.279Z</time></trkpt><trkpt lat="42.95397792684982" lon="10.525358668280198"><ele>48.285714285714285</ele><time>2026-04-06T11:29:11.279Z</time></trkpt><trkpt lat="42.953965753230456" lon="10.525263291285698"><ele>49.0</ele><time>2026-04-06T11:29:14.279Z</time></trkpt><trkpt lat="42.95395585566786" lon="10.525160057862625"><ele>49.33333333333333</ele><time>2026-04-06T11:29:17.279Z</time></trkpt><trkpt lat="42.953939997363776" lon="10.525058289731156"><ele>49.666666666666664</ele><time>2026-04-06T11:29:20.279Z</time></trkpt><trkpt lat="42.953927524590156" lon="10.524958976764314"><ele>50.0</ele><time>2026-04-06T11:29:23.279Z</time></trkpt><trkpt lat="42.953915314663156" lon="10.524854126115919"><ele>50.33333333333333</ele><time>2026-04-06T11:29:26.279Z</time></trkpt><trkpt lat="42.9539094101467" lon="10.524743105291329"><ele>50.666666666666664</ele><time>2026-04-06T11:29:29.279Z</time></trkpt><trkpt lat="42.95389400228013" lon="10.524633152927754"><ele>51.0</ele><time>2026-04-06T11:29:32.279Z</time></trkpt><trkpt lat="42.95388117728488" lon="10.524518832364823"><ele>51.666666666666664</ele><time>2026-04-06T11:29:35.279Z</time></trkpt><trkpt lat="42.953866061155566" lon="10.524411659619826"><ele>52.33333333333333</ele><time>2026-04-06T11:29:38.279Z</time></trkpt><trkpt lat="42.9538568174778" lon="10.524303220678544"><ele>53.0</ele><time>2026-04-06T11:29:41.279Z</time></trkpt><trkpt lat="42.953845126615576" lon="10.524189539644869"><ele>53.666666666666664</ele><time>2026-04-06T11:29:44.279Z</time></trkpt><trkpt lat="42.95383694791987" lon="10.524086250400469"><ele>54.33333333333333</ele><time>2026-04-06T11:29:47.279Z</time></trkpt><trkpt lat="42.95382680740391" lon="10.523990072907583"><ele>55.0</ele><time>2026-04-06T11:29:50.279Z</time></trkpt><trkpt lat="42.953815808723576" lon="10.52390304774005"><ele>54.99999999999999</ele><time>2026-04-06T11:29:53.279Z</time></trkpt><trkpt lat="42.95381781481005" lon="10.523794608692237"><ele>55.0</ele><time>2026-04-06T11:29:57.279Z</time></trkpt><trkpt lat="42.95378613216264" lon="10.523711472259384"><ele>55.0</ele><time>2026-04-06T11:30:01.279Z</time></trkpt><trkpt lat="42.953720779412386" lon="10.523714387425297"><ele>55.0</ele><time>2026-04-06T11:30:05.279Z</time></trkpt><trkpt lat="42.95364854677345" lon="10.523745184700848"><ele>55.0</ele><time>2026-04-06T11:30:10.279Z</time></trkpt><trkpt lat="42.953580543449384" lon="10.523759461939086"><ele>54.99999999999999</ele><time>2026-04-06T11:30:14.279Z</time></trkpt><trkpt lat="42.953498377557615" lon="10.523780866118265"><ele>55.0</ele><time>2026-04-06T11:30:18.279Z</time></trkpt><trkpt lat="42.95343193280835" lon="10.52379605964979"><ele>56.42857142857142</ele><time>2026-04-06T11:30:21.279Z</time></trkpt><trkpt lat="42.95336200795412" lon="10.523838556477125"><ele>57.85714285714286</ele><time>2026-04-06T11:30:25.279Z</time></trkpt><trkpt lat="42.953284295629224" lon="10.52387491281744"><ele>59.28571428571429</ele><time>2026-04-06T11:30:29.279Z</time></trkpt><trkpt lat="42.9532191731856" lon="10.523883764144358"><ele>60.714285714285715</ele><time>2026-04-06T11:30:32.279Z</time></trkpt><trkpt lat="42.95315241216266" lon="10.52389591043161"><ele>62.142857142857146</ele><time>2026-04-06T11:30:35.279Z</time></trkpt><trkpt lat="42.953073903651" lon="10.523922464562258"><ele>63.57142857142858</ele><time>2026-04-06T11:30:39.279Z</time></trkpt><trkpt lat="42.953011417633526" lon="10.523943658945235"><ele>65.0</ele><time>2026-04-06T11:30:42.279Z</time></trkpt><trkpt lat="42.952945235748025" lon="10.5239707422155"><ele>65.00000000000001</ele><time>2026-04-06T11:30:45.279Z</time></trkpt><trkpt lat="42.95288243253389" lon="10.52397845848822"><ele>65.0</ele><time>2026-04-06T11:30:48.279Z</time></trkpt><trkpt lat="42.95281854173388" lon="10.523970936586288"><ele>65.0</ele><time>2026-04-06T11:30:51.279Z</time></trkpt><trkpt lat="42.95275306833371" lon="10.523965528056161"><ele>65.0</ele><time>2026-04-06T11:30:54.279Z</time></trkpt><trkpt lat="42.952677556912306" lon="10.523941673791098"><ele>65.0</ele><time>2026-04-06T11:30:58.277Z</time></trkpt><trkpt lat="42.95261367449007" lon="10.523919215114423"><ele>65.00000000000001</ele><time>2026-04-06T11:31:01.277Z</time></trkpt><trkpt lat="42.952562262632064" lon="10.523860775173134"><ele>65.0</ele><time>2026-04-06T11:31:05.277Z</time></trkpt><trkpt lat="42.95251444894353" lon="10.523789285586767"><ele>65.0</ele><time>2026-04-06T11:31:10.277Z</time></trkpt><trkpt lat="42.95255750379028" lon="10.523883844910387"><ele>65.0</ele><time>2026-04-06T11:31:27.277Z</time></trkpt><trkpt lat="42.95262948896314" lon="10.523922347092311"><ele>65.0</ele><time>2026-04-06T11:31:30.277Z</time></trkpt><trkpt lat="42.95270616995543" lon="10.523947736096385"><ele>65.0</ele><time>2026-04-06T11:31:33.277Z</time></trkpt><trkpt lat="42.95276957360097" lon="10.523965767196914"><ele>65.0</ele><time>2026-04-06T11:31:36.277Z</time></trkpt><trkpt lat="42.952837055385025" lon="10.523967790119404"><ele>65.0</ele><time>2026-04-06T11:31:39.277Z</time></trkpt><trkpt lat="42.95291996412121" lon="10.523974180298604"><ele>65.0</ele><time>2026-04-06T11:31:42.277Z</time></trkpt><trkpt lat="42.95300531241514" lon="10.523959817393678"><ele>65.0</ele><time>2026-04-06T11:31:45.277Z</time></trkpt><trkpt lat="42.95308697531379" lon="10.523936600711531"><ele>65.0</ele><time>2026-04-06T11:31:48.277Z</time></trkpt><trkpt lat="42.9531427242723" lon="10.523892216547338"><ele>65.0</ele><time>2026-04-06T11:31:50.277Z</time></trkpt><trkpt lat="42.95321692092304" lon="10.523877920828676"><ele>65.0</ele><time>2026-04-06T11:31:52.277Z</time></trkpt><trkpt lat="42.95328547154504" lon="10.523856524206384"><ele>65.0</ele><time>2026-04-06T11:31:54.277Z</time></trkpt><trkpt lat="42.95337200972628" lon="10.523810338911565"><ele>64.66666666666667</ele><time>2026-04-06T11:31:57.277Z</time></trkpt><trkpt lat="42.95343433811848" lon="10.523796478102735"><ele>64.33333333333334</ele><time>2026-04-06T11:31:59.277Z</time></trkpt><trkpt lat="42.95350970132407" lon="10.523780241050844"><ele>64.0</ele><time>2026-04-06T11:32:01.277Z</time></trkpt><trkpt lat="42.95359978481727" lon="10.523732701895963"><ele>63.66666666666667</ele><time>2026-04-06T11:32:04.277Z</time></trkpt><trkpt lat="42.95366567793572" lon="10.523718847262472"><ele>63.333333333333336</ele><time>2026-04-06T11:32:06.277Z</time></trkpt><trkpt lat="42.95375455532047" lon="10.52370927224"><ele>63.0</ele><time>2026-04-06T11:32:09.277Z</time></trkpt><trkpt lat="42.95381630222463" lon="10.523662138364337"><ele>63.0</ele><time>2026-04-06T11:32:11.277Z</time></trkpt><trkpt lat="42.95387684421857" lon="10.523596384755825"><ele>63.0</ele><time>2026-04-06T11:32:13.277Z</time></trkpt><trkpt lat="42.95398178949417" lon="10.523586654882228"><ele>63.0</ele><time>2026-04-06T11:32:18.277Z</time></trkpt><trkpt lat="42.95405257170956" lon="10.523578007582268"><ele>63.0</ele><time>2026-04-06T11:32:20.277Z</time></trkpt><trkpt lat="42.954122562884486" lon="10.523550773029713"><ele>63.0</ele><time>2026-04-06T11:32:22.277Z</time></trkpt><trkpt lat="42.954191797070145" lon="10.523522288786038"><ele>63.0</ele><time>2026-04-06T11:32:24.277Z</time></trkpt><trkpt lat="42.954268203327665" lon="10.52348915951405"><ele>62.166666666666664</ele><time>2026-04-06T11:32:26.277Z</time></trkpt><trkpt lat="42.9543468716266" lon="10.523464960476772"><ele>61.33333333333333</ele><time>2026-04-06T11:32:28.277Z</time></trkpt><trkpt lat="42.954426679211196" lon="10.52343733935671"><ele>60.5</ele><time>2026-04-06T11:32:30.277Z</time></trkpt><trkpt lat="42.95450197273656" lon="10.52339053919952"><ele>59.666666666666664</ele><time>2026-04-06T11:32:32.277Z</time></trkpt><trkpt lat="42.954579171015396" lon="10.523355106778324"><ele>58.83333333333333</ele><time>2026-04-06T11:32:34.277Z</time></trkpt><trkpt lat="42.9546443654605" lon="10.523327240179324"><ele>58.0</ele><time>2026-04-06T11:32:36.277Z</time></trkpt><trkpt lat="42.9547222761177" lon="10.523304950255756"><ele>58.00000000000001</ele><time>2026-04-06T11:32:38.277Z</time></trkpt><trkpt lat="42.954792880128544" lon="10.523283800841147"><ele>58.0</ele><time>2026-04-06T11:32:40.277Z</time></trkpt><trkpt lat="42.95485940196189" lon="10.523249637817953"><ele>58.00000000000001</ele><time>2026-04-06T11:32:42.277Z</time></trkpt><trkpt lat="42.9549245224338" lon="10.523216714678306"><ele>58.00000000000001</ele><time>2026-04-06T11:32:45.277Z</time></trkpt><trkpt lat="42.95498720798172" lon="10.52318293442157"><ele>58.0</ele><time>2026-04-06T11:32:48.277Z</time></trkpt><trkpt lat="42.955056737471644" lon="10.523141902677109"><ele>58.00000000000001</ele><time>2026-04-06T11:32:52.277Z</time></trkpt><trkpt lat="42.95501310023725" lon="10.523225346577906"><ele>58.00000000000001</ele><time>2026-04-06T11:32:58.277Z</time></trkpt><trkpt lat="42.95495001005791" lon="10.523210620202278"><ele>58.00000000000001</ele><time>2026-04-06T11:33:01.277Z</time></trkpt><trkpt lat="42.95487537330898" lon="10.523241704276044"><ele>58.0</ele><time>2026-04-06T11:33:05.275Z</time></trkpt><trkpt lat="42.95480905541975" lon="10.523272247988668"><ele>58.00000000000001</ele><time>2026-04-06T11:33:08.275Z</time></trkpt><trkpt lat="42.95474708148209" lon="10.523308309421626"><ele>58.00000000000001</ele><time>2026-04-06T11:33:11.275Z</time></trkpt><trkpt lat="42.95468124231703" lon="10.523323268949277"><ele>58.0</ele><time>2026-04-06T11:33:14.275Z</time></trkpt><trkpt lat="42.95460705999205" lon="10.523348883813119"><ele>58.00000000000001</ele><time>2026-04-06T11:33:17.275Z</time></trkpt><trkpt lat="42.954542580976266" lon="10.523389357370956"><ele>58.00000000000001</ele><time>2026-04-06T11:33:20.275Z</time></trkpt><trkpt lat="42.95447707328145" lon="10.52341083707527"><ele>58.00000000000001</ele><time>2026-04-06T11:33:23.275Z</time></trkpt><trkpt lat="42.954411318389596" lon="10.523450275436284"><ele>58.0</ele><time>2026-04-06T11:33:26.275Z</time></trkpt><trkpt lat="42.95433650167879" lon="10.523474243515519"><ele>58.00000000000001</ele><time>2026-04-06T11:33:30.275Z</time></trkpt><trkpt lat="42.954258023900685" lon="10.523505058686705"><ele>58.00000000000001</ele><time>2026-04-06T11:33:34.275Z</time></trkpt><trkpt lat="42.954180773061424" lon="10.523534554796727"><ele>58.0</ele><time>2026-04-06T11:33:38.275Z</time></trkpt><trkpt lat="42.95411841552213" lon="10.523556167193972"><ele>58.00000000000001</ele><time>2026-04-06T11:33:41.275Z</time></trkpt><trkpt lat="42.95404744043048" lon="10.52357344577417"><ele>58.00000000000001</ele><time>2026-04-06T11:33:44.275Z</time></trkpt><trkpt lat="42.95397672802989" lon="10.52360872075228"><ele>57.49999999999999</ele><time>2026-04-06T11:33:47.275Z</time></trkpt><trkpt lat="42.95390392336609" lon="10.523636681147059"><ele>57.0</ele><time>2026-04-06T11:33:50.275Z</time></trkpt><trkpt lat="42.95382882703452" lon="10.523673468653302"><ele>56.5</ele><time>2026-04-06T11:33:53.275Z</time></trkpt><trkpt lat="42.953809450673965" lon="10.52376837981394"><ele>56.0</ele><time>2026-04-06T11:33:56.275Z</time></trkpt><trkpt lat="42.95383579070113" lon="10.523886209355073"><ele>55.49999999999999</ele><time>2026-04-06T11:33:58.275Z</time></trkpt><trkpt lat="42.95383518890541" lon="10.524040561605519"><ele>55.0</ele><time>2026-04-06T11:34:00.275Z</time></trkpt><trkpt lat="42.95385411260159" lon="10.524218723566385"><ele>55.0</ele><time>2026-04-06T11:34:02.275Z</time></trkpt><trkpt lat="42.9538704461451" lon="10.524376160600239"><ele>55.0</ele><time>2026-04-06T11:34:04.275Z</time></trkpt><trkpt lat="42.95388911168265" lon="10.52452534850813"><ele>55.0</ele><time>2026-04-06T11:34:06.275Z</time></trkpt><trkpt lat="42.95390482588562" lon="10.524667238392762"><ele>55.0</ele><time>2026-04-06T11:34:08.275Z</time></trkpt><trkpt lat="42.953921852534535" lon="10.52479120456547"><ele>55.0</ele><time>2026-04-06T11:34:10.275Z</time></trkpt><trkpt lat="42.95393385343153" lon="10.524929508496115"><ele>54.33333333333333</ele><time>2026-04-06T11:34:12.275Z</time></trkpt><trkpt lat="42.95394872706572" lon="10.525070024876689"><ele>53.666666666666664</ele><time>2026-04-06T11:34:14.275Z</time></trkpt><trkpt lat="42.95396560607477" lon="10.5251927884728"><ele>53.0</ele><time>2026-04-06T11:34:16.275Z</time></trkpt><trkpt lat="42.95398518541115" lon="10.525295253194207"><ele>52.33333333333333</ele><time>2026-04-06T11:34:18.275Z</time></trkpt><trkpt lat="42.953997679549346" lon="10.525406028850373"><ele>51.666666666666664</ele><time>2026-04-06T11:34:20.275Z</time></trkpt><trkpt lat="42.95400947297806" lon="10.525503835823327"><ele>51.0</ele><time>2026-04-06T11:34:22.275Z</time></trkpt><trkpt lat="42.95401909351814" lon="10.525601925377073"><ele>50.5</ele><time>2026-04-06T11:34:24.275Z</time></trkpt><trkpt lat="42.95402551573682" lon="10.525708381911013"><ele>50.0</ele><time>2026-04-06T11:34:26.275Z</time></trkpt><trkpt lat="42.954055233898146" lon="10.525823145417846"><ele>49.5</ele><time>2026-04-06T11:34:28.275Z</time></trkpt><trkpt lat="42.95414227747142" lon="10.526016771788735"><ele>49.0</ele><time>2026-04-06T11:34:31.275Z</time></trkpt><trkpt lat="42.95432932723994" lon="10.526009503801873"><ele>48.0</ele><time>2026-04-06T11:34:35.275Z</time></trkpt><trkpt lat="42.95442597274629" lon="10.52600574861373"><ele>47.0</ele><time>2026-04-06T11:34:37.275Z</time></trkpt><trkpt lat="42.95452983957087" lon="10.526001712834468"><ele>46.0</ele><time>2026-04-06T11:34:39.275Z</time></trkpt><trkpt lat="42.95463406920443" lon="10.525996366517388"><ele>45.0</ele><time>2026-04-06T11:34:41.275Z</time></trkpt><trkpt lat="42.95471730724768" lon="10.525989788700128"><ele>44.0</ele><time>2026-04-06T11:34:43.275Z</time></trkpt><trkpt lat="42.9547805831529" lon="10.525984369245243"><ele>44.0</ele><time>2026-04-06T11:34:45.275Z</time></trkpt><trkpt lat="42.954853025157114" lon="10.52597636731568"><ele>44.0</ele><time>2026-04-06T11:34:48.275Z</time></trkpt><trkpt lat="42.954927442507106" lon="10.52596685579786"><ele>44.0</ele><time>2026-04-06T11:34:50.275Z</time></trkpt><trkpt lat="42.95502326267478" lon="10.52596836824418"><ele>44.0</ele><time>2026-04-06T11:34:52.275Z</time></trkpt><trkpt lat="42.95512730618679" lon="10.525955648714046"><ele>44.0</ele><time>2026-04-06T11:34:54.275Z</time></trkpt><trkpt lat="42.95524044040059" lon="10.525944633752454"><ele>43.2</ele><time>2026-04-06T11:34:56.275Z</time></trkpt><trkpt lat="42.95536006300343" lon="10.525934490318946"><ele>42.400000000000006</ele><time>2026-04-06T11:34:58.275Z</time></trkpt><trkpt lat="42.95548187498831" lon="10.525922177358945"><ele>41.6</ele><time>2026-04-06T11:35:00.275Z</time></trkpt><trkpt lat="42.95554695981582" lon="10.525915500788495"><ele>40.8</ele><time>2026-04-06T11:35:01.275Z</time></trkpt><trkpt lat="42.9556115683198" lon="10.525908873064159"><ele>40.0</ele><time>2026-04-06T11:35:02.275Z</time></trkpt><trkpt lat="42.95574079945565" lon="10.525898473835438"><ele>40.0</ele><time>2026-04-06T11:35:04.275Z</time></trkpt><trkpt lat="42.95580512490446" lon="10.525893797357261"><ele>40.0</ele><time>2026-04-06T11:35:05.275Z</time></trkpt><trkpt lat="42.95587072755808" lon="10.525889586470658"><ele>40.0</ele><time>2026-04-06T11:35:06.275Z</time></trkpt><trkpt lat="42.95594045631135" lon="10.525886161346387"><ele>40.0</ele><time>2026-04-06T11:35:07.275Z</time></trkpt><trkpt lat="42.956010323697754" lon="10.525882729416464"><ele>40.0</ele><time>2026-04-06T11:35:08.275Z</time></trkpt><trkpt lat="42.956075657537205" lon="10.52587661805745"><ele>40.0</ele><time>2026-04-06T11:35:09.275Z</time></trkpt><trkpt lat="42.95618132546813" lon="10.525863922880573"><ele>40.0</ele><time>2026-04-06T11:35:11.273Z</time></trkpt><trkpt lat="42.95628088790854" lon="10.525828170166044"><ele>38.6</ele><time>2026-04-06T11:35:13.273Z</time></trkpt><trkpt lat="42.956366204927875" lon="10.525815723531938"><ele>37.2</ele><time>2026-04-06T11:35:15.273Z</time></trkpt><trkpt lat="42.95646328181807" lon="10.525832687959154"><ele>35.8</ele><time>2026-04-06T11:35:17.273Z</time></trkpt><trkpt lat="42.9565694537633" lon="10.525868927971738"><ele>34.4</ele><time>2026-04-06T11:35:19.273Z</time></trkpt><trkpt lat="42.95668342846271" lon="10.525849627186755"><ele>33.0</ele><time>2026-04-06T11:35:21.273Z</time></trkpt><trkpt lat="42.95680244023617" lon="10.525838406685182"><ele>32.75</ele><time>2026-04-06T11:35:23.273Z</time></trkpt><trkpt lat="42.95691660240929" lon="10.525822448713138"><ele>32.5</ele><time>2026-04-06T11:35:25.273Z</time></trkpt><trkpt lat="42.9570374525334" lon="10.525813932886729"><ele>32.25</ele><time>2026-04-06T11:35:27.273Z</time></trkpt><trkpt lat="42.95715392167699" lon="10.52584284466639"><ele>32.0</ele><time>2026-04-06T11:35:29.273Z</time></trkpt><trkpt lat="42.957279915137384" lon="10.525849951998167"><ele>32.0</ele><time>2026-04-06T11:35:31.273Z</time></trkpt><trkpt lat="42.95735273609735" lon="10.525845362552696"><ele>32.0</ele><time>2026-04-06T11:35:32.273Z</time></trkpt><trkpt lat="42.95748514058117" lon="10.525782123179992"><ele>32.0</ele><time>2026-04-06T11:35:34.273Z</time></trkpt><trkpt lat="42.95757952575444" lon="10.525759374754704"><ele>32.0</ele><time>2026-04-06T11:35:36.273Z</time></trkpt><trkpt lat="42.95766244551832" lon="10.52575033741341"><ele>32.0</ele><time>2026-04-06T11:35:39.273Z</time></trkpt><trkpt lat="42.9575996909945" lon="10.52576453151476"><ele>31.999999999999996</ele><time>2026-04-06T11:35:51.273Z</time></trkpt><trkpt lat="42.95752491054042" lon="10.525786823881216"><ele>32.0</ele><time>2026-04-06T11:35:57.273Z</time></trkpt><trkpt lat="42.957451848631415" lon="10.52580229466062"><ele>32.0</ele><time>2026-04-06T11:36:01.273Z</time></trkpt><trkpt lat="42.957374146333564" lon="10.525775578118447"><ele>32.0</ele><time>2026-04-06T11:36:04.273Z</time></trkpt><trkpt lat="42.9573377389848" lon="10.525619048552768"><ele>31.999999999999996</ele><time>2026-04-06T11:36:08.273Z</time></trkpt><trkpt lat="42.95733624085821" lon="10.525520853971596"><ele>32.0</ele><time>2026-04-06T11:36:11.273Z</time></trkpt><trkpt lat="42.9573248874172" lon="10.525415377845757"><ele>32.57142857142857</ele><time>2026-04-06T11:36:14.273Z</time></trkpt><trkpt lat="42.957314059587716" lon="10.525304445766249"><ele>33.14285714285714</ele><time>2026-04-06T11:36:17.273Z</time></trkpt><trkpt lat="42.957307509002504" lon="10.525192030015871"><ele>33.714285714285715</ele><time>2026-04-06T11:36:20.273Z</time></trkpt><trkpt lat="42.957315130984334" lon="10.525085955836115"><ele>34.285714285714285</ele><time>2026-04-06T11:36:23.273Z</time></trkpt><trkpt lat="42.957295869761126" lon="10.524992096296742"><ele>34.85714285714286</ele><time>2026-04-06T11:36:26.273Z</time></trkpt><trkpt lat="42.95730612815479" lon="10.524903590828565"><ele>35.42857142857143</ele><time>2026-04-06T11:36:29.273Z</time></trkpt><trkpt lat="42.95729965827274" lon="10.524814651838035"><ele>36.0</ele><time>2026-04-06T11:36:32.273Z</time></trkpt><trkpt lat="42.95728163952806" lon="10.524732024501875"><ele>36.00000000000001</ele><time>2026-04-06T11:36:35.273Z</time></trkpt><trkpt lat="42.95727021350322" lon="10.52462086329871"><ele>36.0</ele><time>2026-04-06T11:36:39.273Z</time></trkpt><trkpt lat="42.95727044551795" lon="10.52453368597254"><ele>36.0</ele><time>2026-04-06T11:36:42.273Z</time></trkpt><trkpt lat="42.957262254867885" lon="10.524432277241997"><ele>36.0</ele><time>2026-04-06T11:36:46.273Z</time></trkpt><trkpt lat="42.95726489021971" lon="10.524336709216938"><ele>36.0</ele><time>2026-04-06T11:36:50.273Z</time></trkpt><trkpt lat="42.95725833092997" lon="10.524242715039748"><ele>36.00000000000001</ele><time>2026-04-06T11:36:54.273Z</time></trkpt><trkpt lat="42.9572518008285" lon="10.524145483212372"><ele>36.0</ele><time>2026-04-06T11:36:58.273Z</time></trkpt><trkpt lat="42.95724463591466" lon="10.524038799158356"><ele>36.85714285714286</ele><time>2026-04-06T11:37:02.273Z</time></trkpt><trkpt lat="42.95723842666701" lon="10.523946344786998"><ele>37.714285714285715</ele><time>2026-04-06T11:37:06.273Z</time></trkpt><trkpt lat="42.9572340555675" lon="10.523858523784384"><ele>38.57142857142857</ele><time>2026-04-06T11:37:10.273Z</time></trkpt><trkpt lat="42.95722969242946" lon="10.52376207023545"><ele>39.42857142857143</ele><time>2026-04-06T11:37:14.273Z</time></trkpt><trkpt lat="42.95722537932991" lon="10.52366672281033"><ele>40.285714285714285</ele><time>2026-04-06T11:37:18.272Z</time></trkpt><trkpt lat="42.957221255224084" lon="10.523575553450476"><ele>41.142857142857146</ele><time>2026-04-06T11:37:22.272Z</time></trkpt><trkpt lat="42.95721697737891" lon="10.52348098550333"><ele>42.0</ele><time>2026-04-06T11:37:26.272Z</time></trkpt><trkpt lat="42.957211041149954" lon="10.523378577270599"><ele>43.0</ele><time>2026-04-06T11:37:30.272Z</time></trkpt><trkpt lat="42.95720533875283" lon="10.52328849871554"><ele>44.0</ele><time>2026-04-06T11:37:34.272Z</time></trkpt><trkpt lat="42.957197655657254" lon="10.523193315476721"><ele>45.0</ele><time>2026-04-06T11:37:38.272Z</time></trkpt><trkpt lat="42.957189457603874" lon="10.523098929045117"><ele>46.0</ele><time>2026-04-06T11:37:42.272Z</time></trkpt><trkpt lat="42.95718024928823" lon="10.522994467376103"><ele>47.0</ele><time>2026-04-06T11:37:46.272Z</time></trkpt><trkpt lat="42.95717013459277" lon="10.522896163956784"><ele>48.0</ele><time>2026-04-06T11:37:50.272Z</time></trkpt><trkpt lat="42.95715929179368" lon="10.522790784224838"><ele>49.0</ele><time>2026-04-06T11:37:54.272Z</time></trkpt><trkpt lat="42.95714800279827" lon="10.522681068008565"><ele>49.166666666666664</ele><time>2026-04-06T11:37:58.272Z</time></trkpt><trkpt lat="42.95713596491517" lon="10.522564073402608"><ele>49.33333333333333</ele><time>2026-04-06T11:38:02.272Z</time></trkpt><trkpt lat="42.9571135753058" lon="10.522466377964788"><ele>49.5</ele><time>2026-04-06T11:38:06.272Z</time></trkpt><trkpt lat="42.95711689699626" lon="10.522352672375286"><ele>49.66666666666667</ele><time>2026-04-06T11:38:10.272Z</time></trkpt><trkpt lat="42.95710895664169" lon="10.522262521828067"><ele>49.833333333333336</ele><time>2026-04-06T11:38:13.272Z</time></trkpt><trkpt lat="42.9570999409177" lon="10.522160630200943"><ele>50.0</ele><time>2026-04-06T11:38:17.272Z</time></trkpt><trkpt lat="42.95709168670076" lon="10.522067344749521"><ele>50.0</ele><time>2026-04-06T11:38:22.272Z</time></trkpt><trkpt lat="42.95710076520879" lon="10.522169945946157"><ele>50.0</ele><time>2026-04-06T11:38:39.272Z</time></trkpt><trkpt lat="42.957109333335595" lon="10.522266779184829"><ele>50.0</ele><time>2026-04-06T11:38:42.272Z</time></trkpt><trkpt lat="42.95711687935074" lon="10.522352460108841"><ele>50.0</ele><time>2026-04-06T11:38:45.272Z</time></trkpt><trkpt lat="42.95687771228674" lon="10.522418049956068"><ele>50.00000000000001</ele><time>2026-04-06T11:38:56.272Z</time></trkpt><trkpt lat="42.95680649967856" lon="10.522443243534859"><ele>50.0</ele><time>2026-04-06T11:39:00.272Z</time></trkpt><trkpt lat="42.956732111597965" lon="10.522454830532523"><ele>50.0</ele><time>2026-04-06T11:39:04.272Z</time></trkpt><trkpt lat="42.956650496499435" lon="10.522433209553181"><ele>50.0</ele><time>2026-04-06T11:39:08.272Z</time></trkpt><trkpt lat="42.9565914240687" lon="10.522349373713945"><ele>50.00000000000001</ele><time>2026-04-06T11:39:12.272Z</time></trkpt><trkpt lat="42.956558712229096" lon="10.522267422501402"><ele>50.0</ele><time>2026-04-06T11:39:16.272Z</time></trkpt><trkpt lat="42.95652668743523" lon="10.52218025631171"><ele>51.16666666666667</ele><time>2026-04-06T11:39:20.272Z</time></trkpt><trkpt lat="42.95648480937074" lon="10.522084546155568"><ele>52.333333333333336</ele><time>2026-04-06T11:39:24.27Z</time></trkpt><trkpt lat="42.95644578770072" lon="10.521997535045244"><ele>53.5</ele><time>2026-04-06T11:39:28.27Z</time></trkpt><trkpt lat="42.956388410282585" lon="10.521934621042812"><ele>54.66666666666667</ele><time>2026-04-06T11:39:32.27Z</time></trkpt><trkpt lat="42.95631430118022" lon="10.521894885256208"><ele>55.833333333333336</ele><time>2026-04-06T11:39:36.27Z</time></trkpt><trkpt lat="42.95624675214253" lon="10.521847867402492"><ele>57.0</ele><time>2026-04-06T11:39:40.27Z</time></trkpt><trkpt lat="42.956178807037844" lon="10.521782272371745"><ele>57.666666666666664</ele><time>2026-04-06T11:39:44.27Z</time></trkpt><trkpt lat="42.95611172643721" lon="10.521738709036779"><ele>58.33333333333333</ele><time>2026-04-06T11:39:48.27Z</time></trkpt><trkpt lat="42.95604295273428" lon="10.521690898114809"><ele>59.0</ele><time>2026-04-06T11:39:52.27Z</time></trkpt><trkpt lat="42.955966475184596" lon="10.521656613051487"><ele>59.666666666666664</ele><time>2026-04-06T11:39:56.27Z</time></trkpt><trkpt lat="42.95588954278807" lon="10.521626737728884"><ele>60.33333333333333</ele><time>2026-04-06T11:40:00.27Z</time></trkpt><trkpt lat="42.95582991666782" lon="10.521594295099437"><ele>61.0</ele><time>2026-04-06T11:40:04.27Z</time></trkpt><trkpt lat="42.95575549065453" lon="10.521539356137081"><ele>62.14285714285714</ele><time>2026-04-06T11:40:08.27Z</time></trkpt><trkpt lat="42.955695916195886" lon="10.521504969850957"><ele>63.285714285714285</ele><time>2026-04-06T11:40:11.27Z</time></trkpt><trkpt lat="42.955633760597294" lon="10.521488855165167"><ele>64.42857142857143</ele><time>2026-04-06T11:40:15.27Z</time></trkpt><trkpt lat="42.95555616554366" lon="10.521514933727161"><ele>65.57142857142857</ele><time>2026-04-06T11:40:20.27Z</time></trkpt><trkpt lat="42.95547919192433" lon="10.521536074172705"><ele>66.71428571428572</ele><time>2026-04-06T11:40:25.27Z</time></trkpt><trkpt lat="42.95541513318165" lon="10.521525977580552"><ele>67.85714285714286</ele><time>2026-04-06T11:40:30.27Z</time></trkpt><trkpt lat="42.95534503472236" lon="10.521513208987656"><ele>69.0</ele><time>2026-04-06T11:40:34.27Z</time></trkpt><trkpt lat="42.9552811859046" lon="10.52151195921436"><ele>69.0</ele><time>2026-04-06T11:40:38.27Z</time></trkpt><trkpt lat="42.95521625525623" lon="10.521494543795523"><ele>69.0</ele><time>2026-04-06T11:40:42.27Z</time></trkpt><trkpt lat="42.955130041941096" lon="10.521470710722715"><ele>69.0</ele><time>2026-04-06T11:40:48.27Z</time></trkpt><trkpt lat="42.95505306618559" lon="10.521452708958419"><ele>69.0</ele><time>2026-04-06T11:40:54.27Z</time></trkpt><trkpt lat="42.95497056274907" lon="10.521436552490178"><ele>69.0</ele><time>2026-04-06T11:41:00.27Z</time></trkpt><trkpt lat="42.95490754639092" lon="10.521425371456859"><ele>69.0</ele><time>2026-04-06T11:41:04.27Z</time></trkpt><trkpt lat="42.95484667077357" lon="10.521390186068315"><ele>69.0</ele><time>2026-04-06T11:41:08.27Z</time></trkpt><trkpt lat="42.95478366547334" lon="10.521338705697204"><ele>71.28571428571429</ele><time>2026-04-06T11:41:13.27Z</time></trkpt><trkpt lat="42.95471413698861" lon="10.521294995762116"><ele>73.57142857142858</ele><time>2026-04-06T11:41:18.27Z</time></trkpt><trkpt lat="42.95465205997588" lon="10.521256226095684"><ele>75.85714285714286</ele><time>2026-04-06T11:41:22.27Z</time></trkpt><trkpt lat="42.95459082821284" lon="10.521212351188767"><ele>78.14285714285714</ele><time>2026-04-06T11:41:26.27Z</time></trkpt><trkpt lat="42.95453637657471" lon="10.521150641939007"><ele>80.42857142857142</ele><time>2026-04-06T11:41:31.269Z</time></trkpt><trkpt lat="42.95449306170422" lon="10.521067538691666"><ele>82.71428571428572</ele><time>2026-04-06T11:41:36.269Z</time></trkpt><trkpt lat="42.95443815371846" lon="10.520999285793135"><ele>85.0</ele><time>2026-04-06T11:41:41.269Z</time></trkpt><trkpt lat="42.954399932026504" lon="10.520926946924417"><ele>85.0</ele><time>2026-04-06T11:41:45.269Z</time></trkpt><trkpt lat="42.954361499524765" lon="10.520848617232089"><ele>85.0</ele><time>2026-04-06T11:41:49.269Z</time></trkpt><trkpt lat="42.95432105099155" lon="10.520769281508366"><ele>85.0</ele><time>2026-04-06T11:41:53.269Z</time></trkpt><trkpt lat="42.95428588012031" lon="10.520692050812745"><ele>85.0</ele><time>2026-04-06T11:41:57.269Z</time></trkpt><trkpt lat="42.95423697514077" lon="10.520613726533607"><ele>85.0</ele><time>2026-04-06T11:42:01.269Z</time></trkpt><trkpt lat="42.95418947960634" lon="10.520534950961101"><ele>85.0</ele><time>2026-04-06T11:42:04.269Z</time></trkpt><trkpt lat="42.95411589292882" lon="10.520444014813377"><ele>86.6</ele><time>2026-04-06T11:42:07.269Z</time></trkpt><trkpt lat="42.95404151115252" lon="10.520352886282524"><ele>88.2</ele><time>2026-04-06T11:42:09.269Z</time></trkpt><trkpt lat="42.95395717217944" lon="10.520240796535425"><ele>89.80000000000001</ele><time>2026-04-06T11:42:11.269Z</time></trkpt><trkpt lat="42.95388968582666" lon="10.520122973192192"><ele>91.4</ele><time>2026-04-06T11:42:13.269Z</time></trkpt><trkpt lat="42.95383320553391" lon="10.520082541279018"><ele>93.0</ele><time>2026-04-06T11:42:14.269Z</time></trkpt><trkpt lat="42.95376842709607" lon="10.520019552264943"><ele>93.00000000000001</ele><time>2026-04-06T11:42:16.269Z</time></trkpt><trkpt lat="42.95370969035475" lon="10.519950827335366"><ele>93.0</ele><time>2026-04-06T11:42:21.269Z</time></trkpt><trkpt lat="42.95365904897264" lon="10.519893205262013"><ele>93.0</ele><time>2026-04-06T11:42:25.269Z</time></trkpt><trkpt lat="42.95360457420436" lon="10.519830968487256"><ele>93.0</ele><time>2026-04-06T11:42:30.269Z</time></trkpt><trkpt lat="42.95354961669915" lon="10.51978442547017"><ele>93.0</ele><time>2026-04-06T11:42:34.269Z</time></trkpt><trkpt lat="42.95347484668713" lon="10.519737040327401"><ele>93.00000000000001</ele><time>2026-04-06T11:42:39.269Z</time></trkpt><trkpt lat="42.95341304148904" lon="10.519697159319511"><ele>93.0</ele><time>2026-04-06T11:42:44.269Z</time></trkpt><trkpt lat="42.95335146027048" lon="10.519668301905101"><ele>95.71428571428572</ele><time>2026-04-06T11:42:48.269Z</time></trkpt><trkpt lat="42.95328110389078" lon="10.519637575582964"><ele>98.42857142857143</ele><time>2026-04-06T11:42:53.269Z</time></trkpt><trkpt lat="42.953211385392066" lon="10.519592929464247"><ele>101.14285714285714</ele><time>2026-04-06T11:42:58.269Z</time></trkpt><trkpt lat="42.95314550739453" lon="10.51954712981855"><ele>103.85714285714286</ele><time>2026-04-06T11:43:03.269Z</time></trkpt><trkpt lat="42.953077476545076" lon="10.519526330195745"><ele>106.57142857142857</ele><time>2026-04-06T11:43:08.269Z</time></trkpt><trkpt lat="42.95306580739688" lon="10.519620265821388"><ele>109.28571428571429</ele><time>2026-04-06T11:43:14.269Z</time></trkpt><trkpt lat="42.953107862274535" lon="10.519684387686622"><ele>112.0</ele><time>2026-04-06T11:43:19.269Z</time></trkpt><trkpt lat="42.95315618797742" lon="10.51974853134785"><ele>112.85714285714286</ele><time>2026-04-06T11:43:25.269Z</time></trkpt><trkpt lat="42.95309223042847" lon="10.519744563099561"><ele>113.71428571428572</ele><time>2026-04-06T11:43:30.269Z</time></trkpt><trkpt lat="42.95302950167635" lon="10.51971853853167"><ele>114.57142857142857</ele><time>2026-04-06T11:43:35.267Z</time></trkpt><trkpt lat="42.95296787835619" lon="10.519683419004885"><ele>115.42857142857143</ele><time>2026-04-06T11:43:40.267Z</time></trkpt><trkpt lat="42.952910972184775" lon="10.519640056269"><ele>116.28571428571429</ele><time>2026-04-06T11:43:45.267Z</time></trkpt><trkpt lat="42.95284715466153" lon="10.519587237392349"><ele>117.14285714285714</ele><time>2026-04-06T11:43:50.267Z</time></trkpt><trkpt lat="42.95278437639099" lon="10.519595142126008"><ele>118.0</ele><time>2026-04-06T11:43:56.267Z</time></trkpt><trkpt lat="42.952821456372305" lon="10.519699014611902"><ele>118.0</ele><time>2026-04-06T11:44:02.267Z</time></trkpt><trkpt lat="42.952851078527615" lon="10.51977659451393"><ele>118.0</ele><time>2026-04-06T11:44:06.267Z</time></trkpt><trkpt lat="42.952887421310834" lon="10.519862781932355"><ele>118.0</ele><time>2026-04-06T11:44:11.267Z</time></trkpt><trkpt lat="42.952935401247785" lon="10.519945463364085"><ele>118.0</ele><time>2026-04-06T11:44:16.267Z</time></trkpt><trkpt lat="42.95297925681602" lon="10.520028776568301"><ele>118.0</ele><time>2026-04-06T11:44:20.267Z</time></trkpt><trkpt lat="42.95301720895297" lon="10.520117219048371"><ele>118.0</ele><time>2026-04-06T11:44:24.267Z</time></trkpt><trkpt lat="42.953055275922296" lon="10.520205133033556"><ele>118.0</ele><time>2026-04-06T11:44:28.267Z</time></trkpt><trkpt lat="42.95308201281394" lon="10.520302022417491"><ele>118.33333333333334</ele><time>2026-04-06T11:44:33.267Z</time></trkpt><trkpt lat="42.95310677879228" lon="10.520410362887569"><ele>118.66666666666667</ele><time>2026-04-06T11:44:37.267Z</time></trkpt><trkpt lat="42.953116576328696" lon="10.52055180961183"><ele>119.0</ele><time>2026-04-06T11:44:40.267Z</time></trkpt><trkpt lat="42.95310376633332" lon="10.520643918076871"><ele>119.33333333333334</ele><time>2026-04-06T11:44:42.267Z</time></trkpt><trkpt lat="42.95309411906717" lon="10.520751837495826"><ele>119.66666666666667</ele><time>2026-04-06T11:44:45.267Z</time></trkpt><trkpt lat="42.95306494083392" lon="10.520853790328875"><ele>120.0</ele><time>2026-04-06T11:44:47.267Z</time></trkpt><trkpt lat="42.95301806268999" lon="10.520977972692924"><ele>120.0</ele><time>2026-04-06T11:44:49.267Z</time></trkpt><trkpt lat="42.95294901377482" lon="10.52106973156935"><ele>120.0</ele><time>2026-04-06T11:44:51.267Z</time></trkpt><trkpt lat="42.95289461892994" lon="10.521130484400029"><ele>120.0</ele><time>2026-04-06T11:44:53.267Z</time></trkpt><trkpt lat="42.95283329643205" lon="10.521208010956286"><ele>120.0</ele><time>2026-04-06T11:44:56.267Z</time></trkpt><trkpt lat="42.95275912304519" lon="10.521250075759776"><ele>120.0</ele><time>2026-04-06T11:45:00.267Z</time></trkpt><trkpt lat="42.9526982141882" lon="10.52129683979851"><ele>120.0</ele><time>2026-04-06T11:45:04.267Z</time></trkpt><trkpt lat="42.95264018420024" lon="10.521359151367916"><ele>120.57142857142858</ele><time>2026-04-06T11:45:08.267Z</time></trkpt><trkpt lat="42.9525640311938" lon="10.521382993338165"><ele>121.14285714285714</ele><time>2026-04-06T11:45:13.267Z</time></trkpt><trkpt lat="42.952490259545" lon="10.5213883869229"><ele>121.71428571428572</ele><time>2026-04-06T11:45:20.267Z</time></trkpt><trkpt lat="42.95241738514268" lon="10.52138600680191"><ele>122.28571428571429</ele><time>2026-04-06T11:45:24.267Z</time></trkpt><trkpt lat="42.95234876549282" lon="10.521384725670613"><ele>122.85714285714286</ele><time>2026-04-06T11:45:28.267Z</time></trkpt><trkpt lat="42.95227616627636" lon="10.521364851619962"><ele>123.42857142857143</ele><time>2026-04-06T11:45:31.267Z</time></trkpt><trkpt lat="42.9522098699364" lon="10.521316177756548"><ele>124.0</ele><time>2026-04-06T11:45:34.267Z</time></trkpt><trkpt lat="42.95214851309405" lon="10.52125165695118"><ele>127.00000000000001</ele><time>2026-04-06T11:45:37.267Z</time></trkpt><trkpt lat="42.952096243190645" lon="10.521195744125695"><ele>130.0</ele><time>2026-04-06T11:45:40.266Z</time></trkpt><trkpt lat="42.95201131302825" lon="10.521152588619845"><ele>133.0</ele><time>2026-04-06T11:45:43.266Z</time></trkpt><trkpt lat="42.951939154527146" lon="10.521111466203529"><ele>136.0</ele><time>2026-04-06T11:45:45.266Z</time></trkpt><trkpt lat="42.95186168178892" lon="10.521093349015883"><ele>139.0</ele><time>2026-04-06T11:45:47.266Z</time></trkpt><trkpt lat="42.951783766105486" lon="10.521067975027615"><ele>142.0</ele><time>2026-04-06T11:45:51.266Z</time></trkpt><trkpt lat="42.95171531593243" lon="10.521107935036168"><ele>143.33333333333334</ele><time>2026-04-06T11:45:54.266Z</time></trkpt><trkpt lat="42.95164735500036" lon="10.521170755071429"><ele>144.66666666666669</ele><time>2026-04-06T11:45:58.266Z</time></trkpt><trkpt lat="42.95159017436126" lon="10.521223912257462"><ele>146.0</ele><time>2026-04-06T11:46:01.266Z</time></trkpt><trkpt lat="42.95152736387838" lon="10.52128732310569"><ele>147.33333333333334</ele><time>2026-04-06T11:46:05.266Z</time></trkpt><trkpt lat="42.951460780180014" lon="10.52133598473174"><ele>148.66666666666666</ele><time>2026-04-06T11:46:09.266Z</time></trkpt><trkpt lat="42.95138908888962" lon="10.521388171257225"><ele>150.0</ele><time>2026-04-06T11:46:13.266Z</time></trkpt><trkpt lat="42.95132166365095" lon="10.521403135333763"><ele>149.7142857142857</ele><time>2026-04-06T11:46:16.266Z</time></trkpt><trkpt lat="42.95125820181894" lon="10.521425179921627"><ele>149.42857142857142</ele><time>2026-04-06T11:46:19.266Z</time></trkpt><trkpt lat="42.95119160750904" lon="10.521431480641573"><ele>149.14285714285714</ele><time>2026-04-06T11:46:24.266Z</time></trkpt><trkpt lat="42.95111563969095" lon="10.521421829004606"><ele>148.85714285714283</ele><time>2026-04-06T11:46:28.266Z</time></trkpt><trkpt lat="42.95105211645454" lon="10.521448309860393"><ele>148.57142857142856</ele><time>2026-04-06T11:46:33.266Z</time></trkpt><trkpt lat="42.95097852198342" lon="10.521425328366535"><ele>148.28571428571428</ele><time>2026-04-06T11:46:37.266Z</time></trkpt><trkpt lat="42.950892569995425" lon="10.521413255153837"><ele>148.0</ele><time>2026-04-06T11:46:42.266Z</time></trkpt><trkpt lat="42.95081428114433" lon="10.521386968265636"><ele>148.0</ele><time>2026-04-06T11:46:46.266Z</time></trkpt><trkpt lat="42.95074549877849" lon="10.521378237818215"><ele>148.0</ele><time>2026-04-06T11:46:51.266Z</time></trkpt><trkpt lat="42.95068033798276" lon="10.521372721790922"><ele>148.0</ele><time>2026-04-06T11:46:55.266Z</time></trkpt><trkpt lat="42.95060998230345" lon="10.521350768636198"><ele>148.0</ele><time>2026-04-06T11:47:01.266Z</time></trkpt><trkpt lat="42.95052687451903" lon="10.5213262482492"><ele>148.0</ele><time>2026-04-06T11:47:29.266Z</time></trkpt><trkpt lat="42.950464135788195" lon="10.521307852055395"><ele>148.0</ele><time>2026-04-06T11:47:33.266Z</time></trkpt><trkpt lat="42.9503818093452" lon="10.521287730660138"><ele>148.0</ele><time>2026-04-06T11:47:36.266Z</time></trkpt><trkpt lat="42.95030205118907" lon="10.521233349646764"><ele>147.57142857142858</ele><time>2026-04-06T11:47:39.266Z</time></trkpt><trkpt lat="42.9502359908175" lon="10.521212491266134"><ele>147.14285714285714</ele><time>2026-04-06T11:47:42.266Z</time></trkpt><trkpt lat="42.95016848039784" lon="10.521202503121998"><ele>146.71428571428572</ele><time>2026-04-06T11:47:45.266Z</time></trkpt><trkpt lat="42.950104030515334" lon="10.52117863867742"><ele>146.28571428571428</ele><time>2026-04-06T11:47:48.265Z</time></trkpt><trkpt lat="42.9500373629972" lon="10.521136222769801"><ele>145.85714285714286</ele><time>2026-04-06T11:47:51.265Z</time></trkpt><trkpt lat="42.949968715543484" lon="10.521096862252117"><ele>145.42857142857144</ele><time>2026-04-06T11:47:54.265Z</time></trkpt><trkpt lat="42.94990736534604" lon="10.52105289208648"><ele>145.0</ele><time>2026-04-06T11:47:57.265Z</time></trkpt><trkpt lat="42.949833221307536" lon="10.521004613539212"><ele>145.0</ele><time>2026-04-06T11:48:00.265Z</time></trkpt><trkpt lat="42.94975615222921" lon="10.520965524341861"><ele>145.0</ele><time>2026-04-06T11:48:03.265Z</time></trkpt><trkpt lat="42.949702872175415" lon="10.520916966362883"><ele>145.0</ele><time>2026-04-06T11:48:06.265Z</time></trkpt><trkpt lat="42.94962335660092" lon="10.520859849844667"><ele>145.0</ele><time>2026-04-06T11:48:11.265Z</time></trkpt><trkpt lat="42.94955358577139" lon="10.520793183415778"><ele>145.0</ele><time>2026-04-06T11:48:14.265Z</time></trkpt><trkpt lat="42.949491321079016" lon="10.52075095578639"><ele>145.0</ele><time>2026-04-06T11:48:17.265Z</time></trkpt><trkpt lat="42.949431857070984" lon="10.520693525995712"><ele>145.0</ele><time>2026-04-06T11:48:20.265Z</time></trkpt><trkpt lat="42.94937384466078" lon="10.520625522466055"><ele>145.0</ele><time>2026-04-06T11:48:23.265Z</time></trkpt><trkpt lat="42.94931500716709" lon="10.520592872531422"><ele>145.0</ele><time>2026-04-06T11:48:26.265Z</time></trkpt><trkpt lat="42.94924647184515" lon="10.520539527953703"><ele>145.0</ele><time>2026-04-06T11:48:48.265Z</time></trkpt><trkpt lat="42.94920943218004" lon="10.520454045608298"><ele>145.0</ele><time>2026-04-06T11:48:55.265Z</time></trkpt><trkpt lat="42.94910521369949" lon="10.520403708095834"><ele>145.0</ele><time>2026-04-06T11:48:57.265Z</time></trkpt><trkpt lat="42.94903973594123" lon="10.520403850264136"><ele>143.28571428571428</ele><time>2026-04-06T11:48:59.265Z</time></trkpt><trkpt lat="42.94897249581703" lon="10.520374966242377"><ele>141.57142857142858</ele><time>2026-04-06T11:49:01.265Z</time></trkpt><trkpt lat="42.94891132353801" lon="10.520405699578582"><ele>139.85714285714286</ele><time>2026-04-06T11:49:04.265Z</time></trkpt><trkpt lat="42.94884613821939" lon="10.520393337821"><ele>138.14285714285714</ele><time>2026-04-06T11:49:06.265Z</time></trkpt><trkpt lat="42.94878156313266" lon="10.520332734470802"><ele>136.42857142857144</ele><time>2026-04-06T11:49:09.265Z</time></trkpt><trkpt lat="42.948730983115965" lon="10.520278051632205"><ele>134.71428571428572</ele><time>2026-04-06T11:49:11.265Z</time></trkpt><trkpt lat="42.9486530129624" lon="10.520218652482196"><ele>133.0</ele><time>2026-04-06T11:49:14.265Z</time></trkpt><trkpt lat="42.94857817275813" lon="10.520152450172514"><ele>131.33333333333334</ele><time>2026-04-06T11:49:18.265Z</time></trkpt><trkpt lat="42.948546213681055" lon="10.520066550199967"><ele>129.66666666666669</ele><time>2026-04-06T11:49:21.265Z</time></trkpt><trkpt lat="42.94851724901774" lon="10.51997872207566"><ele>128.0</ele><time>2026-04-06T11:49:23.265Z</time></trkpt><trkpt lat="42.94847480857858" lon="10.51988515542816"><ele>126.33333333333334</ele><time>2026-04-06T11:49:25.265Z</time></trkpt><trkpt lat="42.948414784944084" lon="10.519766181835063"><ele>124.66666666666667</ele><time>2026-04-06T11:49:28.265Z</time></trkpt><trkpt lat="42.948357902741854" lon="10.519697127873547"><ele>123.0</ele><time>2026-04-06T11:49:30.265Z</time></trkpt><trkpt lat="42.94831984424348" lon="10.519610849291253"><ele>121.5</ele><time>2026-04-06T11:49:33.265Z</time></trkpt><trkpt lat="42.948247071123205" lon="10.51956990066396"><ele>120.0</ele><time>2026-04-06T11:49:37.265Z</time></trkpt><trkpt lat="42.94818199728191" lon="10.519538360089168"><ele>118.5</ele><time>2026-04-06T11:49:52.264Z</time></trkpt><trkpt lat="42.94812101947904" lon="10.5194759235786"><ele>117.0</ele><time>2026-04-06T11:49:55.264Z</time></trkpt><trkpt lat="42.9480492704527" lon="10.519412268201604"><ele>115.5</ele><time>2026-04-06T11:49:58.264Z</time></trkpt><trkpt lat="42.94796353515007" lon="10.519354142149997"><ele>114.0</ele><time>2026-04-06T11:50:01.264Z</time></trkpt><trkpt lat="42.947892578874686" lon="10.519323717585495"><ele>113.2</ele><time>2026-04-06T11:50:03.264Z</time></trkpt><trkpt lat="42.947819473714915" lon="10.519268714133704"><ele>112.4</ele><time>2026-04-06T11:50:05.264Z</time></trkpt><trkpt lat="42.94773311191703" lon="10.51918823910521"><ele>111.6</ele><time>2026-04-06T11:50:07.264Z</time></trkpt><trkpt lat="42.94763793656752" lon="10.519094203544599"><ele>110.8</ele><time>2026-04-06T11:50:09.264Z</time></trkpt><trkpt lat="42.94754791466987" lon="10.519009212981125"><ele>110.0</ele><time>2026-04-06T11:50:11.264Z</time></trkpt><trkpt lat="42.94746286212409" lon="10.518936946204608"><ele>108.8</ele><time>2026-04-06T11:50:13.264Z</time></trkpt><trkpt lat="42.94738005897532" lon="10.518858416061773"><ele>107.6</ele><time>2026-04-06T11:50:15.264Z</time></trkpt><trkpt lat="42.947291569943616" lon="10.518775893178441"><ele>106.4</ele><time>2026-04-06T11:50:17.264Z</time></trkpt><trkpt lat="42.9472093485629" lon="10.51869015310652"><ele>105.2</ele><time>2026-04-06T11:50:19.264Z</time></trkpt><trkpt lat="42.94712996363751" lon="10.518611842764612"><ele>104.0</ele><time>2026-04-06T11:50:21.264Z</time></trkpt><trkpt lat="42.947048199695274" lon="10.518531953102807"><ele>104.0</ele><time>2026-04-06T11:50:23.264Z</time></trkpt><trkpt lat="42.94698801924998" lon="10.518457320000014"><ele>104.0</ele><time>2026-04-06T11:50:25.264Z</time></trkpt><trkpt lat="42.94693686508102" lon="10.51836380938031"><ele>104.0</ele><time>2026-04-06T11:50:27.264Z</time></trkpt><trkpt lat="42.94685405271042" lon="10.518258938595114"><ele>104.0</ele><time>2026-04-06T11:50:29.264Z</time></trkpt><trkpt lat="42.946777999464814" lon="10.518181340690933"><ele>104.0</ele><time>2026-04-06T11:50:31.264Z</time></trkpt><trkpt lat="42.94670663020693" lon="10.51810404327192"><ele>103.49999999999999</ele><time>2026-04-06T11:50:33.264Z</time></trkpt><trkpt lat="42.94662890146392" lon="10.51803149254263"><ele>103.0</ele><time>2026-04-06T11:50:35.264Z</time></trkpt><trkpt lat="42.94654954415184" lon="10.517960117810118"><ele>102.5</ele><time>2026-04-06T11:50:37.264Z</time></trkpt><trkpt lat="42.94647859427418" lon="10.51787980089071"><ele>102.0</ele><time>2026-04-06T11:50:39.264Z</time></trkpt><trkpt lat="42.94641502928929" lon="10.51781323750088"><ele>101.49999999999999</ele><time>2026-04-06T11:50:41.264Z</time></trkpt><trkpt lat="42.946347211706" lon="10.517762410735761"><ele>101.0</ele><time>2026-04-06T11:50:43.264Z</time></trkpt><trkpt lat="42.946264987054626" lon="10.517742167296316"><ele>100.99999999999999</ele><time>2026-04-06T11:50:45.264Z</time></trkpt><trkpt lat="42.94618014215636" lon="10.51775796055427"><ele>101.0</ele><time>2026-04-06T11:50:47.264Z</time></trkpt><trkpt lat="42.94610177414312" lon="10.517787037122671"><ele>101.0</ele><time>2026-04-06T11:50:49.264Z</time></trkpt><trkpt lat="42.946025911989985" lon="10.517763779224296"><ele>101.0</ele><time>2026-04-06T11:50:51.264Z</time></trkpt><trkpt lat="42.94598560000503" lon="10.517681320300692"><ele>100.99999999999999</ele><time>2026-04-06T11:50:53.264Z</time></trkpt><trkpt lat="42.94597653084597" lon="10.51758536641969"><ele>101.0</ele><time>2026-04-06T11:50:55.264Z</time></trkpt><trkpt lat="42.945969101241374" lon="10.517474967764"><ele>100.99999999999999</ele><time>2026-04-06T11:50:58.264Z</time></trkpt><trkpt lat="42.945952840517336" lon="10.517373429282353"><ele>101.0</ele><time>2026-04-06T11:51:02.264Z</time></trkpt><trkpt lat="42.94594610207704" lon="10.517280295687822"><ele>101.0</ele><time>2026-04-06T11:51:05.264Z</time></trkpt><trkpt lat="42.945935498006826" lon="10.517168865439215"><ele>101.0</ele><time>2026-04-06T11:51:08.264Z</time></trkpt><trkpt lat="42.94592270973359" lon="10.517065384546445"><ele>100.99999999999999</ele><time>2026-04-06T11:51:11.264Z</time></trkpt><trkpt lat="42.94590818203791" lon="10.516962168952448"><ele>101.0</ele><time>2026-04-06T11:51:14.264Z</time></trkpt><trkpt lat="42.945898295164106" lon="10.516853084723492"><ele>101.66666666666666</ele><time>2026-04-06T11:51:17.264Z</time></trkpt><trkpt lat="42.94589451145447" lon="10.516741696360679"><ele>102.33333333333333</ele><time>2026-04-06T11:51:20.264Z</time></trkpt><trkpt lat="42.94589708900641" lon="10.516623621778548"><ele>103.0</ele><time>2026-04-06T11:51:23.264Z</time></trkpt><trkpt lat="42.94591510242358" lon="10.516507889735552"><ele>103.66666666666666</ele><time>2026-04-06T11:51:26.264Z</time></trkpt><trkpt lat="42.9459184463557" lon="10.516406918882872"><ele>104.33333333333333</ele><time>2026-04-06T11:51:29.264Z</time></trkpt><trkpt lat="42.94592903646277" lon="10.516313903307399"><ele>105.0</ele><time>2026-04-06T11:51:33.264Z</time></trkpt><trkpt lat="42.94595630797769" lon="10.5162359044076"><ele>105.0</ele><time>2026-04-06T11:51:39.264Z</time></trkpt><trkpt lat="42.945925273073534" lon="10.51631498652545"><ele>105.0</ele><time>2026-04-06T11:52:00.263Z</time></trkpt><trkpt lat="42.9458739366622" lon="10.516397005607287"><ele>105.0</ele><time>2026-04-06T11:52:02.263Z</time></trkpt><trkpt lat="42.94581829905942" lon="10.516451900770866"><ele>105.0</ele><time>2026-04-06T11:52:03.263Z</time></trkpt><trkpt lat="42.9457630063708" lon="10.516500576331199"><ele>105.0</ele><time>2026-04-06T11:52:04.263Z</time></trkpt><trkpt lat="42.94565507199574" lon="10.51658337706589"><ele>105.0</ele><time>2026-04-06T11:52:06.263Z</time></trkpt><trkpt lat="42.94559722848868" lon="10.516623253819208"><ele>103.66666666666667</ele><time>2026-04-06T11:52:07.263Z</time></trkpt><trkpt lat="42.945532332377" lon="10.516668561179145"><ele>102.33333333333334</ele><time>2026-04-06T11:52:08.263Z</time></trkpt><trkpt lat="42.94546877479753" lon="10.516713117868786"><ele>101.0</ele><time>2026-04-06T11:52:09.263Z</time></trkpt><trkpt lat="42.94541001340738" lon="10.516759533955847"><ele>99.66666666666667</ele><time>2026-04-06T11:52:10.263Z</time></trkpt><trkpt lat="42.94530819085823" lon="10.516838530142527"><ele>98.33333333333334</ele><time>2026-04-06T11:52:12.263Z</time></trkpt><trkpt lat="42.94520626533699" lon="10.51690818528364"><ele>97.0</ele><time>2026-04-06T11:52:14.263Z</time></trkpt><trkpt lat="42.94509839518929" lon="10.516980201046374"><ele>95.5</ele><time>2026-04-06T11:52:16.263Z</time></trkpt><trkpt lat="42.944990183983904" lon="10.517053140624267"><ele>94.0</ele><time>2026-04-06T11:52:18.263Z</time></trkpt><trkpt lat="42.944875373516155" lon="10.51711183574298"><ele>92.5</ele><time>2026-04-06T11:52:20.263Z</time></trkpt><trkpt lat="42.944770483323715" lon="10.517192284048685"><ele>91.0</ele><time>2026-04-06T11:52:22.263Z</time></trkpt><trkpt lat="42.94466698934291" lon="10.517269290274172"><ele>91.0</ele><time>2026-04-06T11:52:24.263Z</time></trkpt><trkpt lat="42.94455445280175" lon="10.51735193608561"><ele>91.0</ele><time>2026-04-06T11:52:26.263Z</time></trkpt><trkpt lat="42.94448191978344" lon="10.517405203680397"><ele>91.0</ele><time>2026-04-06T11:52:27.263Z</time></trkpt><trkpt lat="42.94437321181639" lon="10.517485037826658"><ele>91.0</ele><time>2026-04-06T11:52:29.263Z</time></trkpt><trkpt lat="42.94430994347073" lon="10.5175323935421"><ele>91.0</ele><time>2026-04-06T11:52:30.263Z</time></trkpt><trkpt lat="42.94424523564626" lon="10.517581392295305"><ele>90.0</ele><time>2026-04-06T11:52:31.263Z</time></trkpt><trkpt lat="42.94417663276576" lon="10.517633340499442"><ele>89.0</ele><time>2026-04-06T11:52:32.263Z</time></trkpt><trkpt lat="42.944113004757774" lon="10.51768152159143"><ele>88.0</ele><time>2026-04-06T11:52:33.263Z</time></trkpt><trkpt lat="42.944048581305" lon="10.517730305008318"><ele>87.0</ele><time>2026-04-06T11:52:34.263Z</time></trkpt><trkpt lat="42.94398187866515" lon="10.517780814298558"><ele>86.0</ele><time>2026-04-06T11:52:35.263Z</time></trkpt><trkpt lat="42.943922303463395" lon="10.517851177256308"><ele>85.0</ele><time>2026-04-06T11:52:36.263Z</time></trkpt><trkpt lat="42.94384769356237" lon="10.517882423389185"><ele>85.66666666666666</ele><time>2026-04-06T11:52:37.263Z</time></trkpt><trkpt lat="42.94378493091214" lon="10.517955549877547"><ele>86.33333333333333</ele><time>2026-04-06T11:52:38.263Z</time></trkpt><trkpt lat="42.943710788128904" lon="10.517986092392553"><ele>87.0</ele><time>2026-04-06T11:52:39.263Z</time></trkpt><trkpt lat="42.94364126230354" lon="10.518039517134644"><ele>87.66666666666667</ele><time>2026-04-06T11:52:40.263Z</time></trkpt><trkpt lat="42.94357960473296" lon="10.51808703874992"><ele>88.33333333333334</ele><time>2026-04-06T11:52:41.263Z</time></trkpt><trkpt lat="42.94352325821554" lon="10.51813063278491"><ele>89.0</ele><time>2026-04-06T11:52:42.263Z</time></trkpt><trkpt lat="42.94342987036715" lon="10.518225869144853"><ele>88.33333333333334</ele><time>2026-04-06T11:52:44.263Z</time></trkpt><trkpt lat="42.94333556328249" lon="10.518293202435185"><ele>87.66666666666667</ele><time>2026-04-06T11:52:46.263Z</time></trkpt><trkpt lat="42.94326697461978" lon="10.518336038535715"><ele>87.0</ele><time>2026-04-06T11:52:48.263Z</time></trkpt><trkpt lat="42.94317311418252" lon="10.518294121224686"><ele>86.33333333333333</ele><time>2026-04-06T11:52:52.263Z</time></trkpt><trkpt lat="42.94314912845115" lon="10.518200297286215"><ele>85.66666666666666</ele><time>2026-04-06T11:52:54.263Z</time></trkpt><trkpt lat="42.943102465723754" lon="10.518125949076225"><ele>85.0</ele><time>2026-04-06T11:52:56.263Z</time></trkpt><trkpt lat="42.94305209006546" lon="10.518048654706083"><ele>85.0</ele><time>2026-04-06T11:52:58.263Z</time></trkpt><trkpt lat="42.942998929867656" lon="10.517960167794419"><ele>85.0</ele><time>2026-04-06T11:53:00.263Z</time></trkpt><trkpt lat="42.94293590251975" lon="10.517868276443737"><ele>85.0</ele><time>2026-04-06T11:53:02.263Z</time></trkpt><trkpt lat="42.94286615300432" lon="10.51777750234264"><ele>85.0</ele><time>2026-04-06T11:53:04.263Z</time></trkpt><trkpt lat="42.94279664528173" lon="10.517687316431779"><ele>85.0</ele><time>2026-04-06T11:53:06.263Z</time></trkpt><trkpt lat="42.94272048298958" lon="10.517598518000526"><ele>85.0</ele><time>2026-04-06T11:53:08.263Z</time></trkpt><trkpt lat="42.94265105493472" lon="10.517507218208545"><ele>85.0</ele><time>2026-04-06T11:53:10.263Z</time></trkpt><trkpt lat="42.94257499760137" lon="10.51739910590227"><ele>85.0</ele><time>2026-04-06T11:53:12.263Z</time></trkpt><trkpt lat="42.94249316482788" lon="10.517289423544675"><ele>85.0</ele><time>2026-04-06T11:53:14.263Z</time></trkpt><trkpt lat="42.942404689118334" lon="10.517179886175358"><ele>85.0</ele><time>2026-04-06T11:53:16.263Z</time></trkpt><trkpt lat="42.942322753459194" lon="10.517069565374516"><ele>84.2</ele><time>2026-04-06T11:53:18.263Z</time></trkpt><trkpt lat="42.94224069544036" lon="10.516964367773863"><ele>83.4</ele><time>2026-04-06T11:53:20.263Z</time></trkpt><trkpt lat="42.942162287666086" lon="10.516857709458288"><ele>82.6</ele><time>2026-04-06T11:53:22.263Z</time></trkpt><trkpt lat="42.94208393755771" lon="10.516754634912685"><ele>81.8</ele><time>2026-04-06T11:53:24.263Z</time></trkpt><trkpt lat="42.94201242185507" lon="10.516654455199596"><ele>81.0</ele><time>2026-04-06T11:53:26.263Z</time></trkpt><trkpt lat="42.94193508787657" lon="10.516559722859677"><ele>81.0</ele><time>2026-04-06T11:53:28.263Z</time></trkpt><trkpt lat="42.94185778911342" lon="10.516460791749184"><ele>81.0</ele><time>2026-04-06T11:53:30.263Z</time></trkpt><trkpt lat="42.941784763528624" lon="10.516359484869401"><ele>81.0</ele><time>2026-04-06T11:53:32.263Z</time></trkpt><trkpt lat="42.94170945857805" lon="10.516260057832417"><ele>81.0</ele><time>2026-04-06T11:53:34.263Z</time></trkpt><trkpt lat="42.94163762106367" lon="10.516163102347212"><ele>81.0</ele><time>2026-04-06T11:53:36.263Z</time></trkpt><trkpt lat="42.941569096057094" lon="10.51606409669722"><ele>81.0</ele><time>2026-04-06T11:53:38.263Z</time></trkpt><trkpt lat="42.94150359870802" lon="10.515979071779546"><ele>81.0</ele><time>2026-04-06T11:53:40.263Z</time></trkpt><trkpt lat="42.94143590827615" lon="10.51589767287102"><ele>81.0</ele><time>2026-04-06T11:53:42.263Z</time></trkpt><trkpt lat="42.941374479969824" lon="10.515813495396756"><ele>81.0</ele><time>2026-04-06T11:53:44.263Z</time></trkpt><trkpt lat="42.94131934355427" lon="10.515736143793484"><ele>81.0</ele><time>2026-04-06T11:53:46.263Z</time></trkpt><trkpt lat="42.941270251631856" lon="10.515658486117546"><ele>81.0</ele><time>2026-04-06T11:53:48.263Z</time></trkpt><trkpt lat="42.94121314888115" lon="10.515587158353572"><ele>81.0</ele><time>2026-04-06T11:53:50.263Z</time></trkpt><trkpt lat="42.94115614461578" lon="10.515517304365193"><ele>81.0</ele><time>2026-04-06T11:53:52.263Z</time></trkpt><trkpt lat="42.941102984536144" lon="10.51544175410117"><ele>81.0</ele><time>2026-04-06T11:53:54.263Z</time></trkpt><trkpt lat="42.94104669774807" lon="10.515369332881509"><ele>81.0</ele><time>2026-04-06T11:53:56.263Z</time></trkpt><trkpt lat="42.940995697079565" lon="10.515300536174724"><ele>81.0</ele><time>2026-04-06T11:53:58.263Z</time></trkpt><trkpt lat="42.940947433080815" lon="10.515232808795334"><ele>81.0</ele><time>2026-04-06T11:54:00.263Z</time></trkpt><trkpt lat="42.94089339701275" lon="10.515172214186927"><ele>81.0</ele><time>2026-04-06T11:54:02.263Z</time></trkpt><trkpt lat="42.940842503423895" lon="10.515105537945702"><ele>81.5</ele><time>2026-04-06T11:54:04.262Z</time></trkpt><trkpt lat="42.94079598372004" lon="10.51503808574564"><ele>82.0</ele><time>2026-04-06T11:54:06.262Z</time></trkpt><trkpt lat="42.940745593549174" lon="10.51497191082928"><ele>82.5</ele><time>2026-04-06T11:54:08.262Z</time></trkpt><trkpt lat="42.94069580917748" lon="10.514914584021385"><ele>83.0</ele><time>2026-04-06T11:54:10.262Z</time></trkpt><trkpt lat="42.940623360439645" lon="10.514830707004432"><ele>83.5</ele><time>2026-04-06T11:54:13.262Z</time></trkpt><trkpt lat="42.940565890040226" lon="10.514726574770755"><ele>84.0</ele><time>2026-04-06T11:54:16.262Z</time></trkpt><trkpt lat="42.94049594837395" lon="10.51464117559526"><ele>85.5</ele><time>2026-04-06T11:54:19.262Z</time></trkpt><trkpt lat="42.94044605093357" lon="10.514551313868775"><ele>87.0</ele><time>2026-04-06T11:54:22.262Z</time></trkpt><trkpt lat="42.940398747595296" lon="10.514457991560818"><ele>88.5</ele><time>2026-04-06T11:54:25.262Z</time></trkpt><trkpt lat="42.94034472108073" lon="10.51437663998482"><ele>90.0</ele><time>2026-04-06T11:54:28.262Z</time></trkpt><trkpt lat="42.940293066695226" lon="10.514296359376884"><ele>91.5</ele><time>2026-04-06T11:54:31.262Z</time></trkpt><trkpt lat="42.940258448459346" lon="10.514196643579021"><ele>93.0</ele><time>2026-04-06T11:54:34.262Z</time></trkpt><trkpt lat="42.94020813997081" lon="10.51411338304139"><ele>93.0</ele><time>2026-04-06T11:54:37.262Z</time></trkpt><trkpt lat="42.94016614947539" lon="10.514028753664507"><ele>93.0</ele><time>2026-04-06T11:54:40.262Z</time></trkpt><trkpt lat="42.94012676257793" lon="10.51393579394957"><ele>93.0</ele><time>2026-04-06T11:54:43.262Z</time></trkpt><trkpt lat="42.94008292868608" lon="10.513846674312264"><ele>93.0</ele><time>2026-04-06T11:54:46.262Z</time></trkpt><trkpt lat="42.94004377907314" lon="10.513753689255749"><ele>93.0</ele><time>2026-04-06T11:54:49.262Z</time></trkpt><trkpt lat="42.94000186610625" lon="10.513659859884552"><ele>93.0</ele><time>2026-04-06T11:54:52.262Z</time></trkpt><trkpt lat="42.93995682264523" lon="10.513565938776095"><ele>93.66666666666667</ele><time>2026-04-06T11:54:55.262Z</time></trkpt><trkpt lat="42.93992140165356" lon="10.513474924326578"><ele>94.33333333333334</ele><time>2026-04-06T11:54:58.262Z</time></trkpt><trkpt lat="42.93989137426757" lon="10.513372164144377"><ele>95.0</ele><time>2026-04-06T11:55:01.262Z</time></trkpt><trkpt lat="42.939856226653156" lon="10.513280947837384"><ele>95.66666666666667</ele><time>2026-04-06T11:55:04.262Z</time></trkpt><trkpt lat="42.93982174971095" lon="10.51318587972993"><ele>96.33333333333334</ele><time>2026-04-06T11:55:07.262Z</time></trkpt><trkpt lat="42.93979446821979" lon="10.513087580182832"><ele>97.0</ele><time>2026-04-06T11:55:10.262Z</time></trkpt><trkpt lat="42.93976756456353" lon="10.512991282888589"><ele>97.00000000000001</ele><time>2026-04-06T11:55:13.262Z</time></trkpt><trkpt lat="42.939736184769615" lon="10.512897176366744"><ele>97.0</ele><time>2026-04-06T11:55:16.262Z</time></trkpt><trkpt lat="42.939704986508005" lon="10.512804207823184"><ele>97.0</ele><time>2026-04-06T11:55:19.262Z</time></trkpt><trkpt lat="42.939680815212334" lon="10.512705827041513"><ele>97.0</ele><time>2026-04-06T11:55:22.262Z</time></trkpt><trkpt lat="42.939640678677954" lon="10.51260718798082"><ele>97.00000000000001</ele><time>2026-04-06T11:55:25.262Z</time></trkpt><trkpt lat="42.939606813482044" lon="10.512491842153894"><ele>97.0</ele><time>2026-04-06T11:55:28.262Z</time></trkpt><trkpt lat="42.939579884911495" lon="10.512404523899242"><ele>97.00000000000001</ele><time>2026-04-06T11:55:30.262Z</time></trkpt><trkpt lat="42.939555645308744" lon="10.512315036287596"><ele>97.0</ele><time>2026-04-06T11:55:32.262Z</time></trkpt><trkpt lat="42.93952321662826" lon="10.512231322644988"><ele>97.0</ele><time>2026-04-06T11:55:34.262Z</time></trkpt><trkpt lat="42.93947046249983" lon="10.512130731757548"><ele>97.0</ele><time>2026-04-06T11:55:37.262Z</time></trkpt><trkpt lat="42.93940989425361" lon="10.512028419390884"><ele>97.00000000000001</ele><time>2026-04-06T11:55:40.262Z</time></trkpt><trkpt lat="42.93936588856441" lon="10.511959056817245"><ele>97.0</ele><time>2026-04-06T11:55:42.262Z</time></trkpt><trkpt lat="42.93931176107169" lon="10.511895925825357"><ele>96.16666666666667</ele><time>2026-04-06T11:55:44.262Z</time></trkpt><trkpt lat="42.93925375159998" lon="10.511828851149547"><ele>95.33333333333334</ele><time>2026-04-06T11:55:46.262Z</time></trkpt><trkpt lat="42.93919582716677" lon="10.511763812250496"><ele>94.5</ele><time>2026-04-06T11:55:48.262Z</time></trkpt><trkpt lat="42.93913021495522" lon="10.511710894111289"><ele>93.66666666666667</ele><time>2026-04-06T11:55:50.262Z</time></trkpt><trkpt lat="42.9390637751123" lon="10.511669964167151"><ele>92.83333333333334</ele><time>2026-04-06T11:55:52.262Z</time></trkpt><trkpt lat="42.9389933364684" lon="10.511635901347"><ele>92.0</ele><time>2026-04-06T11:55:54.262Z</time></trkpt><trkpt lat="42.938917686246214" lon="10.511607163966335"><ele>91.66666666666667</ele><time>2026-04-06T11:55:56.262Z</time></trkpt><trkpt lat="42.93883574043403" lon="10.511579938147719"><ele>91.33333333333334</ele><time>2026-04-06T11:55:58.262Z</time></trkpt><trkpt lat="42.938759830787426" lon="10.511544912961618"><ele>91.0</ele><time>2026-04-06T11:56:00.262Z</time></trkpt><trkpt lat="42.93866864019228" lon="10.511575926998287"><ele>90.66666666666667</ele><time>2026-04-06T11:56:02.262Z</time></trkpt><trkpt lat="42.93858671501013" lon="10.511586689761515"><ele>90.33333333333333</ele><time>2026-04-06T11:56:04.262Z</time></trkpt><trkpt lat="42.93850585862786" lon="10.511594303523754"><ele>90.0</ele><time>2026-04-06T11:56:06.262Z</time></trkpt><trkpt lat="42.93842343016931" lon="10.511553844088889"><ele>88.4</ele><time>2026-04-06T11:56:08.262Z</time></trkpt><trkpt lat="42.93835378104666" lon="10.511477098602546"><ele>86.8</ele><time>2026-04-06T11:56:10.261Z</time></trkpt><trkpt lat="42.938319052252325" lon="10.511360921138332"><ele>85.19999999999999</ele><time>2026-04-06T11:56:12.261Z</time></trkpt><trkpt lat="42.93833227171465" lon="10.511229680805343"><ele>83.6</ele><time>2026-04-06T11:56:14.261Z</time></trkpt><trkpt lat="42.938398880866465" lon="10.511110819311526"><ele>82.0</ele><time>2026-04-06T11:56:16.261Z</time></trkpt><trkpt lat="42.938497010355306" lon="10.51104936996821"><ele>82.0</ele><time>2026-04-06T11:56:18.261Z</time></trkpt><trkpt lat="42.93860318904867" lon="10.511018056868815"><ele>82.0</ele><time>2026-04-06T11:56:20.261Z</time></trkpt><trkpt lat="42.93870105144352" lon="10.510970822871863"><ele>82.0</ele><time>2026-04-06T11:56:22.261Z</time></trkpt><trkpt lat="42.93879081871326" lon="10.510893210210138"><ele>82.0</ele><time>2026-04-06T11:56:24.261Z</time></trkpt><trkpt lat="42.938866296352494" lon="10.510781256869977"><ele>82.0</ele><time>2026-04-06T11:56:26.261Z</time></trkpt><trkpt lat="42.93892568437111" lon="10.510648193159637"><ele>82.0</ele><time>2026-04-06T11:56:28.261Z</time></trkpt><trkpt lat="42.93896010912893" lon="10.51050383783929"><ele>82.0</ele><time>2026-04-06T11:56:30.261Z</time></trkpt><trkpt lat="42.93896859097625" lon="10.510370478144074"><ele>82.0</ele><time>2026-04-06T11:56:32.261Z</time></trkpt><trkpt lat="42.93896111595548" lon="10.510247370385262"><ele>82.0</ele><time>2026-04-06T11:56:34.261Z</time></trkpt><trkpt lat="42.93895366123516" lon="10.51012279533213"><ele>82.0</ele><time>2026-04-06T11:56:36.261Z</time></trkpt><trkpt lat="42.93894350131134" lon="10.509999316705901"><ele>79.8</ele><time>2026-04-06T11:56:38.261Z</time></trkpt><trkpt lat="42.9389281671355" lon="10.509833781250261"><ele>77.6</ele><time>2026-04-06T11:56:41.261Z</time></trkpt><trkpt lat="42.93892720081364" lon="10.509735350219211"><ele>75.39999999999999</ele><time>2026-04-06T11:56:43.261Z</time></trkpt><trkpt lat="42.93890089782409" lon="10.509631428571046"><ele>73.19999999999999</ele><time>2026-04-06T11:56:45.261Z</time></trkpt><trkpt lat="42.93889208024672" lon="10.509511366429967"><ele>71.0</ele><time>2026-04-06T11:56:47.261Z</time></trkpt><trkpt lat="42.93889551015026" lon="10.509371927852902"><ele>69.6</ele><time>2026-04-06T11:56:49.261Z</time></trkpt><trkpt lat="42.938886832219644" lon="10.509230386686458"><ele>68.19999999999999</ele><time>2026-04-06T11:56:51.261Z</time></trkpt><trkpt lat="42.93887814955834" lon="10.509096499833895"><ele>66.80000000000001</ele><time>2026-04-06T11:56:53.261Z</time></trkpt><trkpt lat="42.938864860368675" lon="10.508967694755833"><ele>65.4</ele><time>2026-04-06T11:56:55.261Z</time></trkpt><trkpt lat="42.93882531665808" lon="10.50885679757243"><ele>64.0</ele><time>2026-04-06T11:56:57.261Z</time></trkpt><trkpt lat="42.93879058788233" lon="10.508770938580357"><ele>62.0</ele><time>2026-04-06T11:56:59.261Z</time></trkpt><trkpt lat="42.93874292588469" lon="10.508701571682387"><ele>60.00000000000001</ele><time>2026-04-06T11:57:01.261Z</time></trkpt><trkpt lat="42.93869487607554" lon="10.508613991769524"><ele>58.00000000000001</ele><time>2026-04-06T11:57:03.261Z</time></trkpt><trkpt lat="42.938644899237275" lon="10.508503706514482"><ele>56.0</ele><time>2026-04-06T11:57:05.261Z</time></trkpt><trkpt lat="42.93859276484935" lon="10.508382747771789"><ele>54.0</ele><time>2026-04-06T11:57:07.261Z</time></trkpt><trkpt lat="42.938510572934426" lon="10.50824736175898"><ele>54.0</ele><time>2026-04-06T11:57:09.261Z</time></trkpt><trkpt lat="42.93844481261669" lon="10.50813922011036"><ele>54.00000000000001</ele><time>2026-04-06T11:57:11.261Z</time></trkpt><trkpt lat="42.93838020831128" lon="10.508041480030476"><ele>54.00000000000001</ele><time>2026-04-06T11:57:13.261Z</time></trkpt><trkpt lat="42.93831457427884" lon="10.507912903604513"><ele>54.0</ele><time>2026-04-06T11:57:15.261Z</time></trkpt><trkpt lat="42.9382413804945" lon="10.507791735567393"><ele>54.0</ele><time>2026-04-06T11:57:17.261Z</time></trkpt><trkpt lat="42.93817079321368" lon="10.507665766790524"><ele>51.800000000000004</ele><time>2026-04-06T11:57:19.261Z</time></trkpt><trkpt lat="42.938109351040474" lon="10.507543084522311"><ele>49.60000000000001</ele><time>2026-04-06T11:57:21.261Z</time></trkpt><trkpt lat="42.938047720301974" lon="10.50743201819427"><ele>47.4</ele><time>2026-04-06T11:57:23.261Z</time></trkpt><trkpt lat="42.93798803160292" lon="10.507323759089022"><ele>45.2</ele><time>2026-04-06T11:57:25.261Z</time></trkpt><trkpt lat="42.937932235604336" lon="10.507221441903996"><ele>43.0</ele><time>2026-04-06T11:57:27.261Z</time></trkpt><trkpt lat="42.937865138683215" lon="10.507126964055722"><ele>42.0</ele><time>2026-04-06T11:57:29.261Z</time></trkpt><trkpt lat="42.937804886894405" lon="10.507002481764143"><ele>41.0</ele><time>2026-04-06T11:57:31.261Z</time></trkpt><trkpt lat="42.93774327680401" lon="10.506887845834745"><ele>40.0</ele><time>2026-04-06T11:57:33.261Z</time></trkpt><trkpt lat="42.937686469359036" lon="10.50678322199303"><ele>39.0</ele><time>2026-04-06T11:57:35.261Z</time></trkpt><trkpt lat="42.937652870175654" lon="10.506675831186138"><ele>38.0</ele><time>2026-04-06T11:57:37.261Z</time></trkpt><trkpt lat="42.93761637526537" lon="10.506602880946707"><ele>38.0</ele><time>2026-04-06T11:57:39.261Z</time></trkpt><trkpt lat="42.9376752725065" lon="10.50651501745278"><ele>38.0</ele><time>2026-04-06T11:57:40.261Z</time></trkpt><trkpt lat="42.937759526185914" lon="10.50645489748802"><ele>38.0</ele><time>2026-04-06T11:57:42.261Z</time></trkpt><trkpt lat="42.937825296386194" lon="10.50638467303791"><ele>38.0</ele><time>2026-04-06T11:57:44.261Z</time></trkpt><trkpt lat="42.93788967742624" lon="10.506315553429053"><ele>38.0</ele><time>2026-04-06T11:57:46.261Z</time></trkpt><trkpt lat="42.93794768771563" lon="10.506253011260366"><ele>38.0</ele><time>2026-04-06T11:57:48.261Z</time></trkpt><trkpt lat="42.938014401476615" lon="10.506203360153052"><ele>38.0</ele><time>2026-04-06T11:57:50.261Z</time></trkpt><trkpt lat="42.938076331146114" lon="10.506149604370494"><ele>38.0</ele><time>2026-04-06T11:57:52.261Z</time></trkpt><trkpt lat="42.93813355664002" lon="10.506089164938858"><ele>38.0</ele><time>2026-04-06T11:57:54.261Z</time></trkpt><trkpt lat="42.93819411765213" lon="10.506038712191367"><ele>38.0</ele><time>2026-04-06T11:57:56.261Z</time></trkpt><trkpt lat="42.93825141638641" lon="10.505984764614103"><ele>38.0</ele><time>2026-04-06T11:57:58.261Z</time></trkpt><trkpt lat="42.93830233127064" lon="10.505916698878597"><ele>38.0</ele><time>2026-04-06T11:58:00.261Z</time></trkpt><trkpt lat="42.93835569489442" lon="10.505850306069606"><ele>38.0</ele><time>2026-04-06T11:58:02.261Z</time></trkpt><trkpt lat="42.9384113589382" lon="10.505782228748156"><ele>38.0</ele><time>2026-04-06T11:58:04.261Z</time></trkpt><trkpt lat="42.93847202665598" lon="10.505718711123285"><ele>38.0</ele><time>2026-04-06T11:58:06.261Z</time></trkpt><trkpt lat="42.938533572422166" lon="10.5056535625191"><ele>38.0</ele><time>2026-04-06T11:58:08.261Z</time></trkpt><trkpt lat="42.93860376483428" lon="10.505598827871726"><ele>38.0</ele><time>2026-04-06T11:58:10.261Z</time></trkpt><trkpt lat="42.93867032639759" lon="10.505538694963077"><ele>38.0</ele><time>2026-04-06T11:58:12.261Z</time></trkpt><trkpt lat="42.93873689293616" lon="10.505474069683252"><ele>38.0</ele><time>2026-04-06T11:58:14.261Z</time></trkpt><trkpt lat="42.9388045559726" lon="10.505411815251806"><ele>38.0</ele><time>2026-04-06T11:58:16.259Z</time></trkpt><trkpt lat="42.938871283431396" lon="10.505344221225723"><ele>38.0</ele><time>2026-04-06T11:58:18.259Z</time></trkpt><trkpt lat="42.93893963608342" lon="10.505278857767069"><ele>38.0</ele><time>2026-04-06T11:58:20.259Z</time></trkpt><trkpt lat="42.93901223730431" lon="10.50522181826186"><ele>38.0</ele><time>2026-04-06T11:58:22.259Z</time></trkpt><trkpt lat="42.93909155548903" lon="10.505179223696643"><ele>38.0</ele><time>2026-04-06T11:58:24.259Z</time></trkpt><trkpt lat="42.939163367469284" lon="10.505124006563344"><ele>38.0</ele><time>2026-04-06T11:58:26.259Z</time></trkpt><trkpt lat="42.93924579037007" lon="10.50508378366389"><ele>38.0</ele><time>2026-04-06T11:58:28.259Z</time></trkpt><trkpt lat="42.93932179512808" lon="10.505049865480196"><ele>38.0</ele><time>2026-04-06T11:58:30.259Z</time></trkpt><trkpt lat="42.93939517885205" lon="10.505040874621914"><ele>38.0</ele><time>2026-04-06T11:58:32.259Z</time></trkpt><trkpt lat="42.93946642842301" lon="10.505024771624816"><ele>38.0</ele><time>2026-04-06T11:58:34.259Z</time></trkpt><trkpt lat="42.93953764118934" lon="10.505010648111453"><ele>38.0</ele><time>2026-04-06T11:58:36.259Z</time></trkpt><trkpt lat="42.939607929626845" lon="10.504999180456233"><ele>38.0</ele><time>2026-04-06T11:58:38.259Z</time></trkpt><trkpt lat="42.93967655605068" lon="10.504989094102225"><ele>38.0</ele><time>2026-04-06T11:58:40.259Z</time></trkpt><trkpt lat="42.939741708944204" lon="10.50498558916641"><ele>38.0</ele><time>2026-04-06T11:58:42.259Z</time></trkpt><trkpt lat="42.939806894139764" lon="10.504999074627978"><ele>38.0</ele><time>2026-04-06T11:58:44.259Z</time></trkpt><trkpt lat="42.93987041659244" lon="10.505003906965548"><ele>38.0</ele><time>2026-04-06T11:58:46.259Z</time></trkpt><trkpt lat="42.93992508772255" lon="10.504947331100922"><ele>38.0</ele><time>2026-04-06T11:58:48.259Z</time></trkpt><trkpt lat="42.94000693856226" lon="10.504916190870034"><ele>38.0</ele><time>2026-04-06T11:58:51.259Z</time></trkpt><trkpt lat="42.94007402070501" lon="10.504892751342036"><ele>38.0</ele><time>2026-04-06T11:58:53.259Z</time></trkpt><trkpt lat="42.94013812823657" lon="10.504863510611603"><ele>38.0</ele><time>2026-04-06T11:58:55.259Z</time></trkpt><trkpt lat="42.940204290676526" lon="10.504834827064576"><ele>38.714285714285715</ele><time>2026-04-06T11:58:57.259Z</time></trkpt><trkpt lat="42.94027308870301" lon="10.504800654384002"><ele>39.42857142857143</ele><time>2026-04-06T11:58:59.259Z</time></trkpt><trkpt lat="42.94033801101478" lon="10.504744319652767"><ele>40.142857142857146</ele><time>2026-04-06T11:59:01.259Z</time></trkpt><trkpt lat="42.94039634628743" lon="10.504678529842352"><ele>40.85714285714286</ele><time>2026-04-06T11:59:03.259Z</time></trkpt><trkpt lat="42.940441230592235" lon="10.504599957823013"><ele>41.57142857142857</ele><time>2026-04-06T11:59:05.259Z</time></trkpt><trkpt lat="42.94048641893596" lon="10.504519668887069"><ele>42.28571428571429</ele><time>2026-04-06T11:59:07.259Z</time></trkpt><trkpt lat="42.94052914513952" lon="10.504439467581072"><ele>43.0</ele><time>2026-04-06T11:59:09.259Z</time></trkpt><trkpt lat="42.940558369471226" lon="10.504349891517261"><ele>43.00000000000001</ele><time>2026-04-06T11:59:11.259Z</time></trkpt><trkpt lat="42.94058489175777" lon="10.504256910881189"><ele>43.0</ele><time>2026-04-06T11:59:13.259Z</time></trkpt><trkpt lat="42.94061232578539" lon="10.504166431504899"><ele>43.0</ele><time>2026-04-06T11:59:15.259Z</time></trkpt><trkpt lat="42.940626133221386" lon="10.504072637121377"><ele>43.0</ele><time>2026-04-06T11:59:17.259Z</time></trkpt><trkpt lat="42.94063840858511" lon="10.503979499861964"><ele>43.0</ele><time>2026-04-06T11:59:19.259Z</time></trkpt><trkpt lat="42.94064670729735" lon="10.503883306371065"><ele>43.00000000000001</ele><time>2026-04-06T11:59:21.259Z</time></trkpt><trkpt lat="42.94065064587992" lon="10.503790433120892"><ele>43.0</ele><time>2026-04-06T11:59:23.259Z</time></trkpt><trkpt lat="42.94066195723093" lon="10.503695328850183"><ele>43.142857142857146</ele><time>2026-04-06T11:59:25.259Z</time></trkpt><trkpt lat="42.94066476030135" lon="10.503600719299053"><ele>43.285714285714285</ele><time>2026-04-06T11:59:27.259Z</time></trkpt><trkpt lat="42.94067375199861" lon="10.503510261318736"><ele>43.42857142857143</ele><time>2026-04-06T11:59:29.259Z</time></trkpt><trkpt lat="42.94068290017176" lon="10.503414043606416"><ele>43.57142857142857</ele><time>2026-04-06T11:59:31.259Z</time></trkpt><trkpt lat="42.94069715160092" lon="10.503318479411275"><ele>43.714285714285715</ele><time>2026-04-06T11:59:33.259Z</time></trkpt><trkpt lat="42.9407036665809" lon="10.503222336104892"><ele>43.85714285714286</ele><time>2026-04-06T11:59:35.259Z</time></trkpt><trkpt lat="42.94071282040449" lon="10.503126542040429"><ele>44.0</ele><time>2026-04-06T11:59:37.259Z</time></trkpt><trkpt lat="42.940741500286705" lon="10.503032644151366"><ele>44.0</ele><time>2026-04-06T11:59:39.259Z</time></trkpt><trkpt lat="42.9407623482498" lon="10.50293405120107"><ele>44.0</ele><time>2026-04-06T11:59:41.259Z</time></trkpt><trkpt lat="42.940791150146936" lon="10.502842359533858"><ele>44.0</ele><time>2026-04-06T11:59:43.259Z</time></trkpt><trkpt lat="42.94081394837663" lon="10.50275091299261"><ele>44.0</ele><time>2026-04-06T11:59:45.259Z</time></trkpt><trkpt lat="42.94084356376687" lon="10.502664931145526"><ele>44.0</ele><time>2026-04-06T11:59:47.259Z</time></trkpt><trkpt lat="42.940865371431265" lon="10.502572964555474"><ele>44.0</ele><time>2026-04-06T11:59:49.259Z</time></trkpt><trkpt lat="42.94089217766056" lon="10.502471958019203"><ele>44.0</ele><time>2026-04-06T11:59:51.259Z</time></trkpt><trkpt lat="42.94091767661465" lon="10.502368406161445"><ele>44.5</ele><time>2026-04-06T11:59:53.259Z</time></trkpt><trkpt lat="42.94095283293823" lon="10.502265788073842"><ele>45.0</ele><time>2026-04-06T11:59:55.259Z</time></trkpt><trkpt lat="42.940985911046944" lon="10.502158937556143"><ele>45.5</ele><time>2026-04-06T11:59:57.259Z</time></trkpt><trkpt lat="42.94101074600291" lon="10.502046153047415"><ele>46.0</ele><time>2026-04-06T11:59:59.259Z</time></trkpt><trkpt lat="42.941042227523035" lon="10.501937880187976"><ele>46.5</ele><time>2026-04-06T12:00:01.259Z</time></trkpt><trkpt lat="42.94107422065767" lon="10.501824812053835"><ele>47.0</ele><time>2026-04-06T12:00:03.259Z</time></trkpt><trkpt lat="42.941106608183794" lon="10.50171840327169"><ele>47.5</ele><time>2026-04-06T12:00:05.259Z</time></trkpt><trkpt lat="42.94113564692547" lon="10.501610459368635"><ele>48.0</ele><time>2026-04-06T12:00:07.259Z</time></trkpt><trkpt lat="42.94116514489484" lon="10.501505576717435"><ele>48.5</ele><time>2026-04-06T12:00:09.259Z</time></trkpt><trkpt lat="42.94119238810195" lon="10.501403075441308"><ele>49.0</ele><time>2026-04-06T12:00:11.259Z</time></trkpt><trkpt lat="42.94122370235669" lon="10.5013033711213"><ele>49.50000000000001</ele><time>2026-04-06T12:00:13.259Z</time></trkpt><trkpt lat="42.94125030706581" lon="10.501204527166353"><ele>50.0</ele><time>2026-04-06T12:00:15.26Z</time></trkpt><trkpt lat="42.94127659666406" lon="10.501108032369297"><ele>51.28571428571429</ele><time>2026-04-06T12:00:17.26Z</time></trkpt><trkpt lat="42.94130250588369" lon="10.501013613788134"><ele>52.57142857142857</ele><time>2026-04-06T12:00:19.26Z</time></trkpt><trkpt lat="42.94132995315447" lon="10.50092348975174"><ele>53.85714285714286</ele><time>2026-04-06T12:00:21.26Z</time></trkpt><trkpt lat="42.94135545958835" lon="10.500837954514509"><ele>55.142857142857146</ele><time>2026-04-06T12:00:23.258Z</time></trkpt><trkpt lat="42.94138213109631" lon="10.500750338094441"><ele>56.42857142857143</ele><time>2026-04-06T12:00:25.258Z</time></trkpt><trkpt lat="42.941407468611295" lon="10.500664661237712"><ele>57.714285714285715</ele><time>2026-04-06T12:00:27.258Z</time></trkpt><trkpt lat="42.94144801308172" lon="10.500550311564576"><ele>59.0</ele><time>2026-04-06T12:00:30.258Z</time></trkpt><trkpt lat="42.9414974564954" lon="10.500443514725488"><ele>58.71428571428571</ele><time>2026-04-06T12:00:33.258Z</time></trkpt><trkpt lat="42.9415460930929" lon="10.500386371560701"><ele>58.42857142857143</ele><time>2026-04-06T12:00:35.258Z</time></trkpt><trkpt lat="42.941606641711964" lon="10.500349302353891"><ele>58.14285714285714</ele><time>2026-04-06T12:00:37.258Z</time></trkpt><trkpt lat="42.941668894501156" lon="10.500324925730963"><ele>57.857142857142854</ele><time>2026-04-06T12:00:39.258Z</time></trkpt><trkpt lat="42.94173442665317" lon="10.50033529506951"><ele>57.57142857142857</ele><time>2026-04-06T12:00:41.258Z</time></trkpt><trkpt lat="42.94182712571654" lon="10.500359277869782"><ele>57.285714285714285</ele><time>2026-04-06T12:00:44.258Z</time></trkpt><trkpt lat="42.94188621651359" lon="10.500389273048949"><ele>57.0</ele><time>2026-04-06T12:00:46.258Z</time></trkpt><trkpt lat="42.94194911115354" lon="10.500430090792706"><ele>57.0</ele><time>2026-04-06T12:00:48.258Z</time></trkpt><trkpt lat="42.94201149125163" lon="10.500471615324392"><ele>56.99999999999999</ele><time>2026-04-06T12:00:50.258Z</time></trkpt><trkpt lat="42.94207839339544" lon="10.500506830358336"><ele>57.0</ele><time>2026-04-06T12:00:52.258Z</time></trkpt><trkpt lat="42.94214240109969" lon="10.500541478542834"><ele>57.0</ele><time>2026-04-06T12:00:54.258Z</time></trkpt><trkpt lat="42.942207564124715" lon="10.500580846321482"><ele>56.99999999999999</ele><time>2026-04-06T12:00:56.258Z</time></trkpt><trkpt lat="42.9422756930059" lon="10.500619305544422"><ele>57.0</ele><time>2026-04-06T12:00:58.258Z</time></trkpt><trkpt lat="42.94234524694315" lon="10.500651448967748"><ele>57.0</ele><time>2026-04-06T12:01:00.258Z</time></trkpt><trkpt lat="42.94241148776591" lon="10.5006849045921"><ele>57.0</ele><time>2026-04-06T12:01:02.258Z</time></trkpt><trkpt lat="42.94247627158929" lon="10.500716835727749"><ele>56.99999999999999</ele><time>2026-04-06T12:01:04.258Z</time></trkpt><trkpt lat="42.942545095041844" lon="10.500746473442586"><ele>57.0</ele><time>2026-04-06T12:01:06.258Z</time></trkpt><trkpt lat="42.94261174698524" lon="10.500779037428083"><ele>57.0</ele><time>2026-04-06T12:01:08.258Z</time></trkpt><trkpt lat="42.942674107564876" lon="10.500818815186992"><ele>56.99999999999999</ele><time>2026-04-06T12:01:10.258Z</time></trkpt><trkpt lat="42.942737108560195" lon="10.500853934667449"><ele>57.0</ele><time>2026-04-06T12:01:13.258Z</time></trkpt><trkpt lat="42.94279858895428" lon="10.500889365402895"><ele>57.0</ele><time>2026-04-06T12:01:14.258Z</time></trkpt><trkpt lat="42.94288833541718" lon="10.500933400691734"><ele>58.57142857142857</ele><time>2026-04-06T12:01:17.258Z</time></trkpt><trkpt lat="42.942952397284614" lon="10.500969986539696"><ele>60.14285714285714</ele><time>2026-04-06T12:01:19.258Z</time></trkpt><trkpt lat="42.94301137496027" lon="10.501006334947057"><ele>61.71428571428571</ele><time>2026-04-06T12:01:21.258Z</time></trkpt><trkpt lat="42.94307447170438" lon="10.50103813340438"><ele>63.28571428571428</ele><time>2026-04-06T12:01:23.258Z</time></trkpt><trkpt lat="42.94313303439046" lon="10.501072776458685"><ele>64.85714285714286</ele><time>2026-04-06T12:01:25.258Z</time></trkpt><trkpt lat="42.94321874661752" lon="10.501122256076549"><ele>66.42857142857142</ele><time>2026-04-06T12:01:28.258Z</time></trkpt><trkpt lat="42.94330163116511" lon="10.501172405983064"><ele>68.0</ele><time>2026-04-06T12:01:31.258Z</time></trkpt><trkpt lat="42.943391530829665" lon="10.501209786988758"><ele>68.16666666666667</ele><time>2026-04-06T12:01:34.258Z</time></trkpt><trkpt lat="42.94347130355333" lon="10.501256937732746"><ele>68.33333333333334</ele><time>2026-04-06T12:01:37.258Z</time></trkpt><trkpt lat="42.94355045831697" lon="10.501310010443143"><ele>68.5</ele><time>2026-04-06T12:01:40.258Z</time></trkpt><trkpt lat="42.94362771615443" lon="10.50134084649053"><ele>68.66666666666667</ele><time>2026-04-06T12:01:43.258Z</time></trkpt><trkpt lat="42.94370941488341" lon="10.501376855385137"><ele>68.83333333333333</ele><time>2026-04-06T12:01:46.258Z</time></trkpt><trkpt lat="42.94378786507267" lon="10.501426149220817"><ele>69.0</ele><time>2026-04-06T12:01:49.258Z</time></trkpt><trkpt lat="42.94387057583864" lon="10.501481295522503"><ele>69.0</ele><time>2026-04-06T12:01:52.258Z</time></trkpt><trkpt lat="42.94395078591816" lon="10.501529410925134"><ele>69.0</ele><time>2026-04-06T12:01:55.258Z</time></trkpt><trkpt lat="42.94402991422203" lon="10.5015845812477"><ele>69.0</ele><time>2026-04-06T12:01:58.258Z</time></trkpt><trkpt lat="42.944109468795126" lon="10.501641875440797"><ele>69.0</ele><time>2026-04-06T12:02:01.258Z</time></trkpt><trkpt lat="42.94419003772146" lon="10.501698466640773"><ele>69.0</ele><time>2026-04-06T12:02:04.258Z</time></trkpt><trkpt lat="42.94426899469117" lon="10.501756054788707"><ele>69.0</ele><time>2026-04-06T12:02:07.258Z</time></trkpt><trkpt lat="42.94434822643796" lon="10.501824154314955"><ele>69.8</ele><time>2026-04-06T12:02:10.258Z</time></trkpt><trkpt lat="42.94443088109566" lon="10.50188615576488"><ele>70.60000000000001</ele><time>2026-04-06T12:02:13.258Z</time></trkpt><trkpt lat="42.94450794797127" lon="10.501953709861185"><ele>71.4</ele><time>2026-04-06T12:02:16.258Z</time></trkpt><trkpt lat="42.94458286045099" lon="10.5020288845919"><ele>72.2</ele><time>2026-04-06T12:02:19.258Z</time></trkpt><trkpt lat="42.944657108759664" lon="10.502102481886379"><ele>73.0</ele><time>2026-04-06T12:02:22.258Z</time></trkpt><trkpt lat="42.944730183880694" lon="10.502177869247095"><ele>73.0</ele><time>2026-04-06T12:02:25.258Z</time></trkpt><trkpt lat="42.94478543336198" lon="10.502228064136414"><ele>73.0</ele><time>2026-04-06T12:02:27.258Z</time></trkpt><trkpt lat="42.944836718339545" lon="10.502282419683267"><ele>73.0</ele><time>2026-04-06T12:02:29.257Z</time></trkpt><trkpt lat="42.94488907327716" lon="10.50234131071889"><ele>73.0</ele><time>2026-04-06T12:02:31.257Z</time></trkpt><trkpt lat="42.94494366917836" lon="10.502391848208337"><ele>73.0</ele><time>2026-04-06T12:02:33.257Z</time></trkpt><trkpt lat="42.94499664347711" lon="10.50244620030439"><ele>73.0</ele><time>2026-04-06T12:02:35.257Z</time></trkpt><trkpt lat="42.945042010510306" lon="10.502510910097872"><ele>73.0</ele><time>2026-04-06T12:02:37.257Z</time></trkpt><trkpt lat="42.94508998007878" lon="10.502572813718068"><ele>73.57142857142857</ele><time>2026-04-06T12:02:39.257Z</time></trkpt><trkpt lat="42.945144968497345" lon="10.50262559808852"><ele>74.14285714285714</ele><time>2026-04-06T12:02:41.257Z</time></trkpt><trkpt lat="42.945198006913465" lon="10.50268674257115"><ele>74.71428571428572</ele><time>2026-04-06T12:02:43.257Z</time></trkpt><trkpt lat="42.945246321354375" lon="10.50274285118797"><ele>75.28571428571428</ele><time>2026-04-06T12:02:45.257Z</time></trkpt><trkpt lat="42.945295259946214" lon="10.50280299699965"><ele>75.85714285714286</ele><time>2026-04-06T12:02:47.257Z</time></trkpt><trkpt lat="42.94534358855553" lon="10.502869846334809"><ele>76.42857142857143</ele><time>2026-04-06T12:02:49.257Z</time></trkpt><trkpt lat="42.94538997377769" lon="10.502934674426644"><ele>77.0</ele><time>2026-04-06T12:02:51.257Z</time></trkpt><trkpt lat="42.945436426466685" lon="10.503004780505108"><ele>77.0</ele><time>2026-04-06T12:02:53.257Z</time></trkpt><trkpt lat="42.94550401568531" lon="10.503096389273285"><ele>77.0</ele><time>2026-04-06T12:02:56.257Z</time></trkpt><trkpt lat="42.94554727853666" lon="10.503166921576067"><ele>77.0</ele><time>2026-04-06T12:02:58.257Z</time></trkpt><trkpt lat="42.945590732169684" lon="10.503238024031736"><ele>77.0</ele><time>2026-04-06T12:03:00.257Z</time></trkpt><trkpt lat="42.945633518437475" lon="10.503305105706696"><ele>77.0</ele><time>2026-04-06T12:03:02.257Z</time></trkpt><trkpt lat="42.945674039256446" lon="10.503381124809177"><ele>77.0</ele><time>2026-04-06T12:03:04.257Z</time></trkpt><trkpt lat="42.94573421945462" lon="10.503483137266954"><ele>77.0</ele><time>2026-04-06T12:03:07.257Z</time></trkpt><trkpt lat="42.94577741410012" lon="10.503557510157053"><ele>77.0</ele><time>2026-04-06T12:03:09.257Z</time></trkpt><trkpt lat="42.94582174449778" lon="10.503625724833144"><ele>77.0</ele><time>2026-04-06T12:03:11.257Z</time></trkpt><trkpt lat="42.9458722827141" lon="10.503695527855275"><ele>77.0</ele><time>2026-04-06T12:03:13.257Z</time></trkpt><trkpt lat="42.94591809618747" lon="10.503767037097985"><ele>77.0</ele><time>2026-04-06T12:03:15.257Z</time></trkpt><trkpt lat="42.94597048494781" lon="10.503830893224798"><ele>77.0</ele><time>2026-04-06T12:03:17.257Z</time></trkpt><trkpt lat="42.946023618572504" lon="10.503892880305909"><ele>77.0</ele><time>2026-04-06T12:03:19.257Z</time></trkpt><trkpt lat="42.94607106196197" lon="10.503962586642025"><ele>77.83333333333334</ele><time>2026-04-06T12:03:21.257Z</time></trkpt><trkpt lat="42.946128192310645" lon="10.504017710786172"><ele>78.66666666666667</ele><time>2026-04-06T12:03:23.257Z</time></trkpt><trkpt lat="42.946181200950384" lon="10.50408090971055"><ele>79.5</ele><time>2026-04-06T12:03:25.257Z</time></trkpt><trkpt lat="42.94623956386868" lon="10.504130771755303"><ele>80.33333333333333</ele><time>2026-04-06T12:03:27.257Z</time></trkpt><trkpt lat="42.94631824310141" lon="10.504176843221334"><ele>81.16666666666666</ele><time>2026-04-06T12:03:30.257Z</time></trkpt><trkpt lat="42.94640478933659" lon="10.504192747102671"><ele>82.0</ele><time>2026-04-06T12:03:33.257Z</time></trkpt><trkpt lat="42.946481606120585" lon="10.504187894366034"><ele>82.0</ele><time>2026-04-06T12:03:36.257Z</time></trkpt><trkpt lat="42.94654067936919" lon="10.504116453723475"><ele>82.0</ele><time>2026-04-06T12:03:39.257Z</time></trkpt><trkpt lat="42.946571991122916" lon="10.504006651534025"><ele>82.0</ele><time>2026-04-06T12:03:42.257Z</time></trkpt><trkpt lat="42.94658677365813" lon="10.503887738860499"><ele>82.0</ele><time>2026-04-06T12:03:45.257Z</time></trkpt><trkpt lat="42.94658171217014" lon="10.50376411751627"><ele>82.0</ele><time>2026-04-06T12:03:48.257Z</time></trkpt><trkpt lat="42.94658070626973" lon="10.503635518122525"><ele>82.0</ele><time>2026-04-06T12:03:51.257Z</time></trkpt><trkpt lat="42.94657725565371" lon="10.503523312047445"><ele>82.85714285714285</ele><time>2026-04-06T12:03:54.257Z</time></trkpt><trkpt lat="42.946575735521336" lon="10.50343541218775"><ele>83.71428571428571</ele><time>2026-04-06T12:03:57.257Z</time></trkpt><trkpt lat="42.94657161744747" lon="10.503347436777803"><ele>84.57142857142857</ele><time>2026-04-06T12:04:00.257Z</time></trkpt><trkpt lat="42.946556774950636" lon="10.503232247072338"><ele>85.42857142857142</ele><time>2026-04-06T12:04:04.257Z</time></trkpt><trkpt lat="42.946538052323874" lon="10.50314939013922"><ele>86.28571428571428</ele><time>2026-04-06T12:04:07.257Z</time></trkpt><trkpt lat="42.94652708393915" lon="10.503060346898629"><ele>87.14285714285714</ele><time>2026-04-06T12:04:10.257Z</time></trkpt><trkpt lat="42.946514008624945" lon="10.502968526030559"><ele>88.0</ele><time>2026-04-06T12:04:13.257Z</time></trkpt><trkpt lat="42.94649754722741" lon="10.502882185225713"><ele>88.42857142857143</ele><time>2026-04-06T12:04:16.257Z</time></trkpt><trkpt lat="42.946483321608234" lon="10.502796293047497"><ele>88.85714285714286</ele><time>2026-04-06T12:04:19.257Z</time></trkpt><trkpt lat="42.94646627941247" lon="10.502710181974205"><ele>89.28571428571428</ele><time>2026-04-06T12:04:22.257Z</time></trkpt><trkpt lat="42.94646305647201" lon="10.502618657396537"><ele>89.71428571428572</ele><time>2026-04-06T12:04:25.257Z</time></trkpt><trkpt lat="42.94644144373283" lon="10.502526001304911"><ele>90.14285714285714</ele><time>2026-04-06T12:04:28.257Z</time></trkpt><trkpt lat="42.94642951351493" lon="10.502412447895122"><ele>90.57142857142857</ele><time>2026-04-06T12:04:32.257Z</time></trkpt><trkpt lat="42.94640772841529" lon="10.502331414835123"><ele>91.0</ele><time>2026-04-06T12:04:35.255Z</time></trkpt><trkpt lat="42.946379516565145" lon="10.502251221179542"><ele>91.0</ele><time>2026-04-06T12:04:38.255Z</time></trkpt><trkpt lat="42.946348873517636" lon="10.502167592719214"><ele>91.0</ele><time>2026-04-06T12:04:41.255Z</time></trkpt><trkpt lat="42.94631052667243" lon="10.502066979990193"><ele>91.0</ele><time>2026-04-06T12:04:45.255Z</time></trkpt><trkpt lat="42.94628105309587" lon="10.501986936341467"><ele>91.0</ele><time>2026-04-06T12:04:48.255Z</time></trkpt><trkpt lat="42.946246414544945" lon="10.50188629248167"><ele>91.0</ele><time>2026-04-06T12:04:52.255Z</time></trkpt><trkpt lat="42.94621916822767" lon="10.501799537613454"><ele>91.0</ele><time>2026-04-06T12:04:55.255Z</time></trkpt><trkpt lat="42.94618837345393" lon="10.501709380095638"><ele>91.0</ele><time>2026-04-06T12:04:58.255Z</time></trkpt><trkpt lat="42.9461514998941" lon="10.501615394980389"><ele>92.85714285714286</ele><time>2026-04-06T12:05:01.255Z</time></trkpt><trkpt lat="42.94611133001935" lon="10.501515156720215"><ele>94.71428571428572</ele><time>2026-04-06T12:05:05.255Z</time></trkpt><trkpt lat="42.9460793942827" lon="10.50143903877025"><ele>96.57142857142857</ele><time>2026-04-06T12:05:08.255Z</time></trkpt><trkpt lat="42.94604752096799" lon="10.501357157603257"><ele>98.42857142857143</ele><time>2026-04-06T12:05:11.255Z</time></trkpt><trkpt lat="42.94602038586449" lon="10.501262242018173"><ele>100.28571428571429</ele><time>2026-04-06T12:05:14.255Z</time></trkpt><trkpt lat="42.945991941690714" lon="10.501171560510754"><ele>102.14285714285714</ele><time>2026-04-06T12:05:17.255Z</time></trkpt><trkpt lat="42.94595751516247" lon="10.501091939094241"><ele>104.0</ele><time>2026-04-06T12:05:20.255Z</time></trkpt><trkpt lat="42.94593605752979" lon="10.501007615534315"><ele>103.0</ele><time>2026-04-06T12:05:23.255Z</time></trkpt><trkpt lat="42.945914646449744" lon="10.500912835502206"><ele>102.0</ele><time>2026-04-06T12:05:26.255Z</time></trkpt><trkpt lat="42.94589162825835" lon="10.500824493442394"><ele>101.0</ele><time>2026-04-06T12:05:29.255Z</time></trkpt><trkpt lat="42.94585497668766" lon="10.50074533476933"><ele>100.0</ele><time>2026-04-06T12:05:32.255Z</time></trkpt><trkpt lat="42.94580233140448" lon="10.5006764905239"><ele>99.0</ele><time>2026-04-06T12:05:35.255Z</time></trkpt><trkpt lat="42.94576637449931" lon="10.500602984247264"><ele>98.0</ele><time>2026-04-06T12:05:38.255Z</time></trkpt><trkpt lat="42.94572642895437" lon="10.50049611667956"><ele>97.0</ele><time>2026-04-06T12:05:42.255Z</time></trkpt><trkpt lat="42.945698510856" lon="10.500415477843037"><ele>99.0</ele><time>2026-04-06T12:05:45.255Z</time></trkpt><trkpt lat="42.945683370959365" lon="10.5003305659353"><ele>101.0</ele><time>2026-04-06T12:05:48.255Z</time></trkpt><trkpt lat="42.945636777914714" lon="10.500254564699613"><ele>103.0</ele><time>2026-04-06T12:05:51.255Z</time></trkpt><trkpt lat="42.945599397752716" lon="10.5001703384363"><ele>105.0</ele><time>2026-04-06T12:05:54.255Z</time></trkpt><trkpt lat="42.94555982309962" lon="10.50010095379251"><ele>107.0</ele><time>2026-04-06T12:05:57.255Z</time></trkpt><trkpt lat="42.94550500112115" lon="10.500031499039052"><ele>109.0</ele><time>2026-04-06T12:06:00.255Z</time></trkpt><trkpt lat="42.945453950696525" lon="10.49994856570136"><ele>111.0</ele><time>2026-04-06T12:06:02.255Z</time></trkpt><trkpt lat="42.94538591881098" lon="10.499848123693505"><ele>111.0</ele><time>2026-04-06T12:06:04.255Z</time></trkpt><trkpt lat="42.94530060689456" lon="10.499735657404349"><ele>111.0</ele><time>2026-04-06T12:06:06.255Z</time></trkpt><trkpt lat="42.9452246675881" lon="10.499623289933346"><ele>111.0</ele><time>2026-04-06T12:06:08.255Z</time></trkpt><trkpt lat="42.94516186727434" lon="10.499495334640834"><ele>111.0</ele><time>2026-04-06T12:06:10.256Z</time></trkpt><trkpt lat="42.94512728118804" lon="10.499351909510269"><ele>112.0</ele><time>2026-04-06T12:06:12.256Z</time></trkpt><trkpt lat="42.94513328054845" lon="10.499229467579541"><ele>113.0</ele><time>2026-04-06T12:06:14.256Z</time></trkpt><trkpt lat="42.945150990276844" lon="10.499123483190065"><ele>114.0</ele><time>2026-04-06T12:06:16.256Z</time></trkpt><trkpt lat="42.945181621141096" lon="10.499008384561623"><ele>115.0</ele><time>2026-04-06T12:06:19.256Z</time></trkpt><trkpt lat="42.94523057120088" lon="10.498916103298082"><ele>116.0</ele><time>2026-04-06T12:06:22.256Z</time></trkpt><trkpt lat="42.94529544436666" lon="10.498841391844453"><ele>117.0</ele><time>2026-04-06T12:06:25.256Z</time></trkpt><trkpt lat="42.945352791124385" lon="10.498775142560703"><ele>116.28571428571429</ele><time>2026-04-06T12:06:28.256Z</time></trkpt><trkpt lat="42.94541628764472" lon="10.498715448918258"><ele>115.57142857142858</ele><time>2026-04-06T12:06:31.256Z</time></trkpt><trkpt lat="42.945478439222654" lon="10.498668345168904"><ele>114.85714285714286</ele><time>2026-04-06T12:06:34.256Z</time></trkpt><trkpt lat="42.945548260546836" lon="10.498653019531975"><ele>114.14285714285714</ele><time>2026-04-06T12:06:37.256Z</time></trkpt><trkpt lat="42.94560679552025" lon="10.498601042077173"><ele>113.42857142857143</ele><time>2026-04-06T12:06:40.254Z</time></trkpt><trkpt lat="42.94568187650676" lon="10.498572228731028"><ele>112.71428571428572</ele><time>2026-04-06T12:06:44.254Z</time></trkpt><trkpt lat="42.94575411907916" lon="10.498535708671623"><ele>112.0</ele><time>2026-04-06T12:06:49.254Z</time></trkpt><trkpt lat="42.94582681699805" lon="10.498498571160228"><ele>114.14285714285714</ele><time>2026-04-06T12:06:53.254Z</time></trkpt><trkpt lat="42.945888691132296" lon="10.498470442762146"><ele>116.28571428571428</ele><time>2026-04-06T12:06:57.254Z</time></trkpt><trkpt lat="42.945951513513315" lon="10.498424553735978"><ele>118.42857142857143</ele><time>2026-04-06T12:07:01.254Z</time></trkpt><trkpt lat="42.94601727439456" lon="10.498384132018062"><ele>120.57142857142857</ele><time>2026-04-06T12:07:06.254Z</time></trkpt><trkpt lat="42.94609228262505" lon="10.498339895405778"><ele>122.71428571428571</ele><time>2026-04-06T12:07:10.254Z</time></trkpt><trkpt lat="42.94616459292438" lon="10.498296835220895"><ele>124.85714285714286</ele><time>2026-04-06T12:07:14.254Z</time></trkpt><trkpt lat="42.94623827556945" lon="10.498275995920078"><ele>127.0</ele><time>2026-04-06T12:07:18.254Z</time></trkpt><trkpt lat="42.94630895949672" lon="10.498234459074787"><ele>127.0</ele><time>2026-04-06T12:07:22.254Z</time></trkpt><trkpt lat="42.946383448472055" lon="10.498198418060577"><ele>127.0</ele><time>2026-04-06T12:07:27.254Z</time></trkpt><trkpt lat="42.94644058408081" lon="10.49816067275362"><ele>127.0</ele><time>2026-04-06T12:07:31.254Z</time></trkpt><trkpt lat="42.946486027228445" lon="10.498072790080696"><ele>127.0</ele><time>2026-04-06T12:07:35.254Z</time></trkpt><trkpt lat="42.94652062351902" lon="10.49798367099021"><ele>127.0</ele><time>2026-04-06T12:07:39.254Z</time></trkpt><trkpt lat="42.94656576484251" lon="10.497902665477381"><ele>127.0</ele><time>2026-04-06T12:07:43.254Z</time></trkpt><trkpt lat="42.94661332983564" lon="10.497834356312753"><ele>127.0</ele><time>2026-04-06T12:07:47.254Z</time></trkpt><trkpt lat="42.94668115019488" lon="10.49779313360672"><ele>127.0</ele><time>2026-04-06T12:07:51.254Z</time></trkpt><trkpt lat="42.946754154874185" lon="10.497764229322367"><ele>127.0</ele><time>2026-04-06T12:07:55.254Z</time></trkpt><trkpt lat="42.946816678550334" lon="10.497746182185566"><ele>127.0</ele><time>2026-04-06T12:07:58.254Z</time></trkpt><trkpt lat="42.94687995208975" lon="10.497715037460464"><ele>127.0</ele><time>2026-04-06T12:08:02.254Z</time></trkpt><trkpt lat="42.94695145716763" lon="10.497735496541674"><ele>127.0</ele><time>2026-04-06T12:08:06.254Z</time></trkpt><trkpt lat="42.94702168543523" lon="10.497761669421442"><ele>127.0</ele><time>2026-04-06T12:08:10.254Z</time></trkpt><trkpt lat="42.9470830250915" lon="10.49778178065976"><ele>127.0</ele><time>2026-04-06T12:08:14.254Z</time></trkpt><trkpt lat="42.94715670492482" lon="10.49778880745871"><ele>127.0</ele><time>2026-04-06T12:08:18.254Z</time></trkpt><trkpt lat="42.94722635232939" lon="10.497813329582577"><ele>127.0</ele><time>2026-04-06T12:08:22.254Z</time></trkpt><trkpt lat="42.94729602572884" lon="10.49784352571487"><ele>127.0</ele><time>2026-04-06T12:08:26.254Z</time></trkpt><trkpt lat="42.94736122088015" lon="10.497860299953915"><ele>127.0</ele><time>2026-04-06T12:08:30.254Z</time></trkpt><trkpt lat="42.94742724352935" lon="10.497874341259969"><ele>127.0</ele><time>2026-04-06T12:08:35.254Z</time></trkpt><trkpt lat="42.94749306963083" lon="10.497890173254792"><ele>127.0</ele><time>2026-04-06T12:08:39.254Z</time></trkpt><trkpt lat="42.94755502485691" lon="10.497929890198131"><ele>127.0</ele><time>2026-04-06T12:08:43.254Z</time></trkpt><trkpt lat="42.9476282035684" lon="10.49796031057908"><ele>129.85714285714286</ele><time>2026-04-06T12:08:48.253Z</time></trkpt><trkpt lat="42.9477052549662" lon="10.498003129240546"><ele>132.71428571428572</ele><time>2026-04-06T12:08:53.253Z</time></trkpt><trkpt lat="42.9477723531464" lon="10.49801462460544"><ele>135.57142857142856</ele><time>2026-04-06T12:08:57.253Z</time></trkpt><trkpt lat="42.94783817021046" lon="10.497990121772437"><ele>138.42857142857144</ele><time>2026-04-06T12:09:01.252Z</time></trkpt><trkpt lat="42.94790931360506" lon="10.497986785816748"><ele>141.28571428571428</ele><time>2026-04-06T12:09:05.252Z</time></trkpt><trkpt lat="42.94797991876787" lon="10.49799007951614"><ele>144.14285714285714</ele><time>2026-04-06T12:09:09.252Z</time></trkpt><trkpt lat="42.94805010203953" lon="10.497959702251086"><ele>147.0</ele><time>2026-04-06T12:09:13.252Z</time></trkpt><trkpt lat="42.94812306964006" lon="10.497975307431394"><ele>147.0</ele><time>2026-04-06T12:09:17.252Z</time></trkpt><trkpt lat="42.94819537261201" lon="10.49796091986997"><ele>147.0</ele><time>2026-04-06T12:09:21.253Z</time></trkpt><trkpt lat="42.94826950710381" lon="10.4979708546358"><ele>147.0</ele><time>2026-04-06T12:09:26.253Z</time></trkpt><trkpt lat="42.948344697426826" lon="10.497967151918484"><ele>147.0</ele><time>2026-04-06T12:09:30.253Z</time></trkpt><trkpt lat="42.9484136831842" lon="10.497950421784203"><ele>147.0</ele><time>2026-04-06T12:09:34.253Z</time></trkpt><trkpt lat="42.94849221220367" lon="10.497924407190823"><ele>147.0</ele><time>2026-04-06T12:09:39.253Z</time></trkpt><trkpt lat="42.948563833438335" lon="10.497885796733124"><ele>146.71428571428572</ele><time>2026-04-06T12:09:43.253Z</time></trkpt><trkpt lat="42.9486412723875" lon="10.497878927517492"><ele>146.42857142857144</ele><time>2026-04-06T12:09:47.253Z</time></trkpt><trkpt lat="42.948708001498254" lon="10.49787864561426"><ele>146.14285714285714</ele><time>2026-04-06T12:09:51.253Z</time></trkpt><trkpt lat="42.948773448932016" lon="10.497858113493725"><ele>145.85714285714286</ele><time>2026-04-06T12:09:55.253Z</time></trkpt><trkpt lat="42.948838498375814" lon="10.497846216532672"><ele>145.57142857142858</ele><time>2026-04-06T12:09:59.253Z</time></trkpt><trkpt lat="42.94890756082604" lon="10.49785500355056"><ele>145.28571428571428</ele><time>2026-04-06T12:10:03.253Z</time></trkpt><trkpt lat="42.94898693455223" lon="10.497866766418618"><ele>145.0</ele><time>2026-04-06T12:10:07.253Z</time></trkpt><trkpt lat="42.94906839459547" lon="10.497868214646132"><ele>145.0</ele><time>2026-04-06T12:10:11.253Z</time></trkpt><trkpt lat="42.949137631132295" lon="10.497819994482763"><ele>145.0</ele><time>2026-04-06T12:10:15.253Z</time></trkpt><trkpt lat="42.94920050525745" lon="10.497809104665864"><ele>145.0</ele><time>2026-04-06T12:10:18.253Z</time></trkpt><trkpt lat="42.94927865518151" lon="10.497805770312873"><ele>145.0</ele><time>2026-04-06T12:10:22.253Z</time></trkpt><trkpt lat="42.94934726560212" lon="10.497769045054948"><ele>145.0</ele><time>2026-04-06T12:10:25.253Z</time></trkpt><trkpt lat="42.94940092942558" lon="10.497722603375584"><ele>145.0</ele><time>2026-04-06T12:10:27.253Z</time></trkpt><trkpt lat="42.94947916006186" lon="10.49770188343069"><ele>145.0</ele><time>2026-04-06T12:10:30.253Z</time></trkpt><trkpt lat="42.949555797763075" lon="10.497690306981367"><ele>146.85714285714286</ele><time>2026-04-06T12:10:33.253Z</time></trkpt><trkpt lat="42.94963084522222" lon="10.497683759636173"><ele>148.71428571428572</ele><time>2026-04-06T12:10:36.253Z</time></trkpt><trkpt lat="42.94970521209098" lon="10.497671855673355"><ele>150.57142857142858</ele><time>2026-04-06T12:10:39.253Z</time></trkpt><trkpt lat="42.94977991266298" lon="10.497670282247105"><ele>152.42857142857144</ele><time>2026-04-06T12:10:43.253Z</time></trkpt><trkpt lat="42.94984099697047" lon="10.497692307867908"><ele>154.28571428571428</ele><time>2026-04-06T12:10:47.253Z</time></trkpt><trkpt lat="42.94990614248814" lon="10.497726098156136"><ele>156.14285714285717</ele><time>2026-04-06T12:10:52.251Z</time></trkpt><trkpt lat="42.94998029992748" lon="10.497749481273493"><ele>158.0</ele><time>2026-04-06T12:10:57.251Z</time></trkpt><trkpt lat="42.95005436927544" lon="10.497753013829511"><ele>159.00000000000003</ele><time>2026-04-06T12:11:02.251Z</time></trkpt><trkpt lat="42.95012551736442" lon="10.497757450952758"><ele>160.0</ele><time>2026-04-06T12:11:07.251Z</time></trkpt><trkpt lat="42.95019613792302" lon="10.497755917593162"><ele>161.0</ele><time>2026-04-06T12:11:12.251Z</time></trkpt><trkpt lat="42.95025926026047" lon="10.49778697812533"><ele>162.0</ele><time>2026-04-06T12:11:16.251Z</time></trkpt><trkpt lat="42.950285258980486" lon="10.497876674037045"><ele>163.0</ele><time>2026-04-06T12:11:19.251Z</time></trkpt><trkpt lat="42.95029306016435" lon="10.497969242730276"><ele>164.00000000000003</ele><time>2026-04-06T12:11:23.251Z</time></trkpt><trkpt lat="42.9503071148438" lon="10.498066568579787"><ele>165.0</ele><time>2026-04-06T12:11:27.251Z</time></trkpt><trkpt lat="42.95033254597659" lon="10.498145641893915"><ele>166.5</ele><time>2026-04-06T12:11:31.251Z</time></trkpt><trkpt lat="42.95033984418935" lon="10.498242518402085"><ele>168.0</ele><time>2026-04-06T12:11:35.251Z</time></trkpt><trkpt lat="42.95038226935531" lon="10.498311471000651"><ele>169.5</ele><time>2026-04-06T12:11:39.251Z</time></trkpt><trkpt lat="42.95040307410286" lon="10.498403804126884"><ele>171.0</ele><time>2026-04-06T12:11:44.251Z</time></trkpt><trkpt lat="42.95051009990101" lon="10.49850806742256"><ele>172.5</ele><time>2026-04-06T12:11:51.251Z</time></trkpt><trkpt lat="42.950512508585746" lon="10.498594866530171"><ele>174.0</ele><time>2026-04-06T12:11:55.251Z</time></trkpt><trkpt lat="42.95057653719708" lon="10.498661602695822"><ele>174.0</ele><time>2026-04-06T12:11:59.251Z</time></trkpt><trkpt lat="42.95064603520918" lon="10.498693577266613"><ele>174.0</ele><time>2026-04-06T12:12:03.251Z</time></trkpt><trkpt lat="42.950713608152235" lon="10.498750873302804"><ele>174.0</ele><time>2026-04-06T12:12:07.251Z</time></trkpt><trkpt lat="42.950768244574995" lon="10.498819856770059"><ele>174.0</ele><time>2026-04-06T12:12:11.251Z</time></trkpt><trkpt lat="42.95081513995615" lon="10.498893279910058"><ele>174.0</ele><time>2026-04-06T12:12:15.251Z</time></trkpt><trkpt lat="42.95085719690147" lon="10.498961322125043"><ele>174.0</ele><time>2026-04-06T12:12:19.251Z</time></trkpt><trkpt lat="42.950909573581136" lon="10.499021477036214"><ele>174.0</ele><time>2026-04-06T12:12:23.251Z</time></trkpt><trkpt lat="42.9509601273072" lon="10.499089593537544"><ele>176.28571428571428</ele><time>2026-04-06T12:12:28.251Z</time></trkpt><trkpt lat="42.951011528797494" lon="10.499155667506638"><ele>178.57142857142858</ele><time>2026-04-06T12:12:32.251Z</time></trkpt><trkpt lat="42.95106237321977" lon="10.499219092051991"><ele>180.85714285714286</ele><time>2026-04-06T12:12:36.251Z</time></trkpt><trkpt lat="42.95112146553428" lon="10.499281553074452"><ele>183.14285714285714</ele><time>2026-04-06T12:12:40.251Z</time></trkpt><trkpt lat="42.951183704467816" lon="10.499349133146339"><ele>185.42857142857144</ele><time>2026-04-06T12:12:44.251Z</time></trkpt><trkpt lat="42.95122957379266" lon="10.49942661413914"><ele>187.71428571428572</ele><time>2026-04-06T12:12:48.251Z</time></trkpt><trkpt lat="42.951285399322515" lon="10.499466674022349"><ele>190.0</ele><time>2026-04-06T12:12:51.251Z</time></trkpt><trkpt lat="42.95135687409928" lon="10.499503863287048"><ele>190.0</ele><time>2026-04-06T12:12:55.251Z</time></trkpt><trkpt lat="42.951419657044" lon="10.499510458468198"><ele>190.0</ele><time>2026-04-06T12:12:58.249Z</time></trkpt><trkpt lat="42.951495363422126" lon="10.499530871617019"><ele>190.0</ele><time>2026-04-06T12:13:02.249Z</time></trkpt><trkpt lat="42.95157374662596" lon="10.499559275740026"><ele>190.0</ele><time>2026-04-06T12:13:06.249Z</time></trkpt><trkpt lat="42.95163974248713" lon="10.499550708644021"><ele>190.0</ele><time>2026-04-06T12:13:09.249Z</time></trkpt><trkpt lat="42.95172345166274" lon="10.499541046793281"><ele>190.0</ele><time>2026-04-06T12:13:13.249Z</time></trkpt><trkpt lat="42.951790169322116" lon="10.499563659370573"><ele>190.0</ele><time>2026-04-06T12:13:16.249Z</time></trkpt><trkpt lat="42.95187308866322" lon="10.499591208972106"><ele>190.42857142857144</ele><time>2026-04-06T12:13:20.249Z</time></trkpt><trkpt lat="42.95195236567136" lon="10.499628562956412"><ele>190.85714285714286</ele><time>2026-04-06T12:13:24.249Z</time></trkpt><trkpt lat="42.952026347694414" lon="10.499648851836007"><ele>191.28571428571428</ele><time>2026-04-06T12:13:28.249Z</time></trkpt><trkpt lat="42.95209226973326" lon="10.499648556323411"><ele>191.71428571428572</ele><time>2026-04-06T12:13:31.249Z</time></trkpt><trkpt lat="42.95216576272504" lon="10.499640900463106"><ele>192.14285714285714</ele><time>2026-04-06T12:13:34.249Z</time></trkpt><trkpt lat="42.95223777189483" lon="10.499640870897194"><ele>192.57142857142858</ele><time>2026-04-06T12:13:37.249Z</time></trkpt><trkpt lat="42.95230836380475" lon="10.499646600119148"><ele>193.0</ele><time>2026-04-06T12:13:40.249Z</time></trkpt><trkpt lat="42.952379231568166" lon="10.499657623566577"><ele>192.99999999999997</ele><time>2026-04-06T12:13:43.249Z</time></trkpt><trkpt lat="42.952452256187264" lon="10.49962161419397"><ele>193.0</ele><time>2026-04-06T12:13:46.249Z</time></trkpt><trkpt lat="42.9525070111562" lon="10.49957191914898"><ele>193.0</ele><time>2026-04-06T12:13:48.249Z</time></trkpt><trkpt lat="42.95255826668118" lon="10.49952042625097"><ele>193.0</ele><time>2026-04-06T12:13:50.249Z</time></trkpt><trkpt lat="42.952618866460696" lon="10.499451087406033"><ele>192.99999999999997</ele><time>2026-04-06T12:13:53.249Z</time></trkpt><trkpt lat="42.952682852456974" lon="10.499374304942155"><ele>193.0</ele><time>2026-04-06T12:13:56.249Z</time></trkpt><trkpt lat="42.952763096856536" lon="10.49931604360139"><ele>192.85714285714286</ele><time>2026-04-06T12:13:59.249Z</time></trkpt><trkpt lat="42.952837048299436" lon="10.499274060766"><ele>192.71428571428572</ele><time>2026-04-06T12:14:02.249Z</time></trkpt><trkpt lat="42.95290839788587" lon="10.499250797547873"><ele>192.57142857142856</ele><time>2026-04-06T12:14:05.249Z</time></trkpt><trkpt lat="42.952980711940576" lon="10.499248232543598"><ele>192.42857142857144</ele><time>2026-04-06T12:14:08.249Z</time></trkpt><trkpt lat="42.95305243463796" lon="10.499246621517141"><ele>192.28571428571428</ele><time>2026-04-06T12:14:11.249Z</time></trkpt><trkpt lat="42.95312553050928" lon="10.499262558030855"><ele>192.14285714285714</ele><time>2026-04-06T12:14:14.249Z</time></trkpt><trkpt lat="42.95319963625735" lon="10.499290119597077"><ele>192.0</ele><time>2026-04-06T12:14:17.249Z</time></trkpt><trkpt lat="42.95326856040151" lon="10.499342072319688"><ele>191.99999999999997</ele><time>2026-04-06T12:14:20.249Z</time></trkpt><trkpt lat="42.95333056383439" lon="10.49939307115661"><ele>192.0</ele><time>2026-04-06T12:14:23.249Z</time></trkpt><trkpt lat="42.95338884529303" lon="10.499439736420053"><ele>192.0</ele><time>2026-04-06T12:14:26.249Z</time></trkpt><trkpt lat="42.953446060849025" lon="10.499492105354095"><ele>192.0</ele><time>2026-04-06T12:14:29.249Z</time></trkpt><trkpt lat="42.95350136321264" lon="10.499542088360167"><ele>192.0</ele><time>2026-04-06T12:14:31.249Z</time></trkpt><trkpt lat="42.95354708710413" lon="10.499622991252972"><ele>191.99999999999997</ele><time>2026-04-06T12:14:33.249Z</time></trkpt><trkpt lat="42.953597590612205" lon="10.49971983664632"><ele>192.0</ele><time>2026-04-06T12:14:35.249Z</time></trkpt><trkpt lat="42.953665179719245" lon="10.499772286655588"><ele>193.42857142857142</ele><time>2026-04-06T12:14:37.249Z</time></trkpt><trkpt lat="42.953728951996204" lon="10.49979591921981"><ele>194.85714285714286</ele><time>2026-04-06T12:14:39.249Z</time></trkpt><trkpt lat="42.95379103429977" lon="10.499814932405092"><ele>196.28571428571428</ele><time>2026-04-06T12:14:41.249Z</time></trkpt><trkpt lat="42.95386252468554" lon="10.49982793669921"><ele>197.71428571428572</ele><time>2026-04-06T12:14:44.249Z</time></trkpt><trkpt lat="42.95393536083691" lon="10.49986350364318"><ele>199.14285714285714</ele><time>2026-04-06T12:14:47.249Z</time></trkpt><trkpt lat="42.95400121008762" lon="10.499925155184357"><ele>200.57142857142856</ele><time>2026-04-06T12:14:50.249Z</time></trkpt><trkpt lat="42.95405649605237" lon="10.499990759614908"><ele>202.0</ele><time>2026-04-06T12:14:53.249Z</time></trkpt><trkpt lat="42.954117226618855" lon="10.500055642619653"><ele>202.0</ele><time>2026-04-06T12:14:56.249Z</time></trkpt><trkpt lat="42.95417265509991" lon="10.500118886329362"><ele>202.0</ele><time>2026-04-06T12:15:00.249Z</time></trkpt><trkpt lat="42.954235351146956" lon="10.500156445188043"><ele>202.0</ele><time>2026-04-06T12:15:03.249Z</time></trkpt><trkpt lat="42.95431424856468" lon="10.500136812498754"><ele>202.0</ele><time>2026-04-06T12:15:06.247Z</time></trkpt><trkpt lat="42.954380833141855" lon="10.50008617213452"><ele>202.0</ele><time>2026-04-06T12:15:09.247Z</time></trkpt><trkpt lat="42.95445172641669" lon="10.500033493764523"><ele>202.0</ele><time>2026-04-06T12:15:12.247Z</time></trkpt><trkpt lat="42.95451336476562" lon="10.499997877695675"><ele>202.0</ele><time>2026-04-06T12:15:15.247Z</time></trkpt><trkpt lat="42.954584903130524" lon="10.499976640416588"><ele>202.0</ele><time>2026-04-06T12:15:18.247Z</time></trkpt><trkpt lat="42.95466142073777" lon="10.499981915427833"><ele>202.0</ele><time>2026-04-06T12:15:21.247Z</time></trkpt><trkpt lat="42.95472854257898" lon="10.499968126039759"><ele>202.0</ele><time>2026-04-06T12:15:24.247Z</time></trkpt><trkpt lat="42.954799839595914" lon="10.499976195107816"><ele>202.0</ele><time>2026-04-06T12:15:27.247Z</time></trkpt><trkpt lat="42.95486802231312" lon="10.499997047487582"><ele>202.0</ele><time>2026-04-06T12:15:30.247Z</time></trkpt><trkpt lat="42.95493228180009" lon="10.500038436639665"><ele>202.0</ele><time>2026-04-06T12:15:33.247Z</time></trkpt><trkpt lat="42.95499548262186" lon="10.500083448996179"><ele>202.0</ele><time>2026-04-06T12:15:36.247Z</time></trkpt><trkpt lat="42.95505978779534" lon="10.500132072917111"><ele>203.83333333333331</ele><time>2026-04-06T12:15:39.247Z</time></trkpt><trkpt lat="42.955108001018495" lon="10.500223859001029"><ele>205.66666666666666</ele><time>2026-04-06T12:15:42.247Z</time></trkpt><trkpt lat="42.955149300651755" lon="10.500294376656218"><ele>207.5</ele><time>2026-04-06T12:15:44.247Z</time></trkpt><trkpt lat="42.955178552125574" lon="10.500375199453424"><ele>209.33333333333331</ele><time>2026-04-06T12:15:46.247Z</time></trkpt><trkpt lat="42.955239464332365" lon="10.500466699198592"><ele>211.16666666666666</ele><time>2026-04-06T12:15:49.247Z</time></trkpt><trkpt lat="42.95531019378942" lon="10.500505805573948"><ele>213.0</ele><time>2026-04-06T12:15:52.247Z</time></trkpt><trkpt lat="42.95538232928806" lon="10.50052929521294"><ele>212.99999999999997</ele><time>2026-04-06T12:15:55.247Z</time></trkpt><trkpt lat="42.955455548803364" lon="10.500559000085783"><ele>213.0</ele><time>2026-04-06T12:15:58.247Z</time></trkpt><trkpt lat="42.95551870283657" lon="10.500550342637343"><ele>213.0</ele><time>2026-04-06T12:16:01.247Z</time></trkpt><trkpt lat="42.95558981040236" lon="10.500570242175499"><ele>213.0</ele><time>2026-04-06T12:16:04.247Z</time></trkpt><trkpt lat="42.95565525480275" lon="10.50057794632488"><ele>213.0</ele><time>2026-04-06T12:16:07.247Z</time></trkpt><trkpt lat="42.95571613052525" lon="10.500614239505973"><ele>212.99999999999997</ele><time>2026-04-06T12:16:10.247Z</time></trkpt><trkpt lat="42.95578809585922" lon="10.500638929110442"><ele>213.0</ele><time>2026-04-06T12:16:13.247Z</time></trkpt><trkpt lat="42.955864415971924" lon="10.500669398655564"><ele>212.28571428571428</ele><time>2026-04-06T12:16:16.247Z</time></trkpt><trkpt lat="42.95594593553782" lon="10.50072330569501"><ele>211.57142857142856</ele><time>2026-04-06T12:16:19.247Z</time></trkpt><trkpt lat="42.95600576617379" lon="10.50076544445333"><ele>210.85714285714283</ele><time>2026-04-06T12:16:21.247Z</time></trkpt><trkpt lat="42.9560608359529" lon="10.500811438097797"><ele>210.14285714285714</ele><time>2026-04-06T12:16:23.247Z</time></trkpt><trkpt lat="42.95612555900291" lon="10.500858648369967"><ele>209.42857142857144</ele><time>2026-04-06T12:16:25.247Z</time></trkpt><trkpt lat="42.95618471293709" lon="10.5009213933078"><ele>208.7142857142857</ele><time>2026-04-06T12:16:27.247Z</time></trkpt><trkpt lat="42.95625060530386" lon="10.50097913520138"><ele>208.0</ele><time>2026-04-06T12:16:29.247Z</time></trkpt><trkpt lat="42.956300267961915" lon="10.501056014995902"><ele>207.99999999999997</ele><time>2026-04-06T12:16:31.247Z</time></trkpt><trkpt lat="42.95634901230797" lon="10.50111756963648"><ele>208.0</ele><time>2026-04-06T12:16:33.247Z</time></trkpt><trkpt lat="42.956416238765485" lon="10.501201739580805"><ele>208.0</ele><time>2026-04-06T12:16:36.247Z</time></trkpt><trkpt lat="42.95646239800306" lon="10.501287111633046"><ele>208.0</ele><time>2026-04-06T12:16:39.247Z</time></trkpt><trkpt lat="42.95652502535969" lon="10.501372385744208"><ele>207.99999999999997</ele><time>2026-04-06T12:16:43.247Z</time></trkpt><trkpt lat="42.95658205613919" lon="10.501429033474228"><ele>208.0</ele><time>2026-04-06T12:16:47.247Z</time></trkpt><trkpt lat="42.956626645253735" lon="10.501517096777418"><ele>210.49999999999997</ele><time>2026-04-06T12:16:51.247Z</time></trkpt><trkpt lat="42.956680789813134" lon="10.50158044908473"><ele>213.0</ele><time>2026-04-06T12:16:54.247Z</time></trkpt><trkpt lat="42.95673360681235" lon="10.501627569023798"><ele>215.5</ele><time>2026-04-06T12:16:57.247Z</time></trkpt><trkpt lat="42.95681192522785" lon="10.501661956505203"><ele>218.0</ele><time>2026-04-06T12:17:01.247Z</time></trkpt><trkpt lat="42.956891338274" lon="10.501676238461657"><ele>220.49999999999997</ele><time>2026-04-06T12:17:05.247Z</time></trkpt><trkpt lat="42.95694052731518" lon="10.501534855251423"><ele>223.0</ele><time>2026-04-06T12:17:10.246Z</time></trkpt><trkpt lat="42.95696503974743" lon="10.501450938674253"><ele>224.16666666666666</ele><time>2026-04-06T12:17:13.246Z</time></trkpt><trkpt lat="42.957002756097495" lon="10.501347805425757"><ele>225.33333333333331</ele><time>2026-04-06T12:17:17.246Z</time></trkpt><trkpt lat="42.957048809305846" lon="10.501278376718751"><ele>226.5</ele><time>2026-04-06T12:17:20.246Z</time></trkpt><trkpt lat="42.95710874352911" lon="10.501229842431222"><ele>227.66666666666669</ele><time>2026-04-06T12:17:23.246Z</time></trkpt><trkpt lat="42.95719068432876" lon="10.5012141043517"><ele>228.83333333333334</ele><time>2026-04-06T12:17:26.246Z</time></trkpt><trkpt lat="42.9572773430514" lon="10.501230095898148"><ele>230.0</ele><time>2026-04-06T12:17:29.246Z</time></trkpt><trkpt lat="42.957343516934884" lon="10.501221918594606"><ele>230.00000000000003</ele><time>2026-04-06T12:17:31.246Z</time></trkpt><trkpt lat="42.95742476278264" lon="10.501240366226888"><ele>230.0</ele><time>2026-04-06T12:17:34.246Z</time></trkpt><trkpt lat="42.95750236789259" lon="10.501257766735101"><ele>230.0</ele><time>2026-04-06T12:17:37.246Z</time></trkpt><trkpt lat="42.957572997312205" lon="10.501317351473839"><ele>230.0</ele><time>2026-04-06T12:17:40.246Z</time></trkpt><trkpt lat="42.957638515386236" lon="10.501390183960527"><ele>230.00000000000003</ele><time>2026-04-06T12:17:43.246Z</time></trkpt><trkpt lat="42.957692446003826" lon="10.501465633585196"><ele>230.0</ele><time>2026-04-06T12:17:46.246Z</time></trkpt><trkpt lat="42.957750003410524" lon="10.501523884027247"><ele>229.71428571428567</ele><time>2026-04-06T12:17:49.246Z</time></trkpt><trkpt lat="42.957807597625546" lon="10.501559131752316"><ele>229.42857142857142</ele><time>2026-04-06T12:17:52.246Z</time></trkpt><trkpt lat="42.95788397932499" lon="10.50159894154423"><ele>229.1428571428571</ele><time>2026-04-06T12:17:56.246Z</time></trkpt><trkpt lat="42.957945956784386" lon="10.50161649989923"><ele>228.85714285714283</ele><time>2026-04-06T12:17:59.246Z</time></trkpt><trkpt lat="42.958008916182386" lon="10.501648597877313"><ele>228.57142857142856</ele><time>2026-04-06T12:18:02.246Z</time></trkpt><trkpt lat="42.95806964637415" lon="10.501701154786717"><ele>228.28571428571428</ele><time>2026-04-06T12:18:06.246Z</time></trkpt><trkpt lat="42.95814766574126" lon="10.501732542770121"><ele>228.0</ele><time>2026-04-06T12:18:10.246Z</time></trkpt><trkpt lat="42.958210686704724" lon="10.501775715978868"><ele>228.0</ele><time>2026-04-06T12:18:15.246Z</time></trkpt><trkpt lat="42.95827753042688" lon="10.50181985477079"><ele>228.0</ele><time>2026-04-06T12:18:19.246Z</time></trkpt><trkpt lat="42.95833407605029" lon="10.501900415927697"><ele>228.0</ele><time>2026-04-06T12:18:23.246Z</time></trkpt><trkpt lat="42.958383950587155" lon="10.501984980802437"><ele>228.0</ele><time>2026-04-06T12:18:27.246Z</time></trkpt><trkpt lat="42.95842309802344" lon="10.502052743134545"><ele>228.0</ele><time>2026-04-06T12:18:30.246Z</time></trkpt><trkpt lat="42.95846147843094" lon="10.502125307209859"><ele>228.0</ele><time>2026-04-06T12:18:33.246Z</time></trkpt><trkpt lat="42.958512195520996" lon="10.502226676660252"><ele>229.28571428571428</ele><time>2026-04-06T12:18:37.246Z</time></trkpt><trkpt lat="42.95853858436588" lon="10.50230754136577"><ele>230.57142857142856</ele><time>2026-04-06T12:18:40.246Z</time></trkpt><trkpt lat="42.95858041687974" lon="10.502377697356359"><ele>231.85714285714283</ele><time>2026-04-06T12:18:43.246Z</time></trkpt><trkpt lat="42.958625545608314" lon="10.50244641718456"><ele>233.1428571428571</ele><time>2026-04-06T12:18:46.246Z</time></trkpt><trkpt lat="42.958673003483845" lon="10.502509134474776"><ele>234.42857142857142</ele><time>2026-04-06T12:18:49.246Z</time></trkpt><trkpt lat="42.9587247515556" lon="10.50256794008882"><ele>235.71428571428567</ele><time>2026-04-06T12:18:52.246Z</time></trkpt><trkpt lat="42.958787542943945" lon="10.502602146570071"><ele>236.99999999999997</ele><time>2026-04-06T12:18:55.246Z</time></trkpt><trkpt lat="42.95886735558925" lon="10.502623919416669"><ele>236.99999999999997</ele><time>2026-04-06T12:18:59.246Z</time></trkpt><trkpt lat="42.958944387220626" lon="10.502634791173946"><ele>237.0</ele><time>2026-04-06T12:19:03.246Z</time></trkpt><trkpt lat="42.959012356143404" lon="10.502610075139604"><ele>236.99999999999997</ele><time>2026-04-06T12:19:06.246Z</time></trkpt><trkpt lat="42.95907664070047" lon="10.502595710202947"><ele>236.99999999999997</ele><time>2026-04-06T12:19:09.246Z</time></trkpt><trkpt lat="42.95913979386543" lon="10.502594729193504"><ele>237.0</ele><time>2026-04-06T12:19:12.246Z</time></trkpt><trkpt lat="42.95921300516735" lon="10.50261309750343"><ele>236.99999999999997</ele><time>2026-04-06T12:19:16.244Z</time></trkpt><trkpt lat="42.95928092014858" lon="10.502641715361028"><ele>236.99999999999997</ele><time>2026-04-06T12:19:19.244Z</time></trkpt><trkpt lat="42.959338385058274" lon="10.502695592048921"><ele>237.0</ele><time>2026-04-06T12:19:22.244Z</time></trkpt><trkpt lat="42.959409670294335" lon="10.502718212007515"><ele>237.0</ele><time>2026-04-06T12:19:25.244Z</time></trkpt><trkpt lat="42.95949263353791" lon="10.502761474815513"><ele>237.0</ele><time>2026-04-06T12:19:28.244Z</time></trkpt><trkpt lat="42.95955167277985" lon="10.502793589978088"><ele>237.0</ele><time>2026-04-06T12:19:30.244Z</time></trkpt><trkpt lat="42.95963238500167" lon="10.502821234925813"><ele>237.0</ele><time>2026-04-06T12:19:33.244Z</time></trkpt><trkpt lat="42.95970877697178" lon="10.502882350911936"><ele>237.0</ele><time>2026-04-06T12:19:36.244Z</time></trkpt><trkpt lat="42.9597725722775" lon="10.502959006442737"><ele>236.99999999999997</ele><time>2026-04-06T12:19:39.244Z</time></trkpt><trkpt lat="42.95984784857847" lon="10.503033384537725"><ele>237.0</ele><time>2026-04-06T12:19:42.244Z</time></trkpt><trkpt lat="42.95990346279126" lon="10.50307899318282"><ele>236.99999999999997</ele><time>2026-04-06T12:19:44.244Z</time></trkpt><trkpt lat="42.95996663507785" lon="10.50307575503404"><ele>236.99999999999997</ele><time>2026-04-06T12:19:46.244Z</time></trkpt><trkpt lat="42.96003429996734" lon="10.503045544013405"><ele>237.0</ele><time>2026-04-06T12:19:48.244Z</time></trkpt><trkpt lat="42.96010478566285" lon="10.503006361643344"><ele>236.99999999999997</ele><time>2026-04-06T12:19:50.244Z</time></trkpt><trkpt lat="42.960163553329544" lon="10.502971394978998"><ele>236.99999999999997</ele><time>2026-04-06T12:19:52.244Z</time></trkpt><trkpt lat="42.96022624152991" lon="10.502931853573076"><ele>237.1428571428571</ele><time>2026-04-06T12:19:54.244Z</time></trkpt><trkpt lat="42.96028937931014" lon="10.502890944882983"><ele>237.28571428571428</ele><time>2026-04-06T12:19:56.244Z</time></trkpt><trkpt lat="42.960346181953355" lon="10.50284817231317"><ele>237.42857142857142</ele><time>2026-04-06T12:19:58.244Z</time></trkpt><trkpt lat="42.9604134926338" lon="10.502824458912581"><ele>237.57142857142856</ele><time>2026-04-06T12:20:00.244Z</time></trkpt><trkpt lat="42.96048054179151" lon="10.502826582469686"><ele>237.71428571428572</ele><time>2026-04-06T12:20:02.244Z</time></trkpt><trkpt lat="42.96054412049298" lon="10.502816153721769"><ele>237.85714285714286</ele><time>2026-04-06T12:20:04.244Z</time></trkpt><trkpt lat="42.96062141655328" lon="10.502772979323288"><ele>238.0</ele><time>2026-04-06T12:20:07.244Z</time></trkpt><trkpt lat="42.96070720821477" lon="10.502719387314585"><ele>238.0</ele><time>2026-04-06T12:20:10.244Z</time></trkpt><trkpt lat="42.960771012827806" lon="10.50269526373548"><ele>238.0</ele><time>2026-04-06T12:20:12.244Z</time></trkpt><trkpt lat="42.960836413346755" lon="10.502672834102826"><ele>238.0</ele><time>2026-04-06T12:20:14.244Z</time></trkpt><trkpt lat="42.96090094958085" lon="10.50265073069817"><ele>238.0</ele><time>2026-04-06T12:20:16.244Z</time></trkpt><trkpt lat="42.96096583121043" lon="10.502645605214513"><ele>238.0</ele><time>2026-04-06T12:20:18.244Z</time></trkpt><trkpt lat="42.96103143296851" lon="10.502638424564466"><ele>238.0</ele><time>2026-04-06T12:20:20.244Z</time></trkpt><trkpt lat="42.96109307473322" lon="10.502618364273557"><ele>238.0</ele><time>2026-04-06T12:20:22.244Z</time></trkpt><trkpt lat="42.961152257148406" lon="10.502584856527362"><ele>238.57142857142856</ele><time>2026-04-06T12:20:24.244Z</time></trkpt><trkpt lat="42.96121587148553" lon="10.502564689603117"><ele>239.14285714285714</ele><time>2026-04-06T12:20:26.244Z</time></trkpt><trkpt lat="42.961273134813396" lon="10.50252450198156"><ele>239.71428571428572</ele><time>2026-04-06T12:20:28.244Z</time></trkpt><trkpt lat="42.96135633788121" lon="10.50248022479677"><ele>240.28571428571428</ele><time>2026-04-06T12:20:31.244Z</time></trkpt><trkpt lat="42.96142228527249" lon="10.502431906151743"><ele>240.85714285714283</ele><time>2026-04-06T12:20:34.244Z</time></trkpt><trkpt lat="42.961501447742314" lon="10.502399216531716"><ele>241.42857142857142</ele><time>2026-04-06T12:20:37.244Z</time></trkpt><trkpt lat="42.96156560493655" lon="10.502354923935592"><ele>242.0</ele><time>2026-04-06T12:20:41.244Z</time></trkpt><trkpt lat="42.96163681521381" lon="10.502311330168325"><ele>242.28571428571428</ele><time>2026-04-06T12:20:45.244Z</time></trkpt><trkpt lat="42.961704759820364" lon="10.50228966260407"><ele>242.57142857142856</ele><time>2026-04-06T12:20:49.244Z</time></trkpt><trkpt lat="42.96176537971211" lon="10.502257518906807"><ele>242.85714285714283</ele><time>2026-04-06T12:20:53.244Z</time></trkpt><trkpt lat="42.96182957885437" lon="10.502221898819085"><ele>243.1428571428571</ele><time>2026-04-06T12:20:57.244Z</time></trkpt><trkpt lat="42.96187992755289" lon="10.502163931551161"><ele>243.42857142857142</ele><time>2026-04-06T12:21:01.244Z</time></trkpt><trkpt lat="42.961917496689935" lon="10.502067209150018"><ele>243.71428571428567</ele><time>2026-04-06T12:21:05.244Z</time></trkpt><trkpt lat="42.96193036763898" lon="10.501959100452185"><ele>243.99999999999997</ele><time>2026-04-06T12:21:09.244Z</time></trkpt><trkpt lat="42.96195879217025" lon="10.501859028224372"><ele>243.99999999999997</ele><time>2026-04-06T12:21:13.244Z</time></trkpt><trkpt lat="42.96195549663688" lon="10.501743882421362"><ele>244.0</ele><time>2026-04-06T12:21:17.244Z</time></trkpt><trkpt lat="42.96197128883961" lon="10.501650137996817"><ele>244.0</ele><time>2026-04-06T12:21:20.244Z</time></trkpt><trkpt lat="42.96199305748261" lon="10.501568338904942"><ele>244.0</ele><time>2026-04-06T12:21:23.243Z</time></trkpt><trkpt lat="42.962000780597094" lon="10.501454606682577"><ele>243.99999999999997</ele><time>2026-04-06T12:21:26.243Z</time></trkpt><trkpt lat="42.962017688424325" lon="10.50133367128214"><ele>244.0</ele><time>2026-04-06T12:21:29.243Z</time></trkpt><trkpt lat="42.962044033934795" lon="10.501226871172982"><ele>245.1428571428571</ele><time>2026-04-06T12:21:32.243Z</time></trkpt><trkpt lat="42.96205766529355" lon="10.501116624873076"><ele>246.28571428571428</ele><time>2026-04-06T12:21:35.243Z</time></trkpt><trkpt lat="42.96207607051776" lon="10.501010757477847"><ele>247.42857142857142</ele><time>2026-04-06T12:21:38.243Z</time></trkpt><trkpt lat="42.9621165417152" lon="10.500927415429414"><ele>248.57142857142856</ele><time>2026-04-06T12:21:41.243Z</time></trkpt><trkpt lat="42.96218359950718" lon="10.500872864086803"><ele>249.71428571428572</ele><time>2026-04-06T12:21:44.243Z</time></trkpt><trkpt lat="42.96222876067273" lon="10.500800639311661"><ele>250.85714285714286</ele><time>2026-04-06T12:21:47.243Z</time></trkpt><trkpt lat="42.962271730643415" lon="10.50073471357933"><ele>252.0</ele><time>2026-04-06T12:21:50.243Z</time></trkpt><trkpt lat="42.96232038996535" lon="10.500664774413888"><ele>252.0</ele><time>2026-04-06T12:21:53.243Z</time></trkpt><trkpt lat="42.96237440947088" lon="10.500579004682141"><ele>252.0</ele><time>2026-04-06T12:21:56.243Z</time></trkpt><trkpt lat="42.96242512410516" lon="10.500517473516075"><ele>252.0</ele><time>2026-04-06T12:21:59.243Z</time></trkpt><trkpt lat="42.962488916825905" lon="10.50046145584857"><ele>252.0</ele><time>2026-04-06T12:22:02.243Z</time></trkpt><trkpt lat="42.96254784635792" lon="10.500375389680922"><ele>252.0</ele><time>2026-04-06T12:22:06.243Z</time></trkpt><trkpt lat="42.96261970882205" lon="10.500307912459075"><ele>252.0</ele><time>2026-04-06T12:22:10.243Z</time></trkpt><trkpt lat="42.96269816038267" lon="10.500273636983689"><ele>252.33333333333334</ele><time>2026-04-06T12:22:14.243Z</time></trkpt><trkpt lat="42.96274730371052" lon="10.500206814329443"><ele>252.66666666666669</ele><time>2026-04-06T12:22:17.243Z</time></trkpt><trkpt lat="42.962806830583155" lon="10.50012346786879"><ele>253.0</ele><time>2026-04-06T12:22:21.243Z</time></trkpt><trkpt lat="42.96285546907084" lon="10.500033974368007"><ele>253.33333333333334</ele><time>2026-04-06T12:22:24.243Z</time></trkpt><trkpt lat="42.96287826654268" lon="10.499947322715622"><ele>253.66666666666669</ele><time>2026-04-06T12:22:27.243Z</time></trkpt><trkpt lat="42.962907822470335" lon="10.499845924784475"><ele>254.0</ele><time>2026-04-06T12:22:30.243Z</time></trkpt><trkpt lat="42.96294130649884" lon="10.49976065017274"><ele>254.0</ele><time>2026-04-06T12:22:33.243Z</time></trkpt><trkpt lat="42.96294411994159" lon="10.499664312656144"><ele>254.0</ele><time>2026-04-06T12:22:36.243Z</time></trkpt><trkpt lat="42.96295891334498" lon="10.499558849847848"><ele>254.0</ele><time>2026-04-06T12:22:39.243Z</time></trkpt><trkpt lat="42.96298756515275" lon="10.49947053354428"><ele>254.0</ele><time>2026-04-06T12:22:42.243Z</time></trkpt><trkpt lat="42.96302533444124" lon="10.499369155521826"><ele>254.0</ele><time>2026-04-06T12:22:45.243Z</time></trkpt><trkpt lat="42.96305688671324" lon="10.499276846443326"><ele>254.0</ele><time>2026-04-06T12:22:48.243Z</time></trkpt><trkpt lat="42.96308738893029" lon="10.49920074352503"><ele>254.0</ele><time>2026-04-06T12:22:51.243Z</time></trkpt><trkpt lat="42.96312438176928" lon="10.499104830566495"><ele>255.00000000000003</ele><time>2026-04-06T12:22:54.243Z</time></trkpt><trkpt lat="42.96318362907874" lon="10.499023641109417"><ele>256.0</ele><time>2026-04-06T12:22:57.243Z</time></trkpt><trkpt lat="42.96326381740554" lon="10.498976897405818"><ele>257.0</ele><time>2026-04-06T12:23:00.243Z</time></trkpt><trkpt lat="42.963346481454025" lon="10.498962955740303"><ele>258.0</ele><time>2026-04-06T12:23:03.243Z</time></trkpt><trkpt lat="42.96342257389685" lon="10.498961138503123"><ele>259.0</ele><time>2026-04-06T12:23:06.243Z</time></trkpt><trkpt lat="42.96351097453178" lon="10.498967788945595"><ele>260.0</ele><time>2026-04-06T12:23:09.243Z</time></trkpt><trkpt lat="42.96359259206243" lon="10.498942271517379"><ele>260.0</ele><time>2026-04-06T12:23:12.243Z</time></trkpt><trkpt lat="42.96367985040035" lon="10.49893243601525"><ele>260.0</ele><time>2026-04-06T12:23:15.243Z</time></trkpt><trkpt lat="42.96376062028541" lon="10.498888470595949"><ele>260.0</ele><time>2026-04-06T12:23:18.243Z</time></trkpt><trkpt lat="42.963843626304595" lon="10.498864545826697"><ele>260.0</ele><time>2026-04-06T12:23:21.243Z</time></trkpt><trkpt lat="42.96392890254403" lon="10.498856954072068"><ele>260.0</ele><time>2026-04-06T12:23:24.243Z</time></trkpt><trkpt lat="42.96400242512165" lon="10.498861493463924"><ele>260.0</ele><time>2026-04-06T12:23:27.243Z</time></trkpt><trkpt lat="42.96407595755235" lon="10.498859363175974"><ele>260.0</ele><time>2026-04-06T12:23:30.242Z</time></trkpt><trkpt lat="42.96414893136792" lon="10.498836070625456"><ele>260.0</ele><time>2026-04-06T12:23:33.242Z</time></trkpt><trkpt lat="42.96421367507633" lon="10.49881461346663"><ele>260.0</ele><time>2026-04-06T12:23:35.242Z</time></trkpt><trkpt lat="42.964292606706564" lon="10.498748635302888"><ele>260.0</ele><time>2026-04-06T12:23:37.242Z</time></trkpt><trkpt lat="42.96437912293821" lon="10.498641620894832"><ele>260.0</ele><time>2026-04-06T12:23:39.242Z</time></trkpt><trkpt lat="42.96446004683784" lon="10.498558837947188"><ele>260.0</ele><time>2026-04-06T12:23:41.242Z</time></trkpt><trkpt lat="42.9645152769344" lon="10.498491719203662"><ele>260.0</ele><time>2026-04-06T12:23:43.242Z</time></trkpt><trkpt lat="42.964579485158566" lon="10.498401456841558"><ele>260.0</ele><time>2026-04-06T12:23:46.242Z</time></trkpt><trkpt lat="42.96462833371294" lon="10.498313557868267"><ele>260.0</ele><time>2026-04-06T12:23:48.242Z</time></trkpt><trkpt lat="42.96466581381009" lon="10.49822146960353"><ele>260.0</ele><time>2026-04-06T12:23:50.242Z</time></trkpt><trkpt lat="42.9647038570893" lon="10.49811172908399"><ele>260.0</ele><time>2026-04-06T12:23:53.242Z</time></trkpt><trkpt lat="42.96472990413974" lon="10.498027652148506"><ele>260.00000000000006</ele><time>2026-04-06T12:23:55.242Z</time></trkpt><trkpt lat="42.964758205524994" lon="10.497936295017668"><ele>260.0</ele><time>2026-04-06T12:23:57.242Z</time></trkpt><trkpt lat="42.96480703949714" lon="10.497858462549628"><ele>260.0</ele><time>2026-04-06T12:23:59.242Z</time></trkpt><trkpt lat="42.96486773883004" lon="10.497804194039704"><ele>260.0</ele><time>2026-04-06T12:24:01.242Z</time></trkpt><trkpt lat="42.9649429051821" lon="10.49778421093367"><ele>260.0</ele><time>2026-04-06T12:24:03.242Z</time></trkpt><trkpt lat="42.96500355180207" lon="10.497747521266328"><ele>260.00000000000006</ele><time>2026-04-06T12:24:05.242Z</time></trkpt><trkpt lat="42.96507256403145" lon="10.49771217923535"><ele>260.0</ele><time>2026-04-06T12:24:07.242Z</time></trkpt><trkpt lat="42.96514524879484" lon="10.497688106702304"><ele>261.42857142857144</ele><time>2026-04-06T12:24:09.242Z</time></trkpt><trkpt lat="42.96522022329191" lon="10.497663725236727"><ele>262.8571428571429</ele><time>2026-04-06T12:24:11.242Z</time></trkpt><trkpt lat="42.9652906862666" lon="10.497651929586139"><ele>264.2857142857143</ele><time>2026-04-06T12:24:13.242Z</time></trkpt><trkpt lat="42.965361144435605" lon="10.497645928133897"><ele>265.7142857142857</ele><time>2026-04-06T12:24:15.242Z</time></trkpt><trkpt lat="42.96542937416643" lon="10.497641042460142"><ele>267.1428571428571</ele><time>2026-04-06T12:24:17.242Z</time></trkpt><trkpt lat="42.96551011908335" lon="10.497655007675926"><ele>268.57142857142856</ele><time>2026-04-06T12:24:20.242Z</time></trkpt><trkpt lat="42.96557089393847" lon="10.497677669997836"><ele>270.0</ele><time>2026-04-06T12:24:23.242Z</time></trkpt><trkpt lat="42.96564965413558" lon="10.497720714114465"><ele>270.0</ele><time>2026-04-06T12:24:27.242Z</time></trkpt><trkpt lat="42.965736631992925" lon="10.497754797205825"><ele>270.0</ele><time>2026-04-06T12:24:31.242Z</time></trkpt><trkpt lat="42.965809398996875" lon="10.497825273261274"><ele>270.0</ele><time>2026-04-06T12:24:34.242Z</time></trkpt><trkpt lat="42.965869825126205" lon="10.497862283247485"><ele>270.0</ele><time>2026-04-06T12:24:36.242Z</time></trkpt><trkpt lat="42.96595491056181" lon="10.497910301391556"><ele>270.0</ele><time>2026-04-06T12:24:39.242Z</time></trkpt><trkpt lat="42.96603586402322" lon="10.497933683354212"><ele>270.0</ele><time>2026-04-06T12:24:42.242Z</time></trkpt><trkpt lat="42.96610282076762" lon="10.49794529213584"><ele>269.85714285714283</ele><time>2026-04-06T12:24:45.242Z</time></trkpt><trkpt lat="42.96616441058199" lon="10.497983816846402"><ele>269.71428571428567</ele><time>2026-04-06T12:24:48.242Z</time></trkpt><trkpt lat="42.96623594661014" lon="10.497948517477237"><ele>269.57142857142856</ele><time>2026-04-06T12:24:52.242Z</time></trkpt><trkpt lat="42.966314710233426" lon="10.497920269452283"><ele>269.42857142857144</ele><time>2026-04-06T12:24:56.242Z</time></trkpt><trkpt lat="42.966374946257645" lon="10.497895261031148"><ele>269.28571428571433</ele><time>2026-04-06T12:24:59.242Z</time></trkpt><trkpt lat="42.96643465727985" lon="10.497838696427317"><ele>269.14285714285717</ele><time>2026-04-06T12:25:03.242Z</time></trkpt><trkpt lat="42.966509708806505" lon="10.497778519615123"><ele>269.0</ele><time>2026-04-06T12:25:07.242Z</time></trkpt><trkpt lat="42.96657385743365" lon="10.497722658879317"><ele>269.33333333333337</ele><time>2026-04-06T12:25:10.242Z</time></trkpt><trkpt lat="42.96663067711337" lon="10.49763258601181"><ele>269.6666666666667</ele><time>2026-04-06T12:25:13.242Z</time></trkpt><trkpt lat="42.966702463931654" lon="10.497563136017174"><ele>270.0</ele><time>2026-04-06T12:25:16.242Z</time></trkpt><trkpt lat="42.966753095421296" lon="10.49745817916007"><ele>270.3333333333333</ele><time>2026-04-06T12:25:19.242Z</time></trkpt><trkpt lat="42.96681644511648" lon="10.497384141638852"><ele>270.66666666666663</ele><time>2026-04-06T12:25:22.242Z</time></trkpt><trkpt lat="42.96688453790703" lon="10.497329991055173"><ele>271.0</ele><time>2026-04-06T12:25:25.242Z</time></trkpt><trkpt lat="42.96694925274441" lon="10.497299291876764"><ele>271.0</ele><time>2026-04-06T12:25:28.242Z</time></trkpt><trkpt lat="42.96701323209334" lon="10.49727401080911"><ele>271.0</ele><time>2026-04-06T12:25:31.242Z</time></trkpt><trkpt lat="42.96709622587524" lon="10.497260801812821"><ele>271.0</ele><time>2026-04-06T12:25:34.241Z</time></trkpt><trkpt lat="42.967159277300105" lon="10.497244894330873"><ele>271.0</ele><time>2026-04-06T12:25:36.241Z</time></trkpt><trkpt lat="42.967241763366566" lon="10.497261760852968"><ele>271.0</ele><time>2026-04-06T12:25:39.241Z</time></trkpt><trkpt lat="42.96730983708041" lon="10.497268784717717"><ele>271.0</ele><time>2026-04-06T12:25:41.24Z</time></trkpt><trkpt lat="42.96739926022465" lon="10.497252477996318"><ele>271.0</ele><time>2026-04-06T12:25:44.24Z</time></trkpt><trkpt lat="42.9674664592007" lon="10.497230860608841"><ele>271.0</ele><time>2026-04-06T12:25:47.24Z</time></trkpt><trkpt lat="42.96752460590818" lon="10.497189379282402"><ele>271.0</ele><time>2026-04-06T12:25:50.24Z</time></trkpt><trkpt lat="42.96758990142202" lon="10.49714267421763"><ele>271.0</ele><time>2026-04-06T12:25:53.24Z</time></trkpt><trkpt lat="42.96766834773706" lon="10.497110362251755"><ele>271.0</ele><time>2026-04-06T12:25:56.24Z</time></trkpt><trkpt lat="42.96772961804733" lon="10.497064592751022"><ele>271.0</ele><time>2026-04-06T12:25:58.24Z</time></trkpt><trkpt lat="42.967789567702916" lon="10.497035691484884"><ele>271.0</ele><time>2026-04-06T12:26:00.24Z</time></trkpt><trkpt lat="42.96785140915551" lon="10.497011616786153"><ele>270.8333333333333</ele><time>2026-04-06T12:26:02.24Z</time></trkpt><trkpt lat="42.96793517524157" lon="10.496955680792926"><ele>270.66666666666663</ele><time>2026-04-06T12:26:05.24Z</time></trkpt><trkpt lat="42.96800479621725" lon="10.496912767845206"><ele>270.5</ele><time>2026-04-06T12:26:08.24Z</time></trkpt><trkpt lat="42.968062856959094" lon="10.49686749523629"><ele>270.3333333333333</ele><time>2026-04-06T12:26:11.24Z</time></trkpt><trkpt lat="42.968131374932256" lon="10.496905462880644"><ele>270.1666666666667</ele><time>2026-04-06T12:26:14.24Z</time></trkpt><trkpt lat="42.96820966225305" lon="10.496978605726659"><ele>270.0</ele><time>2026-04-06T12:26:17.24Z</time></trkpt><trkpt lat="42.96826883642802" lon="10.497033243739951"><ele>268.8</ele><time>2026-04-06T12:26:19.24Z</time></trkpt><trkpt lat="42.968411721944065" lon="10.497167730631038"><ele>267.6</ele><time>2026-04-06T12:26:22.24Z</time></trkpt><trkpt lat="42.968467262874064" lon="10.497222304289036"><ele>266.4</ele><time>2026-04-06T12:26:23.24Z</time></trkpt><trkpt lat="42.968517767450834" lon="10.497281084511938"><ele>265.2</ele><time>2026-04-06T12:26:24.24Z</time></trkpt><trkpt lat="42.9685846516008" lon="10.49737321518613"><ele>264.0</ele><time>2026-04-06T12:26:26.24Z</time></trkpt><trkpt lat="42.96863657881598" lon="10.497443728238538"><ele>264.0</ele><time>2026-04-06T12:26:28.241Z</time></trkpt><trkpt lat="42.96868800672224" lon="10.497496060906599"><ele>264.0</ele><time>2026-04-06T12:26:30.241Z</time></trkpt><trkpt lat="42.96876493234381" lon="10.497539454032443"><ele>264.0</ele><time>2026-04-06T12:26:33.241Z</time></trkpt><trkpt lat="42.968829038686394" lon="10.497559362223878"><ele>264.0</ele><time>2026-04-06T12:26:36.241Z</time></trkpt><trkpt lat="42.9689082724633" lon="10.497601931729246"><ele>264.0</ele><time>2026-04-06T12:26:39.241Z</time></trkpt><trkpt lat="42.96897506597895" lon="10.497624240589012"><ele>264.0</ele><time>2026-04-06T12:26:41.241Z</time></trkpt><trkpt lat="42.96905978947697" lon="10.497656094740258"><ele>264.0</ele><time>2026-04-06T12:26:43.241Z</time></trkpt><trkpt lat="42.96913217947112" lon="10.497700320368226"><ele>264.0</ele><time>2026-04-06T12:26:45.241Z</time></trkpt><trkpt lat="42.96919252560123" lon="10.497766023446083"><ele>264.0</ele><time>2026-04-06T12:26:47.241Z</time></trkpt><trkpt lat="42.969229585650595" lon="10.497837443560543"><ele>264.0</ele><time>2026-04-06T12:26:49.241Z</time></trkpt><trkpt lat="42.969273513878775" lon="10.497940452654925"><ele>264.0</ele><time>2026-04-06T12:26:53.241Z</time></trkpt><trkpt lat="42.969327571535594" lon="10.498014400069302"><ele>264.0</ele><time>2026-04-06T12:26:56.241Z</time></trkpt><trkpt lat="42.96937829357472" lon="10.498105169214876"><ele>261.8333333333333</ele><time>2026-04-06T12:26:59.241Z</time></trkpt><trkpt lat="42.969430779537134" lon="10.498199484432954"><ele>259.6666666666667</ele><time>2026-04-06T12:27:02.241Z</time></trkpt><trkpt lat="42.969484108126736" lon="10.49827659748348"><ele>257.5</ele><time>2026-04-06T12:27:05.241Z</time></trkpt><trkpt lat="42.9695478874462" lon="10.498373499480238"><ele>255.33333333333334</ele><time>2026-04-06T12:27:08.241Z</time></trkpt><trkpt lat="42.96959686081407" lon="10.498432106664733"><ele>253.16666666666669</ele><time>2026-04-06T12:27:10.241Z</time></trkpt><trkpt lat="42.96964245974999" lon="10.498536178663148"><ele>251.0</ele><time>2026-04-06T12:27:13.241Z</time></trkpt><trkpt lat="42.96969089545574" lon="10.498619687649123"><ele>251.00000000000003</ele><time>2026-04-06T12:27:16.241Z</time></trkpt><trkpt lat="42.96971802263334" lon="10.49870281437918"><ele>251.0</ele><time>2026-04-06T12:27:19.241Z</time></trkpt><trkpt lat="42.9697388220795" lon="10.498815881276863"><ele>251.0</ele><time>2026-04-06T12:27:23.241Z</time></trkpt><trkpt lat="42.96977009100182" lon="10.498907264366045"><ele>251.0</ele><time>2026-04-06T12:27:26.241Z</time></trkpt><trkpt lat="42.969824063225175" lon="10.49903929914411"><ele>251.00000000000003</ele><time>2026-04-06T12:27:29.241Z</time></trkpt><trkpt lat="42.9698651658059" lon="10.499127859188409"><ele>251.0</ele><time>2026-04-06T12:27:32.241Z</time></trkpt><trkpt lat="42.96989056669109" lon="10.499239430461738"><ele>249.4285714285714</ele><time>2026-04-06T12:27:34.241Z</time></trkpt><trkpt lat="42.96993308419455" lon="10.499345403420891"><ele>247.85714285714283</ele><time>2026-04-06T12:27:36.241Z</time></trkpt><trkpt lat="42.969969653455884" lon="10.499436873284735"><ele>246.28571428571428</ele><time>2026-04-06T12:27:38.241Z</time></trkpt><trkpt lat="42.97000157374702" lon="10.499511119560472"><ele>244.7142857142857</ele><time>2026-04-06T12:27:40.239Z</time></trkpt><trkpt lat="42.970025943165375" lon="10.499604081567446"><ele>243.1428571428571</ele><time>2026-04-06T12:27:42.239Z</time></trkpt><trkpt lat="42.9700462077535" lon="10.499688823622488"><ele>241.57142857142858</ele><time>2026-04-06T12:27:44.239Z</time></trkpt><trkpt lat="42.970060891531475" lon="10.499795498286643"><ele>240.0</ele><time>2026-04-06T12:27:46.239Z</time></trkpt><trkpt lat="42.97006759432935" lon="10.499913302112382"><ele>239.0</ele><time>2026-04-06T12:27:48.239Z</time></trkpt><trkpt lat="42.97007851806142" lon="10.500016617301627"><ele>238.0</ele><time>2026-04-06T12:27:50.239Z</time></trkpt><trkpt lat="42.9701084972343" lon="10.50010937942616"><ele>237.0</ele><time>2026-04-06T12:27:52.239Z</time></trkpt><trkpt lat="42.97013679703822" lon="10.500190616264096"><ele>236.0</ele><time>2026-04-06T12:27:54.239Z</time></trkpt><trkpt lat="42.97018479895434" lon="10.500301944053811"><ele>235.0</ele><time>2026-04-06T12:27:56.239Z</time></trkpt><trkpt lat="42.97024774866246" lon="10.500401714831664"><ele>234.0</ele><time>2026-04-06T12:27:58.239Z</time></trkpt><trkpt lat="42.970351286019785" lon="10.50045151808679"><ele>234.0</ele><time>2026-04-06T12:28:00.239Z</time></trkpt><trkpt lat="42.970439921808286" lon="10.50046026757259"><ele>233.99999999999997</ele><time>2026-04-06T12:28:02.239Z</time></trkpt><trkpt lat="42.97053417887383" lon="10.500414789321686"><ele>233.99999999999997</ele><time>2026-04-06T12:28:04.239Z</time></trkpt><trkpt lat="42.97062234929391" lon="10.500391764559842"><ele>234.0</ele><time>2026-04-06T12:28:06.239Z</time></trkpt><trkpt lat="42.97070771838056" lon="10.500373909377135"><ele>234.0</ele><time>2026-04-06T12:28:08.239Z</time></trkpt><trkpt lat="42.97079274424671" lon="10.500361920967208"><ele>233.14285714285717</ele><time>2026-04-06T12:28:10.239Z</time></trkpt><trkpt lat="42.970866286026904" lon="10.500350820443307"><ele>232.2857142857143</ele><time>2026-04-06T12:28:12.239Z</time></trkpt><trkpt lat="42.97094440902884" lon="10.500340724385902"><ele>231.42857142857144</ele><time>2026-04-06T12:28:14.239Z</time></trkpt><trkpt lat="42.97100832920484" lon="10.500297929137421"><ele>230.57142857142856</ele><time>2026-04-06T12:28:16.239Z</time></trkpt><trkpt lat="42.971073342975835" lon="10.500287775916624"><ele>229.7142857142857</ele><time>2026-04-06T12:28:18.239Z</time></trkpt><trkpt lat="42.9711549156996" lon="10.500282217894714"><ele>228.85714285714283</ele><time>2026-04-06T12:28:20.239Z</time></trkpt><trkpt lat="42.971229314753955" lon="10.500304485363014"><ele>228.0</ele><time>2026-04-06T12:28:22.239Z</time></trkpt><trkpt lat="42.97132364436883" lon="10.500302906632946"><ele>228.0</ele><time>2026-04-06T12:28:24.239Z</time></trkpt><trkpt lat="42.97140661029923" lon="10.500287396406394"><ele>228.0</ele><time>2026-04-06T12:28:26.239Z</time></trkpt><trkpt lat="42.97150056645572" lon="10.500242849764678"><ele>228.0</ele><time>2026-04-06T12:28:29.239Z</time></trkpt><trkpt lat="42.971579792940766" lon="10.500199073647753"><ele>228.0</ele><time>2026-04-06T12:28:32.239Z</time></trkpt><trkpt lat="42.97164647708829" lon="10.50016331896493"><ele>228.0</ele><time>2026-04-06T12:28:34.239Z</time></trkpt><trkpt lat="42.97171552537979" lon="10.500138869233746"><ele>228.0</ele><time>2026-04-06T12:28:36.239Z</time></trkpt><trkpt lat="42.97180840130758" lon="10.500119214415538"><ele>227.7142857142857</ele><time>2026-04-06T12:28:39.239Z</time></trkpt><trkpt lat="42.97187953240856" lon="10.500091396147987"><ele>227.4285714285714</ele><time>2026-04-06T12:28:41.239Z</time></trkpt><trkpt lat="42.97195396307356" lon="10.50009428542679"><ele>227.14285714285714</ele><time>2026-04-06T12:28:43.239Z</time></trkpt><trkpt lat="42.972016517573394" lon="10.500059936342055"><ele>226.85714285714283</ele><time>2026-04-06T12:28:45.239Z</time></trkpt><trkpt lat="42.97207925393659" lon="10.50003947233783"><ele>226.57142857142856</ele><time>2026-04-06T12:28:47.239Z</time></trkpt><trkpt lat="42.972152781351156" lon="10.50000086620609"><ele>226.28571428571428</ele><time>2026-04-06T12:28:50.239Z</time></trkpt><trkpt lat="42.97222779134699" lon="10.499964260293813"><ele>226.0</ele><time>2026-04-06T12:28:53.239Z</time></trkpt><trkpt lat="42.97229495895043" lon="10.499952373519271"><ele>225.99999999999997</ele><time>2026-04-06T12:28:55.239Z</time></trkpt><trkpt lat="42.9723582084318" lon="10.499903463697942"><ele>226.0</ele><time>2026-04-06T12:28:58.239Z</time></trkpt><trkpt lat="42.97243660764092" lon="10.4998780734646"><ele>226.0</ele><time>2026-04-06T12:29:01.239Z</time></trkpt><trkpt lat="42.97253450585424" lon="10.499880332378627"><ele>226.0</ele><time>2026-04-06T12:29:04.239Z</time></trkpt><trkpt lat="42.972622144601914" lon="10.49987585414704"><ele>225.99999999999997</ele><time>2026-04-06T12:29:07.24Z</time></trkpt><trkpt lat="42.972700058277425" lon="10.499883191797196"><ele>226.0</ele><time>2026-04-06T12:29:10.24Z</time></trkpt><trkpt lat="42.972776316831265" lon="10.499882797007317"><ele>223.14285714285714</ele><time>2026-04-06T12:29:13.24Z</time></trkpt><trkpt lat="42.9728554547332" lon="10.499886523731911"><ele>220.28571428571428</ele><time>2026-04-06T12:29:16.24Z</time></trkpt><trkpt lat="42.97293406690457" lon="10.499893127895586"><ele>217.42857142857142</ele><time>2026-04-06T12:29:19.24Z</time></trkpt><trkpt lat="42.973012557775455" lon="10.499937856602504"><ele>214.57142857142856</ele><time>2026-04-06T12:29:22.24Z</time></trkpt><trkpt lat="42.973053892812146" lon="10.500012535854491"><ele>211.71428571428572</ele><time>2026-04-06T12:29:24.24Z</time></trkpt><trkpt lat="42.97309558649183" lon="10.500077234891487"><ele>208.85714285714283</ele><time>2026-04-06T12:29:27.24Z</time></trkpt><trkpt lat="42.97312791480311" lon="10.500155383842689"><ele>206.0</ele><time>2026-04-06T12:29:29.24Z</time></trkpt><trkpt lat="42.97315482377436" lon="10.500255168066428"><ele>206.00000000000003</ele><time>2026-04-06T12:29:31.24Z</time></trkpt><trkpt lat="42.97317778768585" lon="10.500362058876728"><ele>206.0</ele><time>2026-04-06T12:29:33.24Z</time></trkpt><trkpt lat="42.973191582636765" lon="10.500497707860244"><ele>206.0</ele><time>2026-04-06T12:29:35.24Z</time></trkpt><trkpt lat="42.97323693245039" lon="10.50062694975"><ele>206.0</ele><time>2026-04-06T12:29:37.24Z</time></trkpt><trkpt lat="42.9732983909809" lon="10.500708151568771"><ele>206.00000000000003</ele><time>2026-04-06T12:29:39.24Z</time></trkpt><trkpt lat="42.973354783841856" lon="10.50076320342729"><ele>206.0</ele><time>2026-04-06T12:29:41.24Z</time></trkpt><trkpt lat="42.97343283133678" lon="10.50081647545398"><ele>206.85714285714283</ele><time>2026-04-06T12:29:44.24Z</time></trkpt><trkpt lat="42.97348471979111" lon="10.500866076288483"><ele>207.71428571428572</ele><time>2026-04-06T12:29:46.239Z</time></trkpt><trkpt lat="42.97353562297065" lon="10.500934398043091"><ele>208.57142857142856</ele><time>2026-04-06T12:29:48.239Z</time></trkpt><trkpt lat="42.973586470406254" lon="10.501018021086796"><ele>209.42857142857142</ele><time>2026-04-06T12:29:50.238Z</time></trkpt><trkpt lat="42.973616234332084" lon="10.501106786257488"><ele>210.28571428571428</ele><time>2026-04-06T12:29:52.238Z</time></trkpt><trkpt lat="42.97365200007891" lon="10.501212072833612"><ele>211.14285714285714</ele><time>2026-04-06T12:29:54.238Z</time></trkpt><trkpt lat="42.97369966535623" lon="10.501287734656682"><ele>212.0</ele><time>2026-04-06T12:29:56.238Z</time></trkpt><trkpt lat="42.97377019579157" lon="10.501331656374074"><ele>212.00000000000003</ele><time>2026-04-06T12:29:58.238Z</time></trkpt><trkpt lat="42.97385255100052" lon="10.501347524530951"><ele>212.0</ele><time>2026-04-06T12:30:00.238Z</time></trkpt><trkpt lat="42.97391677883949" lon="10.501304617203356"><ele>212.0</ele><time>2026-04-06T12:30:02.238Z</time></trkpt><trkpt lat="42.97400147746303" lon="10.501252870792138"><ele>212.0</ele><time>2026-04-06T12:30:04.238Z</time></trkpt><trkpt lat="42.974074803954046" lon="10.501181493085394"><ele>212.00000000000003</ele><time>2026-04-06T12:30:07.238Z</time></trkpt><trkpt lat="42.974147582020166" lon="10.50110570986715"><ele>212.0</ele><time>2026-04-06T12:30:10.238Z</time></trkpt><trkpt lat="42.97422196584336" lon="10.50103797066391"><ele>207.16666666666669</ele><time>2026-04-06T12:30:13.238Z</time></trkpt><trkpt lat="42.974267466465534" lon="10.500972403039547"><ele>202.33333333333334</ele><time>2026-04-06T12:30:15.238Z</time></trkpt><trkpt lat="42.974342859849195" lon="10.500904952381171"><ele>197.5</ele><time>2026-04-06T12:30:18.238Z</time></trkpt><trkpt lat="42.974395826390335" lon="10.50082995644987"><ele>192.66666666666669</ele><time>2026-04-06T12:30:20.238Z</time></trkpt><trkpt lat="42.974476298935585" lon="10.500813030586944"><ele>187.83333333333334</ele><time>2026-04-06T12:30:23.238Z</time></trkpt><trkpt lat="42.97454890862023" lon="10.5007957202478"><ele>183.0</ele><time>2026-04-06T12:30:26.238Z</time></trkpt><trkpt lat="42.97463309129858" lon="10.5008063638095"><ele>183.0</ele><time>2026-04-06T12:30:29.238Z</time></trkpt><trkpt lat="42.97470109271287" lon="10.500841288582324"><ele>183.0</ele><time>2026-04-06T12:30:32.238Z</time></trkpt><trkpt lat="42.974769808764435" lon="10.500891782858446"><ele>183.0</ele><time>2026-04-06T12:30:35.238Z</time></trkpt><trkpt lat="42.97484448921028" lon="10.500965854804877"><ele>183.0</ele><time>2026-04-06T12:30:38.239Z</time></trkpt><trkpt lat="42.97491526842022" lon="10.501026725537406"><ele>183.0</ele><time>2026-04-06T12:30:40.239Z</time></trkpt><trkpt lat="42.974977578028344" lon="10.501101416725824"><ele>183.0</ele><time>2026-04-06T12:30:42.239Z</time></trkpt><trkpt lat="42.975039682430484" lon="10.50116055985891"><ele>182.5</ele><time>2026-04-06T12:30:44.239Z</time></trkpt><trkpt lat="42.97509535731118" lon="10.5012122556584"><ele>182.0</ele><time>2026-04-06T12:30:46.239Z</time></trkpt><trkpt lat="42.975157101923934" lon="10.50126374722486"><ele>181.5</ele><time>2026-04-06T12:30:48.239Z</time></trkpt><trkpt lat="42.97524443677649" lon="10.50126624106304"><ele>181.0</ele><time>2026-04-06T12:30:51.239Z</time></trkpt><trkpt lat="42.97532745923231" lon="10.501246320381428"><ele>180.5</ele><time>2026-04-06T12:30:54.239Z</time></trkpt><trkpt lat="42.97540632329323" lon="10.501192377939836"><ele>180.0</ele><time>2026-04-06T12:30:57.239Z</time></trkpt><trkpt lat="42.975465532571704" lon="10.50112135962778"><ele>180.0</ele><time>2026-04-06T12:31:00.239Z</time></trkpt><trkpt lat="42.97552293675516" lon="10.501040175071441"><ele>180.0</ele><time>2026-04-06T12:31:03.239Z</time></trkpt><trkpt lat="42.97558797106251" lon="10.50098152409714"><ele>180.0</ele><time>2026-04-06T12:31:06.239Z</time></trkpt><trkpt lat="42.97566634167367" lon="10.500944648410384"><ele>180.0</ele><time>2026-04-06T12:31:09.239Z</time></trkpt><trkpt lat="42.97574804441696" lon="10.500937353090803"><ele>180.0</ele><time>2026-04-06T12:31:12.239Z</time></trkpt><trkpt lat="42.975833374194366" lon="10.50096318454245"><ele>180.0</ele><time>2026-04-06T12:31:15.239Z</time></trkpt><trkpt lat="42.97591427989737" lon="10.501000358612583"><ele>181.16666666666666</ele><time>2026-04-06T12:31:18.239Z</time></trkpt><trkpt lat="42.97599707960933" lon="10.501021191885743"><ele>182.33333333333334</ele><time>2026-04-06T12:31:21.239Z</time></trkpt><trkpt lat="42.97607790301253" lon="10.50098573125638"><ele>183.5</ele><time>2026-04-06T12:31:24.239Z</time></trkpt><trkpt lat="42.976159834745445" lon="10.500940814797247"><ele>184.66666666666669</ele><time>2026-04-06T12:31:27.239Z</time></trkpt><trkpt lat="42.976203163316086" lon="10.500877846809509"><ele>185.83333333333334</ele><time>2026-04-06T12:31:29.239Z</time></trkpt><trkpt lat="42.976260154215595" lon="10.5008161065214"><ele>187.0</ele><time>2026-04-06T12:31:32.239Z</time></trkpt><trkpt lat="42.97629823753604" lon="10.500738433051952"><ele>187.0</ele><time>2026-04-06T12:31:34.239Z</time></trkpt><trkpt lat="42.976334278475406" lon="10.50066004265776"><ele>187.0</ele><time>2026-04-06T12:31:37.239Z</time></trkpt><trkpt lat="42.9763745200749" lon="10.500579394377375"><ele>187.0</ele><time>2026-04-06T12:31:41.239Z</time></trkpt><trkpt lat="42.97642497839049" lon="10.500490827955025"><ele>187.0</ele><time>2026-04-06T12:31:44.239Z</time></trkpt><trkpt lat="42.97648387270494" lon="10.500402787458121"><ele>187.0</ele><time>2026-04-06T12:31:48.239Z</time></trkpt><trkpt lat="42.976568730440164" lon="10.500378981431473"><ele>187.0</ele><time>2026-04-06T12:31:51.239Z</time></trkpt><trkpt lat="42.97664875832084" lon="10.500365628379972"><ele>185.16666666666669</ele><time>2026-04-06T12:31:53.238Z</time></trkpt><trkpt lat="42.976728161897476" lon="10.5003629946192"><ele>183.33333333333334</ele><time>2026-04-06T12:31:55.238Z</time></trkpt><trkpt lat="42.97680306636602" lon="10.500369731056395"><ele>181.5</ele><time>2026-04-06T12:31:57.238Z</time></trkpt><trkpt lat="42.976883133206876" lon="10.500360477068362"><ele>179.66666666666666</ele><time>2026-04-06T12:31:59.238Z</time></trkpt><trkpt lat="42.976964444377444" lon="10.500367611332981"><ele>177.83333333333331</ele><time>2026-04-06T12:32:01.238Z</time></trkpt><trkpt lat="42.9770461792455" lon="10.500356858677092"><ele>176.0</ele><time>2026-04-06T12:32:03.238Z</time></trkpt><trkpt lat="42.977149574576806" lon="10.50034255812556"><ele>176.0</ele><time>2026-04-06T12:32:06.238Z</time></trkpt><trkpt lat="42.97723158958599" lon="10.500296842924213"><ele>176.0</ele><time>2026-04-06T12:32:09.238Z</time></trkpt><trkpt lat="42.97730553956859" lon="10.500289902468817"><ele>176.0</ele><time>2026-04-06T12:32:11.238Z</time></trkpt><trkpt lat="42.977380273069386" lon="10.500254096743426"><ele>176.0</ele><time>2026-04-06T12:32:13.238Z</time></trkpt><trkpt lat="42.97745644651672" lon="10.500249930777942"><ele>176.0</ele><time>2026-04-06T12:32:15.238Z</time></trkpt><trkpt lat="42.97753492664314" lon="10.50025976979149"><ele>176.0</ele><time>2026-04-06T12:32:17.238Z</time></trkpt><trkpt lat="42.977615361412184" lon="10.500276831695114"><ele>175.83333333333331</ele><time>2026-04-06T12:32:19.238Z</time></trkpt><trkpt lat="42.97770222580574" lon="10.500296482482248"><ele>175.66666666666666</ele><time>2026-04-06T12:32:21.238Z</time></trkpt><trkpt lat="42.97778350216819" lon="10.500310391192858"><ele>175.5</ele><time>2026-04-06T12:32:23.238Z</time></trkpt><trkpt lat="42.97785141853773" lon="10.500296649194429"><ele>175.33333333333334</ele><time>2026-04-06T12:32:25.238Z</time></trkpt><trkpt lat="42.9779158381814" lon="10.500277883828469"><ele>175.16666666666669</ele><time>2026-04-06T12:32:27.238Z</time></trkpt><trkpt lat="42.97799611773677" lon="10.50021364361938"><ele>175.0</ele><time>2026-04-06T12:32:30.238Z</time></trkpt><trkpt lat="42.97808071478913" lon="10.500170291494486"><ele>175.0</ele><time>2026-04-06T12:32:33.238Z</time></trkpt><trkpt lat="42.978140025163775" lon="10.500109470303283"><ele>175.0</ele><time>2026-04-06T12:32:35.238Z</time></trkpt><trkpt lat="42.97821053173986" lon="10.500030270131868"><ele>175.0</ele><time>2026-04-06T12:32:37.238Z</time></trkpt><trkpt lat="42.97827623621279" lon="10.499953600118818"><ele>175.0</ele><time>2026-04-06T12:32:39.238Z</time></trkpt><trkpt lat="42.97834308836618" lon="10.499885062237254"><ele>175.0</ele><time>2026-04-06T12:32:41.238Z</time></trkpt><trkpt lat="42.978389475714295" lon="10.499782934325255"><ele>175.0</ele><time>2026-04-06T12:32:43.238Z</time></trkpt><trkpt lat="42.97842203470097" lon="10.499681388988435"><ele>176.0</ele><time>2026-04-06T12:32:45.238Z</time></trkpt><trkpt lat="42.97845450462028" lon="10.499574202129937"><ele>177.0</ele><time>2026-04-06T12:32:47.238Z</time></trkpt><trkpt lat="42.978485293792524" lon="10.499477228336852"><ele>178.0</ele><time>2026-04-06T12:32:49.238Z</time></trkpt><trkpt lat="42.97852825301021" lon="10.499387745162332"><ele>179.0</ele><time>2026-04-06T12:32:51.238Z</time></trkpt><trkpt lat="42.97857318535694" lon="10.499307717207152"><ele>180.0</ele><time>2026-04-06T12:32:53.238Z</time></trkpt><trkpt lat="42.978614753790175" lon="10.499221341442151"><ele>181.0</ele><time>2026-04-06T12:32:55.238Z</time></trkpt><trkpt lat="42.978656575701486" lon="10.49914354891457"><ele>181.0</ele><time>2026-04-06T12:32:57.238Z</time></trkpt><trkpt lat="42.978701237580204" lon="10.499070526429007"><ele>181.0</ele><time>2026-04-06T12:32:59.238Z</time></trkpt><trkpt lat="42.97874319532231" lon="10.498995990316581"><ele>181.0</ele><time>2026-04-06T12:33:01.238Z</time></trkpt><trkpt lat="42.97879733291885" lon="10.498886081260933"><ele>181.0</ele><time>2026-04-06T12:33:04.238Z</time></trkpt><trkpt lat="42.97882263293392" lon="10.49878154912996"><ele>181.0</ele><time>2026-04-06T12:33:07.238Z</time></trkpt><trkpt lat="42.97884364277867" lon="10.498683311315384"><ele>181.0</ele><time>2026-04-06T12:33:10.238Z</time></trkpt><trkpt lat="42.97886838283409" lon="10.49856763169756"><ele>180.16666666666669</ele><time>2026-04-06T12:33:13.238Z</time></trkpt><trkpt lat="42.97889303980311" lon="10.498463604556733"><ele>179.33333333333334</ele><time>2026-04-06T12:33:16.238Z</time></trkpt><trkpt lat="42.978919210704326" lon="10.498371470926815"><ele>178.5</ele><time>2026-04-06T12:33:19.238Z</time></trkpt><trkpt lat="42.978941234449614" lon="10.498264536971247"><ele>177.66666666666666</ele><time>2026-04-06T12:33:22.238Z</time></trkpt><trkpt lat="42.978999812383705" lon="10.498181158049537"><ele>176.83333333333331</ele><time>2026-04-06T12:33:25.238Z</time></trkpt><trkpt lat="42.97904995896212" lon="10.498101681118934"><ele>176.0</ele><time>2026-04-06T12:33:28.238Z</time></trkpt><trkpt lat="42.97911042959339" lon="10.49803185519064"><ele>176.0</ele><time>2026-04-06T12:33:31.238Z</time></trkpt><trkpt lat="42.97916000974169" lon="10.497972544180207"><ele>176.0</ele><time>2026-04-06T12:33:35.238Z</time></trkpt><trkpt lat="42.97921911327267" lon="10.497914667059305"><ele>176.0</ele><time>2026-04-06T12:34:12.237Z</time></trkpt><trkpt lat="42.97926061157271" lon="10.49783809609122"><ele>176.0</ele><time>2026-04-06T12:34:15.237Z</time></trkpt><trkpt lat="42.97929344841318" lon="10.497745172579528"><ele>176.0</ele><time>2026-04-06T12:34:18.237Z</time></trkpt><trkpt lat="42.97932000093483" lon="10.497653010780676"><ele>176.0</ele><time>2026-04-06T12:34:21.237Z</time></trkpt><trkpt lat="42.979346315552235" lon="10.497568038294405"><ele>176.0</ele><time>2026-04-06T12:34:24.237Z</time></trkpt><trkpt lat="42.97937990355832" lon="10.497474056613187"><ele>175.16666666666666</ele><time>2026-04-06T12:34:28.237Z</time></trkpt><trkpt lat="42.979415952390056" lon="10.497373188575832"><ele>174.33333333333331</ele><time>2026-04-06T12:34:32.237Z</time></trkpt><trkpt lat="42.979450134369" lon="10.49727637169569"><ele>173.5</ele><time>2026-04-06T12:34:36.237Z</time></trkpt><trkpt lat="42.979477706235585" lon="10.497193188035048"><ele>172.66666666666666</ele><time>2026-04-06T12:34:39.237Z</time></trkpt><trkpt lat="42.979507117845166" lon="10.497104453915883"><ele>171.83333333333334</ele><time>2026-04-06T12:34:42.237Z</time></trkpt><trkpt lat="42.97953002771635" lon="10.497012422842818"><ele>171.0</ele><time>2026-04-06T12:34:45.237Z</time></trkpt><trkpt lat="42.97955998944018" lon="10.496903466940061"><ele>170.99999999999997</ele><time>2026-04-06T12:34:48.237Z</time></trkpt><trkpt lat="42.97959924557789" lon="10.496833441732656"><ele>171.0</ele><time>2026-04-06T12:34:50.237Z</time></trkpt><trkpt lat="42.97963066694257" lon="10.496746594225824"><ele>171.0</ele><time>2026-04-06T12:34:52.237Z</time></trkpt><trkpt lat="42.97965000046497" lon="10.496651348202903"><ele>171.0</ele><time>2026-04-06T12:34:54.237Z</time></trkpt><trkpt lat="42.979694064378" lon="10.496552658741624"><ele>171.0</ele><time>2026-04-06T12:34:57.237Z</time></trkpt><trkpt lat="42.979742975201574" lon="10.496473735231437"><ele>170.99999999999997</ele><time>2026-04-06T12:35:00.237Z</time></trkpt><trkpt lat="42.97980212112228" lon="10.496423460587177"><ele>171.0</ele><time>2026-04-06T12:35:03.237Z</time></trkpt><trkpt lat="42.97987649519571" lon="10.496388233177147"><ele>171.0</ele><time>2026-04-06T12:35:05.237Z</time></trkpt><trkpt lat="42.979965715955565" lon="10.496368188442249"><ele>171.0</ele><time>2026-04-06T12:35:08.237Z</time></trkpt><trkpt lat="42.980046389829326" lon="10.496381378588225"><ele>171.0</ele><time>2026-04-06T12:35:10.237Z</time></trkpt><trkpt lat="42.980145034223725" lon="10.496382455505724"><ele>171.0</ele><time>2026-04-06T12:35:12.237Z</time></trkpt><trkpt lat="42.98024107707783" lon="10.496341978129879"><ele>171.0</ele><time>2026-04-06T12:35:14.237Z</time></trkpt><trkpt lat="42.98030216760536" lon="10.496253814834297"><ele>171.0</ele><time>2026-04-06T12:35:16.237Z</time></trkpt><trkpt lat="42.98034308248024" lon="10.496139473855372"><ele>171.0</ele><time>2026-04-06T12:35:18.237Z</time></trkpt><trkpt lat="42.98036688932093" lon="10.496035322993123"><ele>171.0</ele><time>2026-04-06T12:35:20.237Z</time></trkpt><trkpt lat="42.98039042516292" lon="10.495940219945991"><ele>171.0</ele><time>2026-04-06T12:35:22.237Z</time></trkpt><trkpt lat="42.98043084892971" lon="10.49584541800332"><ele>171.0</ele><time>2026-04-06T12:35:24.237Z</time></trkpt><trkpt lat="42.98048758884028" lon="10.495755091619104"><ele>171.0</ele><time>2026-04-06T12:35:26.237Z</time></trkpt><trkpt lat="42.98054035700815" lon="10.495655881692839"><ele>171.0</ele><time>2026-04-06T12:35:28.237Z</time></trkpt><trkpt lat="42.980576979295165" lon="10.495538329894156"><ele>171.0</ele><time>2026-04-06T12:35:30.237Z</time></trkpt><trkpt lat="42.980599199724395" lon="10.495421258811392"><ele>171.0</ele><time>2026-04-06T12:35:32.237Z</time></trkpt><trkpt lat="42.98062507335346" lon="10.495309043079954"><ele>171.0</ele><time>2026-04-06T12:35:34.237Z</time></trkpt><trkpt lat="42.98064989775968" lon="10.495201378011371"><ele>171.0</ele><time>2026-04-06T12:35:36.237Z</time></trkpt><trkpt lat="42.98068154173872" lon="10.49508131854739"><ele>171.0</ele><time>2026-04-06T12:35:39.237Z</time></trkpt><trkpt lat="42.980723243596586" lon="10.494997135817666"><ele>171.4</ele><time>2026-04-06T12:35:42.237Z</time></trkpt><trkpt lat="42.980820627776986" lon="10.494943089512798"><ele>171.8</ele><time>2026-04-06T12:35:45.237Z</time></trkpt><trkpt lat="42.980899358015634" lon="10.494907596239932"><ele>172.20000000000002</ele><time>2026-04-06T12:35:47.237Z</time></trkpt><trkpt lat="42.98100743954074" lon="10.494880290673075"><ele>172.60000000000002</ele><time>2026-04-06T12:35:50.237Z</time></trkpt><trkpt lat="42.98109961902498" lon="10.494820696429828"><ele>173.0</ele><time>2026-04-06T12:35:52.237Z</time></trkpt><trkpt lat="42.981132503986316" lon="10.49467104351574"><ele>173.5</ele><time>2026-04-06T12:35:54.237Z</time></trkpt><trkpt lat="42.981093906607796" lon="10.49453686271528"><ele>174.0</ele><time>2026-04-06T12:35:56.237Z</time></trkpt><trkpt lat="42.98105737665221" lon="10.494455877957943"><ele>174.5</ele><time>2026-04-06T12:35:58.237Z</time></trkpt><trkpt lat="42.98101818012151" lon="10.494365181141692"><ele>175.0</ele><time>2026-04-06T12:36:01.237Z</time></trkpt><trkpt lat="42.9809848887785" lon="10.4942692344502"><ele>175.5</ele><time>2026-04-06T12:36:04.236Z</time></trkpt><trkpt lat="42.9809632157191" lon="10.494166108954406"><ele>176.0</ele><time>2026-04-06T12:36:07.236Z</time></trkpt><trkpt lat="42.980968621229245" lon="10.494066554204686"><ele>176.0</ele><time>2026-04-06T12:36:10.236Z</time></trkpt><trkpt lat="42.98098784883405" lon="10.493978850404567"><ele>176.0</ele><time>2026-04-06T12:36:12.236Z</time></trkpt><trkpt lat="42.9809918460088" lon="10.493888828684009"><ele>176.0</ele><time>2026-04-06T12:36:14.236Z</time></trkpt><trkpt lat="42.98098144779766" lon="10.493801519798224"><ele>176.0</ele><time>2026-04-06T12:36:16.236Z</time></trkpt><trkpt lat="42.980954850547974" lon="10.493706628058101"><ele>176.0</ele><time>2026-04-06T12:36:19.236Z</time></trkpt><trkpt lat="42.98093010783457" lon="10.493613844126864"><ele>176.0</ele><time>2026-04-06T12:36:22.236Z</time></trkpt><trkpt lat="42.98094868717741" lon="10.493511305561814"><ele>176.0</ele><time>2026-04-06T12:36:25.236Z</time></trkpt><trkpt lat="42.98098653609301" lon="10.493410360162278"><ele>174.33333333333331</ele><time>2026-04-06T12:36:28.236Z</time></trkpt><trkpt lat="42.98104920787599" lon="10.493323837048303"><ele>172.66666666666666</ele><time>2026-04-06T12:36:31.236Z</time></trkpt><trkpt lat="42.981116080789405" lon="10.493252318632726"><ele>171.0</ele><time>2026-04-06T12:36:34.236Z</time></trkpt><trkpt lat="42.981194756172535" lon="10.493189427395365"><ele>169.33333333333334</ele><time>2026-04-06T12:36:37.236Z</time></trkpt><trkpt lat="42.98127618058899" lon="10.493139171876448"><ele>167.66666666666669</ele><time>2026-04-06T12:36:40.236Z</time></trkpt><trkpt lat="42.981359520181066" lon="10.493084732218584"><ele>166.0</ele><time>2026-04-06T12:36:43.236Z</time></trkpt><trkpt lat="42.98142032447766" lon="10.493034888372588"><ele>166.0</ele><time>2026-04-06T12:36:45.236Z</time></trkpt><trkpt lat="42.98147788289069" lon="10.4929852233541"><ele>166.0</ele><time>2026-04-06T12:36:47.236Z</time></trkpt><trkpt lat="42.981534013798814" lon="10.492917042746866"><ele>166.0</ele><time>2026-04-06T12:36:49.236Z</time></trkpt><trkpt lat="42.98159593571787" lon="10.492851068965384"><ele>166.0</ele><time>2026-04-06T12:36:51.236Z</time></trkpt><trkpt lat="42.981665692319545" lon="10.492766307893364"><ele>166.0</ele><time>2026-04-06T12:36:53.236Z</time></trkpt><trkpt lat="42.98172048829427" lon="10.492714976818137"><ele>166.0</ele><time>2026-04-06T12:36:55.236Z</time></trkpt><trkpt lat="42.98175734810142" lon="10.492624052847296"><ele>164.42857142857142</ele><time>2026-04-06T12:36:57.236Z</time></trkpt><trkpt lat="42.98179951603867" lon="10.492539341617178"><ele>162.85714285714286</ele><time>2026-04-06T12:37:00.236Z</time></trkpt><trkpt lat="42.981851697796436" lon="10.492466886958558"><ele>161.28571428571428</ele><time>2026-04-06T12:37:03.236Z</time></trkpt><trkpt lat="42.98192668381427" lon="10.492407286936155"><ele>159.71428571428572</ele><time>2026-04-06T12:37:06.236Z</time></trkpt><trkpt lat="42.98199993480005" lon="10.49237178265612"><ele>158.14285714285714</ele><time>2026-04-06T12:37:09.236Z</time></trkpt><trkpt lat="42.982060379800465" lon="10.49234649352813"><ele>156.57142857142858</ele><time>2026-04-06T12:37:12.236Z</time></trkpt><trkpt lat="42.98212888253523" lon="10.492322607712547"><ele>155.0</ele><time>2026-04-06T12:37:14.236Z</time></trkpt><trkpt lat="42.98220333766488" lon="10.492301554448801"><ele>155.0</ele><time>2026-04-06T12:37:17.236Z</time></trkpt><trkpt lat="42.9822792374845" lon="10.492280492378299"><ele>155.0</ele><time>2026-04-06T12:37:19.236Z</time></trkpt><trkpt lat="42.982372502888545" lon="10.492241781250872"><ele>155.0</ele><time>2026-04-06T12:37:22.236Z</time></trkpt><trkpt lat="42.98244881865218" lon="10.492230335744981"><ele>155.0</ele><time>2026-04-06T12:37:24.236Z</time></trkpt><trkpt lat="42.9825261865402" lon="10.49221044669101"><ele>155.0</ele><time>2026-04-06T12:37:26.236Z</time></trkpt><trkpt lat="42.982608828475016" lon="10.492188362487394"><ele>155.0</ele><time>2026-04-06T12:37:28.236Z</time></trkpt><trkpt lat="42.98271501094779" lon="10.49218004461691"><ele>153.33333333333331</ele><time>2026-04-06T12:37:30.236Z</time></trkpt><trkpt lat="42.98279622591672" lon="10.49218163398771"><ele>151.66666666666666</ele><time>2026-04-06T12:37:32.236Z</time></trkpt><trkpt lat="42.98289438637601" lon="10.492184006333986"><ele>150.0</ele><time>2026-04-06T12:37:34.236Z</time></trkpt><trkpt lat="42.98297798734125" lon="10.492181652441776"><ele>148.33333333333334</ele><time>2026-04-06T12:37:36.236Z</time></trkpt><trkpt lat="42.98305499633863" lon="10.492220008171762"><ele>146.66666666666669</ele><time>2026-04-06T12:37:38.236Z</time></trkpt><trkpt lat="42.98312369275001" lon="10.492232357243484"><ele>145.0</ele><time>2026-04-06T12:37:40.236Z</time></trkpt><trkpt lat="42.9832011989077" lon="10.492268578168394"><ele>145.0</ele><time>2026-04-06T12:37:42.236Z</time></trkpt><trkpt lat="42.983264634161685" lon="10.492310657301307"><ele>145.0</ele><time>2026-04-06T12:37:44.236Z</time></trkpt><trkpt lat="42.98333907682699" lon="10.492350642688063"><ele>145.0</ele><time>2026-04-06T12:37:47.236Z</time></trkpt><trkpt lat="42.9834208267794" lon="10.492390122263862"><ele>145.0</ele><time>2026-04-06T12:37:50.236Z</time></trkpt><trkpt lat="42.98348893835291" lon="10.49241541331305"><ele>145.0</ele><time>2026-04-06T12:37:52.236Z</time></trkpt><trkpt lat="42.983553355124855" lon="10.492431350518277"><ele>145.0</ele><time>2026-04-06T12:37:54.236Z</time></trkpt><trkpt lat="42.983621876291906" lon="10.492464119352986"><ele>145.0</ele><time>2026-04-06T12:37:56.236Z</time></trkpt><trkpt lat="42.98369079632426" lon="10.492490738377287"><ele>142.5</ele><time>2026-04-06T12:37:59.236Z</time></trkpt><trkpt lat="42.98377994382905" lon="10.492535433646204"><ele>140.0</ele><time>2026-04-06T12:38:02.236Z</time></trkpt><trkpt lat="42.983842884870604" lon="10.492549206723332"><ele>137.5</ele><time>2026-04-06T12:38:04.236Z</time></trkpt><trkpt lat="42.98390321463742" lon="10.492610029874408"><ele>135.0</ele><time>2026-04-06T12:38:07.236Z</time></trkpt><trkpt lat="42.98396043552713" lon="10.492654071941471"><ele>132.5</ele><time>2026-04-06T12:38:09.236Z</time></trkpt><trkpt lat="42.983948321959794" lon="10.492766023799403"><ele>130.0</ele><time>2026-04-06T12:38:12.235Z</time></trkpt><trkpt lat="42.98394370826754" lon="10.492858510682145"><ele>130.66666666666669</ele><time>2026-04-06T12:38:46.235Z</time></trkpt><trkpt lat="42.98391853761762" lon="10.492945803655237"><ele>131.33333333333334</ele><time>2026-04-06T12:38:50.235Z</time></trkpt><trkpt lat="42.9839061888394" lon="10.493051570850538"><ele>132.0</ele><time>2026-04-06T12:38:53.235Z</time></trkpt><trkpt lat="42.98388371334966" lon="10.493170929705329"><ele>132.66666666666666</ele><time>2026-04-06T12:38:56.235Z</time></trkpt><trkpt lat="42.9838590525113" lon="10.493289443769529"><ele>133.33333333333331</ele><time>2026-04-06T12:38:59.235Z</time></trkpt><trkpt lat="42.98386175574357" lon="10.493419606308871"><ele>134.0</ele><time>2026-04-06T12:39:02.235Z</time></trkpt><trkpt lat="42.98387670355823" lon="10.493515448736053"><ele>134.0</ele><time>2026-04-06T12:39:04.235Z</time></trkpt><trkpt lat="42.98391341350618" lon="10.493586519794789"><ele>134.0</ele><time>2026-04-06T12:39:06.235Z</time></trkpt><trkpt lat="42.98393745023459" lon="10.493667506796498"><ele>134.0</ele><time>2026-04-06T12:39:08.235Z</time></trkpt><trkpt lat="42.984019776135824" lon="10.493695431118784"><ele>134.0</ele><time>2026-04-06T12:39:10.235Z</time></trkpt><trkpt lat="42.98408971006828" lon="10.493723371149724"><ele>134.0</ele><time>2026-04-06T12:39:12.235Z</time></trkpt><trkpt lat="42.98415603792737" lon="10.493742660917027"><ele>134.0</ele><time>2026-04-06T12:39:14.235Z</time></trkpt><trkpt lat="42.98422507772242" lon="10.493759524919014"><ele>134.0</ele><time>2026-04-06T12:39:16.235Z</time></trkpt><trkpt lat="42.98431394673689" lon="10.493781974049961"><ele>132.5</ele><time>2026-04-06T12:39:19.235Z</time></trkpt><trkpt lat="42.984387053908904" lon="10.493811500995571"><ele>131.0</ele><time>2026-04-06T12:39:21.235Z</time></trkpt><trkpt lat="42.98445841269208" lon="10.493842679142084"><ele>129.5</ele><time>2026-04-06T12:39:23.235Z</time></trkpt><trkpt lat="42.98453768169179" lon="10.49388585190291"><ele>128.0</ele><time>2026-04-06T12:39:25.235Z</time></trkpt><trkpt lat="42.984628537623905" lon="10.493952088359505"><ele>126.49999999999999</ele><time>2026-04-06T12:39:27.235Z</time></trkpt><trkpt lat="42.98468179435343" lon="10.493998554041111"><ele>125.0</ele><time>2026-04-06T12:39:28.235Z</time></trkpt><trkpt lat="42.98473644942085" lon="10.494052085698746"><ele>124.99999999999999</ele><time>2026-04-06T12:39:29.235Z</time></trkpt><trkpt lat="42.98479270982014" lon="10.49411304055819"><ele>125.0</ele><time>2026-04-06T12:39:30.235Z</time></trkpt><trkpt lat="42.98485034196699" lon="10.494181099511762"><ele>125.0</ele><time>2026-04-06T12:39:31.235Z</time></trkpt><trkpt lat="42.98489874424604" lon="10.494252873542633"><ele>125.0</ele><time>2026-04-06T12:39:32.235Z</time></trkpt><trkpt lat="42.98496615989564" lon="10.494333530367319"><ele>124.99999999999999</ele><time>2026-04-06T12:39:33.235Z</time></trkpt><trkpt lat="42.98501484836129" lon="10.494421910541215"><ele>125.0</ele><time>2026-04-06T12:39:34.235Z</time></trkpt><trkpt lat="42.985054327753474" lon="10.494506710268237"><ele>122.49999999999999</ele><time>2026-04-06T12:39:35.235Z</time></trkpt><trkpt lat="42.98511647274178" lon="10.494555959043993"><ele>120.0</ele><time>2026-04-06T12:39:36.235Z</time></trkpt><trkpt lat="42.985164486408266" lon="10.494636047665088"><ele>117.5</ele><time>2026-04-06T12:39:37.235Z</time></trkpt><trkpt lat="42.98521853581303" lon="10.494696956937117"><ele>115.0</ele><time>2026-04-06T12:39:38.235Z</time></trkpt><trkpt lat="42.985267629500825" lon="10.49475368163147"><ele>112.49999999999999</ele><time>2026-04-06T12:39:39.235Z</time></trkpt><trkpt lat="42.985364640780915" lon="10.494867938192016"><ele>110.0</ele><time>2026-04-06T12:39:41.235Z</time></trkpt><trkpt lat="42.985416184428125" lon="10.494930653071993"><ele>110.0</ele><time>2026-04-06T12:39:42.235Z</time></trkpt><trkpt lat="42.98550424211493" lon="10.495050701353165"><ele>110.0</ele><time>2026-04-06T12:39:44.235Z</time></trkpt><trkpt lat="42.98558106641215" lon="10.49518284824131"><ele>110.0</ele><time>2026-04-06T12:39:46.235Z</time></trkpt><trkpt lat="42.9856743404938" lon="10.495300956194301"><ele>110.0</ele><time>2026-04-06T12:39:48.235Z</time></trkpt><trkpt lat="42.985767226293795" lon="10.495422708059381"><ele>113.4</ele><time>2026-04-06T12:39:50.235Z</time></trkpt><trkpt lat="42.9858230032904" lon="10.495465663860438"><ele>116.8</ele><time>2026-04-06T12:39:51.235Z</time></trkpt><trkpt lat="42.98593384305532" lon="10.495546843274651"><ele>120.19999999999999</ele><time>2026-04-06T12:39:53.235Z</time></trkpt><trkpt lat="42.98601161590957" lon="10.495658320351662"><ele>123.6</ele><time>2026-04-06T12:39:55.235Z</time></trkpt><trkpt lat="42.98607530729798" lon="10.495784093109567"><ele>127.0</ele><time>2026-04-06T12:39:57.235Z</time></trkpt><trkpt lat="42.986135815871634" lon="10.495916554041845"><ele>122.66666666666667</ele><time>2026-04-06T12:39:59.235Z</time></trkpt><trkpt lat="42.98616588521506" lon="10.496077341938463"><ele>118.33333333333334</ele><time>2026-04-06T12:40:01.235Z</time></trkpt><trkpt lat="42.98619666832793" lon="10.496165634506065"><ele>114.0</ele><time>2026-04-06T12:40:02.235Z</time></trkpt><trkpt lat="42.98622358003286" lon="10.496245389169033"><ele>109.66666666666666</ele><time>2026-04-06T12:40:03.235Z</time></trkpt><trkpt lat="42.986267290179896" lon="10.496324625121431"><ele>105.33333333333333</ele><time>2026-04-06T12:40:04.235Z</time></trkpt><trkpt lat="42.986351957353506" lon="10.496435638045758"><ele>101.0</ele><time>2026-04-06T12:40:06.235Z</time></trkpt><trkpt lat="42.986441071231035" lon="10.496526980993876"><ele>100.99999999999999</ele><time>2026-04-06T12:40:08.235Z</time></trkpt><trkpt lat="42.98652395283081" lon="10.496597883676037"><ele>101.0</ele><time>2026-04-06T12:40:10.235Z</time></trkpt><trkpt lat="42.98660259978007" lon="10.496627880380013"><ele>101.0</ele><time>2026-04-06T12:40:12.235Z</time></trkpt><trkpt lat="42.986680035574864" lon="10.496559448380161"><ele>101.0</ele><time>2026-04-06T12:40:14.235Z</time></trkpt><trkpt lat="42.98668510641453" lon="10.496465241716276"><ele>100.99999999999999</ele><time>2026-04-06T12:40:15.235Z</time></trkpt><trkpt lat="42.986669098571326" lon="10.496372014039569"><ele>101.0</ele><time>2026-04-06T12:40:16.234Z</time></trkpt><trkpt lat="42.98663043418139" lon="10.496280968673029"><ele>99.85714285714286</ele><time>2026-04-06T12:40:17.234Z</time></trkpt><trkpt lat="42.98658778067577" lon="10.496196586833861"><ele>98.71428571428571</ele><time>2026-04-06T12:40:18.234Z</time></trkpt><trkpt lat="42.98654759401911" lon="10.496108401619992"><ele>97.57142857142858</ele><time>2026-04-06T12:40:19.234Z</time></trkpt><trkpt lat="42.986513547049064" lon="10.496018223015481"><ele>96.42857142857143</ele><time>2026-04-06T12:40:20.234Z</time></trkpt><trkpt lat="42.986490301011784" lon="10.495936831654129"><ele>95.28571428571429</ele><time>2026-04-06T12:40:21.234Z</time></trkpt><trkpt lat="42.98646496842185" lon="10.495842573756658"><ele>94.14285714285715</ele><time>2026-04-06T12:40:22.234Z</time></trkpt><trkpt lat="42.98645837356219" lon="10.495739531680275"><ele>93.0</ele><time>2026-04-06T12:40:23.234Z</time></trkpt><trkpt lat="42.98645875096107" lon="10.49564311176646"><ele>93.0</ele><time>2026-04-06T12:40:24.234Z</time></trkpt><trkpt lat="42.98645297373795" lon="10.495538276337477"><ele>93.0</ele><time>2026-04-06T12:40:25.234Z</time></trkpt><trkpt lat="42.986430588991006" lon="10.495439473621536"><ele>93.0</ele><time>2026-04-06T12:40:26.234Z</time></trkpt><trkpt lat="42.98640083153615" lon="10.495340933254248"><ele>93.0</ele><time>2026-04-06T12:40:27.234Z</time></trkpt><trkpt lat="42.98636231276006" lon="10.495234251007524"><ele>93.0</ele><time>2026-04-06T12:40:28.234Z</time></trkpt><trkpt lat="42.98632040933513" lon="10.49512656651637"><ele>93.0</ele><time>2026-04-06T12:40:29.234Z</time></trkpt><trkpt lat="42.986277820663666" lon="10.495005698565512"><ele>91.2</ele><time>2026-04-06T12:40:30.234Z</time></trkpt><trkpt lat="42.98623312161018" lon="10.494881470873345"><ele>89.4</ele><time>2026-04-06T12:40:31.234Z</time></trkpt><trkpt lat="42.98617917384747" lon="10.494760962764314"><ele>87.60000000000001</ele><time>2026-04-06T12:40:32.234Z</time></trkpt><trkpt lat="42.98613495836055" lon="10.494644902108613"><ele>85.80000000000001</ele><time>2026-04-06T12:40:33.234Z</time></trkpt><trkpt lat="42.98610036501143" lon="10.494551286604581"><ele>84.0</ele><time>2026-04-06T12:40:34.234Z</time></trkpt><trkpt lat="42.98607026524745" lon="10.494460478922749"><ele>84.0</ele><time>2026-04-06T12:40:35.234Z</time></trkpt><trkpt lat="42.986044525980034" lon="10.494375269346781"><ele>84.0</ele><time>2026-04-06T12:40:36.234Z</time></trkpt><trkpt lat="42.98601330023039" lon="10.494299271953258"><ele>84.0</ele><time>2026-04-06T12:40:37.234Z</time></trkpt><trkpt lat="42.985967448859896" lon="10.494172480890523"><ele>84.0</ele><time>2026-04-06T12:40:39.234Z</time></trkpt><trkpt lat="42.98594060866316" lon="10.49408593585806"><ele>84.0</ele><time>2026-04-06T12:40:41.234Z</time></trkpt><trkpt lat="42.985965071943966" lon="10.493996369727258"><ele>84.0</ele><time>2026-04-06T12:40:43.234Z</time></trkpt><trkpt lat="42.98605690081014" lon="10.493997570814566"><ele>84.0</ele><time>2026-04-06T12:40:45.234Z</time></trkpt><trkpt lat="42.986108369261146" lon="10.494061798351346"><ele>84.0</ele><time>2026-04-06T12:40:46.234Z</time></trkpt><trkpt lat="42.98620394266941" lon="10.494162448622875"><ele>84.0</ele><time>2026-04-06T12:40:48.234Z</time></trkpt><trkpt lat="42.98626741795509" lon="10.4942093765883"><ele>84.0</ele><time>2026-04-06T12:40:49.234Z</time></trkpt><trkpt lat="42.986333978151755" lon="10.494256005085463"><ele>84.0</ele><time>2026-04-06T12:40:50.234Z</time></trkpt><trkpt lat="42.98639381561489" lon="10.49430369415973"><ele>84.0</ele><time>2026-04-06T12:40:51.234Z</time></trkpt><trkpt lat="42.98645930243312" lon="10.494353488232878"><ele>84.0</ele><time>2026-04-06T12:40:52.234Z</time></trkpt><trkpt lat="42.98653345470521" lon="10.494394325081146"><ele>84.0</ele><time>2026-04-06T12:40:53.234Z</time></trkpt><trkpt lat="42.98659471440306" lon="10.49445890988879"><ele>84.0</ele><time>2026-04-06T12:40:54.234Z</time></trkpt><trkpt lat="42.98665799883054" lon="10.49450844220795"><ele>84.0</ele><time>2026-04-06T12:40:55.234Z</time></trkpt><trkpt lat="42.98672290240493" lon="10.494559706873721"><ele>84.0</ele><time>2026-04-06T12:40:56.234Z</time></trkpt><trkpt lat="42.98678764853945" lon="10.494615457722857"><ele>84.0</ele><time>2026-04-06T12:40:57.234Z</time></trkpt><trkpt lat="42.98685789282279" lon="10.494681917931677"><ele>81.0</ele><time>2026-04-06T12:40:58.234Z</time></trkpt><trkpt lat="42.986936153264466" lon="10.494736792287396"><ele>78.0</ele><time>2026-04-06T12:40:59.234Z</time></trkpt><trkpt lat="42.98700085527328" lon="10.494809480544905"><ele>75.0</ele><time>2026-04-06T12:41:00.234Z</time></trkpt><trkpt lat="42.98706211168533" lon="10.494886619461713"><ele>72.0</ele><time>2026-04-06T12:41:01.234Z</time></trkpt><trkpt lat="42.987113909792356" lon="10.494967586109349"><ele>69.0</ele><time>2026-04-06T12:41:02.234Z</time></trkpt><trkpt lat="42.987170071990576" lon="10.49503117082393"><ele>66.0</ele><time>2026-04-06T12:41:03.234Z</time></trkpt><trkpt lat="42.98722116254311" lon="10.495102390995259"><ele>66.0</ele><time>2026-04-06T12:41:04.234Z</time></trkpt><trkpt lat="42.987277875725674" lon="10.495166761540903"><ele>66.0</ele><time>2026-04-06T12:41:05.234Z</time></trkpt><trkpt lat="42.98732787329385" lon="10.495225649382173"><ele>66.0</ele><time>2026-04-06T12:41:06.234Z</time></trkpt><trkpt lat="42.9874299857012" lon="10.495320246329944"><ele>66.0</ele><time>2026-04-06T12:41:08.234Z</time></trkpt><trkpt lat="42.987487080641934" lon="10.49536671608239"><ele>66.0</ele><time>2026-04-06T12:41:09.234Z</time></trkpt><trkpt lat="42.987547440849944" lon="10.495413590478517"><ele>66.0</ele><time>2026-04-06T12:41:10.234Z</time></trkpt><trkpt lat="42.987616661185584" lon="10.495457477786402"><ele>64.14285714285714</ele><time>2026-04-06T12:41:11.234Z</time></trkpt><trkpt lat="42.98768239293071" lon="10.495496301531801"><ele>62.28571428571429</ele><time>2026-04-06T12:41:12.234Z</time></trkpt><trkpt lat="42.98775662123179" lon="10.495551499985373"><ele>60.42857142857143</ele><time>2026-04-06T12:41:13.234Z</time></trkpt><trkpt lat="42.98781473171924" lon="10.495603140344025"><ele>58.57142857142857</ele><time>2026-04-06T12:41:14.234Z</time></trkpt><trkpt lat="42.98786978962192" lon="10.495655449228858"><ele>56.71428571428571</ele><time>2026-04-06T12:41:15.234Z</time></trkpt><trkpt lat="42.987917311989925" lon="10.495712250661313"><ele>54.85714285714286</ele><time>2026-04-06T12:41:16.234Z</time></trkpt><trkpt lat="42.987962654285575" lon="10.495773190256402"><ele>53.0</ele><time>2026-04-06T12:41:17.234Z</time></trkpt><trkpt lat="42.98801041665856" lon="10.495851756802121"><ele>53.0</ele><time>2026-04-06T12:41:18.234Z</time></trkpt><trkpt lat="42.98805374113959" lon="10.495935864444846"><ele>53.0</ele><time>2026-04-06T12:41:19.234Z</time></trkpt><trkpt lat="42.988101971475" lon="10.496013444592009"><ele>53.0</ele><time>2026-04-06T12:41:20.234Z</time></trkpt><trkpt lat="42.98813978298821" lon="10.496091468292622"><ele>53.0</ele><time>2026-04-06T12:41:21.234Z</time></trkpt><trkpt lat="42.9881778055348" lon="10.496175389730592"><ele>53.0</ele><time>2026-04-06T12:41:22.234Z</time></trkpt><trkpt lat="42.98820791492659" lon="10.49626139234033"><ele>53.0</ele><time>2026-04-06T12:41:23.234Z</time></trkpt><trkpt lat="42.98824759241011" lon="10.496339735637848"><ele>53.0</ele><time>2026-04-06T12:41:24.234Z</time></trkpt><trkpt lat="42.988284050078136" lon="10.496422942351664"><ele>52.4</ele><time>2026-04-06T12:41:25.234Z</time></trkpt><trkpt lat="42.98831997092307" lon="10.496499927666585"><ele>51.8</ele><time>2026-04-06T12:41:26.234Z</time></trkpt><trkpt lat="42.9883504056012" lon="10.496581593313323"><ele>51.2</ele><time>2026-04-06T12:41:27.234Z</time></trkpt><trkpt lat="42.98841987560486" lon="10.496721486916645"><ele>50.6</ele><time>2026-04-06T12:41:29.234Z</time></trkpt><trkpt lat="42.98850759348198" lon="10.49684589323392"><ele>50.0</ele><time>2026-04-06T12:41:31.234Z</time></trkpt><trkpt lat="42.98856507626452" lon="10.49690468264169"><ele>50.00000000000001</ele><time>2026-04-06T12:41:32.234Z</time></trkpt><trkpt lat="42.988635043181894" lon="10.496946768392357"><ele>50.0</ele><time>2026-04-06T12:41:33.234Z</time></trkpt><trkpt lat="42.98870402600916" lon="10.496985513038645"><ele>50.0</ele><time>2026-04-06T12:41:34.234Z</time></trkpt><trkpt lat="42.988773113189836" lon="10.497027536554246"><ele>50.0</ele><time>2026-04-06T12:41:35.234Z</time></trkpt><trkpt lat="42.9888446409125" lon="10.497092025303358"><ele>50.00000000000001</ele><time>2026-04-06T12:41:36.234Z</time></trkpt><trkpt lat="42.98891370819449" lon="10.497166462845254"><ele>50.0</ele><time>2026-04-06T12:41:37.234Z</time></trkpt><trkpt lat="42.98898824000674" lon="10.497231121742361"><ele>48.4</ele><time>2026-04-06T12:41:38.234Z</time></trkpt><trkpt lat="42.9890623022654" lon="10.497313819675199"><ele>46.8</ele><time>2026-04-06T12:41:39.234Z</time></trkpt><trkpt lat="42.98913049484981" lon="10.497409346018614"><ele>45.2</ele><time>2026-04-06T12:41:40.234Z</time></trkpt><trkpt lat="42.98919518330171" lon="10.49751409546273"><ele>43.6</ele><time>2026-04-06T12:41:41.234Z</time></trkpt><trkpt lat="42.98925093613515" lon="10.49762731843475"><ele>42.0</ele><time>2026-04-06T12:41:42.234Z</time></trkpt><trkpt lat="42.989310901303725" lon="10.497740811845254"><ele>42.0</ele><time>2026-04-06T12:41:43.234Z</time></trkpt><trkpt lat="42.98936352983733" lon="10.497842783179737"><ele>42.0</ele><time>2026-04-06T12:41:44.234Z</time></trkpt><trkpt lat="42.98941323281151" lon="10.497948271082288"><ele>42.0</ele><time>2026-04-06T12:41:45.234Z</time></trkpt><trkpt lat="42.98943962338351" lon="10.498049621659574"><ele>42.0</ele><time>2026-04-06T12:41:46.234Z</time></trkpt><trkpt lat="42.98946402209908" lon="10.498151323885674"><ele>42.0</ele><time>2026-04-06T12:41:47.234Z</time></trkpt><trkpt lat="42.98949297304414" lon="10.498242983725751"><ele>42.0</ele><time>2026-04-06T12:41:48.234Z</time></trkpt><trkpt lat="42.98951764707999" lon="10.498326691654238"><ele>39.857142857142854</ele><time>2026-04-06T12:41:49.234Z</time></trkpt><trkpt lat="42.98954158465008" lon="10.49840986261444"><ele>37.714285714285715</ele><time>2026-04-06T12:41:50.234Z</time></trkpt><trkpt lat="42.989563707037426" lon="10.498493932762939"><ele>35.57142857142857</ele><time>2026-04-06T12:41:51.234Z</time></trkpt><trkpt lat="42.98958512926134" lon="10.498583930423647"><ele>33.42857142857143</ele><time>2026-04-06T12:41:52.234Z</time></trkpt><trkpt lat="42.989603285321515" lon="10.498683671440256"><ele>31.285714285714285</ele><time>2026-04-06T12:41:53.234Z</time></trkpt><trkpt lat="42.989625245027526" lon="10.498775347094965"><ele>29.142857142857142</ele><time>2026-04-06T12:41:54.234Z</time></trkpt><trkpt lat="42.989627845862366" lon="10.49887233493173"><ele>27.0</ele><time>2026-04-06T12:41:55.234Z</time></trkpt><trkpt lat="42.98966331535439" lon="10.498959191504097"><ele>26.333333333333332</ele><time>2026-04-06T12:41:56.234Z</time></trkpt><trkpt lat="42.98968549424128" lon="10.49905996947474"><ele>25.666666666666668</ele><time>2026-04-06T12:41:57.234Z</time></trkpt><trkpt lat="42.98972451593348" lon="10.499150054699966"><ele>25.0</ele><time>2026-04-06T12:41:58.234Z</time></trkpt><trkpt lat="42.989757709121406" lon="10.499244639526209"><ele>24.333333333333336</ele><time>2026-04-06T12:41:59.234Z</time></trkpt><trkpt lat="42.98979635721449" lon="10.499332432372388"><ele>23.666666666666668</ele><time>2026-04-06T12:42:00.234Z</time></trkpt><trkpt lat="42.9898381221615" lon="10.499418154990463"><ele>23.0</ele><time>2026-04-06T12:42:01.234Z</time></trkpt><trkpt lat="42.989882636576176" lon="10.49949586045006"><ele>23.0</ele><time>2026-04-06T12:42:02.234Z</time></trkpt><trkpt lat="42.98992003519106" lon="10.499578431334484"><ele>23.0</ele><time>2026-04-06T12:42:03.234Z</time></trkpt><trkpt lat="42.98995533365308" lon="10.499660289188409"><ele>23.0</ele><time>2026-04-06T12:42:04.234Z</time></trkpt><trkpt lat="42.98999142650297" lon="10.499742264690846"><ele>23.0</ele><time>2026-04-06T12:42:05.234Z</time></trkpt><trkpt lat="42.99002651526539" lon="10.499826851711845"><ele>23.0</ele><time>2026-04-06T12:42:06.234Z</time></trkpt><trkpt lat="42.99004056687094" lon="10.499926005626685"><ele>23.0</ele><time>2026-04-06T12:42:07.234Z</time></trkpt><trkpt lat="42.99005396030635" lon="10.500027597439415"><ele>23.0</ele><time>2026-04-06T12:42:08.234Z</time></trkpt><trkpt lat="42.990068966880685" lon="10.500135760108734"><ele>21.5</ele><time>2026-04-06T12:42:09.234Z</time></trkpt><trkpt lat="42.99008601622649" lon="10.500243743992698"><ele>20.0</ele><time>2026-04-06T12:42:10.234Z</time></trkpt><trkpt lat="42.99010676619471" lon="10.50034760860924"><ele>18.5</ele><time>2026-04-06T12:42:11.234Z</time></trkpt><trkpt lat="42.990131520005605" lon="10.500451676330627"><ele>17.0</ele><time>2026-04-06T12:42:12.234Z</time></trkpt><trkpt lat="42.99016891217384" lon="10.500538433822168"><ele>15.500000000000002</ele><time>2026-04-06T12:42:13.234Z</time></trkpt><trkpt lat="42.990194515438326" lon="10.500631565207888"><ele>14.0</ele><time>2026-04-06T12:42:14.234Z</time></trkpt><trkpt lat="42.9902225133095" lon="10.500719319672541"><ele>12.857142857142858</ele><time>2026-04-06T12:42:15.234Z</time></trkpt><trkpt lat="42.99024811979415" lon="10.500810762171293"><ele>11.714285714285714</ele><time>2026-04-06T12:42:16.234Z</time></trkpt><trkpt lat="42.99027270256861" lon="10.500896809547294"><ele>10.571428571428571</ele><time>2026-04-06T12:42:17.234Z</time></trkpt><trkpt lat="42.99029964135758" lon="10.500984320344253"><ele>9.428571428571429</ele><time>2026-04-06T12:42:18.234Z</time></trkpt><trkpt lat="42.990328863649275" lon="10.501073305915765"><ele>8.285714285714285</ele><time>2026-04-06T12:42:19.234Z</time></trkpt><trkpt lat="42.990359118943836" lon="10.501157986611874"><ele>7.142857142857142</ele><time>2026-04-06T12:42:20.234Z</time></trkpt><trkpt lat="42.990382325968625" lon="10.501247186605534"><ele>6.0</ele><time>2026-04-06T12:42:21.234Z</time></trkpt><trkpt lat="42.99040502055119" lon="10.501335840024868"><ele>5.333333333333333</ele><time>2026-04-06T12:42:22.234Z</time></trkpt><trkpt lat="42.99042777009829" lon="10.501433097819248"><ele>4.666666666666667</ele><time>2026-04-06T12:42:23.234Z</time></trkpt><trkpt lat="42.9904407873529" lon="10.501525788418139"><ele>4.0</ele><time>2026-04-06T12:42:24.234Z</time></trkpt><trkpt lat="42.990450008610004" lon="10.50161980580641"><ele>3.333333333333333</ele><time>2026-04-06T12:42:25.234Z</time></trkpt><trkpt lat="42.99044910913364" lon="10.501711900191687"><ele>2.6666666666666665</ele><time>2026-04-06T12:42:26.234Z</time></trkpt><trkpt lat="42.99043599730662" lon="10.501882372306719"><ele>2.0</ele><time>2026-04-06T12:42:28.234Z</time></trkpt><trkpt lat="42.990413710057126" lon="10.502047074650976"><ele>1.8333333333333333</ele><time>2026-04-06T12:42:30.234Z</time></trkpt><trkpt lat="42.99040002226766" lon="10.502135462749049"><ele>1.6666666666666665</ele><time>2026-04-06T12:42:31.234Z</time></trkpt><trkpt lat="42.990397494078906" lon="10.502224503077894"><ele>1.5</ele><time>2026-04-06T12:42:32.234Z</time></trkpt><trkpt lat="42.99037347411604" lon="10.502306541847162"><ele>1.3333333333333333</ele><time>2026-04-06T12:42:33.234Z</time></trkpt><trkpt lat="42.990360429425905" lon="10.502474945584195"><ele>1.1666666666666665</ele><time>2026-04-06T12:42:35.234Z</time></trkpt><trkpt lat="42.99031599755152" lon="10.502624486930811"><ele>1.0</ele><time>2026-04-06T12:42:37.234Z</time></trkpt><trkpt lat="42.99028307688298" lon="10.502773424096649"><ele>0.8</ele><time>2026-04-06T12:42:39.234Z</time></trkpt><trkpt lat="42.990248035257736" lon="10.502915459666545"><ele>0.6000000000000001</ele><time>2026-04-06T12:42:41.234Z</time></trkpt><trkpt lat="42.99021588324449" lon="10.503055118113297"><ele>0.4</ele><time>2026-04-06T12:42:43.234Z</time></trkpt><trkpt lat="42.99018335338529" lon="10.503187352061474"><ele>0.2</ele><time>2026-04-06T12:42:45.234Z</time></trkpt><trkpt lat="42.990149925614716" lon="10.503320999092772"><ele>0.0</ele><time>2026-04-06T12:42:47.234Z</time></trkpt><trkpt lat="42.9901237861966" lon="10.503456333256606"><ele>0.0</ele><time>2026-04-06T12:42:49.234Z</time></trkpt><trkpt lat="42.990095368050085" lon="10.503589513567606"><ele>0.0</ele><time>2026-04-06T12:42:51.234Z</time></trkpt><trkpt lat="42.99006746878069" lon="10.503716535253409"><ele>0.0</ele><time>2026-04-06T12:42:53.234Z</time></trkpt><trkpt lat="42.990042530908035" lon="10.503841174259424"><ele>0.0</ele><time>2026-04-06T12:42:55.234Z</time></trkpt><trkpt lat="42.990015514169954" lon="10.50395588487151"><ele>0.0</ele><time>2026-04-06T12:42:57.234Z</time></trkpt><trkpt lat="42.98998732532292" lon="10.504068480030035"><ele>1.3333333333333333</ele><time>2026-04-06T12:42:59.234Z</time></trkpt><trkpt lat="42.98996196374592" lon="10.504181199115893"><ele>2.6666666666666665</ele><time>2026-04-06T12:43:01.234Z</time></trkpt><trkpt lat="42.98992913465394" lon="10.50428895173624"><ele>4.0</ele><time>2026-04-06T12:43:03.234Z</time></trkpt><trkpt lat="42.98991018221855" lon="10.504404622016462"><ele>5.333333333333333</ele><time>2026-04-06T12:43:05.234Z</time></trkpt><trkpt lat="42.989897071930024" lon="10.504525465314531"><ele>6.666666666666666</ele><time>2026-04-06T12:43:07.234Z</time></trkpt><trkpt lat="42.98989227599849" lon="10.504649431194395"><ele>8.0</ele><time>2026-04-06T12:43:09.234Z</time></trkpt><trkpt lat="42.98989156459667" lon="10.504770662484892"><ele>7.999999999999999</ele><time>2026-04-06T12:43:11.234Z</time></trkpt><trkpt lat="42.98990232911693" lon="10.50489024691097"><ele>8.0</ele><time>2026-04-06T12:43:13.234Z</time></trkpt><trkpt lat="42.989915558990454" lon="10.505012722725471"><ele>8.0</ele><time>2026-04-06T12:43:15.234Z</time></trkpt><trkpt lat="42.98993315872824" lon="10.505135236083424"><ele>8.0</ele><time>2026-04-06T12:43:17.234Z</time></trkpt><trkpt lat="42.98995572622612" lon="10.505254109922722"><ele>7.999999999999999</ele><time>2026-04-06T12:43:19.234Z</time></trkpt><trkpt lat="42.98997681205614" lon="10.505371228545497"><ele>8.0</ele><time>2026-04-06T12:43:21.234Z</time></trkpt><trkpt lat="42.98999780658012" lon="10.505497906934496"><ele>6.4</ele><time>2026-04-06T12:43:23.234Z</time></trkpt><trkpt lat="42.990024497521624" lon="10.50561937223045"><ele>4.800000000000001</ele><time>2026-04-06T12:43:25.234Z</time></trkpt><trkpt lat="42.99005225026566" lon="10.5057446155749"><ele>3.2</ele><time>2026-04-06T12:43:27.234Z</time></trkpt><trkpt lat="42.99008260661584" lon="10.50587291798217"><ele>1.6</ele><time>2026-04-06T12:43:29.234Z</time></trkpt><trkpt lat="42.99010148355626" lon="10.505992489850678"><ele>0.0</ele><time>2026-04-06T12:43:31.234Z</time></trkpt><trkpt lat="42.99013470223443" lon="10.506122144202307"><ele>0.0</ele><time>2026-04-06T12:43:33.234Z</time></trkpt><trkpt lat="42.990163320566275" lon="10.506251866080245"><ele>0.0</ele><time>2026-04-06T12:43:35.234Z</time></trkpt><trkpt lat="42.99019034170907" lon="10.506378079699468"><ele>0.0</ele><time>2026-04-06T12:43:37.234Z</time></trkpt><trkpt lat="42.99022164692697" lon="10.506504634444845"><ele>0.0</ele><time>2026-04-06T12:43:39.234Z</time></trkpt><trkpt lat="42.99025512961515" lon="10.506634857589358"><ele>0.0</ele><time>2026-04-06T12:43:41.234Z</time></trkpt><trkpt lat="42.99029037758608" lon="10.50676450732474"><ele>0.0</ele><time>2026-04-06T12:43:43.234Z</time></trkpt><trkpt lat="42.99032156758628" lon="10.506891757653841"><ele>0.0</ele><time>2026-04-06T12:43:45.234Z</time></trkpt><trkpt lat="42.99035114656875" lon="10.507018524800138"><ele>0.0</ele><time>2026-04-06T12:43:47.234Z</time></trkpt><trkpt lat="42.99037525033123" lon="10.507148100262278"><ele>0.0</ele><time>2026-04-06T12:43:49.234Z</time></trkpt><trkpt lat="42.99040495623257" lon="10.507279794541553"><ele>0.0</ele><time>2026-04-06T12:43:51.234Z</time></trkpt><trkpt lat="42.990435060947426" lon="10.507409695013424"><ele>0.2</ele><time>2026-04-06T12:43:53.234Z</time></trkpt><trkpt lat="42.99046328519487" lon="10.50753122199375"><ele>0.4</ele><time>2026-04-06T12:43:55.234Z</time></trkpt><trkpt lat="42.990497407958735" lon="10.507652948917586"><ele>0.6000000000000001</ele><time>2026-04-06T12:43:57.234Z</time></trkpt><trkpt lat="42.99051760260184" lon="10.507771980101639"><ele>0.8</ele><time>2026-04-06T12:43:59.234Z</time></trkpt><trkpt lat="42.99054782942905" lon="10.50789198392183"><ele>1.0</ele><time>2026-04-06T12:44:01.234Z</time></trkpt><trkpt lat="42.99057551421239" lon="10.5080144144853"><ele>1.1666666666666665</ele><time>2026-04-06T12:44:03.234Z</time></trkpt><trkpt lat="42.99060226606701" lon="10.508132103883286"><ele>1.3333333333333333</ele><time>2026-04-06T12:44:05.234Z</time></trkpt><trkpt lat="42.990626103902436" lon="10.50824602845937"><ele>1.5</ele><time>2026-04-06T12:44:07.234Z</time></trkpt><trkpt lat="42.990656777150676" lon="10.508356965749096"><ele>1.6666666666666665</ele><time>2026-04-06T12:44:09.234Z</time></trkpt><trkpt lat="42.99068059213036" lon="10.508472058509232"><ele>1.8333333333333333</ele><time>2026-04-06T12:44:11.234Z</time></trkpt><trkpt lat="42.99070652597086" lon="10.508599931327904"><ele>2.0</ele><time>2026-04-06T12:44:13.234Z</time></trkpt><trkpt lat="42.99073551461247" lon="10.508735821096815"><ele>2.0</ele><time>2026-04-06T12:44:15.234Z</time></trkpt><trkpt lat="42.990771158904735" lon="10.508872461913962"><ele>2.0</ele><time>2026-04-06T12:44:17.234Z</time></trkpt><trkpt lat="42.99080629056557" lon="10.509013711529846"><ele>2.0</ele><time>2026-04-06T12:44:19.234Z</time></trkpt><trkpt lat="42.99083471275194" lon="10.509156862120882"><ele>2.0</ele><time>2026-04-06T12:44:21.234Z</time></trkpt><trkpt lat="42.99085672602842" lon="10.509291622955773"><ele>2.0</ele><time>2026-04-06T12:44:23.234Z</time></trkpt><trkpt lat="42.990893253064485" lon="10.50943233906992"><ele>2.0</ele><time>2026-04-06T12:44:25.234Z</time></trkpt><trkpt lat="42.99092620198149" lon="10.509575966574685"><ele>2.0</ele><time>2026-04-06T12:44:27.234Z</time></trkpt><trkpt lat="42.990961983625226" lon="10.509722136414165"><ele>2.0</ele><time>2026-04-06T12:44:29.233Z</time></trkpt><trkpt lat="42.990992424454674" lon="10.509875420154762"><ele>2.0</ele><time>2026-04-06T12:44:31.233Z</time></trkpt><trkpt lat="42.991029261228114" lon="10.510029292683345"><ele>2.0</ele><time>2026-04-06T12:44:33.233Z</time></trkpt><trkpt lat="42.99106377284855" lon="10.510189266900973"><ele>2.0</ele><time>2026-04-06T12:44:35.233Z</time></trkpt><trkpt lat="42.99108311611709" lon="10.510273912170957"><ele>2.0</ele><time>2026-04-06T12:44:36.233Z</time></trkpt><trkpt lat="42.9911013119643" lon="10.510357607991896"><ele>2.0</ele><time>2026-04-06T12:44:37.233Z</time></trkpt><trkpt lat="42.99113530078922" lon="10.510517367127592"><ele>2.0</ele><time>2026-04-06T12:44:39.233Z</time></trkpt><trkpt lat="42.991172649616544" lon="10.510669560475502"><ele>2.25</ele><time>2026-04-06T12:44:41.233Z</time></trkpt><trkpt lat="42.99119941111608" lon="10.510823345685337"><ele>2.5</ele><time>2026-04-06T12:44:43.233Z</time></trkpt><trkpt lat="42.991235367357405" lon="10.510972235242392"><ele>2.75</ele><time>2026-04-06T12:44:45.233Z</time></trkpt><trkpt lat="42.991270325314254" lon="10.511125709391164"><ele>3.0</ele><time>2026-04-06T12:44:47.233Z</time></trkpt><trkpt lat="42.99130402873692" lon="10.511269605644234"><ele>3.2</ele><time>2026-04-06T12:44:49.233Z</time></trkpt><trkpt lat="42.99133445424335" lon="10.511404015784908"><ele>3.4</ele><time>2026-04-06T12:44:51.233Z</time></trkpt><trkpt lat="42.991361799766175" lon="10.51153490992492"><ele>3.6000000000000005</ele><time>2026-04-06T12:44:53.233Z</time></trkpt><trkpt lat="42.991390451034626" lon="10.511655768063724"><ele>3.8000000000000003</ele><time>2026-04-06T12:44:55.233Z</time></trkpt><trkpt lat="42.99142188354218" lon="10.511774556752437"><ele>4.0</ele><time>2026-04-06T12:44:57.233Z</time></trkpt><trkpt lat="42.99145577374932" lon="10.511880014741605"><ele>3.9999999999999996</ele><time>2026-04-06T12:44:59.233Z</time></trkpt><trkpt lat="42.991495046435986" lon="10.511968092314277"><ele>4.0</ele><time>2026-04-06T12:45:01.233Z</time></trkpt><trkpt lat="42.99153966083798" lon="10.51205186224673"><ele>4.0</ele><time>2026-04-06T12:45:03.233Z</time></trkpt><trkpt lat="42.9915911253078" lon="10.512130653498032"><ele>4.0</ele><time>2026-04-06T12:45:05.233Z</time></trkpt><trkpt lat="42.991652033629194" lon="10.512197424609756"><ele>3.9999999999999996</ele><time>2026-04-06T12:45:07.233Z</time></trkpt><trkpt lat="42.991709989000434" lon="10.512274494756536"><ele>4.0</ele><time>2026-04-06T12:45:09.233Z</time></trkpt><trkpt lat="42.991798690547235" lon="10.5122999907954"><ele>5.333333333333333</ele><time>2026-04-06T12:45:11.233Z</time></trkpt><trkpt lat="42.9918743201532" lon="10.51234798338193"><ele>6.666666666666666</ele><time>2026-04-06T12:45:13.233Z</time></trkpt><trkpt lat="42.99194998100666" lon="10.51239995688914"><ele>8.0</ele><time>2026-04-06T12:45:15.233Z</time></trkpt><trkpt lat="42.992027292426236" lon="10.512449963716048"><ele>9.333333333333334</ele><time>2026-04-06T12:45:17.233Z</time></trkpt><trkpt lat="42.99210124693763" lon="10.512497487634537"><ele>10.666666666666666</ele><time>2026-04-06T12:45:19.233Z</time></trkpt><trkpt lat="42.99217067261514" lon="10.512545399897707"><ele>12.0</ele><time>2026-04-06T12:45:21.233Z</time></trkpt><trkpt lat="42.99224396987596" lon="10.512594874935578"><ele>12.0</ele><time>2026-04-06T12:45:23.233Z</time></trkpt><trkpt lat="42.99231696657727" lon="10.512645467412769"><ele>12.0</ele><time>2026-04-06T12:45:25.233Z</time></trkpt><trkpt lat="42.99239479978945" lon="10.512685747968781"><ele>12.0</ele><time>2026-04-06T12:45:27.233Z</time></trkpt><trkpt lat="42.99247196831093" lon="10.512733163297245"><ele>12.0</ele><time>2026-04-06T12:45:29.233Z</time></trkpt><trkpt lat="42.99255045093814" lon="10.512778644669494"><ele>12.0</ele><time>2026-04-06T12:45:31.233Z</time></trkpt><trkpt lat="42.9926266669263" lon="10.51284103374813"><ele>12.0</ele><time>2026-04-06T12:45:33.233Z</time></trkpt><trkpt lat="42.99270287749437" lon="10.51288580518526"><ele>11.2</ele><time>2026-04-06T12:45:35.233Z</time></trkpt><trkpt lat="42.99278101707565" lon="10.512934847891938"><ele>10.399999999999999</ele><time>2026-04-06T12:45:37.233Z</time></trkpt><trkpt lat="42.99286104785316" lon="10.512991331473152"><ele>9.600000000000001</ele><time>2026-04-06T12:45:39.233Z</time></trkpt><trkpt lat="42.99294498681498" lon="10.513046921068412"><ele>8.8</ele><time>2026-04-06T12:45:41.233Z</time></trkpt><trkpt lat="42.99302174782525" lon="10.51311129487647"><ele>8.0</ele><time>2026-04-06T12:45:43.233Z</time></trkpt><trkpt lat="42.99310098705151" lon="10.513178343533136"><ele>8.0</ele><time>2026-04-06T12:45:45.233Z</time></trkpt><trkpt lat="42.99317418840341" lon="10.51325713717028"><ele>8.0</ele><time>2026-04-06T12:45:47.233Z</time></trkpt><trkpt lat="42.993248787050916" lon="10.513345189293535"><ele>8.0</ele><time>2026-04-06T12:45:49.233Z</time></trkpt><trkpt lat="42.993316126934815" lon="10.51343168394413"><ele>8.0</ele><time>2026-04-06T12:45:51.233Z</time></trkpt><trkpt lat="42.99337548343059" lon="10.513526590590283"><ele>8.0</ele><time>2026-04-06T12:45:53.233Z</time></trkpt><trkpt lat="42.99343110257898" lon="10.513623455333148"><ele>7.800000000000001</ele><time>2026-04-06T12:45:55.233Z</time></trkpt><trkpt lat="42.99348853949253" lon="10.513716818603955"><ele>7.6000000000000005</ele><time>2026-04-06T12:45:57.233Z</time></trkpt><trkpt lat="42.993546061288306" lon="10.513807488974628"><ele>7.3999999999999995</ele><time>2026-04-06T12:45:59.233Z</time></trkpt><trkpt lat="42.993600372483364" lon="10.513905725900383"><ele>7.199999999999999</ele><time>2026-04-06T12:46:01.233Z</time></trkpt><trkpt lat="42.99366086687339" lon="10.514001722296152"><ele>7.0</ele><time>2026-04-06T12:46:03.233Z</time></trkpt><trkpt lat="42.99372101873536" lon="10.514098606595013"><ele>7.0</ele><time>2026-04-06T12:46:05.233Z</time></trkpt><trkpt lat="42.99377712983258" lon="10.514197904040241"><ele>6.999999999999999</ele><time>2026-04-06T12:46:07.233Z</time></trkpt><trkpt lat="42.993835292468745" lon="10.51429977565834"><ele>6.999999999999999</ele><time>2026-04-06T12:46:09.233Z</time></trkpt><trkpt lat="42.993897465233744" lon="10.514393213530598"><ele>7.0</ele><time>2026-04-06T12:46:11.233Z</time></trkpt><trkpt lat="42.99395395519382" lon="10.514490674525623"><ele>7.0</ele><time>2026-04-06T12:46:13.233Z</time></trkpt><trkpt lat="42.994008456254825" lon="10.514591055116513"><ele>7.0</ele><time>2026-04-06T12:46:15.233Z</time></trkpt><trkpt lat="42.994066855824" lon="10.514686385794029"><ele>6.999999999999999</ele><time>2026-04-06T12:46:17.233Z</time></trkpt><trkpt lat="42.99412452019246" lon="10.51478341391585"><ele>6.999999999999999</ele><time>2026-04-06T12:46:19.233Z</time></trkpt><trkpt lat="42.99418555248217" lon="10.514881129824342"><ele>7.0</ele><time>2026-04-06T12:46:21.233Z</time></trkpt><trkpt lat="42.994247842630855" lon="10.514978856101186"><ele>7.0</ele><time>2026-04-06T12:46:23.233Z</time></trkpt><trkpt lat="42.99430673265152" lon="10.515082810181685"><ele>7.3999999999999995</ele><time>2026-04-06T12:46:25.233Z</time></trkpt><trkpt lat="42.99436469635181" lon="10.515184664225378"><ele>7.799999999999999</ele><time>2026-04-06T12:46:27.233Z</time></trkpt><trkpt lat="42.994423461152486" lon="10.51528326019071"><ele>8.2</ele><time>2026-04-06T12:46:29.233Z</time></trkpt><trkpt lat="42.99448704404979" lon="10.515380652682634"><ele>8.6</ele><time>2026-04-06T12:46:31.233Z</time></trkpt><trkpt lat="42.99453772199494" lon="10.515498510329492"><ele>9.0</ele><time>2026-04-06T12:46:33.233Z</time></trkpt><trkpt lat="42.99461257660007" lon="10.515588738902377"><ele>9.0</ele><time>2026-04-06T12:46:35.233Z</time></trkpt><trkpt lat="42.99467338242745" lon="10.515689886809197"><ele>9.0</ele><time>2026-04-06T12:46:37.233Z</time></trkpt><trkpt lat="42.994733838171726" lon="10.515793226055"><ele>9.0</ele><time>2026-04-06T12:46:39.233Z</time></trkpt><trkpt lat="42.994792257281965" lon="10.515893041912115"><ele>9.0</ele><time>2026-04-06T12:46:41.233Z</time></trkpt><trkpt lat="42.994853941127275" lon="10.51599594101843"><ele>9.0</ele><time>2026-04-06T12:46:43.233Z</time></trkpt><trkpt lat="42.99490384136848" lon="10.516089287952607"><ele>9.0</ele><time>2026-04-06T12:46:45.233Z</time></trkpt><trkpt lat="42.994952967335315" lon="10.516167861180264"><ele>9.0</ele><time>2026-04-06T12:46:47.233Z</time></trkpt><trkpt lat="42.99500379993489" lon="10.516259160783196"><ele>9.0</ele><time>2026-04-06T12:46:49.233Z</time></trkpt><trkpt lat="42.99506667544787" lon="10.51635870694345"><ele>9.0</ele><time>2026-04-06T12:46:51.233Z</time></trkpt><trkpt lat="42.995123584751" lon="10.516456760123322"><ele>9.0</ele><time>2026-04-06T12:46:53.233Z</time></trkpt><trkpt lat="42.99517921289183" lon="10.516560844321884"><ele>9.0</ele><time>2026-04-06T12:46:55.233Z</time></trkpt><trkpt lat="42.99523708198483" lon="10.516660655145825"><ele>8.333333333333334</ele><time>2026-04-06T12:46:57.233Z</time></trkpt><trkpt lat="42.995293677480625" lon="10.5167582490537"><ele>7.666666666666667</ele><time>2026-04-06T12:46:59.233Z</time></trkpt><trkpt lat="42.99534503110443" lon="10.51685045255464"><ele>7.0</ele><time>2026-04-06T12:47:01.233Z</time></trkpt><trkpt lat="42.99540007636382" lon="10.516946392191597"><ele>6.333333333333334</ele><time>2026-04-06T12:47:03.233Z</time></trkpt><trkpt lat="42.99545705566819" lon="10.51703946592321"><ele>5.666666666666667</ele><time>2026-04-06T12:47:05.233Z</time></trkpt><trkpt lat="42.99550786158792" lon="10.517131358704594"><ele>5.0</ele><time>2026-04-06T12:47:07.233Z</time></trkpt><trkpt lat="42.9955652543013" lon="10.51721832511518"><ele>5.0</ele><time>2026-04-06T12:47:09.233Z</time></trkpt><trkpt lat="42.99561481472287" lon="10.51730671971736"><ele>5.0</ele><time>2026-04-06T12:47:11.233Z</time></trkpt><trkpt lat="42.99566592726373" lon="10.517393404883281"><ele>5.0</ele><time>2026-04-06T12:47:13.233Z</time></trkpt><trkpt lat="42.99571703351561" lon="10.51748393796772"><ele>5.0</ele><time>2026-04-06T12:47:15.233Z</time></trkpt><trkpt lat="42.995766478681496" lon="10.517569063765205"><ele>5.0</ele><time>2026-04-06T12:47:17.233Z</time></trkpt><trkpt lat="42.995817579557105" lon="10.51765115403979"><ele>5.0</ele><time>2026-04-06T12:47:19.233Z</time></trkpt><trkpt lat="42.99586662395673" lon="10.517733370354508"><ele>5.428571428571429</ele><time>2026-04-06T12:47:21.233Z</time></trkpt><trkpt lat="42.995914823904585" lon="10.517811822351995"><ele>5.857142857142858</ele><time>2026-04-06T12:47:23.233Z</time></trkpt><trkpt lat="42.99596203847824" lon="10.517887548711975"><ele>6.285714285714286</ele><time>2026-04-06T12:47:25.233Z</time></trkpt><trkpt lat="42.996010465393304" lon="10.517962925369359"><ele>6.7142857142857135</ele><time>2026-04-06T12:47:27.233Z</time></trkpt><trkpt lat="42.996055567934576" lon="10.518042739060899"><ele>7.142857142857142</ele><time>2026-04-06T12:47:29.233Z</time></trkpt><trkpt lat="42.996100536662624" lon="10.518120146674693"><ele>7.571428571428571</ele><time>2026-04-06T12:47:31.233Z</time></trkpt><trkpt lat="42.99614579162121" lon="10.518191526500654"><ele>8.0</ele><time>2026-04-06T12:47:33.233Z</time></trkpt><trkpt lat="42.99618844112445" lon="10.518268802393978"><ele>8.285714285714285</ele><time>2026-04-06T12:47:35.233Z</time></trkpt><trkpt lat="42.996233088690204" lon="10.518343928823855"><ele>8.571428571428571</ele><time>2026-04-06T12:47:37.233Z</time></trkpt><trkpt lat="42.99627776168232" lon="10.518417621085081"><ele>8.857142857142858</ele><time>2026-04-06T12:47:39.233Z</time></trkpt><trkpt lat="42.99631929109914" lon="10.518494661646958"><ele>9.142857142857142</ele><time>2026-04-06T12:47:41.233Z</time></trkpt><trkpt lat="42.99636566964899" lon="10.518569716655003"><ele>9.428571428571429</ele><time>2026-04-06T12:47:43.233Z</time></trkpt><trkpt lat="42.9964119906227" lon="10.518643900291686"><ele>9.714285714285714</ele><time>2026-04-06T12:47:45.233Z</time></trkpt><trkpt lat="42.99645666561116" lon="10.518717234359029"><ele>10.0</ele><time>2026-04-06T12:47:47.233Z</time></trkpt><trkpt lat="42.996499633146314" lon="10.518791445122028"><ele>10.142857142857142</ele><time>2026-04-06T12:47:49.233Z</time></trkpt><trkpt lat="42.996541457323005" lon="10.51886198048315"><ele>10.285714285714286</ele><time>2026-04-06T12:47:51.233Z</time></trkpt><trkpt lat="42.99658697738327" lon="10.51893305411559"><ele>10.428571428571429</ele><time>2026-04-06T12:47:53.233Z</time></trkpt><trkpt lat="42.99663034494541" lon="10.519004371496711"><ele>10.571428571428571</ele><time>2026-04-06T12:47:55.233Z</time></trkpt><trkpt lat="42.99666912371367" lon="10.519073484856484"><ele>10.714285714285714</ele><time>2026-04-06T12:47:57.233Z</time></trkpt><trkpt lat="42.99671176664316" lon="10.519142474883802"><ele>10.857142857142858</ele><time>2026-04-06T12:47:59.233Z</time></trkpt><trkpt lat="42.996753229808064" lon="10.519213124974527"><ele>11.0</ele><time>2026-04-06T12:48:01.233Z</time></trkpt><trkpt lat="42.9967956391545" lon="10.519282379637325"><ele>11.714285714285715</ele><time>2026-04-06T12:48:03.233Z</time></trkpt><trkpt lat="42.996855403648496" lon="10.519383211556699"><ele>12.428571428571427</ele><time>2026-04-06T12:48:06.233Z</time></trkpt><trkpt lat="42.99689595142067" lon="10.519452825347976"><ele>13.142857142857142</ele><time>2026-04-06T12:48:08.233Z</time></trkpt><trkpt lat="42.99694697821225" lon="10.519514970005755"><ele>13.857142857142858</ele><time>2026-04-06T12:48:10.233Z</time></trkpt><trkpt lat="42.99698029512623" lon="10.51959482946307"><ele>14.57142857142857</ele><time>2026-04-06T12:48:12.233Z</time></trkpt><trkpt lat="42.9970202395925" lon="10.519662515225768"><ele>15.285714285714285</ele><time>2026-04-06T12:48:14.233Z</time></trkpt><trkpt lat="42.99706190452454" lon="10.519733116421138"><ele>16.0</ele><time>2026-04-06T12:48:17.233Z</time></trkpt><trkpt lat="42.99719768485301" lon="10.51960798312347"><ele>15.999999999999998</ele><time>2026-04-06T12:48:22.233Z</time></trkpt><trkpt lat="42.99724443838064" lon="10.519547833490966"><ele>16.0</ele><time>2026-04-06T12:48:24.233Z</time></trkpt><trkpt lat="42.997312088821246" lon="10.519500582663593"><ele>16.0</ele><time>2026-04-06T12:48:26.233Z</time></trkpt><trkpt lat="42.99737272326673" lon="10.51943287858449"><ele>16.0</ele><time>2026-04-06T12:48:28.233Z</time></trkpt><trkpt lat="42.997426295806385" lon="10.51937618930196"><ele>15.999999999999998</ele><time>2026-04-06T12:48:30.233Z</time></trkpt><trkpt lat="42.997477518094065" lon="10.519306156202399"><ele>16.0</ele><time>2026-04-06T12:48:32.233Z</time></trkpt><trkpt lat="42.9975528019577" lon="10.519236086556893"><ele>16.714285714285715</ele><time>2026-04-06T12:48:35.233Z</time></trkpt><trkpt lat="42.997608998446076" lon="10.51918771464198"><ele>17.428571428571427</ele><time>2026-04-06T12:48:37.233Z</time></trkpt><trkpt lat="42.9976665759272" lon="10.5191350708744"><ele>18.142857142857142</ele><time>2026-04-06T12:48:39.232Z</time></trkpt><trkpt lat="42.997723490572156" lon="10.519075888914314"><ele>18.857142857142858</ele><time>2026-04-06T12:48:41.232Z</time></trkpt><trkpt lat="42.99777694716187" lon="10.519007959707585"><ele>19.57142857142857</ele><time>2026-04-06T12:48:43.232Z</time></trkpt><trkpt lat="42.99783862545866" lon="10.518957225338662"><ele>20.285714285714285</ele><time>2026-04-06T12:48:45.232Z</time></trkpt><trkpt lat="42.99789594641377" lon="10.518896136141407"><ele>21.0</ele><time>2026-04-06T12:48:47.232Z</time></trkpt><trkpt lat="42.997954667383965" lon="10.51882491049556"><ele>21.0</ele><time>2026-04-06T12:48:49.232Z</time></trkpt><trkpt lat="42.998012543915706" lon="10.518764404099596"><ele>21.0</ele><time>2026-04-06T12:48:51.232Z</time></trkpt><trkpt lat="42.998060725486255" lon="10.518690622049492"><ele>21.0</ele><time>2026-04-06T12:48:53.232Z</time></trkpt><trkpt lat="42.99811208723232" lon="10.51862136559699"><ele>21.0</ele><time>2026-04-06T12:48:55.232Z</time></trkpt><trkpt lat="42.99816657820741" lon="10.51856773948887"><ele>21.0</ele><time>2026-04-06T12:48:57.232Z</time></trkpt><trkpt lat="42.9982146600977" lon="10.51850430687092"><ele>21.0</ele><time>2026-04-06T12:48:59.232Z</time></trkpt><trkpt lat="42.99826737637135" lon="10.518447191350413"><ele>21.0</ele><time>2026-04-06T12:49:01.232Z</time></trkpt><trkpt lat="42.99834322231449" lon="10.51838759841635"><ele>20.8</ele><time>2026-04-06T12:49:04.232Z</time></trkpt><trkpt lat="42.998433502107716" lon="10.518509917113928"><ele>20.6</ele><time>2026-04-06T12:49:08.232Z</time></trkpt><trkpt lat="42.998477357866726" lon="10.518609108524661"><ele>20.4</ele><time>2026-04-06T12:49:11.232Z</time></trkpt><trkpt lat="42.9984606869139" lon="10.518693228094069"><ele>20.2</ele><time>2026-04-06T12:49:13.232Z</time></trkpt><trkpt lat="42.99847735008892" lon="10.51880956652009"><ele>20.0</ele><time>2026-04-06T12:49:16.232Z</time></trkpt><trkpt lat="42.99851718769482" lon="10.518929863988372"><ele>21.333333333333336</ele><time>2026-04-06T12:49:19.232Z</time></trkpt><trkpt lat="42.9985790154713" lon="10.519017835043527"><ele>22.666666666666668</ele><time>2026-04-06T12:49:22.232Z</time></trkpt><trkpt lat="42.99858865410985" lon="10.519110728477596"><ele>24.0</ele><time>2026-04-06T12:49:25.232Z</time></trkpt><trkpt lat="42.99857457137248" lon="10.51921784806106"><ele>25.333333333333336</ele><time>2026-04-06T12:49:28.232Z</time></trkpt><trkpt lat="42.998581524065365" lon="10.519308391141562"><ele>26.666666666666668</ele><time>2026-04-06T12:49:30.232Z</time></trkpt><trkpt lat="42.99857366644361" lon="10.519435498607747"><ele>28.0</ele><time>2026-04-06T12:49:33.232Z</time></trkpt><trkpt lat="42.998567317097" lon="10.519522625042544"><ele>28.142857142857142</ele><time>2026-04-06T12:49:35.232Z</time></trkpt><trkpt lat="42.99853250315382" lon="10.51962588790088"><ele>28.285714285714285</ele><time>2026-04-06T12:49:38.232Z</time></trkpt><trkpt lat="42.99848216384701" lon="10.519681737545952"><ele>28.42857142857143</ele><time>2026-04-06T12:49:40.232Z</time></trkpt><trkpt lat="42.99842904093345" lon="10.519733212417487"><ele>28.571428571428573</ele><time>2026-04-06T12:49:42.232Z</time></trkpt><trkpt lat="42.998379608776126" lon="10.519787633724064"><ele>28.714285714285715</ele><time>2026-04-06T12:49:44.232Z</time></trkpt><trkpt lat="42.99832633483124" lon="10.519843091806457"><ele>28.85714285714286</ele><time>2026-04-06T12:49:46.232Z</time></trkpt><trkpt lat="42.998276357864135" lon="10.519898641173464"><ele>29.000000000000004</ele><time>2026-04-06T12:49:48.232Z</time></trkpt><trkpt lat="42.99823034877586" lon="10.51996183937915"><ele>28.999999999999996</ele><time>2026-04-06T12:49:50.232Z</time></trkpt><trkpt lat="42.998178903277704" lon="10.52002132066963"><ele>29.0</ele><time>2026-04-06T12:49:52.232Z</time></trkpt><trkpt lat="42.99811101699362" lon="10.520102028924661"><ele>29.0</ele><time>2026-04-06T12:49:55.232Z</time></trkpt><trkpt lat="42.99803583674892" lon="10.520181864600294"><ele>29.0</ele><time>2026-04-06T12:49:58.232Z</time></trkpt><trkpt lat="42.997989432065836" lon="10.520248279535377"><ele>28.999999999999996</ele><time>2026-04-06T12:50:00.232Z</time></trkpt><trkpt lat="42.997941423543814" lon="10.520353723641644"><ele>29.0</ele><time>2026-04-06T12:50:02.232Z</time></trkpt><trkpt lat="42.99791709788989" lon="10.520461629527906"><ele>30.000000000000004</ele><time>2026-04-06T12:50:04.232Z</time></trkpt><trkpt lat="42.99789808307557" lon="10.520582859311999"><ele>31.0</ele><time>2026-04-06T12:50:07.232Z</time></trkpt><trkpt lat="42.99788946326488" lon="10.520669607594769"><ele>32.0</ele><time>2026-04-06T12:50:09.232Z</time></trkpt><trkpt lat="42.997879313804916" lon="10.520759263650653"><ele>33.0</ele><time>2026-04-06T12:50:11.232Z</time></trkpt><trkpt lat="42.9978676592871" lon="10.520851691629998"><ele>34.0</ele><time>2026-04-06T12:50:13.232Z</time></trkpt><trkpt lat="42.997872654630825" lon="10.52094224142099"><ele>35.00000000000001</ele><time>2026-04-06T12:50:15.232Z</time></trkpt><trkpt lat="42.997842654007826" lon="10.521027107599755"><ele>36.0</ele><time>2026-04-06T12:50:17.232Z</time></trkpt><trkpt lat="42.9978266492428" lon="10.521129553384428"><ele>36.00000000000001</ele><time>2026-04-06T12:50:19.232Z</time></trkpt><trkpt lat="42.99782284730652" lon="10.521230800001641"><ele>36.0</ele><time>2026-04-06T12:50:21.232Z</time></trkpt><trkpt lat="42.9978394507485" lon="10.521339138077536"><ele>36.0</ele><time>2026-04-06T12:50:23.232Z</time></trkpt><trkpt lat="42.99785892520476" lon="10.52142795487605"><ele>36.0</ele><time>2026-04-06T12:50:25.232Z</time></trkpt><trkpt lat="42.997883604603395" lon="10.521517443848696"><ele>36.0</ele><time>2026-04-06T12:50:27.232Z</time></trkpt><trkpt lat="42.99790579626233" lon="10.521602594252009"><ele>36.00000000000001</ele><time>2026-04-06T12:50:29.232Z</time></trkpt><trkpt lat="42.99792915045415" lon="10.521692205358105"><ele>36.0</ele><time>2026-04-06T12:50:31.232Z</time></trkpt><trkpt lat="42.99795328869393" lon="10.521782310506474"><ele>36.28571428571429</ele><time>2026-04-06T12:50:33.232Z</time></trkpt><trkpt lat="42.99797876196579" lon="10.521871108920115"><ele>36.57142857142857</ele><time>2026-04-06T12:50:35.232Z</time></trkpt><trkpt lat="42.99800555887628" lon="10.521961423419416"><ele>36.85714285714286</ele><time>2026-04-06T12:50:37.232Z</time></trkpt><trkpt lat="42.99803122808822" lon="10.522047937240993"><ele>37.142857142857146</ele><time>2026-04-06T12:50:39.232Z</time></trkpt><trkpt lat="42.99805819596146" lon="10.52213882797255"><ele>37.42857142857143</ele><time>2026-04-06T12:50:41.232Z</time></trkpt><trkpt lat="42.998084326793496" lon="10.522230407578514"><ele>37.714285714285715</ele><time>2026-04-06T12:50:43.232Z</time></trkpt><trkpt lat="42.99811452579364" lon="10.522337025113604"><ele>38.0</ele><time>2026-04-06T12:50:45.232Z</time></trkpt><trkpt lat="42.9981427230585" lon="10.52243657547712"><ele>38.0</ele><time>2026-04-06T12:50:47.232Z</time></trkpt><trkpt lat="42.99816989306177" lon="10.522532499078352"><ele>38.0</ele><time>2026-04-06T12:50:49.232Z</time></trkpt><trkpt lat="42.99819959417498" lon="10.522634078404524"><ele>38.0</ele><time>2026-04-06T12:50:51.232Z</time></trkpt><trkpt lat="42.998231617253474" lon="10.522736875932639"><ele>38.0</ele><time>2026-04-06T12:50:53.232Z</time></trkpt><trkpt lat="42.99826576407979" lon="10.522839589359812"><ele>38.0</ele><time>2026-04-06T12:50:55.231Z</time></trkpt><trkpt lat="42.99829920529697" lon="10.522936245250964"><ele>38.0</ele><time>2026-04-06T12:50:57.231Z</time></trkpt><trkpt lat="42.998332341186995" lon="10.523032018830154"><ele>40.0</ele><time>2026-04-06T12:50:59.231Z</time></trkpt><trkpt lat="42.998366820912366" lon="10.523128345711674"><ele>42.0</ele><time>2026-04-06T12:51:01.231Z</time></trkpt><trkpt lat="42.99840306149756" lon="10.523229556929351"><ele>44.0</ele><time>2026-04-06T12:51:03.231Z</time></trkpt><trkpt lat="42.998438198322205" lon="10.523327685580918"><ele>46.0</ele><time>2026-04-06T12:51:05.231Z</time></trkpt><trkpt lat="42.998472012991" lon="10.523422121725424"><ele>48.00000000000001</ele><time>2026-04-06T12:51:07.231Z</time></trkpt><trkpt lat="42.998506744838735" lon="10.52351911942976"><ele>50.0</ele><time>2026-04-06T12:51:09.231Z</time></trkpt><trkpt lat="42.998540036791375" lon="10.523612095871872"><ele>50.00000000000001</ele><time>2026-04-06T12:51:11.231Z</time></trkpt><trkpt lat="42.998577821139115" lon="10.523713877907316"><ele>50.0</ele><time>2026-04-06T12:51:13.231Z</time></trkpt><trkpt lat="42.998613833932346" lon="10.52381061870561"><ele>50.0</ele><time>2026-04-06T12:51:15.232Z</time></trkpt><trkpt lat="42.99864815775449" lon="10.523902822446265"><ele>50.0</ele><time>2026-04-06T12:51:17.232Z</time></trkpt><trkpt lat="42.99869602946403" lon="10.523981341243623"><ele>50.0</ele><time>2026-04-06T12:51:19.232Z</time></trkpt><trkpt lat="42.9987070859526" lon="10.524067028269712"><ele>50.00000000000001</ele><time>2026-04-06T12:51:21.232Z</time></trkpt><trkpt lat="42.998734731184555" lon="10.524147782199693"><ele>50.0</ele><time>2026-04-06T12:51:23.232Z</time></trkpt><trkpt lat="42.99876417577221" lon="10.524233792155558"><ele>48.833333333333336</ele><time>2026-04-06T12:51:25.232Z</time></trkpt><trkpt lat="42.998792515473944" lon="10.524316575261842"><ele>47.66666666666667</ele><time>2026-04-06T12:51:27.232Z</time></trkpt><trkpt lat="42.998752372682176" lon="10.52442699780351"><ele>46.5</ele><time>2026-04-06T12:51:29.232Z</time></trkpt><trkpt lat="42.99879436936967" lon="10.52454042874337"><ele>45.333333333333336</ele><time>2026-04-06T12:51:32.232Z</time></trkpt><trkpt lat="42.99882429917112" lon="10.52462126753666"><ele>44.16666666666667</ele><time>2026-04-06T12:51:34.232Z</time></trkpt><trkpt lat="42.99885806226298" lon="10.524712459904409"><ele>43.0</ele><time>2026-04-06T12:51:36.232Z</time></trkpt><trkpt lat="42.99889480787219" lon="10.52481170780242"><ele>42.0</ele><time>2026-04-06T12:51:38.232Z</time></trkpt><trkpt lat="42.9989366664427" lon="10.524924771551959"><ele>41.0</ele><time>2026-04-06T12:51:40.232Z</time></trkpt><trkpt lat="42.99897991569038" lon="10.525041642464224"><ele>40.0</ele><time>2026-04-06T12:51:42.232Z</time></trkpt><trkpt lat="42.99902374813124" lon="10.52516008938797"><ele>39.0</ele><time>2026-04-06T12:51:44.232Z</time></trkpt><trkpt lat="42.99907381327027" lon="10.525294606834645"><ele>38.0</ele><time>2026-04-06T12:51:46.232Z</time></trkpt><trkpt lat="42.99912818379616" lon="10.525439206859142"><ele>37.0</ele><time>2026-04-06T12:51:48.232Z</time></trkpt><trkpt lat="42.999185534622754" lon="10.525591733019603"><ele>36.0</ele><time>2026-04-06T12:51:50.232Z</time></trkpt><trkpt lat="42.99924449185881" lon="10.525748531575406"><ele>35.0</ele><time>2026-04-06T12:51:52.232Z</time></trkpt><trkpt lat="42.999274904561915" lon="10.52582941496137"><ele>34.0</ele><time>2026-04-06T12:51:53.232Z</time></trkpt><trkpt lat="42.99930489161912" lon="10.525911089358162"><ele>33.0</ele><time>2026-04-06T12:51:54.232Z</time></trkpt><trkpt lat="42.99933514743473" lon="10.525995265738588"><ele>33.0</ele><time>2026-04-06T12:51:55.232Z</time></trkpt><trkpt lat="42.99936586930603" lon="10.526080738778512"><ele>33.0</ele><time>2026-04-06T12:51:56.232Z</time></trkpt><trkpt lat="42.99939683343108" lon="10.526168641647262"><ele>33.0</ele><time>2026-04-06T12:51:57.232Z</time></trkpt><trkpt lat="42.99942048724418" lon="10.526255073830363"><ele>33.0</ele><time>2026-04-06T12:51:58.232Z</time></trkpt><trkpt lat="42.99943937276843" lon="10.526346614511793"><ele>33.0</ele><time>2026-04-06T12:51:59.232Z</time></trkpt><trkpt lat="42.99945483512583" lon="10.526438998534603"><ele>33.0</ele><time>2026-04-06T12:52:00.232Z</time></trkpt><trkpt lat="42.99946626199654" lon="10.526537305909729"><ele>33.0</ele><time>2026-04-06T12:52:01.232Z</time></trkpt><trkpt lat="42.99947537029808" lon="10.526639858862492"><ele>32.0</ele><time>2026-04-06T12:52:02.232Z</time></trkpt><trkpt lat="42.99948310929173" lon="10.526753496115893"><ele>31.0</ele><time>2026-04-06T12:52:03.232Z</time></trkpt><trkpt lat="42.999492033506606" lon="10.526861695832471"><ele>30.0</ele><time>2026-04-06T12:52:04.232Z</time></trkpt><trkpt lat="42.999500705755636" lon="10.526969215142397"><ele>29.0</ele><time>2026-04-06T12:52:05.232Z</time></trkpt><trkpt lat="42.999507994019886" lon="10.527071226509905"><ele>28.0</ele><time>2026-04-06T12:52:06.232Z</time></trkpt><trkpt lat="42.99951455008992" lon="10.527162989576356"><ele>27.0</ele><time>2026-04-06T12:52:07.232Z</time></trkpt><trkpt lat="42.999525938231166" lon="10.527322385411034"><ele>26.5</ele><time>2026-04-06T12:52:09.232Z</time></trkpt><trkpt lat="42.99953727335079" lon="10.527481039318433"><ele>26.0</ele><time>2026-04-06T12:52:11.232Z</time></trkpt><trkpt lat="42.99954351163575" lon="10.527568354312058"><ele>25.5</ele><time>2026-04-06T12:52:12.232Z</time></trkpt><trkpt lat="42.999549914160696" lon="10.527657968300407"><ele>25.0</ele><time>2026-04-06T12:52:13.232Z</time></trkpt><trkpt lat="42.99955641023569" lon="10.52774889169059"><ele>24.5</ele><time>2026-04-06T12:52:14.232Z</time></trkpt><trkpt lat="42.99956339058978" lon="10.527841961693907"><ele>24.0</ele><time>2026-04-06T12:52:15.232Z</time></trkpt><trkpt lat="42.99957060484311" lon="10.52793490155326"><ele>23.833333333333332</ele><time>2026-04-06T12:52:16.232Z</time></trkpt><trkpt lat="42.99957828458792" lon="10.528029450455298"><ele>23.666666666666668</ele><time>2026-04-06T12:52:17.232Z</time></trkpt><trkpt lat="42.999585565613216" lon="10.528118130689114"><ele>23.5</ele><time>2026-04-06T12:52:18.232Z</time></trkpt><trkpt lat="42.999598013581505" lon="10.52827807775829"><ele>23.333333333333336</ele><time>2026-04-06T12:52:20.232Z</time></trkpt><trkpt lat="42.99960859027261" lon="10.528423301473115"><ele>23.166666666666668</ele><time>2026-04-06T12:52:22.232Z</time></trkpt><trkpt lat="42.99961710847536" lon="10.528532467020213"><ele>23.0</ele><time>2026-04-06T12:52:24.232Z</time></trkpt><trkpt lat="42.99965045587861" lon="10.528635232288256"><ele>23.0</ele><time>2026-04-06T12:52:27.232Z</time></trkpt><trkpt lat="42.999921391603024" lon="10.528626051095967"><ele>23.0</ele><time>2026-04-06T12:52:28.232Z</time></trkpt><trkpt lat="43.0000155792365" lon="10.5286836444474"><ele>23.0</ele><time>2026-04-06T12:52:30.232Z</time></trkpt><trkpt lat="43.00009537384537" lon="10.52878251451807"><ele>22.666666666666668</ele><time>2026-04-06T12:52:32.232Z</time></trkpt><trkpt lat="43.0001327428104" lon="10.528866356692278"><ele>22.333333333333336</ele><time>2026-04-06T12:52:34.232Z</time></trkpt><trkpt lat="43.00019201528425" lon="10.528942682100649"><ele>22.0</ele><time>2026-04-06T12:52:41.232Z</time></trkpt><trkpt lat="43.000236138777275" lon="10.529047086758434"><ele>21.666666666666668</ele><time>2026-04-06T12:52:43.232Z</time></trkpt><trkpt lat="43.000268567639935" lon="10.529137672328275"><ele>21.333333333333332</ele><time>2026-04-06T12:52:45.232Z</time></trkpt><trkpt lat="43.000280848626126" lon="10.529231250637594"><ele>21.0</ele><time>2026-04-06T12:52:47.232Z</time></trkpt><trkpt lat="43.000293544179165" lon="10.529364075238998"><ele>21.0</ele><time>2026-04-06T12:52:50.232Z</time></trkpt><trkpt lat="43.000291734339314" lon="10.529465509476251"><ele>21.0</ele><time>2026-04-06T12:52:52.231Z</time></trkpt><trkpt lat="43.000291880690696" lon="10.529576372871537"><ele>21.0</ele><time>2026-04-06T12:52:54.231Z</time></trkpt><trkpt lat="43.00027538959515" lon="10.529687462744425"><ele>21.0</ele><time>2026-04-06T12:52:56.231Z</time></trkpt><trkpt lat="43.00023658786326" lon="10.529786893508756"><ele>21.0</ele><time>2026-04-06T12:52:58.231Z</time></trkpt><trkpt lat="43.000180469377234" lon="10.529865557565612"><ele>21.0</ele><time>2026-04-06T12:53:00.231Z</time></trkpt><trkpt lat="43.00011014928133" lon="10.529906927599253"><ele>20.5</ele><time>2026-04-06T12:53:02.231Z</time></trkpt><trkpt lat="43.0000341005534" lon="10.529942544772707"><ele>20.0</ele><time>2026-04-06T12:53:04.231Z</time></trkpt><trkpt lat="42.99994195125506" lon="10.529971219113103"><ele>19.5</ele><time>2026-04-06T12:53:06.231Z</time></trkpt><trkpt lat="42.99985139119325" lon="10.530019964940296"><ele>19.0</ele><time>2026-04-06T12:53:08.231Z</time></trkpt><trkpt lat="42.99977567790934" lon="10.530063311701136"><ele>18.5</ele><time>2026-04-06T12:53:10.231Z</time></trkpt><trkpt lat="42.999761327610315" lon="10.53015133528994"><ele>18.0</ele><time>2026-04-06T12:53:12.231Z</time></trkpt><trkpt lat="42.999779492087356" lon="10.530273802010106"><ele>17.2</ele><time>2026-04-06T12:53:14.231Z</time></trkpt><trkpt lat="42.99979832517387" lon="10.530401059686906"><ele>16.4</ele><time>2026-04-06T12:53:16.231Z</time></trkpt><trkpt lat="42.99978506933696" lon="10.530543351627724"><ele>15.599999999999998</ele><time>2026-04-06T12:53:18.231Z</time></trkpt><trkpt lat="42.99979550508062" lon="10.530694031027076"><ele>14.799999999999999</ele><time>2026-04-06T12:53:20.231Z</time></trkpt><trkpt lat="42.99980763678999" lon="10.5308579053415"><ele>14.0</ele><time>2026-04-06T12:53:22.231Z</time></trkpt><trkpt lat="42.99982098877017" lon="10.531021142282594"><ele>14.0</ele><time>2026-04-06T12:53:24.231Z</time></trkpt><trkpt lat="42.99983439364632" lon="10.531193546755661"><ele>14.0</ele><time>2026-04-06T12:53:26.231Z</time></trkpt><trkpt lat="42.999863519004236" lon="10.531357679535896"><ele>14.0</ele><time>2026-04-06T12:53:28.231Z</time></trkpt><trkpt lat="42.99985938255531" lon="10.531522070078214"><ele>14.0</ele><time>2026-04-06T12:53:30.231Z</time></trkpt><trkpt lat="42.99988779156678" lon="10.531678789479642"><ele>14.0</ele><time>2026-04-06T12:53:32.231Z</time></trkpt><trkpt lat="42.99987844847681" lon="10.531766183516906"><ele>13.999999999999998</ele><time>2026-04-06T12:53:33.231Z</time></trkpt><trkpt lat="42.99989103061572" lon="10.531934674745068"><ele>13.999999999999998</ele><time>2026-04-06T12:53:35.231Z</time></trkpt><trkpt lat="42.99990341276858" lon="10.532105590492533"><ele>14.0</ele><time>2026-04-06T12:53:37.231Z</time></trkpt><trkpt lat="42.999915653381066" lon="10.532274552568108"><ele>14.0</ele><time>2026-04-06T12:53:39.231Z</time></trkpt><trkpt lat="42.99992207981235" lon="10.532363259247347"><ele>13.857142857142858</ele><time>2026-04-06T12:53:40.231Z</time></trkpt><trkpt lat="42.999928505705654" lon="10.532449897387838"><ele>13.714285714285715</ele><time>2026-04-06T12:53:41.231Z</time></trkpt><trkpt lat="42.999935009375385" lon="10.5325366064964"><ele>13.571428571428571</ele><time>2026-04-06T12:53:42.231Z</time></trkpt><trkpt lat="42.999941546299645" lon="10.532623758974438"><ele>13.428571428571429</ele><time>2026-04-06T12:53:43.231Z</time></trkpt><trkpt lat="42.999948178729746" lon="10.532712184804913"><ele>13.285714285714286</ele><time>2026-04-06T12:53:44.231Z</time></trkpt><trkpt lat="42.999961180676245" lon="10.532878626647621"><ele>13.142857142857142</ele><time>2026-04-06T12:53:46.231Z</time></trkpt><trkpt lat="42.9999692078867" lon="10.53296483772121"><ele>13.0</ele><time>2026-04-06T12:53:47.231Z</time></trkpt><trkpt lat="42.9999924663059" lon="10.533045865284533"><ele>12.833333333333332</ele><time>2026-04-06T12:53:48.231Z</time></trkpt><trkpt lat="43.00001181789262" lon="10.533215518188186"><ele>12.666666666666666</ele><time>2026-04-06T12:53:50.231Z</time></trkpt><trkpt lat="43.000001714892704" lon="10.533304694857934"><ele>12.5</ele><time>2026-04-06T12:53:51.231Z</time></trkpt><trkpt lat="43.00000810409994" lon="10.533391427336417"><ele>12.333333333333332</ele><time>2026-04-06T12:53:52.231Z</time></trkpt><trkpt lat="43.000021313319856" lon="10.53356124940568"><ele>12.166666666666666</ele><time>2026-04-06T12:53:54.231Z</time></trkpt><trkpt lat="43.00002825808737" lon="10.533649407530971"><ele>12.0</ele><time>2026-04-06T12:53:55.231Z</time></trkpt><trkpt lat="43.00005056393413" lon="10.533731617623477"><ele>12.0</ele><time>2026-04-06T12:53:56.231Z</time></trkpt><trkpt lat="43.000039936294414" lon="10.53382088015864"><ele>12.0</ele><time>2026-04-06T12:53:57.231Z</time></trkpt><trkpt lat="43.00005092787055" lon="10.53398938769639"><ele>12.0</ele><time>2026-04-06T12:53:59.231Z</time></trkpt><trkpt lat="43.000072948179714" lon="10.534074843301863"><ele>12.0</ele><time>2026-04-06T12:54:00.231Z</time></trkpt><trkpt lat="43.000063408885794" lon="10.534162892622893"><ele>12.0</ele><time>2026-04-06T12:54:01.231Z</time></trkpt><trkpt lat="43.000076470223256" lon="10.534333204643735"><ele>12.0</ele><time>2026-04-06T12:54:03.231Z</time></trkpt><trkpt lat="43.00008965948405" lon="10.534505184659738"><ele>12.0</ele><time>2026-04-06T12:54:05.231Z</time></trkpt><trkpt lat="43.00009626041977" lon="10.534591256889886"><ele>12.0</ele><time>2026-04-06T12:54:06.231Z</time></trkpt><trkpt lat="43.00010290095482" lon="10.534677845547154"><ele>12.0</ele><time>2026-04-06T12:54:07.231Z</time></trkpt><trkpt lat="43.00010959445645" lon="10.534765124739833"><ele>12.0</ele><time>2026-04-06T12:54:08.231Z</time></trkpt><trkpt lat="43.00012279628144" lon="10.53493726850964"><ele>12.0</ele><time>2026-04-06T12:54:10.231Z</time></trkpt><trkpt lat="43.000129532576274" lon="10.535025105797246"><ele>12.0</ele><time>2026-04-06T12:54:11.231Z</time></trkpt><trkpt lat="43.00014233812396" lon="10.535192082585437"><ele>12.0</ele><time>2026-04-06T12:54:13.231Z</time></trkpt><trkpt lat="43.00015736018884" lon="10.53536447778606"><ele>12.0</ele><time>2026-04-06T12:54:15.231Z</time></trkpt><trkpt lat="43.0001718245788" lon="10.535531043892721"><ele>12.0</ele><time>2026-04-06T12:54:17.231Z</time></trkpt><trkpt lat="43.00018628811181" lon="10.53569760002804"><ele>12.0</ele><time>2026-04-06T12:54:19.231Z</time></trkpt><trkpt lat="43.000193450891544" lon="10.535784236572331"><ele>12.0</ele><time>2026-04-06T12:54:20.231Z</time></trkpt><trkpt lat="43.00020590724279" lon="10.535944529978883"><ele>11.75</ele><time>2026-04-06T12:54:22.231Z</time></trkpt><trkpt lat="43.00021821241083" lon="10.536106204857447"><ele>11.5</ele><time>2026-04-06T12:54:24.231Z</time></trkpt><trkpt lat="43.00023066440729" lon="10.536267763649269"><ele>11.25</ele><time>2026-04-06T12:54:26.231Z</time></trkpt><trkpt lat="43.000243113440895" lon="10.536425441845859"><ele>11.0</ele><time>2026-04-06T12:54:28.231Z</time></trkpt><trkpt lat="43.00025574950424" lon="10.536585488787685"><ele>11.0</ele><time>2026-04-06T12:54:30.231Z</time></trkpt><trkpt lat="43.00026770780249" lon="10.536736951258607"><ele>11.0</ele><time>2026-04-06T12:54:32.231Z</time></trkpt><trkpt lat="43.000279351209386" lon="10.536893927281799"><ele>11.0</ele><time>2026-04-06T12:54:34.231Z</time></trkpt><trkpt lat="43.000290543409115" lon="10.537046411938837"><ele>11.0</ele><time>2026-04-06T12:54:36.231Z</time></trkpt><trkpt lat="43.00030164634291" lon="10.53719671791126"><ele>11.0</ele><time>2026-04-06T12:54:38.231Z</time></trkpt><trkpt lat="43.00031373169093" lon="10.53734698270266"><ele>11.0</ele><time>2026-04-06T12:54:40.231Z</time></trkpt><trkpt lat="43.000325886958464" lon="10.537498116788166"><ele>11.0</ele><time>2026-04-06T12:54:42.231Z</time></trkpt><trkpt lat="43.000337564560354" lon="10.537643311729699"><ele>11.0</ele><time>2026-04-06T12:54:44.231Z</time></trkpt><trkpt lat="43.00034974043955" lon="10.537792763287355"><ele>11.0</ele><time>2026-04-06T12:54:46.231Z</time></trkpt><trkpt lat="43.00036111835443" lon="10.53792825335383"><ele>11.0</ele><time>2026-04-06T12:54:48.231Z</time></trkpt><trkpt lat="43.00037181066243" lon="10.538055579112255"><ele>11.333333333333332</ele><time>2026-04-06T12:54:50.231Z</time></trkpt><trkpt lat="43.000381430907325" lon="10.53817013850021"><ele>11.666666666666666</ele><time>2026-04-06T12:54:52.231Z</time></trkpt><trkpt lat="43.00040381641305" lon="10.538278940239975"><ele>12.0</ele><time>2026-04-06T12:54:54.231Z</time></trkpt><trkpt lat="43.000402316638244" lon="10.538376292130511"><ele>12.333333333333332</ele><time>2026-04-06T12:54:56.231Z</time></trkpt><trkpt lat="43.00040720008573" lon="10.538483948451228"><ele>12.666666666666666</ele><time>2026-04-06T12:55:02.23Z</time></trkpt><trkpt lat="43.00038757562005" lon="10.538566332527415"><ele>13.0</ele><time>2026-04-06T12:55:11.23Z</time></trkpt><trkpt lat="43.00052201543923" lon="10.538572756712002"><ele>12.999999999999998</ele><time>2026-04-06T12:55:19.23Z</time></trkpt><trkpt lat="43.000594071213044" lon="10.538589227743543"><ele>13.0</ele><time>2026-04-06T12:55:21.23Z</time></trkpt><trkpt lat="43.000676857944654" lon="10.538590044781904"><ele>13.0</ele><time>2026-04-06T12:55:23.23Z</time></trkpt><trkpt lat="43.00076378657971" lon="10.53860862774996"><ele>13.0</ele><time>2026-04-06T12:55:25.23Z</time></trkpt><trkpt lat="43.00085597059659" lon="10.538621878006078"><ele>12.999999999999998</ele><time>2026-04-06T12:55:27.23Z</time></trkpt><trkpt lat="43.000945399682394" lon="10.538632486583976"><ele>13.0</ele><time>2026-04-06T12:55:29.23Z</time></trkpt><trkpt lat="43.001037759332874" lon="10.538628902844504"><ele>12.8</ele><time>2026-04-06T12:55:31.23Z</time></trkpt><trkpt lat="43.00113183749925" lon="10.53862842011452"><ele>12.600000000000001</ele><time>2026-04-06T12:55:33.23Z</time></trkpt><trkpt lat="43.00122570480007" lon="10.538619103189628"><ele>12.399999999999999</ele><time>2026-04-06T12:55:35.23Z</time></trkpt><trkpt lat="43.0013216128476" lon="10.538618384782293"><ele>12.2</ele><time>2026-04-06T12:55:37.23Z</time></trkpt><trkpt lat="43.001411952995" lon="10.538627538219393"><ele>12.0</ele><time>2026-04-06T12:55:39.23Z</time></trkpt><trkpt lat="43.00150880767565" lon="10.53863785958766"><ele>12.0</ele><time>2026-04-06T12:55:41.23Z</time></trkpt><trkpt lat="43.00160123560018" lon="10.538674014603133"><ele>12.0</ele><time>2026-04-06T12:55:43.23Z</time></trkpt><trkpt lat="43.001686753574965" lon="10.538700982081988"><ele>12.0</ele><time>2026-04-06T12:55:45.23Z</time></trkpt><trkpt lat="43.001777265633834" lon="10.538735244293157"><ele>12.0</ele><time>2026-04-06T12:55:48.23Z</time></trkpt><trkpt lat="43.001825297270656" lon="10.538801144178894"><ele>12.0</ele><time>2026-04-06T12:55:51.23Z</time></trkpt><trkpt lat="43.00190024178506" lon="10.538852283656409"><ele>12.0</ele><time>2026-04-06T12:55:54.23Z</time></trkpt><trkpt lat="43.00201892646918" lon="10.538671354423741"><ele>11.833333333333334</ele><time>2026-04-06T12:55:56.23Z</time></trkpt><trkpt lat="43.00210524898135" lon="10.538667393800525"><ele>11.666666666666666</ele><time>2026-04-06T12:56:11.23Z</time></trkpt><trkpt lat="43.002173223213134" lon="10.538688928188925"><ele>11.5</ele><time>2026-04-06T12:56:13.23Z</time></trkpt><trkpt lat="43.00225602468764" lon="10.538699331081663"><ele>11.333333333333332</ele><time>2026-04-06T12:56:15.23Z</time></trkpt><trkpt lat="43.002345098264854" lon="10.538700857237108"><ele>11.166666666666666</ele><time>2026-04-06T12:56:17.23Z</time></trkpt><trkpt lat="43.00244312337907" lon="10.538707557084866"><ele>11.0</ele><time>2026-04-06T12:56:19.23Z</time></trkpt><trkpt lat="43.002551140480136" lon="10.538718705207781"><ele>10.600000000000001</ele><time>2026-04-06T12:56:21.23Z</time></trkpt><trkpt lat="43.00265902501922" lon="10.53873614181899"><ele>10.200000000000001</ele><time>2026-04-06T12:56:23.23Z</time></trkpt><trkpt lat="43.00277148762035" lon="10.53874977907977"><ele>9.8</ele><time>2026-04-06T12:56:25.23Z</time></trkpt><trkpt lat="43.00287960245933" lon="10.538756854315881"><ele>9.4</ele><time>2026-04-06T12:56:27.23Z</time></trkpt><trkpt lat="43.00299133440586" lon="10.538770298893207"><ele>9.0</ele><time>2026-04-06T12:56:29.23Z</time></trkpt><trkpt lat="43.003101135281014" lon="10.538781270609594"><ele>9.0</ele><time>2026-04-06T12:56:31.23Z</time></trkpt><trkpt lat="43.00320723388152" lon="10.5387836477698"><ele>9.0</ele><time>2026-04-06T12:56:33.23Z</time></trkpt><trkpt lat="43.003314191912345" lon="10.538792929938962"><ele>9.0</ele><time>2026-04-06T12:56:35.23Z</time></trkpt><trkpt lat="43.00341716963499" lon="10.538801145473402"><ele>9.0</ele><time>2026-04-06T12:56:37.23Z</time></trkpt><trkpt lat="43.00352795407286" lon="10.538810094920303"><ele>9.0</ele><time>2026-04-06T12:56:39.23Z</time></trkpt><trkpt lat="43.003635284223805" lon="10.53882004675285"><ele>8.6</ele><time>2026-04-06T12:56:41.23Z</time></trkpt><trkpt lat="43.0037349137421" lon="10.538832422127943"><ele>8.2</ele><time>2026-04-06T12:56:43.23Z</time></trkpt><trkpt lat="43.00383879873147" lon="10.538837796064772"><ele>7.799999999999999</ele><time>2026-04-06T12:56:45.23Z</time></trkpt><trkpt lat="43.003942767756065" lon="10.53886091666454"><ele>7.3999999999999995</ele><time>2026-04-06T12:56:47.23Z</time></trkpt><trkpt lat="43.00404489852168" lon="10.538877120328648"><ele>7.0</ele><time>2026-04-06T12:56:49.23Z</time></trkpt><trkpt lat="43.00415203048813" lon="10.538880535999509"><ele>7.0</ele><time>2026-04-06T12:56:51.23Z</time></trkpt><trkpt lat="43.00425457688693" lon="10.538890329065893"><ele>6.999999999999999</ele><time>2026-04-06T12:56:53.23Z</time></trkpt><trkpt lat="43.00435644169792" lon="10.538906753721857"><ele>6.999999999999999</ele><time>2026-04-06T12:56:55.23Z</time></trkpt><trkpt lat="43.004467350733286" lon="10.538918141453122"><ele>7.0</ele><time>2026-04-06T12:56:57.23Z</time></trkpt><trkpt lat="43.00456572315474" lon="10.538934513150192"><ele>7.0</ele><time>2026-04-06T12:56:59.23Z</time></trkpt><trkpt lat="43.004667224370166" lon="10.538945409822231"><ele>7.0</ele><time>2026-04-06T12:57:01.23Z</time></trkpt><trkpt lat="43.004771049271326" lon="10.538957133546242"><ele>6.999999999999999</ele><time>2026-04-06T12:57:03.229Z</time></trkpt><trkpt lat="43.004867605912104" lon="10.538976536947978"><ele>6.999999999999999</ele><time>2026-04-06T12:57:05.229Z</time></trkpt><trkpt lat="43.00496432907998" lon="10.538985730864262"><ele>7.0</ele><time>2026-04-06T12:57:07.229Z</time></trkpt><trkpt lat="43.005063413590136" lon="10.53898950540868"><ele>7.0</ele><time>2026-04-06T12:57:09.229Z</time></trkpt><trkpt lat="43.005158491535596" lon="10.538996602530665"><ele>6.8</ele><time>2026-04-06T12:57:11.229Z</time></trkpt><trkpt lat="43.00525122890406" lon="10.539008612993465"><ele>6.6</ele><time>2026-04-06T12:57:13.229Z</time></trkpt><trkpt lat="43.00535534289158" lon="10.53900958143692"><ele>6.3999999999999995</ele><time>2026-04-06T12:57:15.229Z</time></trkpt><trkpt lat="43.00545463718453" lon="10.53903240188233"><ele>6.199999999999999</ele><time>2026-04-06T12:57:17.229Z</time></trkpt><trkpt lat="43.00555790668623" lon="10.539043546430749"><ele>6.0</ele><time>2026-04-06T12:57:19.229Z</time></trkpt><trkpt lat="43.005661434988106" lon="10.539051528035204"><ele>6.0</ele><time>2026-04-06T12:57:21.229Z</time></trkpt><trkpt lat="43.00576160439537" lon="10.539072346001111"><ele>6.0</ele><time>2026-04-06T12:57:23.229Z</time></trkpt><trkpt lat="43.005865175099366" lon="10.539101853866608"><ele>6.0</ele><time>2026-04-06T12:57:25.229Z</time></trkpt><trkpt lat="43.0059681616485" lon="10.539114004416717"><ele>6.0</ele><time>2026-04-06T12:57:27.229Z</time></trkpt><trkpt lat="43.006071951407804" lon="10.539105158521707"><ele>6.0</ele><time>2026-04-06T12:57:29.229Z</time></trkpt><trkpt lat="43.0061800839829" lon="10.53911654708117"><ele>6.0</ele><time>2026-04-06T12:57:31.229Z</time></trkpt><trkpt lat="43.00627033860759" lon="10.539132258668143"><ele>6.0</ele><time>2026-04-06T12:57:33.229Z</time></trkpt><trkpt lat="43.00638096493248" lon="10.539144773426074"><ele>6.0</ele><time>2026-04-06T12:57:35.229Z</time></trkpt><trkpt lat="43.00648353972581" lon="10.539172927951208"><ele>6.0</ele><time>2026-04-06T12:57:37.229Z</time></trkpt><trkpt lat="43.006585266424935" lon="10.539165430459853"><ele>6.0</ele><time>2026-04-06T12:57:39.229Z</time></trkpt><trkpt lat="43.00669229455732" lon="10.53917865100165"><ele>5.666666666666667</ele><time>2026-04-06T12:57:41.229Z</time></trkpt><trkpt lat="43.00678718326495" lon="10.539188369872159"><ele>5.333333333333333</ele><time>2026-04-06T12:57:43.229Z</time></trkpt><trkpt lat="43.006868648464256" lon="10.539215485041707"><ele>5.0</ele><time>2026-04-06T12:57:45.229Z</time></trkpt><trkpt lat="43.00694656429311" lon="10.539226255316361"><ele>4.666666666666666</ele><time>2026-04-06T12:57:47.229Z</time></trkpt><trkpt lat="43.007024739778174" lon="10.539237256188178"><ele>4.333333333333333</ele><time>2026-04-06T12:57:49.229Z</time></trkpt><trkpt lat="43.007097479695155" lon="10.539244652192336"><ele>4.0</ele><time>2026-04-06T12:57:51.229Z</time></trkpt><trkpt lat="43.0071801456915" lon="10.539241902859715"><ele>3.9999999999999996</ele><time>2026-04-06T12:57:54.229Z</time></trkpt><trkpt lat="43.007245141207996" lon="10.539226704262397"><ele>4.0</ele><time>2026-04-06T12:57:59.229Z</time></trkpt><trkpt lat="43.00731369168521" lon="10.53916957415745"><ele>4.0</ele><time>2026-04-06T12:58:01.229Z</time></trkpt><trkpt lat="43.00739301926704" lon="10.539129556710675"><ele>4.0</ele><time>2026-04-06T12:58:03.229Z</time></trkpt><trkpt lat="43.007480361638684" lon="10.539110567676811"><ele>3.9999999999999996</ele><time>2026-04-06T12:58:05.229Z</time></trkpt><trkpt lat="43.00756118031136" lon="10.539058902630444"><ele>4.0</ele><time>2026-04-06T12:58:07.229Z</time></trkpt><trkpt lat="43.00765109168742" lon="10.539038501170698"><ele>4.4</ele><time>2026-04-06T12:58:09.229Z</time></trkpt><trkpt lat="43.00773737863854" lon="10.5390057939186"><ele>4.800000000000001</ele><time>2026-04-06T12:58:11.229Z</time></trkpt><trkpt lat="43.007826575278386" lon="10.538969351604276"><ele>5.199999999999999</ele><time>2026-04-06T12:58:13.229Z</time></trkpt><trkpt lat="43.00791018759842" lon="10.538926154768419"><ele>5.6</ele><time>2026-04-06T12:58:15.229Z</time></trkpt><trkpt lat="43.0079980235537" lon="10.538884901173825"><ele>6.0</ele><time>2026-04-06T12:58:17.229Z</time></trkpt><trkpt lat="43.00809092238718" lon="10.538849085360598"><ele>6.0</ele><time>2026-04-06T12:58:19.229Z</time></trkpt><trkpt lat="43.008184360199586" lon="10.538819834190406"><ele>6.0</ele><time>2026-04-06T12:58:21.229Z</time></trkpt><trkpt lat="43.00827553068196" lon="10.538786161838763"><ele>6.0</ele><time>2026-04-06T12:58:23.229Z</time></trkpt><trkpt lat="43.008370288812266" lon="10.538756752550457"><ele>6.0</ele><time>2026-04-06T12:58:25.229Z</time></trkpt><trkpt lat="43.00846531905559" lon="10.538718111422558"><ele>6.0</ele><time>2026-04-06T12:58:27.229Z</time></trkpt><trkpt lat="43.008560651163165" lon="10.53866743583468"><ele>6.0</ele><time>2026-04-06T12:58:29.229Z</time></trkpt><trkpt lat="43.00865519641423" lon="10.53863064123295"><ele>6.0</ele><time>2026-04-06T12:58:31.229Z</time></trkpt><trkpt lat="43.008752370407734" lon="10.5385989181623"><ele>6.0</ele><time>2026-04-06T12:58:33.229Z</time></trkpt><trkpt lat="43.00883886299664" lon="10.538548971330812"><ele>6.0</ele><time>2026-04-06T12:58:35.229Z</time></trkpt><trkpt lat="43.008946617510645" lon="10.538511777182633"><ele>6.0</ele><time>2026-04-06T12:58:37.229Z</time></trkpt><trkpt lat="43.00905120810082" lon="10.538471202362814"><ele>6.0</ele><time>2026-04-06T12:58:39.229Z</time></trkpt><trkpt lat="43.00915309174523" lon="10.538435620005183"><ele>6.0</ele><time>2026-04-06T12:58:41.229Z</time></trkpt><trkpt lat="43.00925030381705" lon="10.53839461603611"><ele>6.0</ele><time>2026-04-06T12:58:43.229Z</time></trkpt><trkpt lat="43.00935393483153" lon="10.538365456119825"><ele>6.0</ele><time>2026-04-06T12:58:45.229Z</time></trkpt><trkpt lat="43.00945303407531" lon="10.538327801677907"><ele>6.0</ele><time>2026-04-06T12:58:47.229Z</time></trkpt><trkpt lat="43.00954969272199" lon="10.5382895508744"><ele>6.0</ele><time>2026-04-06T12:58:49.229Z</time></trkpt><trkpt lat="43.009648788490765" lon="10.53826092207377"><ele>6.0</ele><time>2026-04-06T12:58:51.229Z</time></trkpt><trkpt lat="43.009746175739714" lon="10.538226754346951"><ele>6.0</ele><time>2026-04-06T12:58:53.229Z</time></trkpt><trkpt lat="43.00984247833897" lon="10.538179894828662"><ele>6.0</ele><time>2026-04-06T12:58:55.229Z</time></trkpt><trkpt lat="43.00993442107791" lon="10.538124542742244"><ele>6.0</ele><time>2026-04-06T12:58:57.229Z</time></trkpt><trkpt lat="43.01003137577587" lon="10.538061495841308"><ele>6.0</ele><time>2026-04-06T12:58:59.229Z</time></trkpt><trkpt lat="43.0101186964733" lon="10.537985392384924"><ele>6.0</ele><time>2026-04-06T12:59:01.229Z</time></trkpt><trkpt lat="43.01021021790016" lon="10.53791841073945"><ele>6.0</ele><time>2026-04-06T12:59:03.229Z</time></trkpt><trkpt lat="43.01029720861787" lon="10.537849247828843"><ele>6.0</ele><time>2026-04-06T12:59:05.229Z</time></trkpt><trkpt lat="43.01039227716691" lon="10.537782408628242"><ele>6.0</ele><time>2026-04-06T12:59:07.229Z</time></trkpt><trkpt lat="43.01048887381446" lon="10.537708740452425"><ele>6.199999999999999</ele><time>2026-04-06T12:59:09.228Z</time></trkpt><trkpt lat="43.01058149283488" lon="10.537637814358169"><ele>6.3999999999999995</ele><time>2026-04-06T12:59:11.228Z</time></trkpt><trkpt lat="43.01067105898426" lon="10.537572429476187"><ele>6.6</ele><time>2026-04-06T12:59:13.228Z</time></trkpt><trkpt lat="43.010759161616" lon="10.537515340177231"><ele>6.8</ele><time>2026-04-06T12:59:15.228Z</time></trkpt><trkpt lat="43.0108432097935" lon="10.53744865249389"><ele>7.0</ele><time>2026-04-06T12:59:17.228Z</time></trkpt><trkpt lat="43.01093691833995" lon="10.537389738549312"><ele>7.0</ele><time>2026-04-06T12:59:19.228Z</time></trkpt><trkpt lat="43.01102912601" lon="10.537315565271987"><ele>6.999999999999999</ele><time>2026-04-06T12:59:21.228Z</time></trkpt><trkpt lat="43.011121942283864" lon="10.537256736180789"><ele>6.999999999999999</ele><time>2026-04-06T12:59:23.228Z</time></trkpt><trkpt lat="43.011224637865745" lon="10.537180704673561"><ele>7.0</ele><time>2026-04-06T12:59:25.228Z</time></trkpt><trkpt lat="43.011312400706146" lon="10.537104597293705"><ele>7.0</ele><time>2026-04-06T12:59:27.228Z</time></trkpt><trkpt lat="43.01140925194855" lon="10.537030757431632"><ele>6.8</ele><time>2026-04-06T12:59:29.228Z</time></trkpt><trkpt lat="43.01150093006876" lon="10.536952641720854"><ele>6.6</ele><time>2026-04-06T12:59:31.228Z</time></trkpt><trkpt lat="43.011597394250465" lon="10.536876111594147"><ele>6.3999999999999995</ele><time>2026-04-06T12:59:33.228Z</time></trkpt><trkpt lat="43.011692162901916" lon="10.53680905863041"><ele>6.199999999999999</ele><time>2026-04-06T12:59:35.228Z</time></trkpt><trkpt lat="43.01179254349757" lon="10.53676287526408"><ele>6.0</ele><time>2026-04-06T12:59:37.228Z</time></trkpt><trkpt lat="43.01187472405046" lon="10.536681663506894"><ele>6.4</ele><time>2026-04-06T12:59:39.228Z</time></trkpt><trkpt lat="43.01196918987955" lon="10.536622016662191"><ele>6.8</ele><time>2026-04-06T12:59:41.228Z</time></trkpt><trkpt lat="43.01205891027709" lon="10.536551705672839"><ele>7.200000000000001</ele><time>2026-04-06T12:59:43.228Z</time></trkpt><trkpt lat="43.0121512967669" lon="10.5364877507543"><ele>7.6000000000000005</ele><time>2026-04-06T12:59:45.228Z</time></trkpt><trkpt lat="43.0122396547859" lon="10.536425136952511"><ele>8.0</ele><time>2026-04-06T12:59:47.228Z</time></trkpt><trkpt lat="43.01233546056982" lon="10.536357910961215"><ele>8.0</ele><time>2026-04-06T12:59:49.228Z</time></trkpt><trkpt lat="43.012417863616676" lon="10.536290698888804"><ele>8.0</ele><time>2026-04-06T12:59:51.228Z</time></trkpt><trkpt lat="43.012514192746664" lon="10.536226891034412"><ele>8.0</ele><time>2026-04-06T12:59:53.228Z</time></trkpt><trkpt lat="43.012600173094576" lon="10.53615718075911"><ele>8.0</ele><time>2026-04-06T12:59:55.228Z</time></trkpt><trkpt lat="43.012691616624316" lon="10.536093693816492"><ele>8.0</ele><time>2026-04-06T12:59:57.228Z</time></trkpt><trkpt lat="43.012768063015926" lon="10.536030708008518"><ele>7.428571428571428</ele><time>2026-04-06T12:59:59.228Z</time></trkpt><trkpt lat="43.01283339690073" lon="10.535952200885824"><ele>6.857142857142856</ele><time>2026-04-06T13:00:01.228Z</time></trkpt><trkpt lat="43.01289304320622" lon="10.535905755257248"><ele>6.285714285714286</ele><time>2026-04-06T13:00:03.228Z</time></trkpt><trkpt lat="43.01295426947594" lon="10.535860994183693"><ele>5.7142857142857135</ele><time>2026-04-06T13:00:07.228Z</time></trkpt><trkpt lat="43.01301071849047" lon="10.535822507494972"><ele>5.142857142857142</ele><time>2026-04-06T13:00:11.228Z</time></trkpt><trkpt lat="43.013080185954735" lon="10.535788062560671"><ele>4.571428571428571</ele><time>2026-04-06T13:00:15.228Z</time></trkpt><trkpt lat="43.013140814699106" lon="10.535748606783544"><ele>4.0</ele><time>2026-04-06T13:00:18.228Z</time></trkpt><trkpt lat="43.01320680508534" lon="10.53569364811871"><ele>3.9999999999999996</ele><time>2026-04-06T13:00:21.228Z</time></trkpt><trkpt lat="43.01327770971973" lon="10.535625710337607"><ele>4.0</ele><time>2026-04-06T13:00:24.228Z</time></trkpt><trkpt lat="43.01333701199597" lon="10.535592622093896"><ele>4.0</ele><time>2026-04-06T13:00:26.228Z</time></trkpt><trkpt lat="43.0134130596839" lon="10.535545398539984"><ele>4.0</ele><time>2026-04-06T13:00:29.228Z</time></trkpt><trkpt lat="43.01347686854123" lon="10.535498336775174"><ele>3.9999999999999996</ele><time>2026-04-06T13:00:31.228Z</time></trkpt><trkpt lat="43.01353333638504" lon="10.535434418160378"><ele>4.0</ele><time>2026-04-06T13:00:33.228Z</time></trkpt><trkpt lat="43.01361145178508" lon="10.535392158085997"><ele>3.833333333333333</ele><time>2026-04-06T13:00:35.228Z</time></trkpt><trkpt lat="43.013691046724155" lon="10.53535534328713"><ele>3.6666666666666665</ele><time>2026-04-06T13:00:37.228Z</time></trkpt><trkpt lat="43.01376478983126" lon="10.53529187964007"><ele>3.5</ele><time>2026-04-06T13:00:39.228Z</time></trkpt><trkpt lat="43.01383758750545" lon="10.53522916087107"><ele>3.333333333333333</ele><time>2026-04-06T13:00:41.228Z</time></trkpt><trkpt lat="43.01391882385362" lon="10.53517268903489"><ele>3.1666666666666665</ele><time>2026-04-06T13:00:43.228Z</time></trkpt><trkpt lat="43.013987594481804" lon="10.535106942659556"><ele>3.0</ele><time>2026-04-06T13:00:45.228Z</time></trkpt><trkpt lat="43.014068865114574" lon="10.535056547598273"><ele>3.4</ele><time>2026-04-06T13:00:47.228Z</time></trkpt><trkpt lat="43.01415923689046" lon="10.53501191064509"><ele>3.8</ele><time>2026-04-06T13:00:49.228Z</time></trkpt><trkpt lat="43.014237862051935" lon="10.534946734768402"><ele>4.2</ele><time>2026-04-06T13:00:51.228Z</time></trkpt><trkpt lat="43.014312525063744" lon="10.53486760356646"><ele>4.6</ele><time>2026-04-06T13:00:53.228Z</time></trkpt><trkpt lat="43.01439107015656" lon="10.534818686292637"><ele>5.0</ele><time>2026-04-06T13:00:55.228Z</time></trkpt><trkpt lat="43.01446821211702" lon="10.534767975004888"><ele>5.0</ele><time>2026-04-06T13:00:57.228Z</time></trkpt><trkpt lat="43.01455442392062" lon="10.534711553022333"><ele>5.0</ele><time>2026-04-06T13:00:59.228Z</time></trkpt><trkpt lat="43.01463749047467" lon="10.534649022412104"><ele>5.0</ele><time>2026-04-06T13:01:01.228Z</time></trkpt><trkpt lat="43.014718282444" lon="10.534584315400872"><ele>5.0</ele><time>2026-04-06T13:01:03.228Z</time></trkpt><trkpt lat="43.01480538154891" lon="10.534521770997156"><ele>5.0</ele><time>2026-04-06T13:01:05.228Z</time></trkpt><trkpt lat="43.014888096127905" lon="10.534463167168479"><ele>4.8</ele><time>2026-04-06T13:01:07.228Z</time></trkpt><trkpt lat="43.01496842474558" lon="10.534402945543402"><ele>4.6</ele><time>2026-04-06T13:01:09.228Z</time></trkpt><trkpt lat="43.01504963962258" lon="10.534328447168487"><ele>4.4</ele><time>2026-04-06T13:01:11.228Z</time></trkpt><trkpt lat="43.01514355165796" lon="10.534285549954555"><ele>4.2</ele><time>2026-04-06T13:01:13.228Z</time></trkpt><trkpt lat="43.01523695163932" lon="10.534219684314962"><ele>4.0</ele><time>2026-04-06T13:01:15.227Z</time></trkpt><trkpt lat="43.01532476359588" lon="10.53415277460853"><ele>3.6</ele><time>2026-04-06T13:01:17.227Z</time></trkpt><trkpt lat="43.015411184783694" lon="10.534084135034322"><ele>3.2</ele><time>2026-04-06T13:01:19.227Z</time></trkpt><trkpt lat="43.01548578631654" lon="10.534003660408796"><ele>2.8000000000000003</ele><time>2026-04-06T13:01:21.227Z</time></trkpt><trkpt lat="43.01557196047358" lon="10.533937674900837"><ele>2.4000000000000004</ele><time>2026-04-06T13:01:23.227Z</time></trkpt><trkpt lat="43.01565669490199" lon="10.533879832128292"><ele>2.0</ele><time>2026-04-06T13:01:25.227Z</time></trkpt><trkpt lat="43.015750058371076" lon="10.533837248504556"><ele>2.0</ele><time>2026-04-06T13:01:27.227Z</time></trkpt><trkpt lat="43.01583099811604" lon="10.533784108775208"><ele>2.0</ele><time>2026-04-06T13:01:29.227Z</time></trkpt><trkpt lat="43.01591430772273" lon="10.533723707160739"><ele>2.0</ele><time>2026-04-06T13:01:31.227Z</time></trkpt><trkpt lat="43.01600085845006" lon="10.533652849171673"><ele>2.0</ele><time>2026-04-06T13:01:33.227Z</time></trkpt><trkpt lat="43.016070277633105" lon="10.533573595401947"><ele>2.0</ele><time>2026-04-06T13:01:35.227Z</time></trkpt><trkpt lat="43.016152418889256" lon="10.533502282237032"><ele>2.2</ele><time>2026-04-06T13:01:37.227Z</time></trkpt><trkpt lat="43.0162297625949" lon="10.533435671292493"><ele>2.4000000000000004</ele><time>2026-04-06T13:01:39.227Z</time></trkpt><trkpt lat="43.01632451598152" lon="10.533392737330265"><ele>2.5999999999999996</ele><time>2026-04-06T13:01:41.227Z</time></trkpt><trkpt lat="43.016401209608674" lon="10.53332129671095"><ele>2.8</ele><time>2026-04-06T13:01:43.227Z</time></trkpt><trkpt lat="43.0164886932627" lon="10.53328146352995"><ele>3.0</ele><time>2026-04-06T13:01:45.227Z</time></trkpt><trkpt lat="43.01656431116914" lon="10.533202443406383"><ele>3.0</ele><time>2026-04-06T13:01:47.227Z</time></trkpt><trkpt lat="43.01664941649191" lon="10.533142424222065"><ele>3.0</ele><time>2026-04-06T13:01:49.227Z</time></trkpt><trkpt lat="43.016726856647736" lon="10.533091004266492"><ele>3.0</ele><time>2026-04-06T13:01:51.227Z</time></trkpt><trkpt lat="43.01681659870866" lon="10.533042705326604"><ele>3.0</ele><time>2026-04-06T13:01:53.227Z</time></trkpt><trkpt lat="43.01689249469945" lon="10.532968253677518"><ele>3.0</ele><time>2026-04-06T13:01:55.227Z</time></trkpt><trkpt lat="43.016967573658974" lon="10.532919012586474"><ele>3.4</ele><time>2026-04-06T13:01:57.227Z</time></trkpt><trkpt lat="43.01705266961691" lon="10.532851494386932"><ele>3.8</ele><time>2026-04-06T13:01:59.227Z</time></trkpt><trkpt lat="43.017133524900565" lon="10.532789662029243"><ele>4.2</ele><time>2026-04-06T13:02:01.227Z</time></trkpt><trkpt lat="43.01720032688597" lon="10.532756943250785"><ele>4.6</ele><time>2026-04-06T13:02:03.227Z</time></trkpt><trkpt lat="43.01719469591449" lon="10.532546000757455"><ele>5.0</ele><time>2026-04-06T13:02:05.227Z</time></trkpt><trkpt lat="43.01717214373526" lon="10.532422365579091"><ele>5.0</ele><time>2026-04-06T13:02:07.227Z</time></trkpt><trkpt lat="43.01713754450371" lon="10.532293071629512"><ele>5.0</ele><time>2026-04-06T13:02:09.227Z</time></trkpt><trkpt lat="43.01712284804748" lon="10.53215938050275"><ele>5.0</ele><time>2026-04-06T13:02:11.227Z</time></trkpt><trkpt lat="43.01711689703105" lon="10.532028839037514"><ele>5.0</ele><time>2026-04-06T13:02:13.227Z</time></trkpt><trkpt lat="43.01709767957609" lon="10.53188851922858"><ele>5.0</ele><time>2026-04-06T13:02:15.227Z</time></trkpt><trkpt lat="43.01708437572387" lon="10.531761887418993"><ele>4.8</ele><time>2026-04-06T13:02:17.227Z</time></trkpt><trkpt lat="43.01708136132257" lon="10.531620824738301"><ele>4.6</ele><time>2026-04-06T13:02:19.227Z</time></trkpt><trkpt lat="43.01707254018149" lon="10.531486996633147"><ele>4.4</ele><time>2026-04-06T13:02:21.227Z</time></trkpt><trkpt lat="43.01706043281821" lon="10.53134928599896"><ele>4.2</ele><time>2026-04-06T13:02:23.227Z</time></trkpt><trkpt lat="43.017054240062535" lon="10.531212260494625"><ele>4.0</ele><time>2026-04-06T13:02:25.227Z</time></trkpt><trkpt lat="43.01703967641744" lon="10.531067567583065"><ele>4.0</ele><time>2026-04-06T13:02:27.227Z</time></trkpt><trkpt lat="43.017021545270175" lon="10.530931963616423"><ele>4.0</ele><time>2026-04-06T13:02:29.227Z</time></trkpt><trkpt lat="43.01701244161659" lon="10.530790105032406"><ele>4.0</ele><time>2026-04-06T13:02:31.227Z</time></trkpt><trkpt lat="43.016995041423506" lon="10.530657376824015"><ele>4.0</ele><time>2026-04-06T13:02:33.227Z</time></trkpt><trkpt lat="43.016979301548645" lon="10.530520457371768"><ele>4.0</ele><time>2026-04-06T13:02:35.227Z</time></trkpt><trkpt lat="43.016970811675776" lon="10.530387134293006"><ele>3.8000000000000003</ele><time>2026-04-06T13:02:37.227Z</time></trkpt><trkpt lat="43.016950675523574" lon="10.530249297456074"><ele>3.6000000000000005</ele><time>2026-04-06T13:02:39.227Z</time></trkpt><trkpt lat="43.016934026412876" lon="10.530108417486177"><ele>3.4</ele><time>2026-04-06T13:02:41.227Z</time></trkpt><trkpt lat="43.01693002225139" lon="10.529984097530297"><ele>3.2</ele><time>2026-04-06T13:02:43.227Z</time></trkpt><trkpt lat="43.01691421750009" lon="10.529896706667884"><ele>3.0</ele><time>2026-04-06T13:02:44.227Z</time></trkpt><trkpt lat="43.01690057419035" lon="10.529751926155944"><ele>3.0</ele><time>2026-04-06T13:02:46.227Z</time></trkpt><trkpt lat="43.016889428017556" lon="10.52959951054532"><ele>3.0</ele><time>2026-04-06T13:02:48.227Z</time></trkpt><trkpt lat="43.01687511280712" lon="10.529459761810585"><ele>3.0</ele><time>2026-04-06T13:02:50.227Z</time></trkpt><trkpt lat="43.016868730449644" lon="10.529312711412805"><ele>3.0</ele><time>2026-04-06T13:02:52.227Z</time></trkpt><trkpt lat="43.01685711947582" lon="10.529173303427134"><ele>3.0</ele><time>2026-04-06T13:02:54.227Z</time></trkpt><trkpt lat="43.016838837766" lon="10.529035139212588"><ele>3.0</ele><time>2026-04-06T13:02:56.227Z</time></trkpt><trkpt lat="43.01682606022496" lon="10.528891636745604"><ele>3.0</ele><time>2026-04-06T13:02:58.227Z</time></trkpt><trkpt lat="43.016813855684234" lon="10.528740880064777"><ele>3.0</ele><time>2026-04-06T13:03:00.227Z</time></trkpt><trkpt lat="43.01679616457438" lon="10.528610282348216"><ele>3.0</ele><time>2026-04-06T13:03:02.227Z</time></trkpt><trkpt lat="43.01678348718959" lon="10.52846797201745"><ele>3.0</ele><time>2026-04-06T13:03:04.227Z</time></trkpt><trkpt lat="43.0167745138043" lon="10.528330589093137"><ele>3.0</ele><time>2026-04-06T13:03:06.227Z</time></trkpt><trkpt lat="43.01676151338146" lon="10.528192132609737"><ele>3.0</ele><time>2026-04-06T13:03:08.227Z</time></trkpt><trkpt lat="43.016744962405284" lon="10.528060231754557"><ele>3.0</ele><time>2026-04-06T13:03:10.227Z</time></trkpt><trkpt lat="43.01673384589623" lon="10.527936033146345"><ele>3.0</ele><time>2026-04-06T13:03:12.227Z</time></trkpt><trkpt lat="43.01671743949926" lon="10.52781918928218"><ele>3.0</ele><time>2026-04-06T13:03:14.227Z</time></trkpt><trkpt lat="43.01670904099505" lon="10.527692845799168"><ele>3.0</ele><time>2026-04-06T13:03:16.227Z</time></trkpt><trkpt lat="43.016704731172844" lon="10.527570003908298"><ele>3.0</ele><time>2026-04-06T13:03:18.227Z</time></trkpt><trkpt lat="43.01668892536588" lon="10.527456349697575"><ele>3.0</ele><time>2026-04-06T13:03:20.227Z</time></trkpt><trkpt lat="43.0166829809788" lon="10.527337956718931"><ele>3.0</ele><time>2026-04-06T13:03:22.226Z</time></trkpt><trkpt lat="43.01667451196691" lon="10.527221037888305"><ele>3.0</ele><time>2026-04-06T13:03:24.226Z</time></trkpt><trkpt lat="43.016667975222184" lon="10.527103143485236"><ele>3.0</ele><time>2026-04-06T13:03:26.226Z</time></trkpt><trkpt lat="43.01665824330548" lon="10.5269825592996"><ele>2.6</ele><time>2026-04-06T13:03:28.226Z</time></trkpt><trkpt lat="43.01664657086087" lon="10.526861133358722"><ele>2.1999999999999997</ele><time>2026-04-06T13:03:30.226Z</time></trkpt><trkpt lat="43.01663577465606" lon="10.526737861740646"><ele>1.8</ele><time>2026-04-06T13:03:32.226Z</time></trkpt><trkpt lat="43.01662129355856" lon="10.52660927550785"><ele>1.4</ele><time>2026-04-06T13:03:34.226Z</time></trkpt><trkpt lat="43.016613326116676" lon="10.526488627764406"><ele>1.0</ele><time>2026-04-06T13:03:36.226Z</time></trkpt><trkpt lat="43.01660385528567" lon="10.526355517794387"><ele>1.0</ele><time>2026-04-06T13:03:38.226Z</time></trkpt><trkpt lat="43.01657425257079" lon="10.526230230831692"><ele>1.0</ele><time>2026-04-06T13:03:40.226Z</time></trkpt><trkpt lat="43.01656291043909" lon="10.526101097984375"><ele>1.0</ele><time>2026-04-06T13:03:42.226Z</time></trkpt><trkpt lat="43.01655661341306" lon="10.525966410806431"><ele>1.0</ele><time>2026-04-06T13:03:44.226Z</time></trkpt><trkpt lat="43.01654262409763" lon="10.52582931262881"><ele>1.0</ele><time>2026-04-06T13:03:46.226Z</time></trkpt><trkpt lat="43.01653851266973" lon="10.525693668820132"><ele>1.0</ele><time>2026-04-06T13:03:48.226Z</time></trkpt><trkpt lat="43.016526092134725" lon="10.52554849574899"><ele>1.0</ele><time>2026-04-06T13:03:50.226Z</time></trkpt><trkpt lat="43.016510980908066" lon="10.525402928346569"><ele>1.0</ele><time>2026-04-06T13:03:52.226Z</time></trkpt><trkpt lat="43.016487231848174" lon="10.525252644185024"><ele>1.0</ele><time>2026-04-06T13:03:54.226Z</time></trkpt><trkpt lat="43.01647281131823" lon="10.525105626444244"><ele>1.0</ele><time>2026-04-06T13:03:56.226Z</time></trkpt><trkpt lat="43.01646590129959" lon="10.524957824342325"><ele>1.0</ele><time>2026-04-06T13:03:58.226Z</time></trkpt><trkpt lat="43.016454105736294" lon="10.524813530668267"><ele>1.0</ele><time>2026-04-06T13:04:00.226Z</time></trkpt><trkpt lat="43.01643462813339" lon="10.52467793220089"><ele>1.0</ele><time>2026-04-06T13:04:02.226Z</time></trkpt><trkpt lat="43.0164227382317" lon="10.524539180397191"><ele>1.0</ele><time>2026-04-06T13:04:04.226Z</time></trkpt><trkpt lat="43.016407147501894" lon="10.524412290228762"><ele>1.0</ele><time>2026-04-06T13:04:06.226Z</time></trkpt><trkpt lat="43.01638894116876" lon="10.524265815964451"><ele>0.8</ele><time>2026-04-06T13:04:08.226Z</time></trkpt><trkpt lat="43.01637934458341" lon="10.524123332436249"><ele>0.6000000000000001</ele><time>2026-04-06T13:04:10.226Z</time></trkpt><trkpt lat="43.016363040906064" lon="10.523996527118836"><ele>0.4</ele><time>2026-04-06T13:04:12.226Z</time></trkpt><trkpt lat="43.016347264243585" lon="10.523861249986775"><ele>0.2</ele><time>2026-04-06T13:04:14.226Z</time></trkpt><trkpt lat="43.01633730839068" lon="10.52373464830179"><ele>0.0</ele><time>2026-04-06T13:04:16.226Z</time></trkpt><trkpt lat="43.01632607294967" lon="10.52361247006338"><ele>2.0</ele><time>2026-04-06T13:04:18.226Z</time></trkpt><trkpt lat="43.01631513795306" lon="10.523497163963757"><ele>2.0</ele><time>2026-04-06T13:04:20.226Z</time></trkpt><trkpt lat="43.016305724256995" lon="10.523395017602777"><ele>2.0</ele><time>2026-04-06T13:04:22.226Z</time></trkpt><trkpt lat="43.01630664156808" lon="10.523296136009842"><ele>2.0</ele><time>2026-04-06T13:04:24.226Z</time></trkpt><trkpt lat="43.01630072694769" lon="10.523207748917349"><ele>2.0</ele><time>2026-04-06T13:04:46.226Z</time></trkpt></trkseg></trk></gpx>